<?xml version='1.0' encoding='UTF-8'?><gpx version="1.1" creator="JPX - https://github.com/jenetics/jpx" xmlns="http://www.topografix.com/GPX/1/1"><trk><trkseg><trkpt lat="45.7876543" lon="8.8756325"><ele>353.0</ele><time>2026-04-18T11:38:13.294Z</time></trkpt><trkpt lat="45.7875467" lon="8.8756441"><ele>353.0</ele><time>2026-04-18T11:38:14.295Z</time></trkpt><trkpt lat="45.7874646" lon="8.875649"><ele>353.0</ele><time>2026-04-18T11:38:15.294Z</time></trkpt><trkpt lat="45.7873824" lon="8.8756674"><ele>353.0</ele><time>2026-04-18T11:38:16.295Z</time></trkpt><trkpt lat="45.7873119" lon="8.8756943"><ele>353.0</ele><time>2026-04-18T11:38:17.294Z</time></trkpt><trkpt lat="45.7872413" lon="8.8757197"><ele>353.0</ele><time>2026-04-18T11:38:18.294Z</time></trkpt><trkpt lat="45.7871712" lon="8.8757411"><ele>353.0</ele><time>2026-04-18T11:38:19.294Z</time></trkpt><trkpt lat="45.7870632" lon="8.8757441"><ele>353.0</ele><time>2026-04-18T11:38:21.295Z</time></trkpt><trkpt lat="45.7869881" lon="8.8756674"><ele>353.0</ele><time>2026-04-18T11:38:23.295Z</time></trkpt><trkpt lat="45.7869622" lon="8.8755568"><ele>353.0</ele><time>2026-04-18T11:38:24.294Z</time></trkpt><trkpt lat="45.7869458" lon="8.875427"><ele>353.0</ele><time>2026-04-18T11:38:25.294Z</time></trkpt><trkpt lat="45.7869293" lon="8.875288"><ele>353.0</ele><time>2026-04-18T11:38:26.294Z</time></trkpt><trkpt lat="45.7869042" lon="8.8751308"><ele>353.0</ele><time>2026-04-18T11:38:27.294Z</time></trkpt><trkpt lat="45.786883" lon="8.874964"><ele>353.0</ele><time>2026-04-18T11:38:28.294Z</time></trkpt><trkpt lat="45.7868566" lon="8.8747907"><ele>353.0</ele><time>2026-04-18T11:38:29.294Z</time></trkpt><trkpt lat="45.786832" lon="8.8746213"><ele>352.0</ele><time>2026-04-18T11:38:30.295Z</time></trkpt><trkpt lat="45.7868079" lon="8.8744686"><ele>351.0</ele><time>2026-04-18T11:38:31.294Z</time></trkpt><trkpt lat="45.7867894" lon="8.8743329"><ele>350.0</ele><time>2026-04-18T11:38:32.295Z</time></trkpt><trkpt lat="45.7867714" lon="8.8742282"><ele>349.0</ele><time>2026-04-18T11:38:33.295Z</time></trkpt><trkpt lat="45.7867437" lon="8.8741405"><ele>348.0</ele><time>2026-04-18T11:38:34.294Z</time></trkpt><trkpt lat="45.7867049" lon="8.8740614"><ele>347.0</ele><time>2026-04-18T11:38:35.295Z</time></trkpt><trkpt lat="45.7865987" lon="8.8739712"><ele>346.8</ele><time>2026-04-18T11:38:37.294Z</time></trkpt><trkpt lat="45.7865146" lon="8.8739992"><ele>346.6</ele><time>2026-04-18T11:38:38.295Z</time></trkpt><trkpt lat="45.7864237" lon="8.8740268"><ele>346.40000000000003</ele><time>2026-04-18T11:38:39.294Z</time></trkpt><trkpt lat="45.7863307" lon="8.8740722"><ele>346.20000000000005</ele><time>2026-04-18T11:38:40.294Z</time></trkpt><trkpt lat="45.7862377" lon="8.8741209"><ele>346.0</ele><time>2026-04-18T11:38:41.295Z</time></trkpt><trkpt lat="45.7861648" lon="8.874186"><ele>346.0</ele><time>2026-04-18T11:38:42.295Z</time></trkpt><trkpt lat="45.7861238" lon="8.8742706"><ele>346.0</ele><time>2026-04-18T11:38:43.294Z</time></trkpt><trkpt lat="45.7861182" lon="8.8743691"><ele>346.0</ele><time>2026-04-18T11:38:44.294Z</time></trkpt><trkpt lat="45.7861445" lon="8.874475"><ele>346.0</ele><time>2026-04-18T11:38:45.294Z</time></trkpt><trkpt lat="45.7861736" lon="8.8746104"><ele>346.0</ele><time>2026-04-18T11:38:46.294Z</time></trkpt><trkpt lat="45.7861981" lon="8.8747592"><ele>346.0</ele><time>2026-04-18T11:38:47.294Z</time></trkpt><trkpt lat="45.7862236" lon="8.8749163"><ele>346.25</ele><time>2026-04-18T11:38:48.295Z</time></trkpt><trkpt lat="45.7862481" lon="8.8750759"><ele>346.5</ele><time>2026-04-18T11:38:49.295Z</time></trkpt><trkpt lat="45.7862664" lon="8.8752418"><ele>346.75</ele><time>2026-04-18T11:38:50.294Z</time></trkpt><trkpt lat="45.7862954" lon="8.8754028"><ele>347.0</ele><time>2026-04-18T11:38:51.294Z</time></trkpt><trkpt lat="45.78632" lon="8.8755612"><ele>347.75</ele><time>2026-04-18T11:38:52.294Z</time></trkpt><trkpt lat="45.7863405" lon="8.8757213"><ele>348.5</ele><time>2026-04-18T11:38:53.294Z</time></trkpt><trkpt lat="45.7863603" lon="8.8758872"><ele>349.25</ele><time>2026-04-18T11:38:54.294Z</time></trkpt><trkpt lat="45.7863837" lon="8.8760536"><ele>350.0</ele><time>2026-04-18T11:38:55.294Z</time></trkpt><trkpt lat="45.7864082" lon="8.8762202"><ele>350.75</ele><time>2026-04-18T11:38:56.294Z</time></trkpt><trkpt lat="45.786436" lon="8.8763821"><ele>351.5</ele><time>2026-04-18T11:38:57.294Z</time></trkpt><trkpt lat="45.7864598" lon="8.8765405"><ele>352.25</ele><time>2026-04-18T11:38:58.294Z</time></trkpt><trkpt lat="45.7864844" lon="8.8767056"><ele>353.0</ele><time>2026-04-18T11:38:59.294Z</time></trkpt><trkpt lat="45.7865062" lon="8.8768763"><ele>353.0</ele><time>2026-04-18T11:39:00.295Z</time></trkpt><trkpt lat="45.7865289" lon="8.877049"><ele>353.0</ele><time>2026-04-18T11:39:01.294Z</time></trkpt><trkpt lat="45.7865529" lon="8.8772079"><ele>353.0</ele><time>2026-04-18T11:39:02.296Z</time></trkpt><trkpt lat="45.7865787" lon="8.8773577"><ele>353.0</ele><time>2026-04-18T11:39:03.295Z</time></trkpt><trkpt lat="45.7866115" lon="8.8774995"><ele>353.0</ele><time>2026-04-18T11:39:04.294Z</time></trkpt><trkpt lat="45.7866352" lon="8.8776113"><ele>352.6666666666667</ele><time>2026-04-18T11:39:05.294Z</time></trkpt><trkpt lat="45.7866506" lon="8.8777392"><ele>352.33333333333337</ele><time>2026-04-18T11:39:06.294Z</time></trkpt><trkpt lat="45.7866648" lon="8.8778601"><ele>352.0</ele><time>2026-04-18T11:39:07.294Z</time></trkpt><trkpt lat="45.7866807" lon="8.8779776"><ele>351.6666666666667</ele><time>2026-04-18T11:39:08.294Z</time></trkpt><trkpt lat="45.7866958" lon="8.8780997"><ele>351.3333333333333</ele><time>2026-04-18T11:39:09.295Z</time></trkpt><trkpt lat="45.7867206" lon="8.8782383"><ele>351.0</ele><time>2026-04-18T11:39:10.295Z</time></trkpt><trkpt lat="45.786738" lon="8.8783944"><ele>351.6</ele><time>2026-04-18T11:39:11.294Z</time></trkpt><trkpt lat="45.7867556" lon="8.8785383"><ele>352.20000000000005</ele><time>2026-04-18T11:39:12.294Z</time></trkpt><trkpt lat="45.7867757" lon="8.878683"><ele>352.79999999999995</ele><time>2026-04-18T11:39:13.295Z</time></trkpt><trkpt lat="45.7867961" lon="8.8788347"><ele>353.4</ele><time>2026-04-18T11:39:14.295Z</time></trkpt><trkpt lat="45.7868169" lon="8.8789967"><ele>354.0</ele><time>2026-04-18T11:39:15.294Z</time></trkpt><trkpt lat="45.7868467" lon="8.8791698"><ele>354.75</ele><time>2026-04-18T11:39:16.294Z</time></trkpt><trkpt lat="45.7868788" lon="8.8793503"><ele>355.5</ele><time>2026-04-18T11:39:17.295Z</time></trkpt><trkpt lat="45.7869124" lon="8.8795422"><ele>356.25</ele><time>2026-04-18T11:39:18.294Z</time></trkpt><trkpt lat="45.7869447" lon="8.8797362"><ele>357.0</ele><time>2026-04-18T11:39:19.295Z</time></trkpt><trkpt lat="45.7869776" lon="8.8799263"><ele>356.25</ele><time>2026-04-18T11:39:20.295Z</time></trkpt><trkpt lat="45.7870071" lon="8.8801068"><ele>355.5</ele><time>2026-04-18T11:39:21.294Z</time></trkpt><trkpt lat="45.7870373" lon="8.8802761"><ele>354.75</ele><time>2026-04-18T11:39:22.294Z</time></trkpt><trkpt lat="45.7870704" lon="8.8804472"><ele>354.0</ele><time>2026-04-18T11:39:23.293Z</time></trkpt><trkpt lat="45.7871095" lon="8.8806221"><ele>354.0</ele><time>2026-04-18T11:39:24.293Z</time></trkpt><trkpt lat="45.7871532" lon="8.880797"><ele>354.0</ele><time>2026-04-18T11:39:25.293Z</time></trkpt><trkpt lat="45.7871979" lon="8.880963"><ele>354.0</ele><time>2026-04-18T11:39:26.293Z</time></trkpt><trkpt lat="45.7872412" lon="8.8811241"><ele>354.0</ele><time>2026-04-18T11:39:27.294Z</time></trkpt><trkpt lat="45.7872811" lon="8.8812769"><ele>354.0</ele><time>2026-04-18T11:39:28.293Z</time></trkpt><trkpt lat="45.7873151" lon="8.881427"><ele>354.0</ele><time>2026-04-18T11:39:29.293Z</time></trkpt><trkpt lat="45.787344" lon="8.8815795"><ele>354.0</ele><time>2026-04-18T11:39:30.293Z</time></trkpt><trkpt lat="45.7873682" lon="8.8817254"><ele>354.0</ele><time>2026-04-18T11:39:31.294Z</time></trkpt><trkpt lat="45.7873882" lon="8.8818611"><ele>354.0</ele><time>2026-04-18T11:39:32.293Z</time></trkpt><trkpt lat="45.7874195" lon="8.881983"><ele>354.0</ele><time>2026-04-18T11:39:33.293Z</time></trkpt><trkpt lat="45.7874625" lon="8.8821112"><ele>354.0</ele><time>2026-04-18T11:39:34.293Z</time></trkpt><trkpt lat="45.7875114" lon="8.8822502"><ele>354.0</ele><time>2026-04-18T11:39:35.293Z</time></trkpt><trkpt lat="45.7875539" lon="8.8823966"><ele>354.0</ele><time>2026-04-18T11:39:36.294Z</time></trkpt><trkpt lat="45.7875937" lon="8.8825364"><ele>354.0</ele><time>2026-04-18T11:39:37.293Z</time></trkpt><trkpt lat="45.7876311" lon="8.8826768"><ele>354.0</ele><time>2026-04-18T11:39:38.293Z</time></trkpt><trkpt lat="45.7876711" lon="8.8828177"><ele>354.0</ele><time>2026-04-18T11:39:39.294Z</time></trkpt><trkpt lat="45.787712" lon="8.8829627"><ele>354.0</ele><time>2026-04-18T11:39:40.294Z</time></trkpt><trkpt lat="45.7877515" lon="8.8831149"><ele>354.0</ele><time>2026-04-18T11:39:41.294Z</time></trkpt><trkpt lat="45.7877919" lon="8.8832697"><ele>354.0</ele><time>2026-04-18T11:39:42.293Z</time></trkpt><trkpt lat="45.7878334" lon="8.8834277"><ele>354.0</ele><time>2026-04-18T11:39:43.293Z</time></trkpt><trkpt lat="45.7878702" lon="8.8835813"><ele>354.0</ele><time>2026-04-18T11:39:44.293Z</time></trkpt><trkpt lat="45.7879041" lon="8.8837241"><ele>354.0</ele><time>2026-04-18T11:39:45.293Z</time></trkpt><trkpt lat="45.787928" lon="8.8838616"><ele>354.0</ele><time>2026-04-18T11:39:46.294Z</time></trkpt><trkpt lat="45.7879425" lon="8.8839908"><ele>354.0</ele><time>2026-04-18T11:39:47.293Z</time></trkpt><trkpt lat="45.7879417" lon="8.8840868"><ele>354.0</ele><time>2026-04-18T11:39:48.294Z</time></trkpt><trkpt lat="45.7879335" lon="8.8841956"><ele>354.0</ele><time>2026-04-18T11:39:49.293Z</time></trkpt><trkpt lat="45.7879183" lon="8.8843321"><ele>354.0</ele><time>2026-04-18T11:39:50.293Z</time></trkpt><trkpt lat="45.7879055" lon="8.8844762"><ele>354.0</ele><time>2026-04-18T11:39:51.293Z</time></trkpt><trkpt lat="45.787921" lon="8.8846087"><ele>354.0</ele><time>2026-04-18T11:39:52.294Z</time></trkpt><trkpt lat="45.7879683" lon="8.8847133"><ele>354.0</ele><time>2026-04-18T11:39:53.293Z</time></trkpt><trkpt lat="45.7880377" lon="8.8848031"><ele>354.0</ele><time>2026-04-18T11:39:54.294Z</time></trkpt><trkpt lat="45.7881199" lon="8.8848931"><ele>354.0</ele><time>2026-04-18T11:39:55.293Z</time></trkpt><trkpt lat="45.7881872" lon="8.885015"><ele>354.0</ele><time>2026-04-18T11:39:56.293Z</time></trkpt><trkpt lat="45.7882344" lon="8.8851462"><ele>354.0</ele><time>2026-04-18T11:39:57.293Z</time></trkpt><trkpt lat="45.7882741" lon="8.8852803"><ele>354.0</ele><time>2026-04-18T11:39:58.294Z</time></trkpt><trkpt lat="45.7883084" lon="8.885425"><ele>354.0</ele><time>2026-04-18T11:39:59.293Z</time></trkpt><trkpt lat="45.7883462" lon="8.8855828"><ele>354.0</ele><time>2026-04-18T11:40:00.294Z</time></trkpt><trkpt lat="45.7883802" lon="8.8857431"><ele>354.0</ele><time>2026-04-18T11:40:01.293Z</time></trkpt><trkpt lat="45.7884153" lon="8.8858949"><ele>354.0</ele><time>2026-04-18T11:40:02.294Z</time></trkpt><trkpt lat="45.7884561" lon="8.8860493"><ele>354.0</ele><time>2026-04-18T11:40:03.293Z</time></trkpt><trkpt lat="45.7884964" lon="8.8862135"><ele>354.0</ele><time>2026-04-18T11:40:04.294Z</time></trkpt><trkpt lat="45.7885371" lon="8.886385"><ele>354.0</ele><time>2026-04-18T11:40:05.294Z</time></trkpt><trkpt lat="45.7885795" lon="8.8865683"><ele>354.0</ele><time>2026-04-18T11:40:06.294Z</time></trkpt><trkpt lat="45.7886259" lon="8.8867614"><ele>354.0</ele><time>2026-04-18T11:40:07.294Z</time></trkpt><trkpt lat="45.7886764" lon="8.886965"><ele>354.0</ele><time>2026-04-18T11:40:08.293Z</time></trkpt><trkpt lat="45.7887298" lon="8.8871786"><ele>354.0</ele><time>2026-04-18T11:40:09.293Z</time></trkpt><trkpt lat="45.7887817" lon="8.8873819"><ele>354.0</ele><time>2026-04-18T11:40:10.294Z</time></trkpt><trkpt lat="45.7888364" lon="8.8875935"><ele>354.0</ele><time>2026-04-18T11:40:11.294Z</time></trkpt><trkpt lat="45.7888949" lon="8.8878088"><ele>354.0</ele><time>2026-04-18T11:40:12.294Z</time></trkpt><trkpt lat="45.7889553" lon="8.8880136"><ele>354.0</ele><time>2026-04-18T11:40:13.294Z</time></trkpt><trkpt lat="45.7890224" lon="8.8882276"><ele>354.0</ele><time>2026-04-18T11:40:14.293Z</time></trkpt><trkpt lat="45.7890874" lon="8.8884429"><ele>354.0</ele><time>2026-04-18T11:40:15.293Z</time></trkpt><trkpt lat="45.7891504" lon="8.8886448"><ele>354.0</ele><time>2026-04-18T11:40:16.293Z</time></trkpt><trkpt lat="45.7892076" lon="8.8888331"><ele>354.0</ele><time>2026-04-18T11:40:17.294Z</time></trkpt><trkpt lat="45.7892615" lon="8.8890052"><ele>354.0</ele><time>2026-04-18T11:40:18.293Z</time></trkpt><trkpt lat="45.7893088" lon="8.8891613"><ele>354.2</ele><time>2026-04-18T11:40:19.293Z</time></trkpt><trkpt lat="45.7893544" lon="8.8893027"><ele>354.4</ele><time>2026-04-18T11:40:20.293Z</time></trkpt><trkpt lat="45.7893958" lon="8.8894413"><ele>354.6</ele><time>2026-04-18T11:40:21.293Z</time></trkpt><trkpt lat="45.7894429" lon="8.8895789"><ele>354.8</ele><time>2026-04-18T11:40:22.293Z</time></trkpt><trkpt lat="45.789488" lon="8.889718"><ele>355.0</ele><time>2026-04-18T11:40:23.293Z</time></trkpt><trkpt lat="45.7895361" lon="8.8898518"><ele>355.0</ele><time>2026-04-18T11:40:24.293Z</time></trkpt><trkpt lat="45.7895763" lon="8.889971"><ele>355.0</ele><time>2026-04-18T11:40:25.294Z</time></trkpt><trkpt lat="45.7896167" lon="8.8900843"><ele>355.0</ele><time>2026-04-18T11:40:26.294Z</time></trkpt><trkpt lat="45.7896625" lon="8.8901949"><ele>355.0</ele><time>2026-04-18T11:40:27.293Z</time></trkpt><trkpt lat="45.7897109" lon="8.8902954"><ele>355.0</ele><time>2026-04-18T11:40:28.294Z</time></trkpt><trkpt lat="45.7897528" lon="8.8903889"><ele>355.0</ele><time>2026-04-18T11:40:29.293Z</time></trkpt><trkpt lat="45.7897942" lon="8.890457"><ele>355.2</ele><time>2026-04-18T11:40:30.294Z</time></trkpt><trkpt lat="45.7898489" lon="8.8905458"><ele>355.4</ele><time>2026-04-18T11:40:32.294Z</time></trkpt><trkpt lat="45.789895" lon="8.8906869"><ele>355.6</ele><time>2026-04-18T11:40:35.293Z</time></trkpt><trkpt lat="45.7899132" lon="8.8908471"><ele>355.8</ele><time>2026-04-18T11:40:37.293Z</time></trkpt><trkpt lat="45.7900012" lon="8.8909518"><ele>356.0</ele><time>2026-04-18T11:40:39.294Z</time></trkpt><trkpt lat="45.79012" lon="8.8909203"><ele>356.0</ele><time>2026-04-18T11:40:41.294Z</time></trkpt><trkpt lat="45.7902092" lon="8.8907816"><ele>356.0</ele><time>2026-04-18T11:40:43.294Z</time></trkpt><trkpt lat="45.7902648" lon="8.8907074"><ele>356.0</ele><time>2026-04-18T11:40:44.294Z</time></trkpt><trkpt lat="45.790326" lon="8.890626"><ele>356.0</ele><time>2026-04-18T11:40:45.293Z</time></trkpt><trkpt lat="45.7903939" lon="8.8905439"><ele>356.0</ele><time>2026-04-18T11:40:46.293Z</time></trkpt><trkpt lat="45.7904635" lon="8.8904626"><ele>356.0</ele><time>2026-04-18T11:40:47.293Z</time></trkpt><trkpt lat="45.7905347" lon="8.8903803"><ele>356.0</ele><time>2026-04-18T11:40:48.294Z</time></trkpt><trkpt lat="45.790611" lon="8.8903022"><ele>356.0</ele><time>2026-04-18T11:40:49.293Z</time></trkpt><trkpt lat="45.7906889" lon="8.8902124"><ele>356.0</ele><time>2026-04-18T11:40:50.294Z</time></trkpt><trkpt lat="45.7907729" lon="8.8901184"><ele>356.0</ele><time>2026-04-18T11:40:51.293Z</time></trkpt><trkpt lat="45.7908593" lon="8.8900229"><ele>356.20000000000005</ele><time>2026-04-18T11:40:52.293Z</time></trkpt><trkpt lat="45.7909496" lon="8.8899252"><ele>356.40000000000003</ele><time>2026-04-18T11:40:53.293Z</time></trkpt><trkpt lat="45.7910401" lon="8.8898224"><ele>356.6</ele><time>2026-04-18T11:40:54.293Z</time></trkpt><trkpt lat="45.7911311" lon="8.8897203"><ele>356.8</ele><time>2026-04-18T11:40:55.293Z</time></trkpt><trkpt lat="45.7912138" lon="8.8896299"><ele>357.0</ele><time>2026-04-18T11:40:56.293Z</time></trkpt><trkpt lat="45.7912908" lon="8.8895433"><ele>357.1666666666667</ele><time>2026-04-18T11:40:57.293Z</time></trkpt><trkpt lat="45.7913613" lon="8.8894703"><ele>357.3333333333333</ele><time>2026-04-18T11:40:58.293Z</time></trkpt><trkpt lat="45.7914246" lon="8.8894042"><ele>357.5</ele><time>2026-04-18T11:40:59.293Z</time></trkpt><trkpt lat="45.7915095" lon="8.8893304"><ele>357.66666666666663</ele><time>2026-04-18T11:41:01.294Z</time></trkpt><trkpt lat="45.7916131" lon="8.8893449"><ele>357.8333333333333</ele><time>2026-04-18T11:41:03.293Z</time></trkpt><trkpt lat="45.7916508" lon="8.8894241"><ele>358.0</ele><time>2026-04-18T11:41:04.293Z</time></trkpt><trkpt lat="45.7916705" lon="8.8895297"><ele>358.0</ele><time>2026-04-18T11:41:05.294Z</time></trkpt><trkpt lat="45.7916876" lon="8.8896584"><ele>358.0</ele><time>2026-04-18T11:41:06.293Z</time></trkpt><trkpt lat="45.7917045" lon="8.8898"><ele>358.0</ele><time>2026-04-18T11:41:07.293Z</time></trkpt><trkpt lat="45.7917161" lon="8.8899608"><ele>358.0</ele><time>2026-04-18T11:41:08.293Z</time></trkpt><trkpt lat="45.7917119" lon="8.8901253"><ele>358.0</ele><time>2026-04-18T11:41:09.294Z</time></trkpt><trkpt lat="45.7916949" lon="8.8902602"><ele>358.0</ele><time>2026-04-18T11:41:10.294Z</time></trkpt><trkpt lat="45.7916881" lon="8.8903577"><ele>358.0</ele><time>2026-04-18T11:41:11.294Z</time></trkpt><trkpt lat="45.7917743" lon="8.8904533"><ele>358.0</ele><time>2026-04-18T11:41:13.294Z</time></trkpt><trkpt lat="45.7918953" lon="8.8903648"><ele>358.0</ele><time>2026-04-18T11:41:15.293Z</time></trkpt><trkpt lat="45.7919706" lon="8.8902648"><ele>358.0</ele><time>2026-04-18T11:41:16.293Z</time></trkpt><trkpt lat="45.7920502" lon="8.8901502"><ele>358.25</ele><time>2026-04-18T11:41:17.293Z</time></trkpt><trkpt lat="45.7921461" lon="8.8900431"><ele>358.5</ele><time>2026-04-18T11:41:18.293Z</time></trkpt><trkpt lat="45.7922519" lon="8.8899425"><ele>358.75</ele><time>2026-04-18T11:41:19.294Z</time></trkpt><trkpt lat="45.7923751" lon="8.8898602"><ele>359.0</ele><time>2026-04-18T11:41:20.294Z</time></trkpt><trkpt lat="45.7925045" lon="8.8897836"><ele>359.0</ele><time>2026-04-18T11:41:21.294Z</time></trkpt><trkpt lat="45.7926305" lon="8.8897191"><ele>359.0</ele><time>2026-04-18T11:41:22.293Z</time></trkpt><trkpt lat="45.7927423" lon="8.8896578"><ele>359.0</ele><time>2026-04-18T11:41:23.294Z</time></trkpt><trkpt lat="45.7928383" lon="8.8896024"><ele>359.0</ele><time>2026-04-18T11:41:24.294Z</time></trkpt><trkpt lat="45.7929219" lon="8.889546"><ele>359.0</ele><time>2026-04-18T11:41:25.293Z</time></trkpt><trkpt lat="45.7929995" lon="8.8894915"><ele>359.2</ele><time>2026-04-18T11:41:26.294Z</time></trkpt><trkpt lat="45.7930845" lon="8.8894284"><ele>359.4</ele><time>2026-04-18T11:41:27.293Z</time></trkpt><trkpt lat="45.7931814" lon="8.8893557"><ele>359.6</ele><time>2026-04-18T11:41:28.293Z</time></trkpt><trkpt lat="45.7932851" lon="8.8892781"><ele>359.8</ele><time>2026-04-18T11:41:29.293Z</time></trkpt><trkpt lat="45.793398" lon="8.8891969"><ele>360.0</ele><time>2026-04-18T11:41:30.293Z</time></trkpt><trkpt lat="45.7935187" lon="8.8891137"><ele>360.5</ele><time>2026-04-18T11:41:31.294Z</time></trkpt><trkpt lat="45.7936468" lon="8.8890364"><ele>361.0</ele><time>2026-04-18T11:41:32.293Z</time></trkpt><trkpt lat="45.7937783" lon="8.8889563"><ele>361.5</ele><time>2026-04-18T11:41:33.293Z</time></trkpt><trkpt lat="45.7938962" lon="8.8888846"><ele>362.0</ele><time>2026-04-18T11:41:34.294Z</time></trkpt><trkpt lat="45.7939985" lon="8.8888322"><ele>362.0</ele><time>2026-04-18T11:41:35.294Z</time></trkpt><trkpt lat="45.7940858" lon="8.8887997"><ele>362.0</ele><time>2026-04-18T11:41:36.293Z</time></trkpt><trkpt lat="45.7941566" lon="8.8888066"><ele>362.0</ele><time>2026-04-18T11:41:37.293Z</time></trkpt><trkpt lat="45.794239" lon="8.888939"><ele>362.0</ele><time>2026-04-18T11:41:39.293Z</time></trkpt><trkpt lat="45.7942716" lon="8.8890575"><ele>362.0</ele><time>2026-04-18T11:41:40.293Z</time></trkpt><trkpt lat="45.7943078" lon="8.8892005"><ele>363.0</ele><time>2026-04-18T11:41:41.293Z</time></trkpt><trkpt lat="45.7943415" lon="8.8893635"><ele>364.0</ele><time>2026-04-18T11:41:42.293Z</time></trkpt><trkpt lat="45.7943764" lon="8.8895431"><ele>365.0</ele><time>2026-04-18T11:41:43.293Z</time></trkpt><trkpt lat="45.7944094" lon="8.8897312"><ele>366.0</ele><time>2026-04-18T11:41:44.293Z</time></trkpt><trkpt lat="45.7944435" lon="8.8899245"><ele>367.8</ele><time>2026-04-18T11:41:45.294Z</time></trkpt><trkpt lat="45.7944691" lon="8.8900979"><ele>369.6</ele><time>2026-04-18T11:41:46.293Z</time></trkpt><trkpt lat="45.7944855" lon="8.8902488"><ele>371.4</ele><time>2026-04-18T11:41:47.293Z</time></trkpt><trkpt lat="45.7944897" lon="8.8903805"><ele>373.2</ele><time>2026-04-18T11:41:48.294Z</time></trkpt><trkpt lat="45.7944994" lon="8.8904844"><ele>375.0</ele><time>2026-04-18T11:41:49.293Z</time></trkpt><trkpt lat="45.7945273" lon="8.8905661"><ele>375.0</ele><time>2026-04-18T11:41:50.294Z</time></trkpt><trkpt lat="45.7946374" lon="8.8906356"><ele>375.0</ele><time>2026-04-18T11:41:52.294Z</time></trkpt><trkpt lat="45.7947243" lon="8.8906068"><ele>375.0</ele><time>2026-04-18T11:41:53.293Z</time></trkpt><trkpt lat="45.7948265" lon="8.8905644"><ele>375.0</ele><time>2026-04-18T11:41:54.294Z</time></trkpt><trkpt lat="45.7949352" lon="8.8905019"><ele>375.0</ele><time>2026-04-18T11:41:55.293Z</time></trkpt><trkpt lat="45.7950584" lon="8.8904376"><ele>375.75</ele><time>2026-04-18T11:41:56.293Z</time></trkpt><trkpt lat="45.7951776" lon="8.8903606"><ele>376.5</ele><time>2026-04-18T11:41:57.293Z</time></trkpt><trkpt lat="45.7952877" lon="8.8902964"><ele>377.25</ele><time>2026-04-18T11:41:58.294Z</time></trkpt><trkpt lat="45.7953808" lon="8.8902144"><ele>378.0</ele><time>2026-04-18T11:41:59.293Z</time></trkpt><trkpt lat="45.7954623" lon="8.8900985"><ele>376.75</ele><time>2026-04-18T11:42:00.293Z</time></trkpt><trkpt lat="45.7955478" lon="8.8899694"><ele>375.5</ele><time>2026-04-18T11:42:01.293Z</time></trkpt><trkpt lat="45.7956428" lon="8.8898444"><ele>374.25</ele><time>2026-04-18T11:42:02.293Z</time></trkpt><trkpt lat="45.7957438" lon="8.8897315"><ele>373.0</ele><time>2026-04-18T11:42:03.293Z</time></trkpt><trkpt lat="45.7958409" lon="8.8896374"><ele>373.0</ele><time>2026-04-18T11:42:04.293Z</time></trkpt><trkpt lat="45.7959383" lon="8.8895506"><ele>373.0</ele><time>2026-04-18T11:42:05.294Z</time></trkpt><trkpt lat="45.7960427" lon="8.8894712"><ele>373.0</ele><time>2026-04-18T11:42:06.293Z</time></trkpt><trkpt lat="45.7961611" lon="8.8894074"><ele>373.0</ele><time>2026-04-18T11:42:07.293Z</time></trkpt><trkpt lat="45.7962921" lon="8.8893586"><ele>372.3333333333333</ele><time>2026-04-18T11:42:08.294Z</time></trkpt><trkpt lat="45.796434" lon="8.8893132"><ele>371.6666666666667</ele><time>2026-04-18T11:42:09.294Z</time></trkpt><trkpt lat="45.7965807" lon="8.8892779"><ele>371.0</ele><time>2026-04-18T11:42:10.295Z</time></trkpt><trkpt lat="45.7967349" lon="8.8892419"><ele>373.0</ele><time>2026-04-18T11:42:11.294Z</time></trkpt><trkpt lat="45.7968931" lon="8.8892119"><ele>375.0</ele><time>2026-04-18T11:42:12.293Z</time></trkpt><trkpt lat="45.797051" lon="8.8891792"><ele>377.0</ele><time>2026-04-18T11:42:13.293Z</time></trkpt><trkpt lat="45.7972099" lon="8.8891492"><ele>377.0</ele><time>2026-04-18T11:42:14.293Z</time></trkpt><trkpt lat="45.7973693" lon="8.8891184"><ele>377.0</ele><time>2026-04-18T11:42:15.293Z</time></trkpt><trkpt lat="45.7975309" lon="8.8890837"><ele>377.0</ele><time>2026-04-18T11:42:16.293Z</time></trkpt><trkpt lat="45.7976888" lon="8.8890541"><ele>377.0</ele><time>2026-04-18T11:42:17.293Z</time></trkpt><trkpt lat="45.7978378" lon="8.8890224"><ele>377.0</ele><time>2026-04-18T11:42:18.294Z</time></trkpt><trkpt lat="45.7979742" lon="8.8889855"><ele>377.0</ele><time>2026-04-18T11:42:19.294Z</time></trkpt><trkpt lat="45.7980891" lon="8.8889535"><ele>377.0</ele><time>2026-04-18T11:42:20.293Z</time></trkpt><trkpt lat="45.7981973" lon="8.8889256"><ele>377.0</ele><time>2026-04-18T11:42:21.294Z</time></trkpt><trkpt lat="45.7983007" lon="8.8889003"><ele>377.0</ele><time>2026-04-18T11:42:22.293Z</time></trkpt><trkpt lat="45.7984021" lon="8.8888722"><ele>377.0</ele><time>2026-04-18T11:42:23.293Z</time></trkpt><trkpt lat="45.7984954" lon="8.8888472"><ele>377.0</ele><time>2026-04-18T11:42:24.292Z</time></trkpt><trkpt lat="45.79857" lon="8.8888119"><ele>377.0</ele><time>2026-04-18T11:42:25.292Z</time></trkpt><trkpt lat="45.7986244" lon="8.8887272"><ele>376.75</ele><time>2026-04-18T11:42:26.293Z</time></trkpt><trkpt lat="45.7986823" lon="8.888606"><ele>376.5</ele><time>2026-04-18T11:42:27.292Z</time></trkpt><trkpt lat="45.7987416" lon="8.8884659"><ele>376.25</ele><time>2026-04-18T11:42:28.292Z</time></trkpt><trkpt lat="45.7988044" lon="8.8883151"><ele>376.0</ele><time>2026-04-18T11:42:29.292Z</time></trkpt><trkpt lat="45.7988655" lon="8.8881686"><ele>375.5</ele><time>2026-04-18T11:42:30.292Z</time></trkpt><trkpt lat="45.7989163" lon="8.8880322"><ele>375.0</ele><time>2026-04-18T11:42:31.293Z</time></trkpt><trkpt lat="45.7989603" lon="8.8879123"><ele>374.5</ele><time>2026-04-18T11:42:32.293Z</time></trkpt><trkpt lat="45.7989967" lon="8.8878131"><ele>374.0</ele><time>2026-04-18T11:42:33.292Z</time></trkpt><trkpt lat="45.7990327" lon="8.8877233"><ele>373.5</ele><time>2026-04-18T11:42:34.292Z</time></trkpt><trkpt lat="45.7990697" lon="8.8876327"><ele>373.0</ele><time>2026-04-18T11:42:35.292Z</time></trkpt><trkpt lat="45.7991089" lon="8.8875284"><ele>373.0</ele><time>2026-04-18T11:42:36.292Z</time></trkpt><trkpt lat="45.7991488" lon="8.8874163"><ele>373.0</ele><time>2026-04-18T11:42:37.293Z</time></trkpt><trkpt lat="45.799192" lon="8.8872978"><ele>373.0</ele><time>2026-04-18T11:42:38.293Z</time></trkpt><trkpt lat="45.7992391" lon="8.8871745"><ele>373.0</ele><time>2026-04-18T11:42:39.292Z</time></trkpt><trkpt lat="45.7992852" lon="8.8870574"><ele>373.0</ele><time>2026-04-18T11:42:40.293Z</time></trkpt><trkpt lat="45.7993254" lon="8.8869503"><ele>373.2</ele><time>2026-04-18T11:42:41.292Z</time></trkpt><trkpt lat="45.7993662" lon="8.8868376"><ele>373.4</ele><time>2026-04-18T11:42:42.292Z</time></trkpt><trkpt lat="45.799413" lon="8.8867161"><ele>373.59999999999997</ele><time>2026-04-18T11:42:43.293Z</time></trkpt><trkpt lat="45.7994603" lon="8.8866008"><ele>373.79999999999995</ele><time>2026-04-18T11:42:44.292Z</time></trkpt><trkpt lat="45.7995036" lon="8.8864972"><ele>374.0</ele><time>2026-04-18T11:42:45.293Z</time></trkpt><trkpt lat="45.7995501" lon="8.8863895"><ele>374.0</ele><time>2026-04-18T11:42:46.292Z</time></trkpt><trkpt lat="45.7995977" lon="8.8862701"><ele>374.0</ele><time>2026-04-18T11:42:47.292Z</time></trkpt><trkpt lat="45.7996442" lon="8.8861493"><ele>374.0</ele><time>2026-04-18T11:42:48.292Z</time></trkpt><trkpt lat="45.799686" lon="8.8860392"><ele>374.0</ele><time>2026-04-18T11:42:49.293Z</time></trkpt><trkpt lat="45.7997212" lon="8.8859379"><ele>374.0</ele><time>2026-04-18T11:42:50.292Z</time></trkpt><trkpt lat="45.7997541" lon="8.8858484"><ele>374.0</ele><time>2026-04-18T11:42:51.292Z</time></trkpt><trkpt lat="45.7997849" lon="8.8857645"><ele>373.83333333333337</ele><time>2026-04-18T11:42:52.292Z</time></trkpt><trkpt lat="45.7998181" lon="8.8856783"><ele>373.6666666666667</ele><time>2026-04-18T11:42:53.293Z</time></trkpt><trkpt lat="45.7998582" lon="8.8855827"><ele>373.5</ele><time>2026-04-18T11:42:54.292Z</time></trkpt><trkpt lat="45.7998992" lon="8.8854788"><ele>373.3333333333333</ele><time>2026-04-18T11:42:55.293Z</time></trkpt><trkpt lat="45.7999393" lon="8.8853617"><ele>373.16666666666663</ele><time>2026-04-18T11:42:56.293Z</time></trkpt><trkpt lat="45.7999825" lon="8.8852517"><ele>373.0</ele><time>2026-04-18T11:42:57.293Z</time></trkpt><trkpt lat="45.8000262" lon="8.8851399"><ele>372.59999999999997</ele><time>2026-04-18T11:42:58.293Z</time></trkpt><trkpt lat="45.8000768" lon="8.8850252"><ele>372.2</ele><time>2026-04-18T11:42:59.293Z</time></trkpt><trkpt lat="45.8001286" lon="8.8849273"><ele>371.8</ele><time>2026-04-18T11:43:00.294Z</time></trkpt><trkpt lat="45.8001853" lon="8.884828"><ele>371.4</ele><time>2026-04-18T11:43:01.293Z</time></trkpt><trkpt lat="45.8002611" lon="8.8847639"><ele>371.0</ele><time>2026-04-18T11:43:02.292Z</time></trkpt><trkpt lat="45.800344" lon="8.8847059"><ele>371.0</ele><time>2026-04-18T11:43:03.292Z</time></trkpt><trkpt lat="45.8004358" lon="8.8846489"><ele>371.0</ele><time>2026-04-18T11:43:04.293Z</time></trkpt><trkpt lat="45.8005302" lon="8.8845809"><ele>371.0</ele><time>2026-04-18T11:43:05.292Z</time></trkpt><trkpt lat="45.8006272" lon="8.884498"><ele>371.0</ele><time>2026-04-18T11:43:06.292Z</time></trkpt><trkpt lat="45.800708" lon="8.8844069"><ele>371.0</ele><time>2026-04-18T11:43:07.292Z</time></trkpt><trkpt lat="45.8007648" lon="8.8843243"><ele>370.5</ele><time>2026-04-18T11:43:08.292Z</time></trkpt><trkpt lat="45.8008184" lon="8.8842301"><ele>370.0</ele><time>2026-04-18T11:43:10.292Z</time></trkpt><trkpt lat="45.8008636" lon="8.8841601"><ele>369.5</ele><time>2026-04-18T11:43:13.292Z</time></trkpt><trkpt lat="45.8009377" lon="8.8840486"><ele>369.0</ele><time>2026-04-18T11:43:15.292Z</time></trkpt><trkpt lat="45.8009876" lon="8.8839704"><ele>368.5</ele><time>2026-04-18T11:43:16.292Z</time></trkpt><trkpt lat="45.8010281" lon="8.8838776"><ele>368.0</ele><time>2026-04-18T11:43:17.293Z</time></trkpt><trkpt lat="45.8010598" lon="8.8837884"><ele>368.0</ele><time>2026-04-18T11:43:18.292Z</time></trkpt><trkpt lat="45.8010906" lon="8.8836985"><ele>368.0</ele><time>2026-04-18T11:43:19.292Z</time></trkpt><trkpt lat="45.8011865" lon="8.8835878"><ele>368.0</ele><time>2026-04-18T11:43:21.293Z</time></trkpt><trkpt lat="45.8012615" lon="8.8835738"><ele>368.0</ele><time>2026-04-18T11:43:22.293Z</time></trkpt><trkpt lat="45.801357" lon="8.8835644"><ele>368.0</ele><time>2026-04-18T11:43:23.292Z</time></trkpt><trkpt lat="45.8014721" lon="8.8835483"><ele>368.0</ele><time>2026-04-18T11:43:24.292Z</time></trkpt><trkpt lat="45.8016013" lon="8.8835366"><ele>368.0</ele><time>2026-04-18T11:43:25.293Z</time></trkpt><trkpt lat="45.8017108" lon="8.8835202"><ele>368.0</ele><time>2026-04-18T11:43:26.292Z</time></trkpt><trkpt lat="45.8018069" lon="8.8835043"><ele>368.0</ele><time>2026-04-18T11:43:27.293Z</time></trkpt><trkpt lat="45.8018934" lon="8.8834942"><ele>368.0</ele><time>2026-04-18T11:43:28.292Z</time></trkpt><trkpt lat="45.8019729" lon="8.8834929"><ele>368.4</ele><time>2026-04-18T11:43:29.292Z</time></trkpt><trkpt lat="45.8020403" lon="8.8835147"><ele>368.79999999999995</ele><time>2026-04-18T11:43:30.292Z</time></trkpt><trkpt lat="45.8021147" lon="8.8836022"><ele>369.2</ele><time>2026-04-18T11:43:32.292Z</time></trkpt><trkpt lat="45.8021468" lon="8.8837603"><ele>369.6</ele><time>2026-04-18T11:43:34.292Z</time></trkpt><trkpt lat="45.8021926" lon="8.8839165"><ele>370.0</ele><time>2026-04-18T11:43:36.292Z</time></trkpt><trkpt lat="45.8022618" lon="8.8839819"><ele>370.0</ele><time>2026-04-18T11:43:37.292Z</time></trkpt><trkpt lat="45.8023603" lon="8.8840336"><ele>370.0</ele><time>2026-04-18T11:43:38.292Z</time></trkpt><trkpt lat="45.8024713" lon="8.8840892"><ele>370.0</ele><time>2026-04-18T11:43:39.292Z</time></trkpt><trkpt lat="45.8025835" lon="8.8841501"><ele>370.0</ele><time>2026-04-18T11:43:40.292Z</time></trkpt><trkpt lat="45.802666" lon="8.8842294"><ele>370.0</ele><time>2026-04-18T11:43:41.293Z</time></trkpt><trkpt lat="45.8027237" lon="8.8843405"><ele>371.75</ele><time>2026-04-18T11:43:42.293Z</time></trkpt><trkpt lat="45.8027594" lon="8.8844685"><ele>373.5</ele><time>2026-04-18T11:43:43.293Z</time></trkpt><trkpt lat="45.8027947" lon="8.8846278"><ele>375.25</ele><time>2026-04-18T11:43:44.292Z</time></trkpt><trkpt lat="45.8028136" lon="8.8848093"><ele>377.0</ele><time>2026-04-18T11:43:45.292Z</time></trkpt><trkpt lat="45.8028238" lon="8.8850002"><ele>377.75</ele><time>2026-04-18T11:43:46.293Z</time></trkpt><trkpt lat="45.8028279" lon="8.8852007"><ele>378.5</ele><time>2026-04-18T11:43:47.292Z</time></trkpt><trkpt lat="45.8028248" lon="8.8854098"><ele>379.25</ele><time>2026-04-18T11:43:48.293Z</time></trkpt><trkpt lat="45.8028234" lon="8.8856041"><ele>380.0</ele><time>2026-04-18T11:43:49.293Z</time></trkpt><trkpt lat="45.802834" lon="8.885787"><ele>380.75</ele><time>2026-04-18T11:43:50.292Z</time></trkpt><trkpt lat="45.8028753" lon="8.8859629"><ele>381.5</ele><time>2026-04-18T11:43:51.292Z</time></trkpt><trkpt lat="45.8029308" lon="8.8861349"><ele>382.25</ele><time>2026-04-18T11:43:52.293Z</time></trkpt><trkpt lat="45.8029968" lon="8.8863105"><ele>383.0</ele><time>2026-04-18T11:43:53.292Z</time></trkpt><trkpt lat="45.8030692" lon="8.8864899"><ele>383.0</ele><time>2026-04-18T11:43:54.292Z</time></trkpt><trkpt lat="45.8031495" lon="8.886668"><ele>383.0</ele><time>2026-04-18T11:43:55.292Z</time></trkpt><trkpt lat="45.8032342" lon="8.886846"><ele>383.0</ele><time>2026-04-18T11:43:56.292Z</time></trkpt><trkpt lat="45.8033099" lon="8.887029"><ele>383.0</ele><time>2026-04-18T11:43:57.293Z</time></trkpt><trkpt lat="45.8033777" lon="8.887216"><ele>383.25</ele><time>2026-04-18T11:43:58.292Z</time></trkpt><trkpt lat="45.8034463" lon="8.8874034"><ele>383.5</ele><time>2026-04-18T11:43:59.292Z</time></trkpt><trkpt lat="45.8035121" lon="8.8875821"><ele>383.75</ele><time>2026-04-18T11:44:00.293Z</time></trkpt><trkpt lat="45.8035772" lon="8.8877674"><ele>384.0</ele><time>2026-04-18T11:44:01.292Z</time></trkpt><trkpt lat="45.8036355" lon="8.8879413"><ele>384.4</ele><time>2026-04-18T11:44:02.292Z</time></trkpt><trkpt lat="45.8036899" lon="8.888101"><ele>384.79999999999995</ele><time>2026-04-18T11:44:03.293Z</time></trkpt><trkpt lat="45.8037339" lon="8.8882501"><ele>385.20000000000005</ele><time>2026-04-18T11:44:04.293Z</time></trkpt><trkpt lat="45.8037661" lon="8.8883864"><ele>385.6</ele><time>2026-04-18T11:44:05.293Z</time></trkpt><trkpt lat="45.8037884" lon="8.8885059"><ele>386.0</ele><time>2026-04-18T11:44:06.293Z</time></trkpt><trkpt lat="45.8038045" lon="8.8886008"><ele>385.99999999999994</ele><time>2026-04-18T11:44:07.293Z</time></trkpt><trkpt lat="45.8038424" lon="8.8887152"><ele>386.0</ele><time>2026-04-18T11:44:09.292Z</time></trkpt><trkpt lat="45.8038975" lon="8.8886511"><ele>386.0</ele><time>2026-04-18T11:44:13.292Z</time></trkpt><trkpt lat="45.8038552" lon="8.8885436"><ele>386.0</ele><time>2026-04-18T11:48:43.289Z</time></trkpt><trkpt lat="45.8037917" lon="8.8884783"><ele>385.99999999999994</ele><time>2026-04-18T11:48:44.29Z</time></trkpt><trkpt lat="45.8037672" lon="8.8883931"><ele>386.0</ele><time>2026-04-18T11:48:45.29Z</time></trkpt><trkpt lat="45.8037443" lon="8.8882944"><ele>386.0</ele><time>2026-04-18T11:48:46.29Z</time></trkpt><trkpt lat="45.8037088" lon="8.8881846"><ele>386.0</ele><time>2026-04-18T11:48:47.289Z</time></trkpt><trkpt lat="45.803676" lon="8.8880637"><ele>386.0</ele><time>2026-04-18T11:48:48.29Z</time></trkpt><trkpt lat="45.8036303" lon="8.8879406"><ele>386.0</ele><time>2026-04-18T11:48:49.29Z</time></trkpt><trkpt lat="45.8035847" lon="8.8878024"><ele>386.0</ele><time>2026-04-18T11:48:50.29Z</time></trkpt><trkpt lat="45.8035343" lon="8.8876611"><ele>385.5</ele><time>2026-04-18T11:48:51.289Z</time></trkpt><trkpt lat="45.8034805" lon="8.8875158"><ele>385.0</ele><time>2026-04-18T11:48:52.29Z</time></trkpt><trkpt lat="45.8034231" lon="8.8873613"><ele>384.5</ele><time>2026-04-18T11:48:53.29Z</time></trkpt><trkpt lat="45.803364" lon="8.8872062"><ele>384.0</ele><time>2026-04-18T11:48:54.289Z</time></trkpt><trkpt lat="45.8033076" lon="8.8870593"><ele>384.0</ele><time>2026-04-18T11:48:55.289Z</time></trkpt><trkpt lat="45.8032535" lon="8.8869205"><ele>384.0</ele><time>2026-04-18T11:48:56.289Z</time></trkpt><trkpt lat="45.8032022" lon="8.8867903"><ele>384.0</ele><time>2026-04-18T11:48:57.29Z</time></trkpt><trkpt lat="45.8031448" lon="8.8866713"><ele>384.0</ele><time>2026-04-18T11:48:58.289Z</time></trkpt><trkpt lat="45.8030967" lon="8.8865556"><ele>384.0</ele><time>2026-04-18T11:48:59.29Z</time></trkpt><trkpt lat="45.8030461" lon="8.8864389"><ele>383.79999999999995</ele><time>2026-04-18T11:49:00.289Z</time></trkpt><trkpt lat="45.8029961" lon="8.8863183"><ele>383.59999999999997</ele><time>2026-04-18T11:49:01.289Z</time></trkpt><trkpt lat="45.8029465" lon="8.8861961"><ele>383.4</ele><time>2026-04-18T11:49:02.289Z</time></trkpt><trkpt lat="45.8028989" lon="8.8860616"><ele>383.2</ele><time>2026-04-18T11:49:03.29Z</time></trkpt><trkpt lat="45.8028605" lon="8.8859236"><ele>383.0</ele><time>2026-04-18T11:49:04.29Z</time></trkpt><trkpt lat="45.8028372" lon="8.8857805"><ele>382.4</ele><time>2026-04-18T11:49:05.289Z</time></trkpt><trkpt lat="45.8028287" lon="8.8856368"><ele>381.79999999999995</ele><time>2026-04-18T11:49:06.289Z</time></trkpt><trkpt lat="45.8028304" lon="8.8854824"><ele>381.2</ele><time>2026-04-18T11:49:07.29Z</time></trkpt><trkpt lat="45.8028282" lon="8.8853097"><ele>380.6</ele><time>2026-04-18T11:49:08.29Z</time></trkpt><trkpt lat="45.8028245" lon="8.8851435"><ele>380.0</ele><time>2026-04-18T11:49:09.289Z</time></trkpt><trkpt lat="45.8028214" lon="8.8849798"><ele>379.4</ele><time>2026-04-18T11:49:10.29Z</time></trkpt><trkpt lat="45.8028147" lon="8.8848196"><ele>378.8</ele><time>2026-04-18T11:49:11.289Z</time></trkpt><trkpt lat="45.8028013" lon="8.8846636"><ele>378.20000000000005</ele><time>2026-04-18T11:49:12.289Z</time></trkpt><trkpt lat="45.8027839" lon="8.8845178"><ele>377.6</ele><time>2026-04-18T11:49:13.289Z</time></trkpt><trkpt lat="45.8027692" lon="8.8843887"><ele>377.0</ele><time>2026-04-18T11:49:14.289Z</time></trkpt><trkpt lat="45.8027323" lon="8.884269"><ele>375.8</ele><time>2026-04-18T11:49:15.289Z</time></trkpt><trkpt lat="45.8026665" lon="8.8841734"><ele>374.6</ele><time>2026-04-18T11:49:16.29Z</time></trkpt><trkpt lat="45.8025746" lon="8.8841053"><ele>373.40000000000003</ele><time>2026-04-18T11:49:17.29Z</time></trkpt><trkpt lat="45.8024725" lon="8.8840561"><ele>372.20000000000005</ele><time>2026-04-18T11:49:18.289Z</time></trkpt><trkpt lat="45.8023751" lon="8.8840239"><ele>371.0</ele><time>2026-04-18T11:49:19.29Z</time></trkpt><trkpt lat="45.8022894" lon="8.8839913"><ele>370.8</ele><time>2026-04-18T11:49:20.289Z</time></trkpt><trkpt lat="45.8022279" lon="8.8839299"><ele>370.6</ele><time>2026-04-18T11:49:21.29Z</time></trkpt><trkpt lat="45.8021901" lon="8.883853"><ele>370.4</ele><time>2026-04-18T11:49:22.29Z</time></trkpt><trkpt lat="45.8021622" lon="8.8837032"><ele>370.2</ele><time>2026-04-18T11:49:24.289Z</time></trkpt><trkpt lat="45.8021214" lon="8.8835559"><ele>370.0</ele><time>2026-04-18T11:49:26.289Z</time></trkpt><trkpt lat="45.8020438" lon="8.8834827"><ele>370.0</ele><time>2026-04-18T11:49:28.289Z</time></trkpt><trkpt lat="45.8019813" lon="8.8834611"><ele>370.0</ele><time>2026-04-18T11:49:29.291Z</time></trkpt><trkpt lat="45.8019122" lon="8.8834541"><ele>370.0</ele><time>2026-04-18T11:49:30.29Z</time></trkpt><trkpt lat="45.8017987" lon="8.8834674"><ele>370.0</ele><time>2026-04-18T11:49:32.289Z</time></trkpt><trkpt lat="45.8017336" lon="8.8834718"><ele>370.0</ele><time>2026-04-18T11:49:33.29Z</time></trkpt><trkpt lat="45.8016565" lon="8.8834777"><ele>370.0</ele><time>2026-04-18T11:49:34.289Z</time></trkpt><trkpt lat="45.8015742" lon="8.8834908"><ele>369.66666666666663</ele><time>2026-04-18T11:49:35.289Z</time></trkpt><trkpt lat="45.8014874" lon="8.8835026"><ele>369.3333333333333</ele><time>2026-04-18T11:49:36.289Z</time></trkpt><trkpt lat="45.8014054" lon="8.8835147"><ele>369.0</ele><time>2026-04-18T11:49:37.289Z</time></trkpt><trkpt lat="45.8013323" lon="8.8835179"><ele>368.6666666666667</ele><time>2026-04-18T11:49:38.289Z</time></trkpt><trkpt lat="45.801239" lon="8.8835148"><ele>368.33333333333337</ele><time>2026-04-18T11:49:40.29Z</time></trkpt><trkpt lat="45.8012095" lon="8.883372"><ele>368.0</ele><time>2026-04-18T11:49:52.289Z</time></trkpt><trkpt lat="45.8012245" lon="8.8831627"><ele>366.0</ele><time>2026-04-18T11:49:54.29Z</time></trkpt><trkpt lat="45.8012312" lon="8.8830439"><ele>364.0</ele><time>2026-04-18T11:49:55.29Z</time></trkpt><trkpt lat="45.8012236" lon="8.8828987"><ele>362.0</ele><time>2026-04-18T11:49:56.289Z</time></trkpt><trkpt lat="45.8012231" lon="8.882755"><ele>360.0</ele><time>2026-04-18T11:49:57.289Z</time></trkpt><trkpt lat="45.8012241" lon="8.8826137"><ele>358.0</ele><time>2026-04-18T11:49:58.29Z</time></trkpt><trkpt lat="45.8012274" lon="8.8824822"><ele>357.8333333333333</ele><time>2026-04-18T11:49:59.289Z</time></trkpt><trkpt lat="45.8012313" lon="8.8823514"><ele>357.66666666666663</ele><time>2026-04-18T11:50:00.289Z</time></trkpt><trkpt lat="45.8012339" lon="8.882221"><ele>357.5</ele><time>2026-04-18T11:50:01.289Z</time></trkpt><trkpt lat="45.8012376" lon="8.8820897"><ele>357.3333333333333</ele><time>2026-04-18T11:50:02.29Z</time></trkpt><trkpt lat="45.8012382" lon="8.8819638"><ele>357.1666666666667</ele><time>2026-04-18T11:50:03.289Z</time></trkpt><trkpt lat="45.8012383" lon="8.8818449"><ele>357.0</ele><time>2026-04-18T11:50:04.289Z</time></trkpt><trkpt lat="45.801234" lon="8.8817468"><ele>356.6</ele><time>2026-04-18T11:50:05.289Z</time></trkpt><trkpt lat="45.8012233" lon="8.881577"><ele>356.20000000000005</ele><time>2026-04-18T11:50:07.289Z</time></trkpt><trkpt lat="45.8011935" lon="8.8813961"><ele>355.8</ele><time>2026-04-18T11:50:09.29Z</time></trkpt><trkpt lat="45.8011549" lon="8.8812989"><ele>355.4</ele><time>2026-04-18T11:50:10.29Z</time></trkpt><trkpt lat="45.8010968" lon="8.8812111"><ele>355.0</ele><time>2026-04-18T11:50:11.289Z</time></trkpt><trkpt lat="45.8010322" lon="8.8811421"><ele>355.0</ele><time>2026-04-18T11:50:12.289Z</time></trkpt><trkpt lat="45.8009716" lon="8.8810952"><ele>355.0</ele><time>2026-04-18T11:50:13.29Z</time></trkpt><trkpt lat="45.8008652" lon="8.8810381"><ele>355.0</ele><time>2026-04-18T11:50:15.289Z</time></trkpt><trkpt lat="45.8007813" lon="8.8810103"><ele>355.0</ele><time>2026-04-18T11:50:17.291Z</time></trkpt><trkpt lat="45.8007124" lon="8.8809886"><ele>355.0</ele><time>2026-04-18T11:50:19.29Z</time></trkpt><trkpt lat="45.8006323" lon="8.8809495"><ele>355.0</ele><time>2026-04-18T11:50:21.289Z</time></trkpt><trkpt lat="45.8005243" lon="8.8809194"><ele>355.0</ele><time>2026-04-18T11:50:23.289Z</time></trkpt><trkpt lat="45.8004012" lon="8.880868"><ele>355.0</ele><time>2026-04-18T11:50:25.289Z</time></trkpt><trkpt lat="45.8003308" lon="8.8808438"><ele>355.0</ele><time>2026-04-18T11:50:26.289Z</time></trkpt><trkpt lat="45.8002567" lon="8.8808185"><ele>355.0</ele><time>2026-04-18T11:50:27.288Z</time></trkpt><trkpt lat="45.8001771" lon="8.8807855"><ele>355.0</ele><time>2026-04-18T11:50:28.288Z</time></trkpt><trkpt lat="45.8000947" lon="8.8807605"><ele>355.0</ele><time>2026-04-18T11:50:29.288Z</time></trkpt><trkpt lat="45.8000211" lon="8.880733"><ele>354.66666666666663</ele><time>2026-04-18T11:50:30.288Z</time></trkpt><trkpt lat="45.799952" lon="8.880708"><ele>354.3333333333333</ele><time>2026-04-18T11:50:31.288Z</time></trkpt><trkpt lat="45.7998866" lon="8.8806872"><ele>354.0</ele><time>2026-04-18T11:50:32.289Z</time></trkpt><trkpt lat="45.7997681" lon="8.8806465"><ele>353.6666666666667</ele><time>2026-04-18T11:50:34.288Z</time></trkpt><trkpt lat="45.7996767" lon="8.880609"><ele>353.33333333333337</ele><time>2026-04-18T11:50:36.289Z</time></trkpt><trkpt lat="45.7995984" lon="8.8805725"><ele>353.0</ele><time>2026-04-18T11:50:38.289Z</time></trkpt><trkpt lat="45.7995432" lon="8.8805026"><ele>353.0</ele><time>2026-04-18T11:50:40.288Z</time></trkpt><trkpt lat="45.7995088" lon="8.8803779"><ele>353.0</ele><time>2026-04-18T11:50:44.288Z</time></trkpt><trkpt lat="45.7995347" lon="8.8802856"><ele>353.0</ele><time>2026-04-18T11:50:45.288Z</time></trkpt><trkpt lat="45.7995864" lon="8.8801203"><ele>353.0</ele><time>2026-04-18T11:50:47.289Z</time></trkpt><trkpt lat="45.7995754" lon="8.88003"><ele>353.0</ele><time>2026-04-18T11:50:48.288Z</time></trkpt><trkpt lat="45.799481" lon="8.8799073"><ele>352.79999999999995</ele><time>2026-04-18T11:50:50.289Z</time></trkpt><trkpt lat="45.7994126" lon="8.8798539"><ele>352.6</ele><time>2026-04-18T11:50:51.288Z</time></trkpt><trkpt lat="45.7993338" lon="8.8797853"><ele>352.4</ele><time>2026-04-18T11:50:52.288Z</time></trkpt><trkpt lat="45.7992549" lon="8.8797089"><ele>352.20000000000005</ele><time>2026-04-18T11:50:53.288Z</time></trkpt><trkpt lat="45.7991721" lon="8.8796267"><ele>352.0</ele><time>2026-04-18T11:50:54.289Z</time></trkpt><trkpt lat="45.7991018" lon="8.8795209"><ele>352.40000000000003</ele><time>2026-04-18T11:50:55.289Z</time></trkpt><trkpt lat="45.7990255" lon="8.8794241"><ele>352.8</ele><time>2026-04-18T11:50:56.288Z</time></trkpt><trkpt lat="45.7989519" lon="8.8793332"><ele>353.2</ele><time>2026-04-18T11:50:57.288Z</time></trkpt><trkpt lat="45.7988679" lon="8.8792631"><ele>353.6</ele><time>2026-04-18T11:50:58.289Z</time></trkpt><trkpt lat="45.7987871" lon="8.8792123"><ele>354.0</ele><time>2026-04-18T11:50:59.288Z</time></trkpt><trkpt lat="45.798708" lon="8.8791795"><ele>354.2</ele><time>2026-04-18T11:51:00.288Z</time></trkpt><trkpt lat="45.7986241" lon="8.8791553"><ele>354.4</ele><time>2026-04-18T11:51:01.289Z</time></trkpt><trkpt lat="45.7985345" lon="8.8791288"><ele>354.6</ele><time>2026-04-18T11:51:02.288Z</time></trkpt><trkpt lat="45.7984383" lon="8.8791021"><ele>354.8</ele><time>2026-04-18T11:51:03.288Z</time></trkpt><trkpt lat="45.7983386" lon="8.8790667"><ele>355.0</ele><time>2026-04-18T11:51:04.288Z</time></trkpt><trkpt lat="45.7982357" lon="8.8790325"><ele>354.6</ele><time>2026-04-18T11:51:05.288Z</time></trkpt><trkpt lat="45.7981293" lon="8.8789919"><ele>354.2</ele><time>2026-04-18T11:51:06.288Z</time></trkpt><trkpt lat="45.7980208" lon="8.8789556"><ele>353.79999999999995</ele><time>2026-04-18T11:51:07.288Z</time></trkpt><trkpt lat="45.7979118" lon="8.8789267"><ele>353.4</ele><time>2026-04-18T11:51:08.289Z</time></trkpt><trkpt lat="45.797803" lon="8.8789075"><ele>353.0</ele><time>2026-04-18T11:51:09.288Z</time></trkpt><trkpt lat="45.7976934" lon="8.8788837"><ele>353.0</ele><time>2026-04-18T11:51:10.289Z</time></trkpt><trkpt lat="45.7975832" lon="8.8788559"><ele>353.0</ele><time>2026-04-18T11:51:11.288Z</time></trkpt><trkpt lat="45.7974704" lon="8.8788253"><ele>353.0</ele><time>2026-04-18T11:51:12.288Z</time></trkpt><trkpt lat="45.797357" lon="8.8787931"><ele>353.0</ele><time>2026-04-18T11:51:13.289Z</time></trkpt><trkpt lat="45.7972396" lon="8.8787646"><ele>353.0</ele><time>2026-04-18T11:51:14.288Z</time></trkpt><trkpt lat="45.797125" lon="8.8787257"><ele>353.0</ele><time>2026-04-18T11:51:15.288Z</time></trkpt><trkpt lat="45.7970124" lon="8.8786889"><ele>353.0</ele><time>2026-04-18T11:51:16.289Z</time></trkpt><trkpt lat="45.7969058" lon="8.8786549"><ele>353.0</ele><time>2026-04-18T11:51:17.289Z</time></trkpt><trkpt lat="45.7968054" lon="8.8786271"><ele>353.0</ele><time>2026-04-18T11:51:18.288Z</time></trkpt><trkpt lat="45.7967121" lon="8.8785928"><ele>353.2</ele><time>2026-04-18T11:51:19.288Z</time></trkpt><trkpt lat="45.7966121" lon="8.8785671"><ele>353.4</ele><time>2026-04-18T11:51:20.288Z</time></trkpt><trkpt lat="45.7965261" lon="8.8785353"><ele>353.59999999999997</ele><time>2026-04-18T11:51:21.289Z</time></trkpt><trkpt lat="45.7964457" lon="8.8784918"><ele>353.79999999999995</ele><time>2026-04-18T11:51:22.288Z</time></trkpt><trkpt lat="45.7963707" lon="8.8784385"><ele>354.0</ele><time>2026-04-18T11:51:23.288Z</time></trkpt><trkpt lat="45.7963063" lon="8.8783392"><ele>353.6</ele><time>2026-04-18T11:51:24.288Z</time></trkpt><trkpt lat="45.7962493" lon="8.8782342"><ele>353.2</ele><time>2026-04-18T11:51:25.289Z</time></trkpt><trkpt lat="45.7961872" lon="8.8781232"><ele>352.8</ele><time>2026-04-18T11:51:26.289Z</time></trkpt><trkpt lat="45.7961257" lon="8.8780174"><ele>352.40000000000003</ele><time>2026-04-18T11:51:27.288Z</time></trkpt><trkpt lat="45.7960687" lon="8.8779111"><ele>352.0</ele><time>2026-04-18T11:51:28.288Z</time></trkpt><trkpt lat="45.7960061" lon="8.8778046"><ele>352.20000000000005</ele><time>2026-04-18T11:51:29.288Z</time></trkpt><trkpt lat="45.7959363" lon="8.8776948"><ele>352.4</ele><time>2026-04-18T11:51:30.289Z</time></trkpt><trkpt lat="45.7958662" lon="8.8775835"><ele>352.6</ele><time>2026-04-18T11:51:31.289Z</time></trkpt><trkpt lat="45.7958054" lon="8.8774613"><ele>352.79999999999995</ele><time>2026-04-18T11:51:32.288Z</time></trkpt><trkpt lat="45.7957367" lon="8.8773411"><ele>353.0</ele><time>2026-04-18T11:51:33.288Z</time></trkpt><trkpt lat="45.795667" lon="8.8772141"><ele>352.4</ele><time>2026-04-18T11:51:34.288Z</time></trkpt><trkpt lat="45.7955991" lon="8.8770828"><ele>351.79999999999995</ele><time>2026-04-18T11:51:35.289Z</time></trkpt><trkpt lat="45.7955449" lon="8.8769574"><ele>351.2</ele><time>2026-04-18T11:51:36.288Z</time></trkpt><trkpt lat="45.7955068" lon="8.8768249"><ele>350.6</ele><time>2026-04-18T11:51:37.288Z</time></trkpt><trkpt lat="45.7954868" lon="8.8766979"><ele>350.0</ele><time>2026-04-18T11:51:38.289Z</time></trkpt><trkpt lat="45.7954708" lon="8.8765697"><ele>348.5</ele><time>2026-04-18T11:51:39.288Z</time></trkpt><trkpt lat="45.795455" lon="8.8764278"><ele>347.0</ele><time>2026-04-18T11:51:40.288Z</time></trkpt><trkpt lat="45.7954343" lon="8.8762741"><ele>345.5</ele><time>2026-04-18T11:51:41.29Z</time></trkpt><trkpt lat="45.7954095" lon="8.8760937"><ele>344.0</ele><time>2026-04-18T11:51:42.288Z</time></trkpt><trkpt lat="45.7953816" lon="8.8759001"><ele>344.25</ele><time>2026-04-18T11:51:43.288Z</time></trkpt><trkpt lat="45.7953586" lon="8.875697"><ele>344.5</ele><time>2026-04-18T11:51:44.289Z</time></trkpt><trkpt lat="45.7953452" lon="8.8754912"><ele>344.75</ele><time>2026-04-18T11:51:45.288Z</time></trkpt><trkpt lat="45.7953497" lon="8.8752916"><ele>345.0</ele><time>2026-04-18T11:51:46.288Z</time></trkpt><trkpt lat="45.7953705" lon="8.8751035"><ele>345.0</ele><time>2026-04-18T11:51:47.288Z</time></trkpt><trkpt lat="45.7953985" lon="8.8749238"><ele>345.0</ele><time>2026-04-18T11:51:48.289Z</time></trkpt><trkpt lat="45.7954273" lon="8.8747451"><ele>345.0</ele><time>2026-04-18T11:51:49.289Z</time></trkpt><trkpt lat="45.7954601" lon="8.8745705"><ele>345.0</ele><time>2026-04-18T11:51:50.288Z</time></trkpt><trkpt lat="45.7954963" lon="8.8744027"><ele>345.75</ele><time>2026-04-18T11:51:51.288Z</time></trkpt><trkpt lat="45.7955432" lon="8.874257"><ele>346.5</ele><time>2026-04-18T11:51:52.288Z</time></trkpt><trkpt lat="45.795593" lon="8.874107"><ele>347.25</ele><time>2026-04-18T11:51:53.288Z</time></trkpt><trkpt lat="45.7956428" lon="8.8739619"><ele>348.0</ele><time>2026-04-18T11:51:54.288Z</time></trkpt><trkpt lat="45.7956893" lon="8.8738128"><ele>348.0</ele><time>2026-04-18T11:51:55.288Z</time></trkpt><trkpt lat="45.7957368" lon="8.8736617"><ele>348.0</ele><time>2026-04-18T11:51:56.289Z</time></trkpt><trkpt lat="45.7957807" lon="8.8734989"><ele>348.0</ele><time>2026-04-18T11:51:57.289Z</time></trkpt><trkpt lat="45.795821" lon="8.8733296"><ele>348.0</ele><time>2026-04-18T11:51:58.288Z</time></trkpt><trkpt lat="45.795851" lon="8.8731584"><ele>347.75</ele><time>2026-04-18T11:51:59.29Z</time></trkpt><trkpt lat="45.7958701" lon="8.8729887"><ele>347.5</ele><time>2026-04-18T11:52:00.288Z</time></trkpt><trkpt lat="45.795883" lon="8.8728212"><ele>347.25</ele><time>2026-04-18T11:52:01.288Z</time></trkpt><trkpt lat="45.7958826" lon="8.872659"><ele>347.0</ele><time>2026-04-18T11:52:02.29Z</time></trkpt><trkpt lat="45.7958732" lon="8.8724999"><ele>346.75</ele><time>2026-04-18T11:52:03.289Z</time></trkpt><trkpt lat="45.7958572" lon="8.8723421"><ele>346.5</ele><time>2026-04-18T11:52:04.288Z</time></trkpt><trkpt lat="45.795836" lon="8.8721866"><ele>346.25</ele><time>2026-04-18T11:52:05.289Z</time></trkpt><trkpt lat="45.7958053" lon="8.8720169"><ele>346.0</ele><time>2026-04-18T11:52:06.289Z</time></trkpt><trkpt lat="45.795779" lon="8.8718618"><ele>344.75</ele><time>2026-04-18T11:52:07.288Z</time></trkpt><trkpt lat="45.7957513" lon="8.871705"><ele>343.5</ele><time>2026-04-18T11:52:08.288Z</time></trkpt><trkpt lat="45.7957165" lon="8.871549"><ele>342.25</ele><time>2026-04-18T11:52:09.288Z</time></trkpt><trkpt lat="45.7956683" lon="8.871402"><ele>341.0</ele><time>2026-04-18T11:52:10.288Z</time></trkpt><trkpt lat="45.7956037" lon="8.8712714"><ele>341.0</ele><time>2026-04-18T11:52:11.289Z</time></trkpt><trkpt lat="45.7955312" lon="8.8711532"><ele>341.0</ele><time>2026-04-18T11:52:12.288Z</time></trkpt><trkpt lat="45.7954571" lon="8.8710453"><ele>341.0</ele><time>2026-04-18T11:52:13.288Z</time></trkpt><trkpt lat="45.795361" lon="8.8709689"><ele>341.0</ele><time>2026-04-18T11:52:14.288Z</time></trkpt><trkpt lat="45.7952696" lon="8.8708836"><ele>341.0</ele><time>2026-04-18T11:52:15.288Z</time></trkpt><trkpt lat="45.7951801" lon="8.8708047"><ele>342.4</ele><time>2026-04-18T11:52:16.288Z</time></trkpt><trkpt lat="45.7950935" lon="8.8707238"><ele>343.8</ele><time>2026-04-18T11:52:17.288Z</time></trkpt><trkpt lat="45.7950049" lon="8.8706408"><ele>345.2</ele><time>2026-04-18T11:52:18.288Z</time></trkpt><trkpt lat="45.7949147" lon="8.8705508"><ele>346.59999999999997</ele><time>2026-04-18T11:52:19.289Z</time></trkpt><trkpt lat="45.7948306" lon="8.8704593"><ele>348.0</ele><time>2026-04-18T11:52:20.288Z</time></trkpt><trkpt lat="45.7947551" lon="8.870365"><ele>348.0</ele><time>2026-04-18T11:52:21.289Z</time></trkpt><trkpt lat="45.7946691" lon="8.870279"><ele>348.0</ele><time>2026-04-18T11:52:22.288Z</time></trkpt><trkpt lat="45.7945863" lon="8.8701882"><ele>348.0</ele><time>2026-04-18T11:52:23.288Z</time></trkpt><trkpt lat="45.7945061" lon="8.8700986"><ele>348.0</ele><time>2026-04-18T11:52:24.289Z</time></trkpt><trkpt lat="45.7944302" lon="8.8700155"><ele>348.0</ele><time>2026-04-18T11:52:25.288Z</time></trkpt><trkpt lat="45.7943568" lon="8.8699308"><ele>347.79999999999995</ele><time>2026-04-18T11:52:26.289Z</time></trkpt><trkpt lat="45.7942755" lon="8.8698442"><ele>347.6</ele><time>2026-04-18T11:52:27.289Z</time></trkpt><trkpt lat="45.7941962" lon="8.8697525"><ele>347.4</ele><time>2026-04-18T11:52:28.289Z</time></trkpt><trkpt lat="45.7941179" lon="8.8696647"><ele>347.20000000000005</ele><time>2026-04-18T11:52:29.288Z</time></trkpt><trkpt lat="45.7940412" lon="8.8695765"><ele>347.0</ele><time>2026-04-18T11:52:30.289Z</time></trkpt><trkpt lat="45.7939665" lon="8.869497"><ele>347.0</ele><time>2026-04-18T11:52:31.288Z</time></trkpt><trkpt lat="45.7938995" lon="8.8694131"><ele>347.0</ele><time>2026-04-18T11:52:32.288Z</time></trkpt><trkpt lat="45.7938314" lon="8.8693305"><ele>347.0</ele><time>2026-04-18T11:52:33.288Z</time></trkpt><trkpt lat="45.7937566" lon="8.8692469"><ele>347.0</ele><time>2026-04-18T11:52:34.288Z</time></trkpt><trkpt lat="45.79368" lon="8.869156"><ele>347.0</ele><time>2026-04-18T11:52:35.288Z</time></trkpt><trkpt lat="45.7936004" lon="8.8690579"><ele>347.75</ele><time>2026-04-18T11:52:36.288Z</time></trkpt><trkpt lat="45.793523" lon="8.868972"><ele>348.5</ele><time>2026-04-18T11:52:37.288Z</time></trkpt><trkpt lat="45.7934381" lon="8.8688792"><ele>349.25</ele><time>2026-04-18T11:52:38.288Z</time></trkpt><trkpt lat="45.7933261" lon="8.8687743"><ele>350.0</ele><time>2026-04-18T11:52:39.288Z</time></trkpt><trkpt lat="45.793203" lon="8.8686421"><ele>350.0</ele><time>2026-04-18T11:52:40.288Z</time></trkpt><trkpt lat="45.793067" lon="8.8684889"><ele>350.0</ele><time>2026-04-18T11:52:41.289Z</time></trkpt><trkpt lat="45.7929301" lon="8.8683222"><ele>350.0</ele><time>2026-04-18T11:52:42.289Z</time></trkpt><trkpt lat="45.7927865" lon="8.8681433"><ele>348.33333333333337</ele><time>2026-04-18T11:52:43.288Z</time></trkpt><trkpt lat="45.79264" lon="8.8679731"><ele>346.6666666666667</ele><time>2026-04-18T11:52:44.288Z</time></trkpt><trkpt lat="45.7924919" lon="8.8678129"><ele>345.0</ele><time>2026-04-18T11:52:45.289Z</time></trkpt><trkpt lat="45.7923444" lon="8.8676596"><ele>343.0</ele><time>2026-04-18T11:52:46.288Z</time></trkpt><trkpt lat="45.7921911" lon="8.8675265"><ele>341.0</ele><time>2026-04-18T11:52:47.289Z</time></trkpt><trkpt lat="45.7920354" lon="8.8674056"><ele>339.0</ele><time>2026-04-18T11:52:48.289Z</time></trkpt><trkpt lat="45.7918782" lon="8.8672889"><ele>339.3333333333333</ele><time>2026-04-18T11:52:49.289Z</time></trkpt><trkpt lat="45.7917334" lon="8.8671708"><ele>339.66666666666663</ele><time>2026-04-18T11:52:50.288Z</time></trkpt><trkpt lat="45.7915919" lon="8.8670619"><ele>340.0</ele><time>2026-04-18T11:52:51.288Z</time></trkpt><trkpt lat="45.791448" lon="8.8669602"><ele>340.0</ele><time>2026-04-18T11:52:52.288Z</time></trkpt><trkpt lat="45.7912993" lon="8.8668704"><ele>340.0</ele><time>2026-04-18T11:52:53.289Z</time></trkpt><trkpt lat="45.7911477" lon="8.8667901"><ele>340.0</ele><time>2026-04-18T11:52:54.288Z</time></trkpt><trkpt lat="45.7909952" lon="8.866715"><ele>339.5</ele><time>2026-04-18T11:52:55.288Z</time></trkpt><trkpt lat="45.790848" lon="8.8666446"><ele>339.0</ele><time>2026-04-18T11:52:56.289Z</time></trkpt><trkpt lat="45.7907107" lon="8.8665807"><ele>338.5</ele><time>2026-04-18T11:52:57.288Z</time></trkpt><trkpt lat="45.7905881" lon="8.8665251"><ele>338.0</ele><time>2026-04-18T11:52:58.289Z</time></trkpt><trkpt lat="45.7904854" lon="8.8664841"><ele>338.0</ele><time>2026-04-18T11:52:59.288Z</time></trkpt><trkpt lat="45.7903989" lon="8.8664541"><ele>338.0</ele><time>2026-04-18T11:53:00.289Z</time></trkpt><trkpt lat="45.7903369" lon="8.8664364"><ele>338.0</ele><time>2026-04-18T11:53:01.289Z</time></trkpt><trkpt lat="45.7902046" lon="8.866403"><ele>338.0</ele><time>2026-04-18T11:53:03.288Z</time></trkpt><trkpt lat="45.7901145" lon="8.866398"><ele>338.0</ele><time>2026-04-18T11:53:04.288Z</time></trkpt><trkpt lat="45.7900147" lon="8.866383"><ele>337.5</ele><time>2026-04-18T11:53:05.288Z</time></trkpt><trkpt lat="45.7899073" lon="8.8663699"><ele>337.0</ele><time>2026-04-18T11:53:06.288Z</time></trkpt><trkpt lat="45.7897915" lon="8.866372"><ele>336.5</ele><time>2026-04-18T11:53:07.289Z</time></trkpt><trkpt lat="45.7896654" lon="8.8663814"><ele>336.0</ele><time>2026-04-18T11:53:08.289Z</time></trkpt><trkpt lat="45.7895406" lon="8.8664004"><ele>336.0</ele><time>2026-04-18T11:53:09.288Z</time></trkpt><trkpt lat="45.7894081" lon="8.8664299"><ele>336.0</ele><time>2026-04-18T11:53:10.288Z</time></trkpt><trkpt lat="45.7892745" lon="8.8664583"><ele>336.0</ele><time>2026-04-18T11:53:11.288Z</time></trkpt><trkpt lat="45.7891368" lon="8.8664892"><ele>336.0</ele><time>2026-04-18T11:53:12.29Z</time></trkpt><trkpt lat="45.7890035" lon="8.8665208"><ele>336.0</ele><time>2026-04-18T11:53:13.288Z</time></trkpt><trkpt lat="45.7888774" lon="8.8665546"><ele>336.0</ele><time>2026-04-18T11:53:14.288Z</time></trkpt><trkpt lat="45.7887663" lon="8.8665801"><ele>336.0</ele><time>2026-04-18T11:53:15.289Z</time></trkpt><trkpt lat="45.7886656" lon="8.8666019"><ele>336.0</ele><time>2026-04-18T11:53:16.289Z</time></trkpt><trkpt lat="45.7885727" lon="8.8666218"><ele>336.0</ele><time>2026-04-18T11:53:17.289Z</time></trkpt><trkpt lat="45.788481" lon="8.866642"><ele>336.0</ele><time>2026-04-18T11:53:18.288Z</time></trkpt><trkpt lat="45.788385" lon="8.8666591"><ele>336.0</ele><time>2026-04-18T11:53:19.289Z</time></trkpt><trkpt lat="45.7882809" lon="8.8666715"><ele>336.0</ele><time>2026-04-18T11:53:20.287Z</time></trkpt><trkpt lat="45.7881766" lon="8.8666816"><ele>336.0</ele><time>2026-04-18T11:53:21.288Z</time></trkpt><trkpt lat="45.7880682" lon="8.8666904"><ele>336.0</ele><time>2026-04-18T11:53:22.288Z</time></trkpt><trkpt lat="45.7879678" lon="8.8667007"><ele>336.0</ele><time>2026-04-18T11:53:23.287Z</time></trkpt><trkpt lat="45.7878805" lon="8.8667114"><ele>336.0</ele><time>2026-04-18T11:53:24.288Z</time></trkpt><trkpt lat="45.7878037" lon="8.866743"><ele>336.0</ele><time>2026-04-18T11:53:25.287Z</time></trkpt><trkpt lat="45.7877562" lon="8.8668273"><ele>336.0</ele><time>2026-04-18T11:53:26.287Z</time></trkpt><trkpt lat="45.7877312" lon="8.8669261"><ele>336.0</ele><time>2026-04-18T11:53:27.287Z</time></trkpt><trkpt lat="45.787725" lon="8.8670425"><ele>336.0</ele><time>2026-04-18T11:53:28.287Z</time></trkpt><trkpt lat="45.7877346" lon="8.8671657"><ele>336.1666666666667</ele><time>2026-04-18T11:53:29.287Z</time></trkpt><trkpt lat="45.7877505" lon="8.8672741"><ele>336.3333333333333</ele><time>2026-04-18T11:53:30.288Z</time></trkpt><trkpt lat="45.7877482" lon="8.8673708"><ele>336.5</ele><time>2026-04-18T11:53:31.288Z</time></trkpt><trkpt lat="45.7876439" lon="8.8674771"><ele>336.66666666666663</ele><time>2026-04-18T11:53:33.287Z</time></trkpt><trkpt lat="45.7875678" lon="8.8675127"><ele>336.8333333333333</ele><time>2026-04-18T11:53:34.288Z</time></trkpt><trkpt lat="45.7874758" lon="8.8675481"><ele>337.0</ele><time>2026-04-18T11:53:35.287Z</time></trkpt><trkpt lat="45.7873746" lon="8.8675865"><ele>336.75</ele><time>2026-04-18T11:53:36.287Z</time></trkpt><trkpt lat="45.7872638" lon="8.8676283"><ele>336.5</ele><time>2026-04-18T11:53:37.287Z</time></trkpt><trkpt lat="45.7871468" lon="8.867666"><ele>336.25</ele><time>2026-04-18T11:53:38.287Z</time></trkpt><trkpt lat="45.7870254" lon="8.8677109"><ele>336.0</ele><time>2026-04-18T11:53:39.287Z</time></trkpt><trkpt lat="45.7869093" lon="8.8677474"><ele>335.8</ele><time>2026-04-18T11:53:40.287Z</time></trkpt><trkpt lat="45.7868012" lon="8.8677734"><ele>335.6</ele><time>2026-04-18T11:53:41.287Z</time></trkpt><trkpt lat="45.7866964" lon="8.8677651"><ele>335.4</ele><time>2026-04-18T11:53:42.287Z</time></trkpt><trkpt lat="45.7866048" lon="8.8677265"><ele>335.2</ele><time>2026-04-18T11:53:43.287Z</time></trkpt><trkpt lat="45.7865141" lon="8.8676609"><ele>335.0</ele><time>2026-04-18T11:53:44.287Z</time></trkpt><trkpt lat="45.7864395" lon="8.8675787"><ele>334.2</ele><time>2026-04-18T11:53:45.287Z</time></trkpt><trkpt lat="45.7863818" lon="8.8674679"><ele>333.4</ele><time>2026-04-18T11:53:46.288Z</time></trkpt><trkpt lat="45.786349" lon="8.8673359"><ele>332.6</ele><time>2026-04-18T11:53:47.288Z</time></trkpt><trkpt lat="45.7863622" lon="8.8671887"><ele>331.8</ele><time>2026-04-18T11:53:48.288Z</time></trkpt><trkpt lat="45.7863767" lon="8.8670261"><ele>331.0</ele><time>2026-04-18T11:53:49.288Z</time></trkpt><trkpt lat="45.786395" lon="8.8668502"><ele>329.5</ele><time>2026-04-18T11:53:50.287Z</time></trkpt><trkpt lat="45.7864019" lon="8.8666717"><ele>328.0</ele><time>2026-04-18T11:53:51.288Z</time></trkpt><trkpt lat="45.7864213" lon="8.8665052"><ele>326.5</ele><time>2026-04-18T11:53:52.287Z</time></trkpt><trkpt lat="45.7864389" lon="8.8663562"><ele>325.0</ele><time>2026-04-18T11:53:53.288Z</time></trkpt><trkpt lat="45.7864457" lon="8.8662106"><ele>325.0</ele><time>2026-04-18T11:53:54.288Z</time></trkpt><trkpt lat="45.7864244" lon="8.8660794"><ele>325.0</ele><time>2026-04-18T11:53:55.288Z</time></trkpt><trkpt lat="45.7863666" lon="8.865974"><ele>325.0</ele><time>2026-04-18T11:53:56.287Z</time></trkpt><trkpt lat="45.7862864" lon="8.8659177"><ele>325.0</ele><time>2026-04-18T11:53:57.287Z</time></trkpt><trkpt lat="45.7861997" lon="8.8659069"><ele>325.0</ele><time>2026-04-18T11:53:58.287Z</time></trkpt><trkpt lat="45.7861233" lon="8.8659509"><ele>325.0</ele><time>2026-04-18T11:53:59.287Z</time></trkpt><trkpt lat="45.786066" lon="8.8660444"><ele>325.0</ele><time>2026-04-18T11:54:00.288Z</time></trkpt><trkpt lat="45.7860347" lon="8.8661824"><ele>325.0</ele><time>2026-04-18T11:54:01.288Z</time></trkpt><trkpt lat="45.7860215" lon="8.8663458"><ele>325.0</ele><time>2026-04-18T11:54:02.287Z</time></trkpt><trkpt lat="45.7860065" lon="8.8665332"><ele>325.0</ele><time>2026-04-18T11:54:03.289Z</time></trkpt><trkpt lat="45.7859644" lon="8.8667173"><ele>321.66666666666663</ele><time>2026-04-18T11:54:04.287Z</time></trkpt><trkpt lat="45.7859153" lon="8.8669038"><ele>318.3333333333333</ele><time>2026-04-18T11:54:05.287Z</time></trkpt><trkpt lat="45.7858114" lon="8.8670752"><ele>315.0</ele><time>2026-04-18T11:54:06.288Z</time></trkpt><trkpt lat="45.7857175" lon="8.8672516"><ele>315.0</ele><time>2026-04-18T11:54:07.288Z</time></trkpt><trkpt lat="45.785597" lon="8.8674119"><ele>315.0</ele><time>2026-04-18T11:54:08.287Z</time></trkpt><trkpt lat="45.785482" lon="8.867582"><ele>315.0</ele><time>2026-04-18T11:54:09.288Z</time></trkpt><trkpt lat="45.785366" lon="8.8677479"><ele>312.6666666666667</ele><time>2026-04-18T11:54:10.287Z</time></trkpt><trkpt lat="45.785252" lon="8.8679106"><ele>310.33333333333337</ele><time>2026-04-18T11:54:11.287Z</time></trkpt><trkpt lat="45.7851372" lon="8.8680647"><ele>308.0</ele><time>2026-04-18T11:54:12.287Z</time></trkpt><trkpt lat="45.7850129" lon="8.8682031"><ele>308.0</ele><time>2026-04-18T11:54:13.288Z</time></trkpt><trkpt lat="45.7848798" lon="8.8683172"><ele>308.0</ele><time>2026-04-18T11:54:14.287Z</time></trkpt><trkpt lat="45.7847244" lon="8.8684092"><ele>308.0</ele><time>2026-04-18T11:54:15.288Z</time></trkpt><trkpt lat="45.7845559" lon="8.8684734"><ele>305.33333333333337</ele><time>2026-04-18T11:54:16.287Z</time></trkpt><trkpt lat="45.7843822" lon="8.8685295"><ele>302.6666666666667</ele><time>2026-04-18T11:54:17.288Z</time></trkpt><trkpt lat="45.7842012" lon="8.8685843"><ele>300.0</ele><time>2026-04-18T11:54:18.287Z</time></trkpt><trkpt lat="45.7840203" lon="8.8686476"><ele>300.0</ele><time>2026-04-18T11:54:19.287Z</time></trkpt><trkpt lat="45.7838465" lon="8.8687279"><ele>300.0</ele><time>2026-04-18T11:54:20.287Z</time></trkpt><trkpt lat="45.7836787" lon="8.8688303"><ele>300.0</ele><time>2026-04-18T11:54:21.287Z</time></trkpt><trkpt lat="45.7835126" lon="8.8689623"><ele>298.3333333333333</ele><time>2026-04-18T11:54:22.287Z</time></trkpt><trkpt lat="45.7833528" lon="8.8691078"><ele>296.66666666666663</ele><time>2026-04-18T11:54:23.287Z</time></trkpt><trkpt lat="45.7831946" lon="8.8692613"><ele>295.0</ele><time>2026-04-18T11:54:24.287Z</time></trkpt><trkpt lat="45.7830383" lon="8.8694173"><ele>295.0</ele><time>2026-04-18T11:54:25.288Z</time></trkpt><trkpt lat="45.7828768" lon="8.8695686"><ele>295.0</ele><time>2026-04-18T11:54:26.287Z</time></trkpt><trkpt lat="45.782715" lon="8.8697248"><ele>295.0</ele><time>2026-04-18T11:54:27.288Z</time></trkpt><trkpt lat="45.782552" lon="8.8698809"><ele>294.0</ele><time>2026-04-18T11:54:28.288Z</time></trkpt><trkpt lat="45.7823874" lon="8.8700412"><ele>293.0</ele><time>2026-04-18T11:54:29.288Z</time></trkpt><trkpt lat="45.7822184" lon="8.8701983"><ele>292.0</ele><time>2026-04-18T11:54:30.288Z</time></trkpt><trkpt lat="45.7820492" lon="8.8703587"><ele>292.0</ele><time>2026-04-18T11:54:31.287Z</time></trkpt><trkpt lat="45.7818811" lon="8.8705201"><ele>292.0</ele><time>2026-04-18T11:54:32.287Z</time></trkpt><trkpt lat="45.7817131" lon="8.870687"><ele>292.0</ele><time>2026-04-18T11:54:33.287Z</time></trkpt><trkpt lat="45.7815407" lon="8.8708474"><ele>289.66666666666663</ele><time>2026-04-18T11:54:34.287Z</time></trkpt><trkpt lat="45.7813708" lon="8.8710085"><ele>287.3333333333333</ele><time>2026-04-18T11:54:35.287Z</time></trkpt><trkpt lat="45.7812009" lon="8.8711748"><ele>285.0</ele><time>2026-04-18T11:54:36.288Z</time></trkpt><trkpt lat="45.7810426" lon="8.8713303"><ele>285.0</ele><time>2026-04-18T11:54:37.288Z</time></trkpt><trkpt lat="45.7808901" lon="8.8714744"><ele>285.0</ele><time>2026-04-18T11:54:38.288Z</time></trkpt><trkpt lat="45.7807409" lon="8.8716178"><ele>285.0</ele><time>2026-04-18T11:54:39.287Z</time></trkpt><trkpt lat="45.7805948" lon="8.8717559"><ele>284.6666666666667</ele><time>2026-04-18T11:54:40.287Z</time></trkpt><trkpt lat="45.780448" lon="8.8718867"><ele>284.33333333333337</ele><time>2026-04-18T11:54:41.287Z</time></trkpt><trkpt lat="45.7802968" lon="8.8720035"><ele>284.0</ele><time>2026-04-18T11:54:42.288Z</time></trkpt><trkpt lat="45.780138" lon="8.8720998"><ele>284.0</ele><time>2026-04-18T11:54:43.287Z</time></trkpt><trkpt lat="45.7799756" lon="8.8721819"><ele>284.0</ele><time>2026-04-18T11:54:44.288Z</time></trkpt><trkpt lat="45.7798078" lon="8.8722534"><ele>284.0</ele><time>2026-04-18T11:54:45.287Z</time></trkpt><trkpt lat="45.7796391" lon="8.8723161"><ele>284.0</ele><time>2026-04-18T11:54:46.287Z</time></trkpt><trkpt lat="45.7794708" lon="8.8723708"><ele>284.0</ele><time>2026-04-18T11:54:47.287Z</time></trkpt><trkpt lat="45.7793112" lon="8.8724205"><ele>284.0</ele><time>2026-04-18T11:54:48.287Z</time></trkpt><trkpt lat="45.7791615" lon="8.8724596"><ele>284.25</ele><time>2026-04-18T11:54:49.288Z</time></trkpt><trkpt lat="45.7790266" lon="8.8724939"><ele>284.5</ele><time>2026-04-18T11:54:50.287Z</time></trkpt><trkpt lat="45.7789089" lon="8.8725217"><ele>284.75</ele><time>2026-04-18T11:54:51.287Z</time></trkpt><trkpt lat="45.7788092" lon="8.8725464"><ele>285.0</ele><time>2026-04-18T11:54:52.287Z</time></trkpt><trkpt lat="45.7787156" lon="8.8725337"><ele>285.0</ele><time>2026-04-18T11:54:53.288Z</time></trkpt><trkpt lat="45.7786367" lon="8.8724834"><ele>285.0</ele><time>2026-04-18T11:54:54.288Z</time></trkpt><trkpt lat="45.778584" lon="8.872396"><ele>285.0</ele><time>2026-04-18T11:54:55.288Z</time></trkpt><trkpt lat="45.7785639" lon="8.8722769"><ele>285.0</ele><time>2026-04-18T11:54:56.288Z</time></trkpt><trkpt lat="45.7785593" lon="8.8721394"><ele>285.0</ele><time>2026-04-18T11:54:57.287Z</time></trkpt><trkpt lat="45.778562" lon="8.8719849"><ele>285.0</ele><time>2026-04-18T11:54:58.288Z</time></trkpt><trkpt lat="45.7785448" lon="8.8718438"><ele>285.0</ele><time>2026-04-18T11:54:59.287Z</time></trkpt><trkpt lat="45.7784914" lon="8.8717356"><ele>285.0</ele><time>2026-04-18T11:55:00.288Z</time></trkpt><trkpt lat="45.7784173" lon="8.8716653"><ele>285.0</ele><time>2026-04-18T11:55:01.288Z</time></trkpt><trkpt lat="45.7783158" lon="8.8716023"><ele>285.0</ele><time>2026-04-18T11:55:02.288Z</time></trkpt><trkpt lat="45.7782056" lon="8.8715469"><ele>285.0</ele><time>2026-04-18T11:55:03.287Z</time></trkpt><trkpt lat="45.7780851" lon="8.8714891"><ele>285.0</ele><time>2026-04-18T11:55:04.287Z</time></trkpt><trkpt lat="45.777963" lon="8.8714325"><ele>285.0</ele><time>2026-04-18T11:55:05.288Z</time></trkpt><trkpt lat="45.7778507" lon="8.8713776"><ele>285.0</ele><time>2026-04-18T11:55:06.288Z</time></trkpt><trkpt lat="45.7777472" lon="8.8713268"><ele>285.0</ele><time>2026-04-18T11:55:07.287Z</time></trkpt><trkpt lat="45.7776584" lon="8.8712678"><ele>285.0</ele><time>2026-04-18T11:55:08.288Z</time></trkpt><trkpt lat="45.7775907" lon="8.8712028"><ele>285.0</ele><time>2026-04-18T11:55:09.287Z</time></trkpt><trkpt lat="45.7775418" lon="8.8711257"><ele>285.0</ele><time>2026-04-18T11:55:10.287Z</time></trkpt><trkpt lat="45.7775083" lon="8.8710342"><ele>285.0</ele><time>2026-04-18T11:55:11.287Z</time></trkpt><trkpt lat="45.7774947" lon="8.8709178"><ele>285.0</ele><time>2026-04-18T11:55:12.288Z</time></trkpt><trkpt lat="45.7774874" lon="8.8707856"><ele>284.8</ele><time>2026-04-18T11:55:13.288Z</time></trkpt><trkpt lat="45.777457" lon="8.8706592"><ele>284.6</ele><time>2026-04-18T11:55:14.288Z</time></trkpt><trkpt lat="45.7774042" lon="8.8705587"><ele>284.4</ele><time>2026-04-18T11:55:15.288Z</time></trkpt><trkpt lat="45.7773252" lon="8.8705021"><ele>284.2</ele><time>2026-04-18T11:55:16.288Z</time></trkpt><trkpt lat="45.7772359" lon="8.8704944"><ele>284.0</ele><time>2026-04-18T11:55:17.288Z</time></trkpt><trkpt lat="45.7771412" lon="8.8705274"><ele>284.0</ele><time>2026-04-18T11:55:18.288Z</time></trkpt><trkpt lat="45.7770426" lon="8.8705691"><ele>284.0</ele><time>2026-04-18T11:55:19.288Z</time></trkpt><trkpt lat="45.7769418" lon="8.870589"><ele>284.0</ele><time>2026-04-18T11:55:20.288Z</time></trkpt><trkpt lat="45.7768462" lon="8.8705781"><ele>284.0</ele><time>2026-04-18T11:55:21.287Z</time></trkpt><trkpt lat="45.7767596" lon="8.8705458"><ele>284.0</ele><time>2026-04-18T11:55:22.288Z</time></trkpt><trkpt lat="45.7766896" lon="8.8704877"><ele>283.83333333333337</ele><time>2026-04-18T11:55:23.287Z</time></trkpt><trkpt lat="45.7766444" lon="8.8704117"><ele>283.6666666666667</ele><time>2026-04-18T11:55:24.288Z</time></trkpt><trkpt lat="45.7766289" lon="8.8703067"><ele>283.5</ele><time>2026-04-18T11:55:25.287Z</time></trkpt><trkpt lat="45.7766336" lon="8.8701735"><ele>283.3333333333333</ele><time>2026-04-18T11:55:26.287Z</time></trkpt><trkpt lat="45.7766469" lon="8.870027"><ele>283.16666666666663</ele><time>2026-04-18T11:55:27.288Z</time></trkpt><trkpt lat="45.776633" lon="8.8698742"><ele>283.0</ele><time>2026-04-18T11:55:28.287Z</time></trkpt><trkpt lat="45.7765893" lon="8.8697298"><ele>282.6</ele><time>2026-04-18T11:55:29.287Z</time></trkpt><trkpt lat="45.7765184" lon="8.8696167"><ele>282.20000000000005</ele><time>2026-04-18T11:55:30.287Z</time></trkpt><trkpt lat="45.7764239" lon="8.8695403"><ele>281.8</ele><time>2026-04-18T11:55:31.288Z</time></trkpt><trkpt lat="45.7763263" lon="8.8694809"><ele>281.40000000000003</ele><time>2026-04-18T11:55:32.287Z</time></trkpt><trkpt lat="45.776251" lon="8.8693977"><ele>281.0</ele><time>2026-04-18T11:55:33.288Z</time></trkpt><trkpt lat="45.776189" lon="8.8692827"><ele>280.75</ele><time>2026-04-18T11:55:34.288Z</time></trkpt><trkpt lat="45.776133" lon="8.8691365"><ele>280.5</ele><time>2026-04-18T11:55:35.287Z</time></trkpt><trkpt lat="45.7760805" lon="8.8689682"><ele>280.25</ele><time>2026-04-18T11:55:36.287Z</time></trkpt><trkpt lat="45.7760335" lon="8.868783"><ele>280.0</ele><time>2026-04-18T11:55:37.288Z</time></trkpt><trkpt lat="45.7759874" lon="8.8685877"><ele>279.66666666666663</ele><time>2026-04-18T11:55:38.288Z</time></trkpt><trkpt lat="45.7759388" lon="8.8683803"><ele>279.3333333333333</ele><time>2026-04-18T11:55:39.287Z</time></trkpt><trkpt lat="45.7758934" lon="8.8681715"><ele>279.0</ele><time>2026-04-18T11:55:40.287Z</time></trkpt><trkpt lat="45.7758426" lon="8.8679529"><ele>279.0</ele><time>2026-04-18T11:55:41.287Z</time></trkpt><trkpt lat="45.7757806" lon="8.867734"><ele>279.0</ele><time>2026-04-18T11:55:42.288Z</time></trkpt><trkpt lat="45.7757057" lon="8.8675135"><ele>279.0</ele><time>2026-04-18T11:55:43.287Z</time></trkpt><trkpt lat="45.7756193" lon="8.8673042"><ele>279.0</ele><time>2026-04-18T11:55:44.287Z</time></trkpt><trkpt lat="45.7755241" lon="8.8670955"><ele>279.0</ele><time>2026-04-18T11:55:45.287Z</time></trkpt><trkpt lat="45.7754204" lon="8.8668966"><ele>279.0</ele><time>2026-04-18T11:55:46.288Z</time></trkpt><trkpt lat="45.7753003" lon="8.8667117"><ele>278.3333333333333</ele><time>2026-04-18T11:55:47.288Z</time></trkpt><trkpt lat="45.7751676" lon="8.8665408"><ele>277.66666666666663</ele><time>2026-04-18T11:55:48.287Z</time></trkpt><trkpt lat="45.7750298" lon="8.8663841"><ele>277.0</ele><time>2026-04-18T11:55:49.288Z</time></trkpt><trkpt lat="45.7748841" lon="8.8662377"><ele>277.0</ele><time>2026-04-18T11:55:50.287Z</time></trkpt><trkpt lat="45.7747404" lon="8.8661011"><ele>277.0</ele><time>2026-04-18T11:55:51.288Z</time></trkpt><trkpt lat="45.7746043" lon="8.8659736"><ele>277.0</ele><time>2026-04-18T11:55:52.287Z</time></trkpt><trkpt lat="45.7744764" lon="8.8658681"><ele>277.4</ele><time>2026-04-18T11:55:53.287Z</time></trkpt><trkpt lat="45.7743584" lon="8.8657936"><ele>277.79999999999995</ele><time>2026-04-18T11:55:54.288Z</time></trkpt><trkpt lat="45.7742512" lon="8.8657359"><ele>278.2</ele><time>2026-04-18T11:55:55.288Z</time></trkpt><trkpt lat="45.7741758" lon="8.8656626"><ele>278.59999999999997</ele><time>2026-04-18T11:55:56.288Z</time></trkpt><trkpt lat="45.7741268" lon="8.8655816"><ele>279.0</ele><time>2026-04-18T11:55:57.287Z</time></trkpt><trkpt lat="45.7741348" lon="8.8654099"><ele>278.59999999999997</ele><time>2026-04-18T11:55:59.287Z</time></trkpt><trkpt lat="45.7741792" lon="8.8652997"><ele>278.2</ele><time>2026-04-18T11:56:00.287Z</time></trkpt><trkpt lat="45.7741933" lon="8.8651638"><ele>277.79999999999995</ele><time>2026-04-18T11:56:01.287Z</time></trkpt><trkpt lat="45.7741806" lon="8.8650148"><ele>277.4</ele><time>2026-04-18T11:56:02.288Z</time></trkpt><trkpt lat="45.7741522" lon="8.8648643"><ele>277.0</ele><time>2026-04-18T11:56:03.288Z</time></trkpt><trkpt lat="45.7741358" lon="8.8646963"><ele>277.0</ele><time>2026-04-18T11:56:04.287Z</time></trkpt><trkpt lat="45.7741065" lon="8.8645072"><ele>277.0</ele><time>2026-04-18T11:56:05.287Z</time></trkpt><trkpt lat="45.7740487" lon="8.8643284"><ele>277.0</ele><time>2026-04-18T11:56:06.288Z</time></trkpt><trkpt lat="45.7739813" lon="8.8641517"><ele>277.0</ele><time>2026-04-18T11:56:07.287Z</time></trkpt><trkpt lat="45.7739046" lon="8.8639715"><ele>277.66666666666663</ele><time>2026-04-18T11:56:08.288Z</time></trkpt><trkpt lat="45.7738269" lon="8.8637869"><ele>278.3333333333333</ele><time>2026-04-18T11:56:09.287Z</time></trkpt><trkpt lat="45.7737478" lon="8.8635976"><ele>279.0</ele><time>2026-04-18T11:56:10.287Z</time></trkpt><trkpt lat="45.7736689" lon="8.8634026"><ele>279.6666666666667</ele><time>2026-04-18T11:56:11.287Z</time></trkpt><trkpt lat="45.7735878" lon="8.863206"><ele>280.33333333333337</ele><time>2026-04-18T11:56:12.287Z</time></trkpt><trkpt lat="45.7735068" lon="8.8630132"><ele>281.0</ele><time>2026-04-18T11:56:13.287Z</time></trkpt><trkpt lat="45.7734237" lon="8.8628193"><ele>281.0</ele><time>2026-04-18T11:56:14.288Z</time></trkpt><trkpt lat="45.7733431" lon="8.8626253"><ele>281.0</ele><time>2026-04-18T11:56:15.287Z</time></trkpt><trkpt lat="45.7732614" lon="8.8624311"><ele>281.0</ele><time>2026-04-18T11:56:16.287Z</time></trkpt><trkpt lat="45.7731804" lon="8.8622359"><ele>281.75</ele><time>2026-04-18T11:56:17.287Z</time></trkpt><trkpt lat="45.7731013" lon="8.8620493"><ele>282.5</ele><time>2026-04-18T11:56:18.287Z</time></trkpt><trkpt lat="45.7730222" lon="8.8618841"><ele>283.25</ele><time>2026-04-18T11:56:19.287Z</time></trkpt><trkpt lat="45.7729452" lon="8.8617471"><ele>284.0</ele><time>2026-04-18T11:56:20.287Z</time></trkpt><trkpt lat="45.7728808" lon="8.8616346"><ele>284.1666666666667</ele><time>2026-04-18T11:56:21.287Z</time></trkpt><trkpt lat="45.7728312" lon="8.8615472"><ele>284.33333333333337</ele><time>2026-04-18T11:56:22.288Z</time></trkpt><trkpt lat="45.7727924" lon="8.8614703"><ele>284.5</ele><time>2026-04-18T11:56:23.287Z</time></trkpt><trkpt lat="45.7727303" lon="8.8613173"><ele>284.6666666666667</ele><time>2026-04-18T11:56:25.287Z</time></trkpt><trkpt lat="45.7727042" lon="8.8612158"><ele>284.8333333333333</ele><time>2026-04-18T11:56:26.288Z</time></trkpt><trkpt lat="45.7726732" lon="8.8610963"><ele>285.0</ele><time>2026-04-18T11:56:27.287Z</time></trkpt><trkpt lat="45.772629" lon="8.8609718"><ele>285.0</ele><time>2026-04-18T11:56:28.287Z</time></trkpt><trkpt lat="45.7725795" lon="8.8608417"><ele>285.0</ele><time>2026-04-18T11:56:29.287Z</time></trkpt><trkpt lat="45.772529" lon="8.8606994"><ele>285.0</ele><time>2026-04-18T11:56:30.287Z</time></trkpt><trkpt lat="45.7724914" lon="8.8605384"><ele>285.0</ele><time>2026-04-18T11:56:31.288Z</time></trkpt><trkpt lat="45.7724588" lon="8.8603668"><ele>285.0</ele><time>2026-04-18T11:56:32.288Z</time></trkpt><trkpt lat="45.7724335" lon="8.8601806"><ele>285.0</ele><time>2026-04-18T11:56:33.287Z</time></trkpt><trkpt lat="45.7724246" lon="8.8599927"><ele>285.0</ele><time>2026-04-18T11:56:34.288Z</time></trkpt><trkpt lat="45.7724244" lon="8.8597978"><ele>285.0</ele><time>2026-04-18T11:56:35.288Z</time></trkpt><trkpt lat="45.7724271" lon="8.8595983"><ele>286.5</ele><time>2026-04-18T11:56:36.288Z</time></trkpt><trkpt lat="45.7724356" lon="8.8593935"><ele>288.0</ele><time>2026-04-18T11:56:37.288Z</time></trkpt><trkpt lat="45.7724476" lon="8.8591866"><ele>289.5</ele><time>2026-04-18T11:56:38.288Z</time></trkpt><trkpt lat="45.7724597" lon="8.8589728"><ele>291.0</ele><time>2026-04-18T11:56:39.288Z</time></trkpt><trkpt lat="45.7724703" lon="8.8587509"><ele>291.3333333333333</ele><time>2026-04-18T11:56:40.287Z</time></trkpt><trkpt lat="45.7724804" lon="8.8585324"><ele>291.66666666666663</ele><time>2026-04-18T11:56:41.287Z</time></trkpt><trkpt lat="45.7724894" lon="8.8583088"><ele>292.0</ele><time>2026-04-18T11:56:42.287Z</time></trkpt><trkpt lat="45.772502" lon="8.8580848"><ele>292.3333333333333</ele><time>2026-04-18T11:56:43.287Z</time></trkpt><trkpt lat="45.7725137" lon="8.8578599"><ele>292.6666666666667</ele><time>2026-04-18T11:56:44.287Z</time></trkpt><trkpt lat="45.7725296" lon="8.857637"><ele>293.0</ele><time>2026-04-18T11:56:45.287Z</time></trkpt><trkpt lat="45.7725433" lon="8.8574106"><ele>296.0</ele><time>2026-04-18T11:56:46.287Z</time></trkpt><trkpt lat="45.7725553" lon="8.857184"><ele>299.0</ele><time>2026-04-18T11:56:47.287Z</time></trkpt><trkpt lat="45.7725697" lon="8.8569556"><ele>302.0</ele><time>2026-04-18T11:56:48.286Z</time></trkpt><trkpt lat="45.7725883" lon="8.8567226"><ele>302.33333333333337</ele><time>2026-04-18T11:56:49.286Z</time></trkpt><trkpt lat="45.7726112" lon="8.8564915"><ele>302.6666666666667</ele><time>2026-04-18T11:56:50.287Z</time></trkpt><trkpt lat="45.7726336" lon="8.8562585"><ele>303.0</ele><time>2026-04-18T11:56:51.286Z</time></trkpt><trkpt lat="45.7726596" lon="8.8560256"><ele>302.6666666666667</ele><time>2026-04-18T11:56:52.286Z</time></trkpt><trkpt lat="45.7726869" lon="8.8557903"><ele>302.33333333333337</ele><time>2026-04-18T11:56:53.286Z</time></trkpt><trkpt lat="45.7727163" lon="8.8555506"><ele>302.0</ele><time>2026-04-18T11:56:54.286Z</time></trkpt><trkpt lat="45.7727474" lon="8.8553104"><ele>308.0</ele><time>2026-04-18T11:56:55.287Z</time></trkpt><trkpt lat="45.7727782" lon="8.8550674"><ele>314.0</ele><time>2026-04-18T11:56:56.286Z</time></trkpt><trkpt lat="45.7728044" lon="8.854818"><ele>320.0</ele><time>2026-04-18T11:56:57.286Z</time></trkpt><trkpt lat="45.7728279" lon="8.8545622"><ele>320.0</ele><time>2026-04-18T11:56:58.286Z</time></trkpt><trkpt lat="45.7728544" lon="8.8543031"><ele>320.0</ele><time>2026-04-18T11:56:59.287Z</time></trkpt><trkpt lat="45.7728852" lon="8.8540426"><ele>320.0</ele><time>2026-04-18T11:57:00.287Z</time></trkpt><trkpt lat="45.7729184" lon="8.8537797"><ele>319.0</ele><time>2026-04-18T11:57:01.286Z</time></trkpt><trkpt lat="45.772948" lon="8.8535235"><ele>318.0</ele><time>2026-04-18T11:57:02.286Z</time></trkpt><trkpt lat="45.7729709" lon="8.8532689"><ele>317.0</ele><time>2026-04-18T11:57:03.287Z</time></trkpt><trkpt lat="45.7729806" lon="8.8530131"><ele>315.6666666666667</ele><time>2026-04-18T11:57:04.286Z</time></trkpt><trkpt lat="45.772985" lon="8.8527557"><ele>314.3333333333333</ele><time>2026-04-18T11:57:05.286Z</time></trkpt><trkpt lat="45.7729806" lon="8.8524966"><ele>313.0</ele><time>2026-04-18T11:57:06.286Z</time></trkpt><trkpt lat="45.7729662" lon="8.8522396"><ele>313.0</ele><time>2026-04-18T11:57:07.286Z</time></trkpt><trkpt lat="45.7729495" lon="8.8519783"><ele>313.0</ele><time>2026-04-18T11:57:08.287Z</time></trkpt><trkpt lat="45.7729312" lon="8.8517146"><ele>313.0</ele><time>2026-04-18T11:57:09.286Z</time></trkpt><trkpt lat="45.7729133" lon="8.8514493"><ele>315.66666666666663</ele><time>2026-04-18T11:57:10.286Z</time></trkpt><trkpt lat="45.7728957" lon="8.8511901"><ele>318.3333333333333</ele><time>2026-04-18T11:57:11.286Z</time></trkpt><trkpt lat="45.7728751" lon="8.8509301"><ele>321.0</ele><time>2026-04-18T11:57:12.286Z</time></trkpt><trkpt lat="45.7728571" lon="8.8506748"><ele>325.3333333333333</ele><time>2026-04-18T11:57:13.286Z</time></trkpt><trkpt lat="45.772837" lon="8.850421"><ele>329.66666666666663</ele><time>2026-04-18T11:57:14.286Z</time></trkpt><trkpt lat="45.7728181" lon="8.8501682"><ele>334.0</ele><time>2026-04-18T11:57:15.286Z</time></trkpt><trkpt lat="45.7727988" lon="8.849918"><ele>335.66666666666663</ele><time>2026-04-18T11:57:16.286Z</time></trkpt><trkpt lat="45.7727831" lon="8.8496663"><ele>337.3333333333333</ele><time>2026-04-18T11:57:17.286Z</time></trkpt><trkpt lat="45.7727781" lon="8.8494143"><ele>339.0</ele><time>2026-04-18T11:57:18.286Z</time></trkpt><trkpt lat="45.7727917" lon="8.8491652"><ele>339.3333333333333</ele><time>2026-04-18T11:57:19.286Z</time></trkpt><trkpt lat="45.7728169" lon="8.8489129"><ele>339.66666666666663</ele><time>2026-04-18T11:57:20.286Z</time></trkpt><trkpt lat="45.7728549" lon="8.8486608"><ele>340.0</ele><time>2026-04-18T11:57:21.286Z</time></trkpt><trkpt lat="45.7729067" lon="8.8484126"><ele>340.0</ele><time>2026-04-18T11:57:22.286Z</time></trkpt><trkpt lat="45.7729735" lon="8.8481656"><ele>340.0</ele><time>2026-04-18T11:57:23.286Z</time></trkpt><trkpt lat="45.7730522" lon="8.8479282"><ele>340.0</ele><time>2026-04-18T11:57:24.286Z</time></trkpt><trkpt lat="45.7731436" lon="8.8477015"><ele>341.0</ele><time>2026-04-18T11:57:25.287Z</time></trkpt><trkpt lat="45.7732436" lon="8.847496"><ele>342.0</ele><time>2026-04-18T11:57:26.286Z</time></trkpt><trkpt lat="45.7733515" lon="8.8473076"><ele>343.0</ele><time>2026-04-18T11:57:27.286Z</time></trkpt><trkpt lat="45.7734647" lon="8.8471327"><ele>347.3333333333333</ele><time>2026-04-18T11:57:28.286Z</time></trkpt><trkpt lat="45.7735838" lon="8.8469716"><ele>351.6666666666667</ele><time>2026-04-18T11:57:29.286Z</time></trkpt><trkpt lat="45.7737062" lon="8.8468279"><ele>356.0</ele><time>2026-04-18T11:57:30.286Z</time></trkpt><trkpt lat="45.773834" lon="8.8466914"><ele>356.0</ele><time>2026-04-18T11:57:31.287Z</time></trkpt><trkpt lat="45.7739666" lon="8.8465583"><ele>356.0</ele><time>2026-04-18T11:57:32.287Z</time></trkpt><trkpt lat="45.7740978" lon="8.8464297"><ele>356.0</ele><time>2026-04-18T11:57:33.286Z</time></trkpt><trkpt lat="45.7742287" lon="8.8462979"><ele>356.33333333333337</ele><time>2026-04-18T11:57:34.287Z</time></trkpt><trkpt lat="45.7743587" lon="8.8461694"><ele>356.6666666666667</ele><time>2026-04-18T11:57:35.286Z</time></trkpt><trkpt lat="45.7744904" lon="8.8460376"><ele>357.0</ele><time>2026-04-18T11:57:36.286Z</time></trkpt><trkpt lat="45.7746245" lon="8.8458998"><ele>357.0</ele><time>2026-04-18T11:57:37.286Z</time></trkpt><trkpt lat="45.774761" lon="8.8457575"><ele>357.0</ele><time>2026-04-18T11:57:38.287Z</time></trkpt><trkpt lat="45.7748977" lon="8.8456171"><ele>357.0</ele><time>2026-04-18T11:57:39.287Z</time></trkpt><trkpt lat="45.7750346" lon="8.8454777"><ele>357.0</ele><time>2026-04-18T11:57:40.286Z</time></trkpt><trkpt lat="45.7751714" lon="8.8453407"><ele>357.0</ele><time>2026-04-18T11:57:41.286Z</time></trkpt><trkpt lat="45.7753082" lon="8.8451999"><ele>357.0</ele><time>2026-04-18T11:57:42.287Z</time></trkpt><trkpt lat="45.7754456" lon="8.8450586"><ele>357.3333333333333</ele><time>2026-04-18T11:57:43.287Z</time></trkpt><trkpt lat="45.7755825" lon="8.8449209"><ele>357.66666666666663</ele><time>2026-04-18T11:57:44.286Z</time></trkpt><trkpt lat="45.7757169" lon="8.8447882"><ele>358.0</ele><time>2026-04-18T11:57:45.287Z</time></trkpt><trkpt lat="45.7758483" lon="8.8446626"><ele>358.0</ele><time>2026-04-18T11:57:46.286Z</time></trkpt><trkpt lat="45.775978" lon="8.8445372"><ele>358.0</ele><time>2026-04-18T11:57:47.287Z</time></trkpt><trkpt lat="45.7761026" lon="8.8444111"><ele>358.0</ele><time>2026-04-18T11:57:48.286Z</time></trkpt><trkpt lat="45.7762315" lon="8.8442798"><ele>358.66666666666663</ele><time>2026-04-18T11:57:49.286Z</time></trkpt><trkpt lat="45.7763636" lon="8.8441429"><ele>359.3333333333333</ele><time>2026-04-18T11:57:50.286Z</time></trkpt><trkpt lat="45.776497" lon="8.8440025"><ele>360.0</ele><time>2026-04-18T11:57:51.286Z</time></trkpt><trkpt lat="45.7766298" lon="8.8438512"><ele>360.0</ele><time>2026-04-18T11:57:52.287Z</time></trkpt><trkpt lat="45.7767559" lon="8.8436912"><ele>360.0</ele><time>2026-04-18T11:57:53.286Z</time></trkpt><trkpt lat="45.7768758" lon="8.8435223"><ele>360.0</ele><time>2026-04-18T11:57:54.286Z</time></trkpt><trkpt lat="45.7769867" lon="8.8433473"><ele>361.3333333333333</ele><time>2026-04-18T11:57:55.286Z</time></trkpt><trkpt lat="45.777086" lon="8.843159"><ele>362.66666666666663</ele><time>2026-04-18T11:57:56.287Z</time></trkpt><trkpt lat="45.7771793" lon="8.842967"><ele>364.0</ele><time>2026-04-18T11:57:57.286Z</time></trkpt><trkpt lat="45.7772648" lon="8.8427612"><ele>365.0</ele><time>2026-04-18T11:57:58.286Z</time></trkpt><trkpt lat="45.7773452" lon="8.8425459"><ele>366.0</ele><time>2026-04-18T11:57:59.286Z</time></trkpt><trkpt lat="45.7774167" lon="8.8423209"><ele>367.0</ele><time>2026-04-18T11:58:00.286Z</time></trkpt><trkpt lat="45.7774806" lon="8.8420861"><ele>367.0</ele><time>2026-04-18T11:58:01.286Z</time></trkpt><trkpt lat="45.7775365" lon="8.8418482"><ele>367.0</ele><time>2026-04-18T11:58:02.287Z</time></trkpt><trkpt lat="45.7775874" lon="8.8416084"><ele>367.0</ele><time>2026-04-18T11:58:03.286Z</time></trkpt><trkpt lat="45.7776392" lon="8.8413722"><ele>367.3333333333333</ele><time>2026-04-18T11:58:04.287Z</time></trkpt><trkpt lat="45.7776935" lon="8.8411337"><ele>367.6666666666667</ele><time>2026-04-18T11:58:05.287Z</time></trkpt><trkpt lat="45.7777448" lon="8.8408922"><ele>368.0</ele><time>2026-04-18T11:58:06.287Z</time></trkpt><trkpt lat="45.7777963" lon="8.8406569"><ele>368.0</ele><time>2026-04-18T11:58:07.286Z</time></trkpt><trkpt lat="45.7778483" lon="8.8404138"><ele>368.0</ele><time>2026-04-18T11:58:08.286Z</time></trkpt><trkpt lat="45.7778992" lon="8.8401728"><ele>368.0</ele><time>2026-04-18T11:58:09.286Z</time></trkpt><trkpt lat="45.7779523" lon="8.8399285"><ele>368.33333333333337</ele><time>2026-04-18T11:58:10.286Z</time></trkpt><trkpt lat="45.7780012" lon="8.8396823"><ele>368.6666666666667</ele><time>2026-04-18T11:58:11.286Z</time></trkpt><trkpt lat="45.7780536" lon="8.8394245"><ele>369.0</ele><time>2026-04-18T11:58:12.286Z</time></trkpt><trkpt lat="45.7781077" lon="8.8391655"><ele>369.6666666666667</ele><time>2026-04-18T11:58:13.286Z</time></trkpt><trkpt lat="45.7781645" lon="8.8388996"><ele>370.33333333333337</ele><time>2026-04-18T11:58:14.286Z</time></trkpt><trkpt lat="45.7782259" lon="8.8386317"><ele>371.0</ele><time>2026-04-18T11:58:15.287Z</time></trkpt><trkpt lat="45.7782883" lon="8.8383573"><ele>372.0</ele><time>2026-04-18T11:58:16.286Z</time></trkpt><trkpt lat="45.7783482" lon="8.8380784"><ele>373.0</ele><time>2026-04-18T11:58:17.287Z</time></trkpt><trkpt lat="45.7784073" lon="8.8378023"><ele>374.0</ele><time>2026-04-18T11:58:18.287Z</time></trkpt><trkpt lat="45.7784648" lon="8.8375231"><ele>376.6666666666667</ele><time>2026-04-18T11:58:19.287Z</time></trkpt><trkpt lat="45.778524" lon="8.8372494"><ele>379.3333333333333</ele><time>2026-04-18T11:58:20.287Z</time></trkpt><trkpt lat="45.7785808" lon="8.8369744"><ele>382.0</ele><time>2026-04-18T11:58:21.288Z</time></trkpt><trkpt lat="45.7786323" lon="8.8366971"><ele>382.0</ele><time>2026-04-18T11:58:22.286Z</time></trkpt><trkpt lat="45.7786766" lon="8.8364162"><ele>382.0</ele><time>2026-04-18T11:58:23.286Z</time></trkpt><trkpt lat="45.7787179" lon="8.8361317"><ele>382.0</ele><time>2026-04-18T11:58:24.287Z</time></trkpt><trkpt lat="45.7787517" lon="8.8358489"><ele>381.66666666666663</ele><time>2026-04-18T11:58:25.287Z</time></trkpt><trkpt lat="45.7787892" lon="8.8355507"><ele>381.3333333333333</ele><time>2026-04-18T11:58:26.287Z</time></trkpt><trkpt lat="45.7787947" lon="8.8352652"><ele>381.0</ele><time>2026-04-18T11:58:27.286Z</time></trkpt><trkpt lat="45.7787967" lon="8.8349825"><ele>381.0</ele><time>2026-04-18T11:58:28.286Z</time></trkpt><trkpt lat="45.7787903" lon="8.8346962"><ele>381.0</ele><time>2026-04-18T11:58:29.286Z</time></trkpt><trkpt lat="45.7787711" lon="8.8344119"><ele>381.0</ele><time>2026-04-18T11:58:30.286Z</time></trkpt><trkpt lat="45.7787379" lon="8.8341255"><ele>380.6666666666667</ele><time>2026-04-18T11:58:31.286Z</time></trkpt><trkpt lat="45.7786954" lon="8.8338502"><ele>380.33333333333337</ele><time>2026-04-18T11:58:32.287Z</time></trkpt><trkpt lat="45.7786484" lon="8.8335724"><ele>380.0</ele><time>2026-04-18T11:58:33.286Z</time></trkpt><trkpt lat="45.7785888" lon="8.8333005"><ele>379.6666666666667</ele><time>2026-04-18T11:58:34.286Z</time></trkpt><trkpt lat="45.7785209" lon="8.8330288"><ele>379.3333333333333</ele><time>2026-04-18T11:58:35.286Z</time></trkpt><trkpt lat="45.7784421" lon="8.832773"><ele>379.0</ele><time>2026-04-18T11:58:36.286Z</time></trkpt><trkpt lat="45.7783572" lon="8.8325365"><ele>376.3333333333333</ele><time>2026-04-18T11:58:37.286Z</time></trkpt><trkpt lat="45.7782698" lon="8.8323124"><ele>373.6666666666667</ele><time>2026-04-18T11:58:38.286Z</time></trkpt><trkpt lat="45.7781776" lon="8.8321044"><ele>371.0</ele><time>2026-04-18T11:58:39.287Z</time></trkpt><trkpt lat="45.7780777" lon="8.8319053"><ele>371.0</ele><time>2026-04-18T11:58:40.286Z</time></trkpt><trkpt lat="45.7779759" lon="8.8317079"><ele>371.0</ele><time>2026-04-18T11:58:41.286Z</time></trkpt><trkpt lat="45.7778642" lon="8.8315168"><ele>371.0</ele><time>2026-04-18T11:58:42.287Z</time></trkpt><trkpt lat="45.7777459" lon="8.8313292"><ele>371.33333333333337</ele><time>2026-04-18T11:58:43.286Z</time></trkpt><trkpt lat="45.7776212" lon="8.8311552"><ele>371.6666666666667</ele><time>2026-04-18T11:58:44.287Z</time></trkpt><trkpt lat="45.7774954" lon="8.8309894"><ele>372.0</ele><time>2026-04-18T11:58:45.287Z</time></trkpt><trkpt lat="45.7773654" lon="8.8308267"><ele>372.0</ele><time>2026-04-18T11:58:46.286Z</time></trkpt><trkpt lat="45.7772318" lon="8.830669"><ele>372.0</ele><time>2026-04-18T11:58:47.286Z</time></trkpt><trkpt lat="45.7770952" lon="8.8305136"><ele>372.0</ele><time>2026-04-18T11:58:48.287Z</time></trkpt><trkpt lat="45.7769563" lon="8.8303559"><ele>372.3333333333333</ele><time>2026-04-18T11:58:49.286Z</time></trkpt><trkpt lat="45.776814" lon="8.8302"><ele>372.66666666666663</ele><time>2026-04-18T11:58:50.287Z</time></trkpt><trkpt lat="45.7766682" lon="8.8300519"><ele>373.0</ele><time>2026-04-18T11:58:51.287Z</time></trkpt><trkpt lat="45.7765195" lon="8.829904"><ele>372.0</ele><time>2026-04-18T11:58:52.286Z</time></trkpt><trkpt lat="45.7763707" lon="8.8297501"><ele>371.0</ele><time>2026-04-18T11:58:53.287Z</time></trkpt><trkpt lat="45.7762216" lon="8.8295963"><ele>370.0</ele><time>2026-04-18T11:58:54.287Z</time></trkpt><trkpt lat="45.7760688" lon="8.8294414"><ele>370.0</ele><time>2026-04-18T11:58:55.286Z</time></trkpt><trkpt lat="45.7759267" lon="8.8292932"><ele>370.0</ele><time>2026-04-18T11:58:56.286Z</time></trkpt><trkpt lat="45.775789" lon="8.8291548"><ele>370.0</ele><time>2026-04-18T11:58:57.286Z</time></trkpt><trkpt lat="45.7756574" lon="8.8290157"><ele>370.0</ele><time>2026-04-18T11:58:58.287Z</time></trkpt><trkpt lat="45.7755307" lon="8.828886"><ele>370.0</ele><time>2026-04-18T11:58:59.286Z</time></trkpt><trkpt lat="45.7754054" lon="8.8287586"><ele>370.0</ele><time>2026-04-18T11:59:00.286Z</time></trkpt><trkpt lat="45.7752869" lon="8.8286302"><ele>370.75</ele><time>2026-04-18T11:59:01.286Z</time></trkpt><trkpt lat="45.7751736" lon="8.8285115"><ele>371.5</ele><time>2026-04-18T11:59:02.287Z</time></trkpt><trkpt lat="45.7750609" lon="8.8283998"><ele>372.25</ele><time>2026-04-18T11:59:03.286Z</time></trkpt><trkpt lat="45.7749538" lon="8.8282905"><ele>373.0</ele><time>2026-04-18T11:59:04.286Z</time></trkpt><trkpt lat="45.774848" lon="8.8281766"><ele>373.0</ele><time>2026-04-18T11:59:05.286Z</time></trkpt><trkpt lat="45.7747447" lon="8.8280648"><ele>373.0</ele><time>2026-04-18T11:59:06.286Z</time></trkpt><trkpt lat="45.7746435" lon="8.8279585"><ele>373.0</ele><time>2026-04-18T11:59:07.286Z</time></trkpt><trkpt lat="45.7745464" lon="8.8278588"><ele>373.0</ele><time>2026-04-18T11:59:08.286Z</time></trkpt><trkpt lat="45.7744513" lon="8.8277609"><ele>373.0</ele><time>2026-04-18T11:59:09.286Z</time></trkpt><trkpt lat="45.7743608" lon="8.8276687"><ele>373.0</ele><time>2026-04-18T11:59:10.287Z</time></trkpt><trkpt lat="45.7742755" lon="8.8275889"><ele>373.0</ele><time>2026-04-18T11:59:11.287Z</time></trkpt><trkpt lat="45.7741962" lon="8.8275083"><ele>373.0</ele><time>2026-04-18T11:59:12.287Z</time></trkpt><trkpt lat="45.7741241" lon="8.8274357"><ele>373.0</ele><time>2026-04-18T11:59:13.286Z</time></trkpt><trkpt lat="45.7740557" lon="8.8273685"><ele>373.0</ele><time>2026-04-18T11:59:14.286Z</time></trkpt><trkpt lat="45.7739929" lon="8.8272945"><ele>373.0</ele><time>2026-04-18T11:59:15.286Z</time></trkpt><trkpt lat="45.7739309" lon="8.827227"><ele>373.0</ele><time>2026-04-18T11:59:16.287Z</time></trkpt><trkpt lat="45.7738709" lon="8.8271701"><ele>373.0</ele><time>2026-04-18T11:59:17.286Z</time></trkpt><trkpt lat="45.7738118" lon="8.8271099"><ele>373.0</ele><time>2026-04-18T11:59:18.286Z</time></trkpt><trkpt lat="45.7737505" lon="8.8270475"><ele>373.0</ele><time>2026-04-18T11:59:20.286Z</time></trkpt><trkpt lat="45.7737029" lon="8.8269839"><ele>373.0</ele><time>2026-04-18T11:59:25.286Z</time></trkpt><trkpt lat="45.7736549" lon="8.8268549"><ele>373.0</ele><time>2026-04-18T11:59:27.286Z</time></trkpt><trkpt lat="45.7736395" lon="8.8267538"><ele>373.0</ele><time>2026-04-18T11:59:28.286Z</time></trkpt><trkpt lat="45.773646" lon="8.8266317"><ele>373.0</ele><time>2026-04-18T11:59:29.287Z</time></trkpt><trkpt lat="45.7736765" lon="8.8265013"><ele>373.0</ele><time>2026-04-18T11:59:30.286Z</time></trkpt><trkpt lat="45.7737231" lon="8.826366"><ele>373.0</ele><time>2026-04-18T11:59:31.286Z</time></trkpt><trkpt lat="45.7737841" lon="8.8262164"><ele>373.0</ele><time>2026-04-18T11:59:32.286Z</time></trkpt><trkpt lat="45.773843" lon="8.8260505"><ele>373.0</ele><time>2026-04-18T11:59:33.286Z</time></trkpt><trkpt lat="45.773898" lon="8.8258768"><ele>373.0</ele><time>2026-04-18T11:59:34.287Z</time></trkpt><trkpt lat="45.7739529" lon="8.8257025"><ele>373.0</ele><time>2026-04-18T11:59:35.286Z</time></trkpt><trkpt lat="45.7740061" lon="8.8255291"><ele>373.0</ele><time>2026-04-18T11:59:36.287Z</time></trkpt><trkpt lat="45.7740606" lon="8.8253588"><ele>373.0</ele><time>2026-04-18T11:59:37.287Z</time></trkpt><trkpt lat="45.7741147" lon="8.8251924"><ele>373.0</ele><time>2026-04-18T11:59:38.286Z</time></trkpt><trkpt lat="45.7741698" lon="8.8250284"><ele>373.0</ele><time>2026-04-18T11:59:39.286Z</time></trkpt><trkpt lat="45.7742332" lon="8.8248707"><ele>372.75</ele><time>2026-04-18T11:59:40.287Z</time></trkpt><trkpt lat="45.7743046" lon="8.8247283"><ele>372.5</ele><time>2026-04-18T11:59:41.286Z</time></trkpt><trkpt lat="45.7743841" lon="8.8245984"><ele>372.25</ele><time>2026-04-18T11:59:42.287Z</time></trkpt><trkpt lat="45.7744675" lon="8.8244778"><ele>372.0</ele><time>2026-04-18T11:59:43.287Z</time></trkpt><trkpt lat="45.7745571" lon="8.8243719"><ele>370.75</ele><time>2026-04-18T11:59:44.287Z</time></trkpt><trkpt lat="45.774651" lon="8.8242801"><ele>369.5</ele><time>2026-04-18T11:59:45.286Z</time></trkpt><trkpt lat="45.7747496" lon="8.8241909"><ele>368.25</ele><time>2026-04-18T11:59:46.286Z</time></trkpt><trkpt lat="45.7748464" lon="8.8241094"><ele>367.0</ele><time>2026-04-18T11:59:47.287Z</time></trkpt><trkpt lat="45.7749392" lon="8.8240258"><ele>367.0</ele><time>2026-04-18T11:59:48.286Z</time></trkpt><trkpt lat="45.7750313" lon="8.8239599"><ele>367.0</ele><time>2026-04-18T11:59:49.287Z</time></trkpt><trkpt lat="45.7751164" lon="8.8238963"><ele>367.0</ele><time>2026-04-18T11:59:50.286Z</time></trkpt><trkpt lat="45.7751972" lon="8.8238327"><ele>367.0</ele><time>2026-04-18T11:59:51.287Z</time></trkpt><trkpt lat="45.7752626" lon="8.8237784"><ele>367.0</ele><time>2026-04-18T11:59:52.286Z</time></trkpt><trkpt lat="45.7753193" lon="8.8237293"><ele>367.0</ele><time>2026-04-18T11:59:53.287Z</time></trkpt><trkpt lat="45.7754159" lon="8.8236602"><ele>366.8</ele><time>2026-04-18T11:59:55.286Z</time></trkpt><trkpt lat="45.7754665" lon="8.8235411"><ele>366.6</ele><time>2026-04-18T11:59:57.286Z</time></trkpt><trkpt lat="45.7754121" lon="8.8233918"><ele>366.40000000000003</ele><time>2026-04-18T11:59:59.287Z</time></trkpt><trkpt lat="45.7753554" lon="8.8233045"><ele>366.20000000000005</ele><time>2026-04-18T12:00:00.287Z</time></trkpt><trkpt lat="45.7752838" lon="8.8232196"><ele>366.0</ele><time>2026-04-18T12:00:01.286Z</time></trkpt><trkpt lat="45.7751981" lon="8.8231269"><ele>366.25</ele><time>2026-04-18T12:00:02.286Z</time></trkpt><trkpt lat="45.775106" lon="8.8230354"><ele>366.5</ele><time>2026-04-18T12:00:03.286Z</time></trkpt><trkpt lat="45.7750078" lon="8.8229404"><ele>366.75</ele><time>2026-04-18T12:00:04.286Z</time></trkpt><trkpt lat="45.7749099" lon="8.8228421"><ele>367.0</ele><time>2026-04-18T12:00:05.286Z</time></trkpt><trkpt lat="45.7748115" lon="8.8227438"><ele>367.0</ele><time>2026-04-18T12:00:06.286Z</time></trkpt><trkpt lat="45.7747185" lon="8.8226491"><ele>367.0</ele><time>2026-04-18T12:00:07.287Z</time></trkpt><trkpt lat="45.7746301" lon="8.8225503"><ele>367.0</ele><time>2026-04-18T12:00:08.286Z</time></trkpt><trkpt lat="45.7745484" lon="8.8224507"><ele>367.0</ele><time>2026-04-18T12:00:09.287Z</time></trkpt><trkpt lat="45.7744801" lon="8.8223649"><ele>367.0</ele><time>2026-04-18T12:00:10.286Z</time></trkpt><trkpt lat="45.7744227" lon="8.8222912"><ele>366.6</ele><time>2026-04-18T12:00:11.287Z</time></trkpt><trkpt lat="45.7743664" lon="8.8222095"><ele>366.20000000000005</ele><time>2026-04-18T12:00:12.286Z</time></trkpt><trkpt lat="45.7742995" lon="8.8221265"><ele>365.8</ele><time>2026-04-18T12:00:13.286Z</time></trkpt><trkpt lat="45.7742234" lon="8.822041"><ele>365.4</ele><time>2026-04-18T12:00:14.287Z</time></trkpt><trkpt lat="45.7741284" lon="8.8219553"><ele>365.0</ele><time>2026-04-18T12:00:15.286Z</time></trkpt><trkpt lat="45.7740335" lon="8.8218713"><ele>365.0</ele><time>2026-04-18T12:00:16.286Z</time></trkpt><trkpt lat="45.7739453" lon="8.8217935"><ele>365.0</ele><time>2026-04-18T12:00:17.287Z</time></trkpt><trkpt lat="45.7738758" lon="8.8217231"><ele>365.0</ele><time>2026-04-18T12:00:18.287Z</time></trkpt><trkpt lat="45.7738153" lon="8.8216441"><ele>365.0</ele><time>2026-04-18T12:00:19.286Z</time></trkpt><trkpt lat="45.7737708" lon="8.8215527"><ele>365.0</ele><time>2026-04-18T12:00:20.286Z</time></trkpt><trkpt lat="45.7737515" lon="8.8214253"><ele>365.0</ele><time>2026-04-18T12:00:21.286Z</time></trkpt><trkpt lat="45.7737627" lon="8.8213036"><ele>365.0</ele><time>2026-04-18T12:00:22.286Z</time></trkpt><trkpt lat="45.7737982" lon="8.8211841"><ele>365.0</ele><time>2026-04-18T12:00:23.285Z</time></trkpt><trkpt lat="45.7738414" lon="8.8210647"><ele>365.0</ele><time>2026-04-18T12:00:24.285Z</time></trkpt><trkpt lat="45.7738931" lon="8.8209467"><ele>365.0</ele><time>2026-04-18T12:00:25.285Z</time></trkpt><trkpt lat="45.7739245" lon="8.8208595"><ele>365.0</ele><time>2026-04-18T12:00:26.286Z</time></trkpt><trkpt lat="45.7739693" lon="8.8207622"><ele>365.0</ele><time>2026-04-18T12:00:28.286Z</time></trkpt><trkpt lat="45.7740017" lon="8.8206749"><ele>364.1666666666667</ele><time>2026-04-18T12:00:36.285Z</time></trkpt><trkpt lat="45.7740214" lon="8.82054"><ele>363.33333333333337</ele><time>2026-04-18T12:00:38.285Z</time></trkpt><trkpt lat="45.7740464" lon="8.8204534"><ele>362.5</ele><time>2026-04-18T12:00:39.285Z</time></trkpt><trkpt lat="45.7740887" lon="8.8203837"><ele>361.6666666666667</ele><time>2026-04-18T12:00:40.286Z</time></trkpt><trkpt lat="45.7741628" lon="8.8202576"><ele>360.8333333333333</ele><time>2026-04-18T12:00:42.286Z</time></trkpt><trkpt lat="45.7742153" lon="8.8202035"><ele>360.0</ele><time>2026-04-18T12:00:44.285Z</time></trkpt><trkpt lat="45.774296" lon="8.8201311"><ele>359.85714285714283</ele><time>2026-04-18T12:00:48.285Z</time></trkpt><trkpt lat="45.7743499" lon="8.8200837"><ele>359.7142857142857</ele><time>2026-04-18T12:00:49.285Z</time></trkpt><trkpt lat="45.7743893" lon="8.8200127"><ele>359.57142857142856</ele><time>2026-04-18T12:00:50.287Z</time></trkpt><trkpt lat="45.7743914" lon="8.8199222"><ele>359.42857142857144</ele><time>2026-04-18T12:00:51.285Z</time></trkpt><trkpt lat="45.7743647" lon="8.8198304"><ele>359.28571428571433</ele><time>2026-04-18T12:00:52.285Z</time></trkpt><trkpt lat="45.7743077" lon="8.8197486"><ele>359.14285714285717</ele><time>2026-04-18T12:00:53.285Z</time></trkpt><trkpt lat="45.7742347" lon="8.8196429"><ele>359.0</ele><time>2026-04-18T12:00:54.286Z</time></trkpt><trkpt lat="45.7741661" lon="8.8195128"><ele>358.25</ele><time>2026-04-18T12:00:55.285Z</time></trkpt><trkpt lat="45.7740916" lon="8.8193735"><ele>357.5</ele><time>2026-04-18T12:00:56.285Z</time></trkpt><trkpt lat="45.7740125" lon="8.8192229"><ele>356.75</ele><time>2026-04-18T12:00:57.286Z</time></trkpt><trkpt lat="45.7739275" lon="8.8190609"><ele>356.0</ele><time>2026-04-18T12:00:58.285Z</time></trkpt><trkpt lat="45.7738388" lon="8.8188943"><ele>355.6666666666667</ele><time>2026-04-18T12:00:59.285Z</time></trkpt><trkpt lat="45.7737451" lon="8.8187262"><ele>355.3333333333333</ele><time>2026-04-18T12:01:00.286Z</time></trkpt><trkpt lat="45.7736484" lon="8.8185621"><ele>355.0</ele><time>2026-04-18T12:01:01.285Z</time></trkpt><trkpt lat="45.7735519" lon="8.8183978"><ele>353.25</ele><time>2026-04-18T12:01:02.286Z</time></trkpt><trkpt lat="45.7734593" lon="8.8182367"><ele>351.5</ele><time>2026-04-18T12:01:03.286Z</time></trkpt><trkpt lat="45.773368" lon="8.8180767"><ele>349.75</ele><time>2026-04-18T12:01:04.285Z</time></trkpt><trkpt lat="45.7732758" lon="8.8179183"><ele>348.0</ele><time>2026-04-18T12:01:05.285Z</time></trkpt><trkpt lat="45.7731877" lon="8.8177538"><ele>348.75</ele><time>2026-04-18T12:01:06.286Z</time></trkpt><trkpt lat="45.7730946" lon="8.8175909"><ele>349.5</ele><time>2026-04-18T12:01:07.285Z</time></trkpt><trkpt lat="45.7729945" lon="8.8174349"><ele>350.25</ele><time>2026-04-18T12:01:08.285Z</time></trkpt><trkpt lat="45.7728829" lon="8.8172931"><ele>351.0</ele><time>2026-04-18T12:01:09.285Z</time></trkpt><trkpt lat="45.7727673" lon="8.8171583"><ele>350.0</ele><time>2026-04-18T12:01:10.285Z</time></trkpt><trkpt lat="45.7726463" lon="8.8170244"><ele>349.0</ele><time>2026-04-18T12:01:11.285Z</time></trkpt><trkpt lat="45.7725246" lon="8.8168884"><ele>348.0</ele><time>2026-04-18T12:01:12.286Z</time></trkpt><trkpt lat="45.7723972" lon="8.8167506"><ele>348.0</ele><time>2026-04-18T12:01:13.285Z</time></trkpt><trkpt lat="45.7722673" lon="8.8166134"><ele>348.0</ele><time>2026-04-18T12:01:14.285Z</time></trkpt><trkpt lat="45.7721348" lon="8.8164714"><ele>348.0</ele><time>2026-04-18T12:01:15.285Z</time></trkpt><trkpt lat="45.7720003" lon="8.816333"><ele>348.0</ele><time>2026-04-18T12:01:16.285Z</time></trkpt><trkpt lat="45.7718665" lon="8.8161918"><ele>348.0</ele><time>2026-04-18T12:01:17.285Z</time></trkpt><trkpt lat="45.7717383" lon="8.8160349"><ele>348.0</ele><time>2026-04-18T12:01:18.286Z</time></trkpt><trkpt lat="45.7716077" lon="8.8159008"><ele>346.3333333333333</ele><time>2026-04-18T12:01:19.285Z</time></trkpt><trkpt lat="45.7714711" lon="8.8157515"><ele>344.66666666666663</ele><time>2026-04-18T12:01:20.285Z</time></trkpt><trkpt lat="45.7713349" lon="8.8156117"><ele>343.0</ele><time>2026-04-18T12:01:21.285Z</time></trkpt><trkpt lat="45.7712038" lon="8.8154622"><ele>343.0</ele><time>2026-04-18T12:01:22.286Z</time></trkpt><trkpt lat="45.771079" lon="8.8153203"><ele>343.0</ele><time>2026-04-18T12:01:23.285Z</time></trkpt><trkpt lat="45.7709565" lon="8.8151836"><ele>343.0</ele><time>2026-04-18T12:01:24.285Z</time></trkpt><trkpt lat="45.7708334" lon="8.8150553"><ele>342.3333333333333</ele><time>2026-04-18T12:01:25.285Z</time></trkpt><trkpt lat="45.7707041" lon="8.8149268"><ele>341.6666666666667</ele><time>2026-04-18T12:01:26.285Z</time></trkpt><trkpt lat="45.7705742" lon="8.8148033"><ele>341.0</ele><time>2026-04-18T12:01:27.286Z</time></trkpt><trkpt lat="45.7704493" lon="8.8146773"><ele>341.0</ele><time>2026-04-18T12:01:28.285Z</time></trkpt><trkpt lat="45.7703256" lon="8.8145471"><ele>341.0</ele><time>2026-04-18T12:01:29.285Z</time></trkpt><trkpt lat="45.7702063" lon="8.8144259"><ele>341.0</ele><time>2026-04-18T12:01:30.286Z</time></trkpt><trkpt lat="45.7700932" lon="8.8143085"><ele>341.0</ele><time>2026-04-18T12:01:31.285Z</time></trkpt><trkpt lat="45.7699831" lon="8.8141974"><ele>340.8</ele><time>2026-04-18T12:01:32.286Z</time></trkpt><trkpt lat="45.7698771" lon="8.8140984"><ele>340.6</ele><time>2026-04-18T12:01:33.285Z</time></trkpt><trkpt lat="45.7697791" lon="8.8140127"><ele>340.4</ele><time>2026-04-18T12:01:34.285Z</time></trkpt><trkpt lat="45.7696889" lon="8.8139482"><ele>340.2</ele><time>2026-04-18T12:01:35.285Z</time></trkpt><trkpt lat="45.7696161" lon="8.8138959"><ele>340.0</ele><time>2026-04-18T12:01:36.285Z</time></trkpt><trkpt lat="45.7695396" lon="8.8138385"><ele>340.0</ele><time>2026-04-18T12:01:38.285Z</time></trkpt><trkpt lat="45.7695072" lon="8.8137578"><ele>340.0</ele><time>2026-04-18T12:01:42.286Z</time></trkpt><trkpt lat="45.7695423" lon="8.8136063"><ele>340.0</ele><time>2026-04-18T12:01:44.286Z</time></trkpt><trkpt lat="45.7695775" lon="8.8135094"><ele>340.0</ele><time>2026-04-18T12:01:45.286Z</time></trkpt><trkpt lat="45.7696126" lon="8.8134108"><ele>340.0</ele><time>2026-04-18T12:01:46.285Z</time></trkpt><trkpt lat="45.7696357" lon="8.813307"><ele>340.0</ele><time>2026-04-18T12:01:47.285Z</time></trkpt><trkpt lat="45.7696281" lon="8.8132111"><ele>339.8333333333333</ele><time>2026-04-18T12:01:48.285Z</time></trkpt><trkpt lat="45.7695905" lon="8.8131322"><ele>339.66666666666663</ele><time>2026-04-18T12:01:49.286Z</time></trkpt><trkpt lat="45.7695351" lon="8.8130672"><ele>339.5</ele><time>2026-04-18T12:01:50.286Z</time></trkpt><trkpt lat="45.7694698" lon="8.812996"><ele>339.3333333333333</ele><time>2026-04-18T12:01:51.285Z</time></trkpt><trkpt lat="45.7694028" lon="8.8129249"><ele>339.1666666666667</ele><time>2026-04-18T12:01:52.285Z</time></trkpt><trkpt lat="45.7693336" lon="8.8128458"><ele>339.0</ele><time>2026-04-18T12:01:53.285Z</time></trkpt><trkpt lat="45.7692681" lon="8.8127563"><ele>338.6666666666667</ele><time>2026-04-18T12:01:54.285Z</time></trkpt><trkpt lat="45.7692143" lon="8.8126578"><ele>338.3333333333333</ele><time>2026-04-18T12:01:55.286Z</time></trkpt><trkpt lat="45.769177" lon="8.8125487"><ele>338.0</ele><time>2026-04-18T12:01:56.285Z</time></trkpt><trkpt lat="45.7691647" lon="8.8124274"><ele>337.66666666666663</ele><time>2026-04-18T12:01:57.285Z</time></trkpt><trkpt lat="45.7691624" lon="8.8123051"><ele>337.3333333333333</ele><time>2026-04-18T12:01:58.285Z</time></trkpt><trkpt lat="45.7691698" lon="8.8121812"><ele>337.0</ele><time>2026-04-18T12:01:59.286Z</time></trkpt><trkpt lat="45.7691711" lon="8.8120532"><ele>337.0</ele><time>2026-04-18T12:02:00.285Z</time></trkpt><trkpt lat="45.7691731" lon="8.8119214"><ele>337.0</ele><time>2026-04-18T12:02:01.286Z</time></trkpt><trkpt lat="45.7691756" lon="8.8117811"><ele>337.0</ele><time>2026-04-18T12:02:02.286Z</time></trkpt><trkpt lat="45.7691828" lon="8.8116267"><ele>337.0</ele><time>2026-04-18T12:02:03.285Z</time></trkpt><trkpt lat="45.7691845" lon="8.8114741"><ele>337.0</ele><time>2026-04-18T12:02:04.286Z</time></trkpt><trkpt lat="45.769186" lon="8.8113298"><ele>337.0</ele><time>2026-04-18T12:02:05.285Z</time></trkpt><trkpt lat="45.769191" lon="8.8111879"><ele>337.0</ele><time>2026-04-18T12:02:06.285Z</time></trkpt><trkpt lat="45.7691964" lon="8.8110539"><ele>337.0</ele><time>2026-04-18T12:02:07.285Z</time></trkpt><trkpt lat="45.7692047" lon="8.8109193"><ele>337.0</ele><time>2026-04-18T12:02:08.285Z</time></trkpt><trkpt lat="45.7692077" lon="8.8107838"><ele>337.0</ele><time>2026-04-18T12:02:09.286Z</time></trkpt><trkpt lat="45.7692154" lon="8.8106531"><ele>337.0</ele><time>2026-04-18T12:02:10.285Z</time></trkpt><trkpt lat="45.7692306" lon="8.8105277"><ele>337.0</ele><time>2026-04-18T12:02:11.285Z</time></trkpt><trkpt lat="45.7692529" lon="8.8104053"><ele>337.0</ele><time>2026-04-18T12:02:12.286Z</time></trkpt><trkpt lat="45.7692878" lon="8.8102965"><ele>337.0</ele><time>2026-04-18T12:02:13.286Z</time></trkpt><trkpt lat="45.7693408" lon="8.8101971"><ele>337.0</ele><time>2026-04-18T12:02:14.285Z</time></trkpt><trkpt lat="45.7693985" lon="8.810097"><ele>337.0</ele><time>2026-04-18T12:02:15.286Z</time></trkpt><trkpt lat="45.7694287" lon="8.8099802"><ele>337.20000000000005</ele><time>2026-04-18T12:02:16.286Z</time></trkpt><trkpt lat="45.7694416" lon="8.8098555"><ele>337.4</ele><time>2026-04-18T12:02:17.285Z</time></trkpt><trkpt lat="45.76946" lon="8.8097308"><ele>337.6</ele><time>2026-04-18T12:02:18.286Z</time></trkpt><trkpt lat="45.7694974" lon="8.8096057"><ele>337.79999999999995</ele><time>2026-04-18T12:02:19.286Z</time></trkpt><trkpt lat="45.7695428" lon="8.8094801"><ele>338.0</ele><time>2026-04-18T12:02:20.285Z</time></trkpt><trkpt lat="45.7695925" lon="8.8093469"><ele>338.4</ele><time>2026-04-18T12:02:21.285Z</time></trkpt><trkpt lat="45.7696483" lon="8.8092077"><ele>338.79999999999995</ele><time>2026-04-18T12:02:22.286Z</time></trkpt><trkpt lat="45.7697037" lon="8.8090679"><ele>339.2</ele><time>2026-04-18T12:02:23.285Z</time></trkpt><trkpt lat="45.769758" lon="8.8089258"><ele>339.6</ele><time>2026-04-18T12:02:24.285Z</time></trkpt><trkpt lat="45.7698119" lon="8.8087912"><ele>340.0</ele><time>2026-04-18T12:02:25.286Z</time></trkpt><trkpt lat="45.769866" lon="8.8086553"><ele>340.0</ele><time>2026-04-18T12:02:26.285Z</time></trkpt><trkpt lat="45.7699195" lon="8.8085185"><ele>340.0</ele><time>2026-04-18T12:02:27.285Z</time></trkpt><trkpt lat="45.7699719" lon="8.8083773"><ele>340.0</ele><time>2026-04-18T12:02:28.286Z</time></trkpt><trkpt lat="45.770026" lon="8.8082346"><ele>340.0</ele><time>2026-04-18T12:02:29.285Z</time></trkpt><trkpt lat="45.7700817" lon="8.8080877"><ele>340.25</ele><time>2026-04-18T12:02:30.286Z</time></trkpt><trkpt lat="45.7701447" lon="8.8079345"><ele>340.5</ele><time>2026-04-18T12:02:31.286Z</time></trkpt><trkpt lat="45.7702045" lon="8.8077848"><ele>340.75</ele><time>2026-04-18T12:02:32.286Z</time></trkpt><trkpt lat="45.7702595" lon="8.807654"><ele>341.0</ele><time>2026-04-18T12:02:33.285Z</time></trkpt><trkpt lat="45.7703121" lon="8.8075328"><ele>343.1666666666667</ele><time>2026-04-18T12:02:34.285Z</time></trkpt><trkpt lat="45.7703644" lon="8.8074128"><ele>345.33333333333337</ele><time>2026-04-18T12:02:35.286Z</time></trkpt><trkpt lat="45.7704206" lon="8.8072992"><ele>347.5</ele><time>2026-04-18T12:02:36.285Z</time></trkpt><trkpt lat="45.7704752" lon="8.8072045"><ele>349.6666666666667</ele><time>2026-04-18T12:02:37.285Z</time></trkpt><trkpt lat="45.7705194" lon="8.8071364"><ele>351.8333333333333</ele><time>2026-04-18T12:02:38.285Z</time></trkpt><trkpt lat="45.7705753" lon="8.8070572"><ele>354.0</ele><time>2026-04-18T12:02:40.286Z</time></trkpt><trkpt lat="45.7706297" lon="8.8069762"><ele>354.0</ele><time>2026-04-18T12:02:42.285Z</time></trkpt><trkpt lat="45.7707019" lon="8.8068567"><ele>354.0</ele><time>2026-04-18T12:02:44.287Z</time></trkpt><trkpt lat="45.7707473" lon="8.8067782"><ele>354.0</ele><time>2026-04-18T12:02:45.285Z</time></trkpt><trkpt lat="45.7707968" lon="8.8066839"><ele>354.0</ele><time>2026-04-18T12:02:46.285Z</time></trkpt><trkpt lat="45.7708423" lon="8.8065785"><ele>354.0</ele><time>2026-04-18T12:02:47.285Z</time></trkpt><trkpt lat="45.7709008" lon="8.8064753"><ele>354.0</ele><time>2026-04-18T12:02:48.285Z</time></trkpt><trkpt lat="45.7709747" lon="8.8063898"><ele>355.4</ele><time>2026-04-18T12:02:49.285Z</time></trkpt><trkpt lat="45.7710618" lon="8.8063275"><ele>356.79999999999995</ele><time>2026-04-18T12:02:50.285Z</time></trkpt><trkpt lat="45.7711563" lon="8.8062807"><ele>358.20000000000005</ele><time>2026-04-18T12:02:51.285Z</time></trkpt><trkpt lat="45.7712616" lon="8.8062499"><ele>359.6</ele><time>2026-04-18T12:02:52.286Z</time></trkpt><trkpt lat="45.7713752" lon="8.8062198"><ele>361.0</ele><time>2026-04-18T12:02:53.285Z</time></trkpt><trkpt lat="45.7714971" lon="8.8061826"><ele>361.0</ele><time>2026-04-18T12:02:54.285Z</time></trkpt><trkpt lat="45.771612" lon="8.8061286"><ele>361.0</ele><time>2026-04-18T12:02:55.285Z</time></trkpt><trkpt lat="45.7717239" lon="8.8060512"><ele>361.0</ele><time>2026-04-18T12:02:56.286Z</time></trkpt><trkpt lat="45.7718332" lon="8.805958"><ele>361.0</ele><time>2026-04-18T12:02:57.285Z</time></trkpt><trkpt lat="45.7719418" lon="8.805873"><ele>360.20000000000005</ele><time>2026-04-18T12:02:58.285Z</time></trkpt><trkpt lat="45.7720402" lon="8.8057831"><ele>359.40000000000003</ele><time>2026-04-18T12:02:59.285Z</time></trkpt><trkpt lat="45.7721215" lon="8.8057092"><ele>358.6</ele><time>2026-04-18T12:03:00.285Z</time></trkpt><trkpt lat="45.772178" lon="8.8056579"><ele>357.8</ele><time>2026-04-18T12:03:01.285Z</time></trkpt><trkpt lat="45.7722617" lon="8.8055794"><ele>357.0</ele><time>2026-04-18T12:03:03.285Z</time></trkpt><trkpt lat="45.7723734" lon="8.8054723"><ele>357.0</ele><time>2026-04-18T12:03:05.285Z</time></trkpt><trkpt lat="45.7724412" lon="8.8054064"><ele>357.0</ele><time>2026-04-18T12:03:06.286Z</time></trkpt><trkpt lat="45.7725175" lon="8.8053387"><ele>357.0</ele><time>2026-04-18T12:03:07.286Z</time></trkpt><trkpt lat="45.77259" lon="8.8052655"><ele>357.0</ele><time>2026-04-18T12:03:08.286Z</time></trkpt><trkpt lat="45.7726532" lon="8.8051986"><ele>357.0</ele><time>2026-04-18T12:03:09.286Z</time></trkpt><trkpt lat="45.7727138" lon="8.8051243"><ele>357.0</ele><time>2026-04-18T12:03:10.286Z</time></trkpt><trkpt lat="45.7727764" lon="8.8050535"><ele>356.8333333333333</ele><time>2026-04-18T12:03:11.285Z</time></trkpt><trkpt lat="45.7728356" lon="8.8049824"><ele>356.6666666666667</ele><time>2026-04-18T12:03:12.285Z</time></trkpt><trkpt lat="45.7728942" lon="8.8049184"><ele>356.5</ele><time>2026-04-18T12:03:13.286Z</time></trkpt><trkpt lat="45.7729446" lon="8.8048506"><ele>356.33333333333337</ele><time>2026-04-18T12:03:14.285Z</time></trkpt><trkpt lat="45.7730019" lon="8.8047778"><ele>356.1666666666667</ele><time>2026-04-18T12:03:15.285Z</time></trkpt><trkpt lat="45.7730716" lon="8.8046997"><ele>356.0</ele><time>2026-04-18T12:03:16.286Z</time></trkpt><trkpt lat="45.773152" lon="8.8046218"><ele>356.0</ele><time>2026-04-18T12:03:17.285Z</time></trkpt><trkpt lat="45.7732437" lon="8.8045479"><ele>356.0</ele><time>2026-04-18T12:03:18.285Z</time></trkpt><trkpt lat="45.7733409" lon="8.8044845"><ele>356.0</ele><time>2026-04-18T12:03:19.285Z</time></trkpt><trkpt lat="45.7734358" lon="8.8044407"><ele>356.0</ele><time>2026-04-18T12:03:20.285Z</time></trkpt><trkpt lat="45.7735299" lon="8.8044028"><ele>356.0</ele><time>2026-04-18T12:03:21.285Z</time></trkpt><trkpt lat="45.7736259" lon="8.8043774"><ele>355.0</ele><time>2026-04-18T12:03:22.285Z</time></trkpt><trkpt lat="45.7737238" lon="8.8043744"><ele>354.0</ele><time>2026-04-18T12:03:23.285Z</time></trkpt><trkpt lat="45.7738181" lon="8.8043929"><ele>353.0</ele><time>2026-04-18T12:03:24.286Z</time></trkpt><trkpt lat="45.7739116" lon="8.8044247"><ele>352.0</ele><time>2026-04-18T12:03:25.285Z</time></trkpt><trkpt lat="45.7740093" lon="8.8044486"><ele>351.0</ele><time>2026-04-18T12:03:26.285Z</time></trkpt><trkpt lat="45.7741027" lon="8.8044782"><ele>351.0</ele><time>2026-04-18T12:03:27.285Z</time></trkpt><trkpt lat="45.7741973" lon="8.8045034"><ele>351.0</ele><time>2026-04-18T12:03:28.286Z</time></trkpt><trkpt lat="45.774296" lon="8.8045209"><ele>351.0</ele><time>2026-04-18T12:03:29.286Z</time></trkpt><trkpt lat="45.7743949" lon="8.8045182"><ele>351.0</ele><time>2026-04-18T12:03:30.285Z</time></trkpt><trkpt lat="45.7744954" lon="8.8044944"><ele>351.0</ele><time>2026-04-18T12:03:31.286Z</time></trkpt><trkpt lat="45.7745943" lon="8.80445"><ele>349.20000000000005</ele><time>2026-04-18T12:03:32.285Z</time></trkpt><trkpt lat="45.7746872" lon="8.804397"><ele>347.40000000000003</ele><time>2026-04-18T12:03:33.286Z</time></trkpt><trkpt lat="45.7747797" lon="8.8043475"><ele>345.6</ele><time>2026-04-18T12:03:34.286Z</time></trkpt><trkpt lat="45.7748685" lon="8.8043046"><ele>343.8</ele><time>2026-04-18T12:03:35.286Z</time></trkpt><trkpt lat="45.7749502" lon="8.8042605"><ele>342.0</ele><time>2026-04-18T12:03:36.285Z</time></trkpt><trkpt lat="45.7750269" lon="8.8042238"><ele>342.0</ele><time>2026-04-18T12:03:37.285Z</time></trkpt><trkpt lat="45.7750996" lon="8.8041959"><ele>342.0</ele><time>2026-04-18T12:03:38.285Z</time></trkpt><trkpt lat="45.7751735" lon="8.8041645"><ele>342.0</ele><time>2026-04-18T12:03:39.286Z</time></trkpt><trkpt lat="45.7752514" lon="8.8041327"><ele>342.0</ele><time>2026-04-18T12:03:40.285Z</time></trkpt><trkpt lat="45.7753411" lon="8.8040991"><ele>342.0</ele><time>2026-04-18T12:03:41.286Z</time></trkpt><trkpt lat="45.7754293" lon="8.8040525"><ele>342.0</ele><time>2026-04-18T12:03:42.285Z</time></trkpt><trkpt lat="45.7755142" lon="8.8039869"><ele>341.0</ele><time>2026-04-18T12:03:43.285Z</time></trkpt><trkpt lat="45.7755858" lon="8.8038998"><ele>340.0</ele><time>2026-04-18T12:03:44.285Z</time></trkpt><trkpt lat="45.7756504" lon="8.8038019"><ele>339.0</ele><time>2026-04-18T12:03:45.285Z</time></trkpt><trkpt lat="45.7757102" lon="8.8036917"><ele>338.0</ele><time>2026-04-18T12:03:46.285Z</time></trkpt><trkpt lat="45.7757697" lon="8.8035813"><ele>337.0</ele><time>2026-04-18T12:03:47.284Z</time></trkpt><trkpt lat="45.7758287" lon="8.8034723"><ele>336.40000000000003</ele><time>2026-04-18T12:03:48.285Z</time></trkpt><trkpt lat="45.775888" lon="8.8033615"><ele>335.8</ele><time>2026-04-18T12:03:49.284Z</time></trkpt><trkpt lat="45.775946" lon="8.8032432"><ele>335.2</ele><time>2026-04-18T12:03:50.284Z</time></trkpt><trkpt lat="45.7760084" lon="8.8031181"><ele>334.6</ele><time>2026-04-18T12:03:51.284Z</time></trkpt><trkpt lat="45.77606" lon="8.8029947"><ele>334.0</ele><time>2026-04-18T12:03:52.284Z</time></trkpt><trkpt lat="45.7761114" lon="8.8028704"><ele>333.6</ele><time>2026-04-18T12:03:53.284Z</time></trkpt><trkpt lat="45.7761719" lon="8.802757"><ele>333.2</ele><time>2026-04-18T12:03:54.285Z</time></trkpt><trkpt lat="45.7762397" lon="8.8026483"><ele>332.8</ele><time>2026-04-18T12:03:55.284Z</time></trkpt><trkpt lat="45.7763088" lon="8.8025388"><ele>332.40000000000003</ele><time>2026-04-18T12:03:56.284Z</time></trkpt><trkpt lat="45.7763783" lon="8.8024355"><ele>332.0</ele><time>2026-04-18T12:03:57.284Z</time></trkpt><trkpt lat="45.7764507" lon="8.8023358"><ele>331.20000000000005</ele><time>2026-04-18T12:03:58.285Z</time></trkpt><trkpt lat="45.7765232" lon="8.8022427"><ele>330.4</ele><time>2026-04-18T12:03:59.284Z</time></trkpt><trkpt lat="45.776604" lon="8.802145"><ele>329.6</ele><time>2026-04-18T12:04:00.285Z</time></trkpt><trkpt lat="45.776676" lon="8.8020503"><ele>328.79999999999995</ele><time>2026-04-18T12:04:01.284Z</time></trkpt><trkpt lat="45.7767468" lon="8.8019509"><ele>328.0</ele><time>2026-04-18T12:04:02.284Z</time></trkpt><trkpt lat="45.776814" lon="8.8018552"><ele>326.4</ele><time>2026-04-18T12:04:03.284Z</time></trkpt><trkpt lat="45.7768846" lon="8.8017649"><ele>324.79999999999995</ele><time>2026-04-18T12:04:04.284Z</time></trkpt><trkpt lat="45.7769573" lon="8.8016701"><ele>323.2</ele><time>2026-04-18T12:04:05.284Z</time></trkpt><trkpt lat="45.7770269" lon="8.8015798"><ele>321.6</ele><time>2026-04-18T12:04:06.285Z</time></trkpt><trkpt lat="45.7770907" lon="8.8014904"><ele>320.0</ele><time>2026-04-18T12:04:07.286Z</time></trkpt><trkpt lat="45.7771531" lon="8.8013801"><ele>320.0</ele><time>2026-04-18T12:04:08.284Z</time></trkpt><trkpt lat="45.7771956" lon="8.8012521"><ele>320.0</ele><time>2026-04-18T12:04:09.284Z</time></trkpt><trkpt lat="45.7772189" lon="8.8011073"><ele>320.0</ele><time>2026-04-18T12:04:10.284Z</time></trkpt><trkpt lat="45.777232" lon="8.8009566"><ele>320.0</ele><time>2026-04-18T12:04:11.284Z</time></trkpt><trkpt lat="45.7772491" lon="8.8008111"><ele>320.0</ele><time>2026-04-18T12:04:12.284Z</time></trkpt><trkpt lat="45.7772655" lon="8.8006713"><ele>320.0</ele><time>2026-04-18T12:04:13.284Z</time></trkpt><trkpt lat="45.7772812" lon="8.8005424"><ele>320.0</ele><time>2026-04-18T12:04:14.284Z</time></trkpt><trkpt lat="45.7772982" lon="8.800418"><ele>320.0</ele><time>2026-04-18T12:04:15.285Z</time></trkpt><trkpt lat="45.7773143" lon="8.8003009"><ele>320.0</ele><time>2026-04-18T12:04:16.284Z</time></trkpt><trkpt lat="45.7773333" lon="8.8001789"><ele>320.0</ele><time>2026-04-18T12:04:17.286Z</time></trkpt><trkpt lat="45.7773462" lon="8.8000619"><ele>320.0</ele><time>2026-04-18T12:04:18.284Z</time></trkpt><trkpt lat="45.777356" lon="8.7999476"><ele>320.0</ele><time>2026-04-18T12:04:19.284Z</time></trkpt><trkpt lat="45.7773655" lon="8.7998316"><ele>320.0</ele><time>2026-04-18T12:04:20.285Z</time></trkpt><trkpt lat="45.7773783" lon="8.7997158"><ele>320.0</ele><time>2026-04-18T12:04:21.284Z</time></trkpt><trkpt lat="45.777392" lon="8.7996016"><ele>320.0</ele><time>2026-04-18T12:04:22.284Z</time></trkpt><trkpt lat="45.7774047" lon="8.7995059"><ele>320.0</ele><time>2026-04-18T12:04:23.284Z</time></trkpt><trkpt lat="45.7774387" lon="8.7993946"><ele>320.0</ele><time>2026-04-18T12:04:25.284Z</time></trkpt><trkpt lat="45.7775077" lon="8.7993155"><ele>320.1666666666667</ele><time>2026-04-18T12:04:29.284Z</time></trkpt><trkpt lat="45.7775695" lon="8.7991651"><ele>320.33333333333337</ele><time>2026-04-18T12:04:31.284Z</time></trkpt><trkpt lat="45.7775761" lon="8.7990569"><ele>320.5</ele><time>2026-04-18T12:04:32.284Z</time></trkpt><trkpt lat="45.7775677" lon="8.7989414"><ele>320.6666666666667</ele><time>2026-04-18T12:04:33.285Z</time></trkpt><trkpt lat="45.7775577" lon="8.7988215"><ele>320.8333333333333</ele><time>2026-04-18T12:04:34.284Z</time></trkpt><trkpt lat="45.7775526" lon="8.7986981"><ele>321.0</ele><time>2026-04-18T12:04:35.284Z</time></trkpt><trkpt lat="45.7775526" lon="8.7985722"><ele>321.0</ele><time>2026-04-18T12:04:36.284Z</time></trkpt><trkpt lat="45.7775574" lon="8.7984357"><ele>321.0</ele><time>2026-04-18T12:04:37.284Z</time></trkpt><trkpt lat="45.7775567" lon="8.7982996"><ele>321.0</ele><time>2026-04-18T12:04:38.284Z</time></trkpt><trkpt lat="45.7775584" lon="8.7981595"><ele>321.0</ele><time>2026-04-18T12:04:39.285Z</time></trkpt><trkpt lat="45.7775634" lon="8.7980183"><ele>321.0</ele><time>2026-04-18T12:04:40.285Z</time></trkpt><trkpt lat="45.7775662" lon="8.7978785"><ele>321.0</ele><time>2026-04-18T12:04:41.284Z</time></trkpt><trkpt lat="45.7775639" lon="8.7977397"><ele>321.0</ele><time>2026-04-18T12:04:42.284Z</time></trkpt><trkpt lat="45.7775552" lon="8.7976092"><ele>321.0</ele><time>2026-04-18T12:04:43.285Z</time></trkpt><trkpt lat="45.777543" lon="8.7974842"><ele>321.0</ele><time>2026-04-18T12:04:44.285Z</time></trkpt><trkpt lat="45.7775294" lon="8.7973667"><ele>321.0</ele><time>2026-04-18T12:04:45.285Z</time></trkpt><trkpt lat="45.7775151" lon="8.7972704"><ele>321.0</ele><time>2026-04-18T12:04:46.284Z</time></trkpt><trkpt lat="45.7775052" lon="8.79718"><ele>320.8</ele><time>2026-04-18T12:04:47.285Z</time></trkpt><trkpt lat="45.7775529" lon="8.7970662"><ele>320.6</ele><time>2026-04-18T12:04:49.284Z</time></trkpt><trkpt lat="45.7776658" lon="8.7969992"><ele>320.4</ele><time>2026-04-18T12:04:51.285Z</time></trkpt><trkpt lat="45.7777408" lon="8.7969649"><ele>320.2</ele><time>2026-04-18T12:04:52.285Z</time></trkpt><trkpt lat="45.7778183" lon="8.7969239"><ele>320.0</ele><time>2026-04-18T12:04:53.284Z</time></trkpt><trkpt lat="45.7778992" lon="8.7968836"><ele>319.5</ele><time>2026-04-18T12:04:54.285Z</time></trkpt><trkpt lat="45.7779835" lon="8.7968398"><ele>319.0</ele><time>2026-04-18T12:04:55.285Z</time></trkpt><trkpt lat="45.7780716" lon="8.7967933"><ele>318.5</ele><time>2026-04-18T12:04:56.285Z</time></trkpt><trkpt lat="45.7781553" lon="8.7967625"><ele>318.0</ele><time>2026-04-18T12:04:57.284Z</time></trkpt><trkpt lat="45.7782375" lon="8.7967304"><ele>317.5</ele><time>2026-04-18T12:04:58.284Z</time></trkpt><trkpt lat="45.7783145" lon="8.7966818"><ele>317.0</ele><time>2026-04-18T12:04:59.284Z</time></trkpt><trkpt lat="45.7783883" lon="8.7966174"><ele>317.0</ele><time>2026-04-18T12:05:00.285Z</time></trkpt><trkpt lat="45.7784498" lon="8.7965321"><ele>317.0</ele><time>2026-04-18T12:05:01.285Z</time></trkpt><trkpt lat="45.7784913" lon="8.7964605"><ele>317.0</ele><time>2026-04-18T12:05:02.284Z</time></trkpt><trkpt lat="45.7785404" lon="8.7963765"><ele>317.0</ele><time>2026-04-18T12:05:04.284Z</time></trkpt><trkpt lat="45.7785844" lon="8.7962736"><ele>317.0</ele><time>2026-04-18T12:05:07.284Z</time></trkpt><trkpt lat="45.7785781" lon="8.7961068"><ele>317.0</ele><time>2026-04-18T12:05:09.285Z</time></trkpt><trkpt lat="45.7785639" lon="8.796011"><ele>316.83333333333337</ele><time>2026-04-18T12:05:10.284Z</time></trkpt><trkpt lat="45.77855" lon="8.7959052"><ele>316.6666666666667</ele><time>2026-04-18T12:05:11.284Z</time></trkpt><trkpt lat="45.7785311" lon="8.7957978"><ele>316.5</ele><time>2026-04-18T12:05:12.284Z</time></trkpt><trkpt lat="45.7785061" lon="8.7956842"><ele>316.3333333333333</ele><time>2026-04-18T12:05:13.284Z</time></trkpt><trkpt lat="45.7784804" lon="8.795589"><ele>316.16666666666663</ele><time>2026-04-18T12:05:14.284Z</time></trkpt><trkpt lat="45.7784491" lon="8.7954475"><ele>316.0</ele><time>2026-04-18T12:05:16.285Z</time></trkpt><trkpt lat="45.7784721" lon="8.7953477"><ele>316.0</ele><time>2026-04-18T12:05:18.285Z</time></trkpt><trkpt lat="45.7785484" lon="8.7952707"><ele>316.0</ele><time>2026-04-18T12:05:20.284Z</time></trkpt><trkpt lat="45.7786582" lon="8.7952332"><ele>316.0</ele><time>2026-04-18T12:05:22.285Z</time></trkpt><trkpt lat="45.7787776" lon="8.7952695"><ele>316.0</ele><time>2026-04-18T12:05:24.284Z</time></trkpt><trkpt lat="45.7788384" lon="8.7953049"><ele>316.0</ele><time>2026-04-18T12:05:25.284Z</time></trkpt><trkpt lat="45.7788983" lon="8.7953426"><ele>316.0</ele><time>2026-04-18T12:05:26.285Z</time></trkpt><trkpt lat="45.7790305" lon="8.7953712"><ele>316.0</ele><time>2026-04-18T12:05:28.284Z</time></trkpt><trkpt lat="45.7790982" lon="8.795357"><ele>316.0</ele><time>2026-04-18T12:05:29.285Z</time></trkpt><trkpt lat="45.7791673" lon="8.7953402"><ele>316.0</ele><time>2026-04-18T12:05:30.285Z</time></trkpt><trkpt lat="45.7792365" lon="8.7953186"><ele>316.0</ele><time>2026-04-18T12:05:31.284Z</time></trkpt><trkpt lat="45.7793102" lon="8.7952962"><ele>316.0</ele><time>2026-04-18T12:05:32.284Z</time></trkpt><trkpt lat="45.7793806" lon="8.795264"><ele>316.16666666666663</ele><time>2026-04-18T12:05:33.285Z</time></trkpt><trkpt lat="45.7794521" lon="8.7952233"><ele>316.3333333333333</ele><time>2026-04-18T12:05:34.284Z</time></trkpt><trkpt lat="45.7795205" lon="8.795181"><ele>316.5</ele><time>2026-04-18T12:05:35.284Z</time></trkpt><trkpt lat="45.7795863" lon="8.7951464"><ele>316.6666666666667</ele><time>2026-04-18T12:05:36.284Z</time></trkpt><trkpt lat="45.7796468" lon="8.7951184"><ele>316.83333333333337</ele><time>2026-04-18T12:05:37.284Z</time></trkpt><trkpt lat="45.7797381" lon="8.7950824"><ele>317.0</ele><time>2026-04-18T12:05:39.284Z</time></trkpt><trkpt lat="45.7798329" lon="8.7950722"><ele>318.33333333333337</ele><time>2026-04-18T12:05:41.284Z</time></trkpt><trkpt lat="45.779898" lon="8.7950487"><ele>319.6666666666667</ele><time>2026-04-18T12:05:44.285Z</time></trkpt><trkpt lat="45.7799284" lon="8.7949101"><ele>321.0</ele><time>2026-04-18T12:05:47.285Z</time></trkpt><trkpt lat="45.7799042" lon="8.7947309"><ele>322.3333333333333</ele><time>2026-04-18T12:05:49.285Z</time></trkpt><trkpt lat="45.7798873" lon="8.7946292"><ele>323.66666666666663</ele><time>2026-04-18T12:05:50.284Z</time></trkpt><trkpt lat="45.7798622" lon="8.7945306"><ele>325.0</ele><time>2026-04-18T12:05:51.284Z</time></trkpt><trkpt lat="45.7798325" lon="8.7943807"><ele>325.66666666666663</ele><time>2026-04-18T12:05:53.285Z</time></trkpt><trkpt lat="45.7798486" lon="8.794241"><ele>326.3333333333333</ele><time>2026-04-18T12:05:55.285Z</time></trkpt><trkpt lat="45.7798456" lon="8.7941462"><ele>327.0</ele><time>2026-04-18T12:05:56.285Z</time></trkpt><trkpt lat="45.7798544" lon="8.7940035"><ele>327.6666666666667</ele><time>2026-04-18T12:05:58.286Z</time></trkpt><trkpt lat="45.7799" lon="8.7939147"><ele>328.33333333333337</ele><time>2026-04-18T12:06:00.284Z</time></trkpt><trkpt lat="45.7799885" lon="8.793842"><ele>329.0</ele><time>2026-04-18T12:06:03.284Z</time></trkpt><trkpt lat="45.7800932" lon="8.7937925"><ele>329.0</ele><time>2026-04-18T12:06:05.284Z</time></trkpt><trkpt lat="45.7802085" lon="8.793737"><ele>329.0</ele><time>2026-04-18T12:06:07.284Z</time></trkpt><trkpt lat="45.7802738" lon="8.7937127"><ele>329.0</ele><time>2026-04-18T12:06:08.284Z</time></trkpt><trkpt lat="45.7803423" lon="8.7936864"><ele>329.0</ele><time>2026-04-18T12:06:09.284Z</time></trkpt><trkpt lat="45.7804142" lon="8.7936542"><ele>329.0</ele><time>2026-04-18T12:06:10.284Z</time></trkpt><trkpt lat="45.7804879" lon="8.7936255"><ele>329.0</ele><time>2026-04-18T12:06:11.284Z</time></trkpt><trkpt lat="45.780552" lon="8.7936001"><ele>329.0</ele><time>2026-04-18T12:06:12.285Z</time></trkpt><trkpt lat="45.7806135" lon="8.7935788"><ele>329.0</ele><time>2026-04-18T12:06:13.284Z</time></trkpt><trkpt lat="45.7806869" lon="8.7936317"><ele>329.0</ele><time>2026-04-18T12:06:15.285Z</time></trkpt><trkpt lat="45.7807429" lon="8.7937385"><ele>329.0</ele><time>2026-04-18T12:06:17.284Z</time></trkpt><trkpt lat="45.7807654" lon="8.7938249"><ele>329.0</ele><time>2026-04-18T12:06:18.285Z</time></trkpt><trkpt lat="45.7807856" lon="8.793911"><ele>329.0</ele><time>2026-04-18T12:06:19.284Z</time></trkpt><trkpt lat="45.7808095" lon="8.7940184"><ele>329.0</ele><time>2026-04-18T12:06:20.284Z</time></trkpt><trkpt lat="45.7808337" lon="8.7941171"><ele>329.0</ele><time>2026-04-18T12:06:21.284Z</time></trkpt><trkpt lat="45.7808486" lon="8.7942188"><ele>329.0</ele><time>2026-04-18T12:06:22.285Z</time></trkpt><trkpt lat="45.7808592" lon="8.7943155"><ele>329.0</ele><time>2026-04-18T12:06:23.284Z</time></trkpt><trkpt lat="45.7808718" lon="8.7944153"><ele>329.0</ele><time>2026-04-18T12:06:24.284Z</time></trkpt><trkpt lat="45.7808947" lon="8.7945082"><ele>329.0</ele><time>2026-04-18T12:06:25.285Z</time></trkpt><trkpt lat="45.7809107" lon="8.7945973"><ele>329.0</ele><time>2026-04-18T12:06:26.285Z</time></trkpt><trkpt lat="45.7809257" lon="8.7946862"><ele>329.0</ele><time>2026-04-18T12:06:27.284Z</time></trkpt><trkpt lat="45.7809378" lon="8.7947775"><ele>329.2</ele><time>2026-04-18T12:06:28.284Z</time></trkpt><trkpt lat="45.7809476" lon="8.7949425"><ele>329.4</ele><time>2026-04-18T12:06:30.285Z</time></trkpt><trkpt lat="45.7809402" lon="8.7950878"><ele>329.6</ele><time>2026-04-18T12:06:32.285Z</time></trkpt><trkpt lat="45.7809742" lon="8.795261"><ele>329.8</ele><time>2026-04-18T12:06:34.285Z</time></trkpt><trkpt lat="45.7810105" lon="8.7953357"><ele>330.0</ele><time>2026-04-18T12:06:35.285Z</time></trkpt><trkpt lat="45.7810424" lon="8.7954184"><ele>330.0</ele><time>2026-04-18T12:06:36.284Z</time></trkpt><trkpt lat="45.7810833" lon="8.7954898"><ele>330.0</ele><time>2026-04-18T12:06:37.284Z</time></trkpt><trkpt lat="45.7811434" lon="8.795626"><ele>330.0</ele><time>2026-04-18T12:06:39.284Z</time></trkpt><trkpt lat="45.7811777" lon="8.795757"><ele>330.0</ele><time>2026-04-18T12:06:41.284Z</time></trkpt><trkpt lat="45.7812108" lon="8.7958357"><ele>330.0</ele><time>2026-04-18T12:06:43.284Z</time></trkpt><trkpt lat="45.7812561" lon="8.7959019"><ele>330.0</ele><time>2026-04-18T12:06:58.285Z</time></trkpt><trkpt lat="45.7813246" lon="8.795867"><ele>330.0</ele><time>2026-04-18T12:07:00.284Z</time></trkpt><trkpt lat="45.7813954" lon="8.7958134"><ele>330.0</ele><time>2026-04-18T12:07:02.284Z</time></trkpt><trkpt lat="45.7814563" lon="8.795745"><ele>330.0</ele><time>2026-04-18T12:07:04.284Z</time></trkpt><trkpt lat="45.7815141" lon="8.795636"><ele>330.0</ele><time>2026-04-18T12:07:06.284Z</time></trkpt><trkpt lat="45.7815743" lon="8.7955314"><ele>330.0</ele><time>2026-04-18T12:07:08.283Z</time></trkpt><trkpt lat="45.7816394" lon="8.7953886"><ele>330.0</ele><time>2026-04-18T12:07:10.284Z</time></trkpt><trkpt lat="45.781664" lon="8.795236"><ele>330.0</ele><time>2026-04-18T12:07:12.283Z</time></trkpt><trkpt lat="45.7816611" lon="8.7951169"><ele>330.0</ele><time>2026-04-18T12:07:14.284Z</time></trkpt><trkpt lat="45.7816224" lon="8.794992"><ele>330.0</ele><time>2026-04-18T12:07:16.285Z</time></trkpt><trkpt lat="45.7815662" lon="8.7948666"><ele>330.0</ele><time>2026-04-18T12:07:18.284Z</time></trkpt><trkpt lat="45.7815055" lon="8.7947427"><ele>328.25</ele><time>2026-04-18T12:07:20.284Z</time></trkpt><trkpt lat="45.7814354" lon="8.7946006"><ele>326.5</ele><time>2026-04-18T12:07:22.283Z</time></trkpt><trkpt lat="45.7813702" lon="8.7944535"><ele>324.75</ele><time>2026-04-18T12:07:24.283Z</time></trkpt><trkpt lat="45.7813496" lon="8.7942922"><ele>323.0</ele><time>2026-04-18T12:07:26.283Z</time></trkpt><trkpt lat="45.7813951" lon="8.7941209"><ele>321.2</ele><time>2026-04-18T12:07:28.284Z</time></trkpt><trkpt lat="45.7814441" lon="8.7940411"><ele>319.4</ele><time>2026-04-18T12:07:29.284Z</time></trkpt><trkpt lat="45.7815029" lon="8.7939649"><ele>317.59999999999997</ele><time>2026-04-18T12:07:30.283Z</time></trkpt><trkpt lat="45.7815771" lon="8.7938826"><ele>315.79999999999995</ele><time>2026-04-18T12:07:31.284Z</time></trkpt><trkpt lat="45.7816636" lon="8.7937795"><ele>314.0</ele><time>2026-04-18T12:07:32.284Z</time></trkpt><trkpt lat="45.7817588" lon="8.7936746"><ele>313.0</ele><time>2026-04-18T12:07:33.283Z</time></trkpt><trkpt lat="45.7818634" lon="8.7935668"><ele>312.0</ele><time>2026-04-18T12:07:34.283Z</time></trkpt><trkpt lat="45.7819727" lon="8.7934594"><ele>311.0</ele><time>2026-04-18T12:07:35.283Z</time></trkpt><trkpt lat="45.7820825" lon="8.7933541"><ele>310.0</ele><time>2026-04-18T12:07:36.283Z</time></trkpt><trkpt lat="45.7821949" lon="8.7932453"><ele>308.5</ele><time>2026-04-18T12:07:37.284Z</time></trkpt><trkpt lat="45.7823024" lon="8.7931416"><ele>307.0</ele><time>2026-04-18T12:07:38.283Z</time></trkpt><trkpt lat="45.7824044" lon="8.7930447"><ele>305.5</ele><time>2026-04-18T12:07:39.284Z</time></trkpt><trkpt lat="45.7825056" lon="8.7929519"><ele>304.0</ele><time>2026-04-18T12:07:40.283Z</time></trkpt><trkpt lat="45.7826096" lon="8.7928801"><ele>302.75</ele><time>2026-04-18T12:07:41.285Z</time></trkpt><trkpt lat="45.7827208" lon="8.7928202"><ele>301.5</ele><time>2026-04-18T12:07:42.283Z</time></trkpt><trkpt lat="45.7828323" lon="8.7927708"><ele>300.25</ele><time>2026-04-18T12:07:43.283Z</time></trkpt><trkpt lat="45.7829433" lon="8.7927231"><ele>299.0</ele><time>2026-04-18T12:07:44.284Z</time></trkpt><trkpt lat="45.783049" lon="8.7926799"><ele>297.0</ele><time>2026-04-18T12:07:45.283Z</time></trkpt><trkpt lat="45.7831497" lon="8.7926346"><ele>295.0</ele><time>2026-04-18T12:07:46.284Z</time></trkpt><trkpt lat="45.7832526" lon="8.7925945"><ele>293.0</ele><time>2026-04-18T12:07:47.283Z</time></trkpt><trkpt lat="45.7833496" lon="8.7925553"><ele>291.0</ele><time>2026-04-18T12:07:48.284Z</time></trkpt><trkpt lat="45.7834369" lon="8.7925225"><ele>289.0</ele><time>2026-04-18T12:07:49.283Z</time></trkpt><trkpt lat="45.7835174" lon="8.7924951"><ele>287.3333333333333</ele><time>2026-04-18T12:07:50.283Z</time></trkpt><trkpt lat="45.7836008" lon="8.792469"><ele>285.66666666666663</ele><time>2026-04-18T12:07:51.284Z</time></trkpt><trkpt lat="45.7836879" lon="8.7924472"><ele>284.0</ele><time>2026-04-18T12:07:52.284Z</time></trkpt><trkpt lat="45.7837787" lon="8.7924333"><ele>282.3333333333333</ele><time>2026-04-18T12:07:53.284Z</time></trkpt><trkpt lat="45.7838651" lon="8.7924353"><ele>280.6666666666667</ele><time>2026-04-18T12:07:54.284Z</time></trkpt><trkpt lat="45.7839572" lon="8.792446"><ele>279.0</ele><time>2026-04-18T12:07:55.284Z</time></trkpt><trkpt lat="45.7840457" lon="8.7924757"><ele>279.0</ele><time>2026-04-18T12:07:56.283Z</time></trkpt><trkpt lat="45.7841339" lon="8.7925115"><ele>279.0</ele><time>2026-04-18T12:07:57.284Z</time></trkpt><trkpt lat="45.7842251" lon="8.7925536"><ele>279.0</ele><time>2026-04-18T12:07:58.283Z</time></trkpt><trkpt lat="45.7843116" lon="8.7926011"><ele>279.0</ele><time>2026-04-18T12:07:59.283Z</time></trkpt><trkpt lat="45.7844002" lon="8.7926476"><ele>279.0</ele><time>2026-04-18T12:08:00.283Z</time></trkpt><trkpt lat="45.7844885" lon="8.7926962"><ele>278.0</ele><time>2026-04-18T12:08:01.283Z</time></trkpt><trkpt lat="45.7845799" lon="8.7927174"><ele>277.0</ele><time>2026-04-18T12:08:02.283Z</time></trkpt><trkpt lat="45.7846731" lon="8.7927165"><ele>276.0</ele><time>2026-04-18T12:08:03.283Z</time></trkpt><trkpt lat="45.7847664" lon="8.7927006"><ele>275.0</ele><time>2026-04-18T12:08:04.283Z</time></trkpt><trkpt lat="45.7848591" lon="8.7926818"><ele>274.0</ele><time>2026-04-18T12:08:05.283Z</time></trkpt><trkpt lat="45.7849493" lon="8.7926567"><ele>273.8</ele><time>2026-04-18T12:08:06.283Z</time></trkpt><trkpt lat="45.7850406" lon="8.7926318"><ele>273.59999999999997</ele><time>2026-04-18T12:08:07.283Z</time></trkpt><trkpt lat="45.7851303" lon="8.7925954"><ele>273.4</ele><time>2026-04-18T12:08:08.283Z</time></trkpt><trkpt lat="45.7852151" lon="8.7925584"><ele>273.2</ele><time>2026-04-18T12:08:09.283Z</time></trkpt><trkpt lat="45.7853006" lon="8.7925149"><ele>273.0</ele><time>2026-04-18T12:08:10.283Z</time></trkpt><trkpt lat="45.7853902" lon="8.7924669"><ele>271.2</ele><time>2026-04-18T12:08:11.284Z</time></trkpt><trkpt lat="45.7854798" lon="8.7924204"><ele>269.4</ele><time>2026-04-18T12:08:12.283Z</time></trkpt><trkpt lat="45.7855686" lon="8.7923669"><ele>267.59999999999997</ele><time>2026-04-18T12:08:13.283Z</time></trkpt><trkpt lat="45.7856548" lon="8.7923177"><ele>265.8</ele><time>2026-04-18T12:08:14.283Z</time></trkpt><trkpt lat="45.7857421" lon="8.7922734"><ele>264.0</ele><time>2026-04-18T12:08:15.283Z</time></trkpt><trkpt lat="45.7858293" lon="8.7922206"><ele>264.0</ele><time>2026-04-18T12:08:16.284Z</time></trkpt><trkpt lat="45.7859153" lon="8.7921737"><ele>264.0</ele><time>2026-04-18T12:08:17.283Z</time></trkpt><trkpt lat="45.7860026" lon="8.7921263"><ele>264.0</ele><time>2026-04-18T12:08:18.283Z</time></trkpt><trkpt lat="45.7860925" lon="8.7920807"><ele>264.0</ele><time>2026-04-18T12:08:19.283Z</time></trkpt><trkpt lat="45.7861836" lon="8.7920323"><ele>264.0</ele><time>2026-04-18T12:08:20.284Z</time></trkpt><trkpt lat="45.7862802" lon="8.7919856"><ele>263.0</ele><time>2026-04-18T12:08:21.283Z</time></trkpt><trkpt lat="45.7863803" lon="8.7919362"><ele>262.0</ele><time>2026-04-18T12:08:22.283Z</time></trkpt><trkpt lat="45.7864776" lon="8.7918855"><ele>261.0</ele><time>2026-04-18T12:08:23.284Z</time></trkpt><trkpt lat="45.7865745" lon="8.7918305"><ele>260.0</ele><time>2026-04-18T12:08:24.284Z</time></trkpt><trkpt lat="45.786675" lon="8.7917771"><ele>259.0</ele><time>2026-04-18T12:08:25.284Z</time></trkpt><trkpt lat="45.7867759" lon="8.7917266"><ele>258.0</ele><time>2026-04-18T12:08:26.283Z</time></trkpt><trkpt lat="45.7868814" lon="8.7916684"><ele>257.0</ele><time>2026-04-18T12:08:27.284Z</time></trkpt><trkpt lat="45.7869876" lon="8.7916069"><ele>256.0</ele><time>2026-04-18T12:08:28.283Z</time></trkpt><trkpt lat="45.7870974" lon="8.7915459"><ele>255.0</ele><time>2026-04-18T12:08:29.283Z</time></trkpt><trkpt lat="45.7872071" lon="8.7914865"><ele>255.0</ele><time>2026-04-18T12:08:30.283Z</time></trkpt><trkpt lat="45.7873138" lon="8.791426"><ele>255.0</ele><time>2026-04-18T12:08:31.284Z</time></trkpt><trkpt lat="45.7874178" lon="8.7913683"><ele>255.0</ele><time>2026-04-18T12:08:32.283Z</time></trkpt><trkpt lat="45.7875201" lon="8.7913068"><ele>255.0</ele><time>2026-04-18T12:08:33.283Z</time></trkpt><trkpt lat="45.7876288" lon="8.791243"><ele>254.25</ele><time>2026-04-18T12:08:34.284Z</time></trkpt><trkpt lat="45.7877439" lon="8.7911736"><ele>253.5</ele><time>2026-04-18T12:08:35.283Z</time></trkpt><trkpt lat="45.7878583" lon="8.791112"><ele>252.75</ele><time>2026-04-18T12:08:36.284Z</time></trkpt><trkpt lat="45.7879713" lon="8.7910587"><ele>252.0</ele><time>2026-04-18T12:08:37.283Z</time></trkpt><trkpt lat="45.7880859" lon="8.7910082"><ele>250.75</ele><time>2026-04-18T12:08:38.283Z</time></trkpt><trkpt lat="45.7882002" lon="8.7909674"><ele>249.5</ele><time>2026-04-18T12:08:39.284Z</time></trkpt><trkpt lat="45.7883105" lon="8.7909228"><ele>248.25</ele><time>2026-04-18T12:08:40.284Z</time></trkpt><trkpt lat="45.7884193" lon="8.7908804"><ele>247.0</ele><time>2026-04-18T12:08:41.283Z</time></trkpt><trkpt lat="45.7885299" lon="8.7908394"><ele>246.6</ele><time>2026-04-18T12:08:42.283Z</time></trkpt><trkpt lat="45.7886387" lon="8.7908006"><ele>246.2</ele><time>2026-04-18T12:08:43.283Z</time></trkpt><trkpt lat="45.7887467" lon="8.7907647"><ele>245.8</ele><time>2026-04-18T12:08:44.283Z</time></trkpt><trkpt lat="45.7888483" lon="8.7907283"><ele>245.4</ele><time>2026-04-18T12:08:45.283Z</time></trkpt><trkpt lat="45.7889386" lon="8.7907023"><ele>245.0</ele><time>2026-04-18T12:08:46.283Z</time></trkpt><trkpt lat="45.7890185" lon="8.7906928"><ele>245.00000000000003</ele><time>2026-04-18T12:08:47.284Z</time></trkpt><trkpt lat="45.7890969" lon="8.7907025"><ele>245.0</ele><time>2026-04-18T12:08:48.283Z</time></trkpt><trkpt lat="45.7891685" lon="8.7907368"><ele>245.0</ele><time>2026-04-18T12:08:49.283Z</time></trkpt><trkpt lat="45.7892449" lon="8.7907704"><ele>245.0</ele><time>2026-04-18T12:08:50.283Z</time></trkpt><trkpt lat="45.7893229" lon="8.7907581"><ele>245.00000000000003</ele><time>2026-04-18T12:08:51.283Z</time></trkpt><trkpt lat="45.7893812" lon="8.7907037"><ele>245.0</ele><time>2026-04-18T12:08:52.283Z</time></trkpt><trkpt lat="45.7894183" lon="8.7906184"><ele>245.00000000000003</ele><time>2026-04-18T12:08:53.283Z</time></trkpt><trkpt lat="45.7894194" lon="8.7905226"><ele>245.0</ele><time>2026-04-18T12:08:54.284Z</time></trkpt><trkpt lat="45.7893895" lon="8.7904353"><ele>245.0</ele><time>2026-04-18T12:08:55.284Z</time></trkpt><trkpt lat="45.7893404" lon="8.7903553"><ele>245.0</ele><time>2026-04-18T12:08:56.284Z</time></trkpt><trkpt lat="45.7892955" lon="8.7902655"><ele>245.00000000000003</ele><time>2026-04-18T12:08:57.283Z</time></trkpt><trkpt lat="45.7892608" lon="8.7901594"><ele>245.0</ele><time>2026-04-18T12:08:58.285Z</time></trkpt><trkpt lat="45.7892369" lon="8.7900388"><ele>245.0</ele><time>2026-04-18T12:08:59.283Z</time></trkpt><trkpt lat="45.7892167" lon="8.7899154"><ele>245.0</ele><time>2026-04-18T12:09:00.284Z</time></trkpt><trkpt lat="45.7891955" lon="8.7897909"><ele>245.0</ele><time>2026-04-18T12:09:01.284Z</time></trkpt><trkpt lat="45.7891799" lon="8.7896615"><ele>245.0</ele><time>2026-04-18T12:09:02.284Z</time></trkpt><trkpt lat="45.7891629" lon="8.7895286"><ele>245.0</ele><time>2026-04-18T12:09:03.283Z</time></trkpt><trkpt lat="45.7891509" lon="8.7893917"><ele>245.2</ele><time>2026-04-18T12:09:04.284Z</time></trkpt><trkpt lat="45.7891345" lon="8.7892539"><ele>245.4</ele><time>2026-04-18T12:09:05.283Z</time></trkpt><trkpt lat="45.7891158" lon="8.7891083"><ele>245.60000000000002</ele><time>2026-04-18T12:09:06.283Z</time></trkpt><trkpt lat="45.7890969" lon="8.788956"><ele>245.8</ele><time>2026-04-18T12:09:07.284Z</time></trkpt><trkpt lat="45.7890778" lon="8.7888042"><ele>246.0</ele><time>2026-04-18T12:09:08.283Z</time></trkpt><trkpt lat="45.7890562" lon="8.7886443"><ele>246.0</ele><time>2026-04-18T12:09:09.284Z</time></trkpt><trkpt lat="45.7890386" lon="8.7884747"><ele>246.0</ele><time>2026-04-18T12:09:10.284Z</time></trkpt><trkpt lat="45.7890183" lon="8.7883053"><ele>246.0</ele><time>2026-04-18T12:09:11.283Z</time></trkpt><trkpt lat="45.7889978" lon="8.7881266"><ele>246.0</ele><time>2026-04-18T12:09:12.283Z</time></trkpt><trkpt lat="45.7889787" lon="8.7879474"><ele>246.0</ele><time>2026-04-18T12:09:13.283Z</time></trkpt><trkpt lat="45.7889581" lon="8.7877646"><ele>246.0</ele><time>2026-04-18T12:09:14.283Z</time></trkpt><trkpt lat="45.7889338" lon="8.7875815"><ele>246.0</ele><time>2026-04-18T12:09:15.283Z</time></trkpt><trkpt lat="45.7889083" lon="8.7873932"><ele>246.0</ele><time>2026-04-18T12:09:16.283Z</time></trkpt><trkpt lat="45.7888856" lon="8.7871994"><ele>247.0</ele><time>2026-04-18T12:09:17.284Z</time></trkpt><trkpt lat="45.7888615" lon="8.7869948"><ele>248.0</ele><time>2026-04-18T12:09:18.283Z</time></trkpt><trkpt lat="45.7888331" lon="8.7867802"><ele>249.0</ele><time>2026-04-18T12:09:19.283Z</time></trkpt><trkpt lat="45.7888072" lon="8.7865576"><ele>249.0</ele><time>2026-04-18T12:09:20.283Z</time></trkpt><trkpt lat="45.7887845" lon="8.7863368"><ele>249.0</ele><time>2026-04-18T12:09:21.283Z</time></trkpt><trkpt lat="45.788758" lon="8.786116"><ele>249.0</ele><time>2026-04-18T12:09:22.283Z</time></trkpt><trkpt lat="45.7887357" lon="8.7859039"><ele>249.25</ele><time>2026-04-18T12:09:23.283Z</time></trkpt><trkpt lat="45.7887144" lon="8.7857083"><ele>249.5</ele><time>2026-04-18T12:09:24.284Z</time></trkpt><trkpt lat="45.7886954" lon="8.7855128"><ele>249.75</ele><time>2026-04-18T12:09:25.283Z</time></trkpt><trkpt lat="45.7886781" lon="8.7853224"><ele>250.0</ele><time>2026-04-18T12:09:26.283Z</time></trkpt><trkpt lat="45.7886569" lon="8.7851277"><ele>249.25</ele><time>2026-04-18T12:09:27.283Z</time></trkpt><trkpt lat="45.7886351" lon="8.7849317"><ele>248.5</ele><time>2026-04-18T12:09:28.284Z</time></trkpt><trkpt lat="45.7886121" lon="8.7847394"><ele>247.75</ele><time>2026-04-18T12:09:29.283Z</time></trkpt><trkpt lat="45.7885912" lon="8.784544"><ele>247.0</ele><time>2026-04-18T12:09:30.284Z</time></trkpt><trkpt lat="45.7885697" lon="8.7843509"><ele>246.75</ele><time>2026-04-18T12:09:31.284Z</time></trkpt><trkpt lat="45.7885493" lon="8.784157"><ele>246.5</ele><time>2026-04-18T12:09:32.283Z</time></trkpt><trkpt lat="45.7885265" lon="8.7839621"><ele>246.25</ele><time>2026-04-18T12:09:33.284Z</time></trkpt><trkpt lat="45.7885007" lon="8.7837671"><ele>246.0</ele><time>2026-04-18T12:09:34.284Z</time></trkpt><trkpt lat="45.7884794" lon="8.7835733"><ele>247.5</ele><time>2026-04-18T12:09:35.284Z</time></trkpt><trkpt lat="45.7884586" lon="8.7833783"><ele>249.0</ele><time>2026-04-18T12:09:36.283Z</time></trkpt><trkpt lat="45.7884364" lon="8.7831853"><ele>250.5</ele><time>2026-04-18T12:09:37.284Z</time></trkpt><trkpt lat="45.7884128" lon="8.7830005"><ele>252.0</ele><time>2026-04-18T12:09:38.284Z</time></trkpt><trkpt lat="45.788391" lon="8.7828168"><ele>251.25</ele><time>2026-04-18T12:09:39.283Z</time></trkpt><trkpt lat="45.7883686" lon="8.7826371"><ele>250.5</ele><time>2026-04-18T12:09:40.284Z</time></trkpt><trkpt lat="45.7883548" lon="8.7824697"><ele>249.75</ele><time>2026-04-18T12:09:41.283Z</time></trkpt><trkpt lat="45.7883515" lon="8.7823041"><ele>249.0</ele><time>2026-04-18T12:09:42.283Z</time></trkpt><trkpt lat="45.7883511" lon="8.7821447"><ele>249.0</ele><time>2026-04-18T12:09:43.283Z</time></trkpt><trkpt lat="45.7883561" lon="8.7819972"><ele>248.99999999999997</ele><time>2026-04-18T12:09:44.283Z</time></trkpt><trkpt lat="45.7883613" lon="8.7818548"><ele>248.99999999999997</ele><time>2026-04-18T12:09:45.283Z</time></trkpt><trkpt lat="45.7883778" lon="8.7817134"><ele>249.0</ele><time>2026-04-18T12:09:46.284Z</time></trkpt><trkpt lat="45.7883953" lon="8.7815728"><ele>249.0</ele><time>2026-04-18T12:09:47.284Z</time></trkpt><trkpt lat="45.7883931" lon="8.7814247"><ele>249.0</ele><time>2026-04-18T12:09:48.284Z</time></trkpt><trkpt lat="45.7883784" lon="8.781277"><ele>249.0</ele><time>2026-04-18T12:09:49.283Z</time></trkpt><trkpt lat="45.7883776" lon="8.7811111"><ele>249.0</ele><time>2026-04-18T12:09:50.283Z</time></trkpt><trkpt lat="45.7883918" lon="8.7809449"><ele>249.0</ele><time>2026-04-18T12:09:51.283Z</time></trkpt><trkpt lat="45.7884117" lon="8.7807839"><ele>249.0</ele><time>2026-04-18T12:09:52.284Z</time></trkpt><trkpt lat="45.7884369" lon="8.7806264"><ele>248.99999999999997</ele><time>2026-04-18T12:09:53.283Z</time></trkpt><trkpt lat="45.788465" lon="8.7804744"><ele>248.99999999999997</ele><time>2026-04-18T12:09:54.283Z</time></trkpt><trkpt lat="45.7884922" lon="8.7803206"><ele>249.0</ele><time>2026-04-18T12:09:55.284Z</time></trkpt><trkpt lat="45.7885214" lon="8.7801626"><ele>249.0</ele><time>2026-04-18T12:09:56.283Z</time></trkpt><trkpt lat="45.7885492" lon="8.7800036"><ele>249.75</ele><time>2026-04-18T12:09:57.283Z</time></trkpt><trkpt lat="45.7885816" lon="8.7798374"><ele>250.5</ele><time>2026-04-18T12:09:58.284Z</time></trkpt><trkpt lat="45.788615" lon="8.7796697"><ele>251.25</ele><time>2026-04-18T12:09:59.283Z</time></trkpt><trkpt lat="45.7886475" lon="8.7794967"><ele>252.0</ele><time>2026-04-18T12:10:00.284Z</time></trkpt><trkpt lat="45.7886812" lon="8.7793194"><ele>252.0</ele><time>2026-04-18T12:10:01.284Z</time></trkpt><trkpt lat="45.7887178" lon="8.7791396"><ele>252.0</ele><time>2026-04-18T12:10:02.283Z</time></trkpt><trkpt lat="45.7887567" lon="8.7789576"><ele>252.0</ele><time>2026-04-18T12:10:03.284Z</time></trkpt><trkpt lat="45.7887924" lon="8.7787704"><ele>252.0</ele><time>2026-04-18T12:10:04.283Z</time></trkpt><trkpt lat="45.7888272" lon="8.778583"><ele>252.75</ele><time>2026-04-18T12:10:05.284Z</time></trkpt><trkpt lat="45.7888657" lon="8.7783845"><ele>253.5</ele><time>2026-04-18T12:10:06.283Z</time></trkpt><trkpt lat="45.7889041" lon="8.7781829"><ele>254.25</ele><time>2026-04-18T12:10:07.284Z</time></trkpt><trkpt lat="45.7889436" lon="8.7779813"><ele>255.0</ele><time>2026-04-18T12:10:08.283Z</time></trkpt><trkpt lat="45.7889836" lon="8.7777837"><ele>255.5</ele><time>2026-04-18T12:10:09.283Z</time></trkpt><trkpt lat="45.7890228" lon="8.7775954"><ele>256.0</ele><time>2026-04-18T12:10:10.283Z</time></trkpt><trkpt lat="45.7890577" lon="8.7774095"><ele>256.5</ele><time>2026-04-18T12:10:11.283Z</time></trkpt><trkpt lat="45.7890956" lon="8.7772194"><ele>257.0</ele><time>2026-04-18T12:10:12.283Z</time></trkpt><trkpt lat="45.7891349" lon="8.7770265"><ele>257.75</ele><time>2026-04-18T12:10:13.283Z</time></trkpt><trkpt lat="45.7891765" lon="8.7768309"><ele>258.5</ele><time>2026-04-18T12:10:14.283Z</time></trkpt><trkpt lat="45.7892153" lon="8.7766391"><ele>259.25</ele><time>2026-04-18T12:10:15.283Z</time></trkpt><trkpt lat="45.7892546" lon="8.7764424"><ele>260.0</ele><time>2026-04-18T12:10:16.284Z</time></trkpt><trkpt lat="45.7892953" lon="8.7762445"><ele>260.0</ele><time>2026-04-18T12:10:17.283Z</time></trkpt><trkpt lat="45.7893322" lon="8.7760483"><ele>260.0</ele><time>2026-04-18T12:10:18.283Z</time></trkpt><trkpt lat="45.7893698" lon="8.7758569"><ele>260.0</ele><time>2026-04-18T12:10:19.283Z</time></trkpt><trkpt lat="45.789404" lon="8.7756668"><ele>260.0</ele><time>2026-04-18T12:10:20.283Z</time></trkpt><trkpt lat="45.7894403" lon="8.7754747"><ele>258.0</ele><time>2026-04-18T12:10:21.283Z</time></trkpt><trkpt lat="45.7894751" lon="8.7752822"><ele>256.0</ele><time>2026-04-18T12:10:22.284Z</time></trkpt><trkpt lat="45.7895138" lon="8.7750886"><ele>254.0</ele><time>2026-04-18T12:10:23.284Z</time></trkpt><trkpt lat="45.7895527" lon="8.7748913"><ele>252.0</ele><time>2026-04-18T12:10:24.283Z</time></trkpt><trkpt lat="45.7895879" lon="8.7746895"><ele>252.0</ele><time>2026-04-18T12:10:25.283Z</time></trkpt><trkpt lat="45.7896245" lon="8.7744838"><ele>252.0</ele><time>2026-04-18T12:10:26.283Z</time></trkpt><trkpt lat="45.789658" lon="8.7742677"><ele>252.0</ele><time>2026-04-18T12:10:27.283Z</time></trkpt><trkpt lat="45.7896869" lon="8.774053"><ele>251.75</ele><time>2026-04-18T12:10:28.284Z</time></trkpt><trkpt lat="45.7897107" lon="8.773844"><ele>251.5</ele><time>2026-04-18T12:10:29.283Z</time></trkpt><trkpt lat="45.7897317" lon="8.7736348"><ele>251.25</ele><time>2026-04-18T12:10:30.283Z</time></trkpt><trkpt lat="45.7897498" lon="8.7734341"><ele>251.0</ele><time>2026-04-18T12:10:31.282Z</time></trkpt><trkpt lat="45.7897659" lon="8.7732304"><ele>252.0</ele><time>2026-04-18T12:10:32.282Z</time></trkpt><trkpt lat="45.7897841" lon="8.7730197"><ele>253.0</ele><time>2026-04-18T12:10:33.282Z</time></trkpt><trkpt lat="45.7898078" lon="8.772812"><ele>254.0</ele><time>2026-04-18T12:10:34.282Z</time></trkpt><trkpt lat="45.7898301" lon="8.7725934"><ele>255.0</ele><time>2026-04-18T12:10:35.282Z</time></trkpt><trkpt lat="45.7898479" lon="8.7723763"><ele>255.25</ele><time>2026-04-18T12:10:36.282Z</time></trkpt><trkpt lat="45.7898654" lon="8.7721609"><ele>255.5</ele><time>2026-04-18T12:10:37.283Z</time></trkpt><trkpt lat="45.7898852" lon="8.7719484"><ele>255.75</ele><time>2026-04-18T12:10:38.283Z</time></trkpt><trkpt lat="45.7899064" lon="8.7717456"><ele>256.0</ele><time>2026-04-18T12:10:39.282Z</time></trkpt><trkpt lat="45.7899228" lon="8.7715488"><ele>255.5</ele><time>2026-04-18T12:10:40.283Z</time></trkpt><trkpt lat="45.7899382" lon="8.771349"><ele>255.0</ele><time>2026-04-18T12:10:41.282Z</time></trkpt><trkpt lat="45.7899574" lon="8.7711487"><ele>254.5</ele><time>2026-04-18T12:10:42.282Z</time></trkpt><trkpt lat="45.7899712" lon="8.7709502"><ele>254.0</ele><time>2026-04-18T12:10:43.282Z</time></trkpt><trkpt lat="45.78999" lon="8.770749"><ele>254.0</ele><time>2026-04-18T12:10:44.284Z</time></trkpt><trkpt lat="45.7900096" lon="8.770544"><ele>254.0</ele><time>2026-04-18T12:10:45.283Z</time></trkpt><trkpt lat="45.7900289" lon="8.770336"><ele>254.0</ele><time>2026-04-18T12:10:46.283Z</time></trkpt><trkpt lat="45.7900495" lon="8.7701255"><ele>254.0</ele><time>2026-04-18T12:10:47.283Z</time></trkpt><trkpt lat="45.7900683" lon="8.7699186"><ele>254.75</ele><time>2026-04-18T12:10:48.283Z</time></trkpt><trkpt lat="45.790088" lon="8.7697138"><ele>255.5</ele><time>2026-04-18T12:10:49.283Z</time></trkpt><trkpt lat="45.7901176" lon="8.7695081"><ele>256.25</ele><time>2026-04-18T12:10:50.282Z</time></trkpt><trkpt lat="45.7901487" lon="8.7692976"><ele>257.0</ele><time>2026-04-18T12:10:51.283Z</time></trkpt><trkpt lat="45.7901815" lon="8.7690885"><ele>254.0</ele><time>2026-04-18T12:10:52.283Z</time></trkpt><trkpt lat="45.790211" lon="8.7688786"><ele>251.0</ele><time>2026-04-18T12:10:53.282Z</time></trkpt><trkpt lat="45.7902425" lon="8.768658"><ele>248.0</ele><time>2026-04-18T12:10:54.282Z</time></trkpt><trkpt lat="45.7902727" lon="8.768439"><ele>248.0</ele><time>2026-04-18T12:10:55.283Z</time></trkpt><trkpt lat="45.7903023" lon="8.7682248"><ele>248.0</ele><time>2026-04-18T12:10:56.283Z</time></trkpt><trkpt lat="45.7903328" lon="8.7680139"><ele>248.0</ele><time>2026-04-18T12:10:57.283Z</time></trkpt><trkpt lat="45.7903629" lon="8.7677987"><ele>248.66666666666669</ele><time>2026-04-18T12:10:58.283Z</time></trkpt><trkpt lat="45.7903908" lon="8.7675829"><ele>249.33333333333331</ele><time>2026-04-18T12:10:59.282Z</time></trkpt><trkpt lat="45.7904234" lon="8.7673687"><ele>250.0</ele><time>2026-04-18T12:11:00.282Z</time></trkpt><trkpt lat="45.7904514" lon="8.7671572"><ele>250.0</ele><time>2026-04-18T12:11:01.283Z</time></trkpt><trkpt lat="45.7904755" lon="8.7669445"><ele>250.0</ele><time>2026-04-18T12:11:02.283Z</time></trkpt><trkpt lat="45.7904902" lon="8.7667282"><ele>250.0</ele><time>2026-04-18T12:11:03.282Z</time></trkpt><trkpt lat="45.7904928" lon="8.7665147"><ele>251.0</ele><time>2026-04-18T12:11:04.282Z</time></trkpt><trkpt lat="45.7904869" lon="8.766304"><ele>252.0</ele><time>2026-04-18T12:11:05.282Z</time></trkpt><trkpt lat="45.79048" lon="8.7660859"><ele>253.0</ele><time>2026-04-18T12:11:06.283Z</time></trkpt><trkpt lat="45.7904714" lon="8.7658724"><ele>254.0</ele><time>2026-04-18T12:11:07.284Z</time></trkpt><trkpt lat="45.7904613" lon="8.7656592"><ele>254.33333333333334</ele><time>2026-04-18T12:11:08.283Z</time></trkpt><trkpt lat="45.7904544" lon="8.765441"><ele>254.66666666666669</ele><time>2026-04-18T12:11:09.282Z</time></trkpt><trkpt lat="45.790445" lon="8.7652199"><ele>255.0</ele><time>2026-04-18T12:11:10.282Z</time></trkpt><trkpt lat="45.7904381" lon="8.7650005"><ele>255.0</ele><time>2026-04-18T12:11:11.282Z</time></trkpt><trkpt lat="45.7904281" lon="8.7647787"><ele>255.0</ele><time>2026-04-18T12:11:12.282Z</time></trkpt><trkpt lat="45.79042" lon="8.7645552"><ele>255.0</ele><time>2026-04-18T12:11:13.282Z</time></trkpt><trkpt lat="45.7904111" lon="8.764337"><ele>255.0</ele><time>2026-04-18T12:11:14.283Z</time></trkpt><trkpt lat="45.7904012" lon="8.7641155"><ele>255.0</ele><time>2026-04-18T12:11:15.282Z</time></trkpt><trkpt lat="45.7903902" lon="8.7638934"><ele>255.0</ele><time>2026-04-18T12:11:16.283Z</time></trkpt><trkpt lat="45.7903814" lon="8.7636707"><ele>254.66666666666669</ele><time>2026-04-18T12:11:17.283Z</time></trkpt><trkpt lat="45.7903748" lon="8.7634462"><ele>254.33333333333334</ele><time>2026-04-18T12:11:18.282Z</time></trkpt><trkpt lat="45.7903641" lon="8.7632202"><ele>254.0</ele><time>2026-04-18T12:11:19.282Z</time></trkpt><trkpt lat="45.7903547" lon="8.7629942"><ele>254.0</ele><time>2026-04-18T12:11:20.283Z</time></trkpt><trkpt lat="45.7903457" lon="8.7627644"><ele>254.0</ele><time>2026-04-18T12:11:21.283Z</time></trkpt><trkpt lat="45.7903365" lon="8.7625439"><ele>254.0</ele><time>2026-04-18T12:11:22.283Z</time></trkpt><trkpt lat="45.790332" lon="8.7623355"><ele>254.75</ele><time>2026-04-18T12:11:23.283Z</time></trkpt><trkpt lat="45.7903344" lon="8.7621361"><ele>255.5</ele><time>2026-04-18T12:11:24.282Z</time></trkpt><trkpt lat="45.7903457" lon="8.7619433"><ele>256.25</ele><time>2026-04-18T12:11:25.282Z</time></trkpt><trkpt lat="45.7903578" lon="8.7617571"><ele>257.0</ele><time>2026-04-18T12:11:26.282Z</time></trkpt><trkpt lat="45.7903695" lon="8.7615682"><ele>257.0</ele><time>2026-04-18T12:11:27.282Z</time></trkpt><trkpt lat="45.7903785" lon="8.7613821"><ele>257.0</ele><time>2026-04-18T12:11:28.282Z</time></trkpt><trkpt lat="45.7903874" lon="8.7611904"><ele>257.0</ele><time>2026-04-18T12:11:29.282Z</time></trkpt><trkpt lat="45.7903932" lon="8.7610054"><ele>257.0</ele><time>2026-04-18T12:11:30.282Z</time></trkpt><trkpt lat="45.7904038" lon="8.7608118"><ele>257.0</ele><time>2026-04-18T12:11:31.282Z</time></trkpt><trkpt lat="45.7904148" lon="8.7606196"><ele>257.0</ele><time>2026-04-18T12:11:32.282Z</time></trkpt><trkpt lat="45.7904234" lon="8.7604284"><ele>257.0</ele><time>2026-04-18T12:11:33.283Z</time></trkpt><trkpt lat="45.7904355" lon="8.7602288"><ele>257.0</ele><time>2026-04-18T12:11:34.282Z</time></trkpt><trkpt lat="45.7904548" lon="8.760027"><ele>257.25</ele><time>2026-04-18T12:11:35.282Z</time></trkpt><trkpt lat="45.79047" lon="8.7598207"><ele>257.5</ele><time>2026-04-18T12:11:36.282Z</time></trkpt><trkpt lat="45.7904841" lon="8.7596206"><ele>257.75</ele><time>2026-04-18T12:11:37.283Z</time></trkpt><trkpt lat="45.7904989" lon="8.7594314"><ele>258.0</ele><time>2026-04-18T12:11:38.282Z</time></trkpt><trkpt lat="45.7905103" lon="8.7592522"><ele>258.0</ele><time>2026-04-18T12:11:39.283Z</time></trkpt><trkpt lat="45.7905206" lon="8.7590769"><ele>258.0</ele><time>2026-04-18T12:11:40.282Z</time></trkpt><trkpt lat="45.790531" lon="8.7588905"><ele>258.0</ele><time>2026-04-18T12:11:41.283Z</time></trkpt><trkpt lat="45.7905419" lon="8.7587014"><ele>258.0</ele><time>2026-04-18T12:11:42.283Z</time></trkpt><trkpt lat="45.7905532" lon="8.7585121"><ele>258.5</ele><time>2026-04-18T12:11:43.282Z</time></trkpt><trkpt lat="45.7905625" lon="8.7583176"><ele>259.0</ele><time>2026-04-18T12:11:44.283Z</time></trkpt><trkpt lat="45.7905745" lon="8.7581194"><ele>259.5</ele><time>2026-04-18T12:11:45.283Z</time></trkpt><trkpt lat="45.790585" lon="8.7579145"><ele>260.0</ele><time>2026-04-18T12:11:46.284Z</time></trkpt><trkpt lat="45.7905993" lon="8.7577128"><ele>259.75</ele><time>2026-04-18T12:11:47.282Z</time></trkpt><trkpt lat="45.7906123" lon="8.7575151"><ele>259.5</ele><time>2026-04-18T12:11:48.282Z</time></trkpt><trkpt lat="45.790626" lon="8.7573241"><ele>259.25</ele><time>2026-04-18T12:11:49.283Z</time></trkpt><trkpt lat="45.7906385" lon="8.7571299"><ele>259.0</ele><time>2026-04-18T12:11:50.282Z</time></trkpt><trkpt lat="45.7906494" lon="8.756936"><ele>259.75</ele><time>2026-04-18T12:11:51.283Z</time></trkpt><trkpt lat="45.7906589" lon="8.7567386"><ele>260.5</ele><time>2026-04-18T12:11:52.283Z</time></trkpt><trkpt lat="45.7906669" lon="8.7565394"><ele>261.25</ele><time>2026-04-18T12:11:53.282Z</time></trkpt><trkpt lat="45.7906763" lon="8.7563426"><ele>262.0</ele><time>2026-04-18T12:11:54.282Z</time></trkpt><trkpt lat="45.7906819" lon="8.756142"><ele>262.5</ele><time>2026-04-18T12:11:55.283Z</time></trkpt><trkpt lat="45.7906828" lon="8.7559405"><ele>263.0</ele><time>2026-04-18T12:11:56.283Z</time></trkpt><trkpt lat="45.7906826" lon="8.7557466"><ele>263.5</ele><time>2026-04-18T12:11:57.282Z</time></trkpt><trkpt lat="45.7906799" lon="8.7555621"><ele>264.0</ele><time>2026-04-18T12:11:58.283Z</time></trkpt><trkpt lat="45.7906751" lon="8.7553844"><ele>264.0</ele><time>2026-04-18T12:11:59.283Z</time></trkpt><trkpt lat="45.7906707" lon="8.7552156"><ele>264.0</ele><time>2026-04-18T12:12:00.283Z</time></trkpt><trkpt lat="45.7906666" lon="8.7550403"><ele>264.0</ele><time>2026-04-18T12:12:01.282Z</time></trkpt><trkpt lat="45.7906638" lon="8.7548634"><ele>264.0</ele><time>2026-04-18T12:12:02.283Z</time></trkpt><trkpt lat="45.7906626" lon="8.7546837"><ele>264.0</ele><time>2026-04-18T12:12:03.283Z</time></trkpt><trkpt lat="45.7906608" lon="8.754511"><ele>264.0</ele><time>2026-04-18T12:12:04.283Z</time></trkpt><trkpt lat="45.7906572" lon="8.7543465"><ele>264.0</ele><time>2026-04-18T12:12:05.282Z</time></trkpt><trkpt lat="45.7906542" lon="8.7541805"><ele>264.0</ele><time>2026-04-18T12:12:06.283Z</time></trkpt><trkpt lat="45.7906539" lon="8.7540224"><ele>264.5</ele><time>2026-04-18T12:12:07.283Z</time></trkpt><trkpt lat="45.7906532" lon="8.7538819"><ele>265.0</ele><time>2026-04-18T12:12:08.282Z</time></trkpt><trkpt lat="45.7906512" lon="8.7537673"><ele>265.5</ele><time>2026-04-18T12:12:09.283Z</time></trkpt><trkpt lat="45.79065" lon="8.7536673"><ele>266.0</ele><time>2026-04-18T12:12:10.283Z</time></trkpt><trkpt lat="45.7906496" lon="8.7535743"><ele>266.5</ele><time>2026-04-18T12:12:11.283Z</time></trkpt><trkpt lat="45.7906413" lon="8.7534656"><ele>267.0</ele><time>2026-04-18T12:12:12.282Z</time></trkpt><trkpt lat="45.7906385" lon="8.7533246"><ele>267.25</ele><time>2026-04-18T12:12:13.282Z</time></trkpt><trkpt lat="45.7906406" lon="8.7531609"><ele>267.5</ele><time>2026-04-18T12:12:14.282Z</time></trkpt><trkpt lat="45.7906423" lon="8.7529861"><ele>267.75</ele><time>2026-04-18T12:12:15.282Z</time></trkpt><trkpt lat="45.7906425" lon="8.7528078"><ele>268.0</ele><time>2026-04-18T12:12:16.282Z</time></trkpt><trkpt lat="45.7906405" lon="8.7526278"><ele>268.75</ele><time>2026-04-18T12:12:17.282Z</time></trkpt><trkpt lat="45.7906364" lon="8.7524467"><ele>269.5</ele><time>2026-04-18T12:12:18.282Z</time></trkpt><trkpt lat="45.7906341" lon="8.7522707"><ele>270.25</ele><time>2026-04-18T12:12:19.282Z</time></trkpt><trkpt lat="45.7906335" lon="8.7520998"><ele>271.0</ele><time>2026-04-18T12:12:20.282Z</time></trkpt><trkpt lat="45.7906303" lon="8.7519213"><ele>271.0</ele><time>2026-04-18T12:12:21.283Z</time></trkpt><trkpt lat="45.7906262" lon="8.7517354"><ele>271.0</ele><time>2026-04-18T12:12:22.282Z</time></trkpt><trkpt lat="45.7906218" lon="8.751546"><ele>271.0</ele><time>2026-04-18T12:12:23.282Z</time></trkpt><trkpt lat="45.7906204" lon="8.7513537"><ele>271.0</ele><time>2026-04-18T12:12:24.282Z</time></trkpt><trkpt lat="45.7906171" lon="8.7511577"><ele>270.25</ele><time>2026-04-18T12:12:25.282Z</time></trkpt><trkpt lat="45.7906167" lon="8.7509587"><ele>269.5</ele><time>2026-04-18T12:12:26.282Z</time></trkpt><trkpt lat="45.7906157" lon="8.7507651"><ele>268.75</ele><time>2026-04-18T12:12:27.283Z</time></trkpt><trkpt lat="45.7906149" lon="8.7505774"><ele>268.0</ele><time>2026-04-18T12:12:28.282Z</time></trkpt><trkpt lat="45.7906129" lon="8.7503983"><ele>268.0</ele><time>2026-04-18T12:12:29.283Z</time></trkpt><trkpt lat="45.7906052" lon="8.7502169"><ele>268.0</ele><time>2026-04-18T12:12:30.283Z</time></trkpt><trkpt lat="45.7906008" lon="8.7500314"><ele>268.0</ele><time>2026-04-18T12:12:31.282Z</time></trkpt><trkpt lat="45.7905994" lon="8.7498458"><ele>268.0</ele><time>2026-04-18T12:12:32.283Z</time></trkpt><trkpt lat="45.7905959" lon="8.7496558"><ele>267.5</ele><time>2026-04-18T12:12:33.282Z</time></trkpt><trkpt lat="45.7905913" lon="8.7494655"><ele>267.0</ele><time>2026-04-18T12:12:34.283Z</time></trkpt><trkpt lat="45.7905905" lon="8.7492668"><ele>266.5</ele><time>2026-04-18T12:12:35.282Z</time></trkpt><trkpt lat="45.7905925" lon="8.7490844"><ele>266.0</ele><time>2026-04-18T12:12:36.282Z</time></trkpt><trkpt lat="45.7906018" lon="8.7489025"><ele>265.6</ele><time>2026-04-18T12:12:37.282Z</time></trkpt><trkpt lat="45.7906131" lon="8.7487278"><ele>265.20000000000005</ele><time>2026-04-18T12:12:38.283Z</time></trkpt><trkpt lat="45.7906291" lon="8.7485676"><ele>264.79999999999995</ele><time>2026-04-18T12:12:39.283Z</time></trkpt><trkpt lat="45.7906447" lon="8.7484252"><ele>264.4</ele><time>2026-04-18T12:12:40.283Z</time></trkpt><trkpt lat="45.7906662" lon="8.7483021"><ele>264.0</ele><time>2026-04-18T12:12:41.282Z</time></trkpt><trkpt lat="45.7907091" lon="8.7481992"><ele>264.0</ele><time>2026-04-18T12:12:42.282Z</time></trkpt><trkpt lat="45.7907384" lon="8.7480801"><ele>264.0</ele><time>2026-04-18T12:12:43.283Z</time></trkpt><trkpt lat="45.7907374" lon="8.7479551"><ele>264.0</ele><time>2026-04-18T12:12:44.284Z</time></trkpt><trkpt lat="45.7907175" lon="8.7478232"><ele>264.0</ele><time>2026-04-18T12:12:45.282Z</time></trkpt><trkpt lat="45.7906924" lon="8.7476903"><ele>264.0</ele><time>2026-04-18T12:12:46.283Z</time></trkpt><trkpt lat="45.7906955" lon="8.7475409"><ele>264.0</ele><time>2026-04-18T12:12:47.282Z</time></trkpt><trkpt lat="45.7907138" lon="8.7473889"><ele>264.0</ele><time>2026-04-18T12:12:48.283Z</time></trkpt><trkpt lat="45.7907346" lon="8.7472517"><ele>264.0</ele><time>2026-04-18T12:12:49.282Z</time></trkpt><trkpt lat="45.79076" lon="8.747123"><ele>264.0</ele><time>2026-04-18T12:12:50.282Z</time></trkpt><trkpt lat="45.7907973" lon="8.7469921"><ele>264.0</ele><time>2026-04-18T12:12:51.283Z</time></trkpt><trkpt lat="45.7908441" lon="8.7468581"><ele>264.0</ele><time>2026-04-18T12:12:52.282Z</time></trkpt><trkpt lat="45.7908942" lon="8.7467188"><ele>264.0</ele><time>2026-04-18T12:12:53.283Z</time></trkpt><trkpt lat="45.7909469" lon="8.7465734"><ele>264.0</ele><time>2026-04-18T12:12:54.283Z</time></trkpt><trkpt lat="45.791001" lon="8.7464266"><ele>264.0</ele><time>2026-04-18T12:12:55.283Z</time></trkpt><trkpt lat="45.7910576" lon="8.7462753"><ele>264.0</ele><time>2026-04-18T12:12:56.282Z</time></trkpt><trkpt lat="45.7911176" lon="8.7461229"><ele>264.0</ele><time>2026-04-18T12:12:57.283Z</time></trkpt><trkpt lat="45.79118" lon="8.7459691"><ele>264.0</ele><time>2026-04-18T12:12:58.283Z</time></trkpt><trkpt lat="45.7912433" lon="8.7458129"><ele>264.0</ele><time>2026-04-18T12:12:59.283Z</time></trkpt><trkpt lat="45.7913081" lon="8.7456531"><ele>263.75</ele><time>2026-04-18T12:13:00.283Z</time></trkpt><trkpt lat="45.791372" lon="8.7454924"><ele>263.5</ele><time>2026-04-18T12:13:01.283Z</time></trkpt><trkpt lat="45.7914374" lon="8.7453276"><ele>263.25</ele><time>2026-04-18T12:13:02.282Z</time></trkpt><trkpt lat="45.791501" lon="8.7451627"><ele>263.0</ele><time>2026-04-18T12:13:03.282Z</time></trkpt><trkpt lat="45.7915721" lon="8.7449986"><ele>262.5</ele><time>2026-04-18T12:13:04.283Z</time></trkpt><trkpt lat="45.7916433" lon="8.7448311"><ele>262.0</ele><time>2026-04-18T12:13:05.282Z</time></trkpt><trkpt lat="45.7917121" lon="8.7446608"><ele>261.5</ele><time>2026-04-18T12:13:06.283Z</time></trkpt><trkpt lat="45.7917841" lon="8.7444849"><ele>261.0</ele><time>2026-04-18T12:13:07.282Z</time></trkpt><trkpt lat="45.7918551" lon="8.7443087"><ele>260.5</ele><time>2026-04-18T12:13:08.283Z</time></trkpt><trkpt lat="45.791925" lon="8.7441274"><ele>260.0</ele><time>2026-04-18T12:13:09.282Z</time></trkpt><trkpt lat="45.7919978" lon="8.7439473"><ele>259.5</ele><time>2026-04-18T12:13:10.282Z</time></trkpt><trkpt lat="45.7920746" lon="8.7437626"><ele>259.0</ele><time>2026-04-18T12:13:11.283Z</time></trkpt><trkpt lat="45.7921503" lon="8.7435722"><ele>259.0</ele><time>2026-04-18T12:13:12.282Z</time></trkpt><trkpt lat="45.7922251" lon="8.743389"><ele>259.0</ele><time>2026-04-18T12:13:13.282Z</time></trkpt><trkpt lat="45.7922991" lon="8.7432077"><ele>259.0</ele><time>2026-04-18T12:13:14.282Z</time></trkpt><trkpt lat="45.7923737" lon="8.7430366"><ele>259.0</ele><time>2026-04-18T12:13:15.282Z</time></trkpt><trkpt lat="45.7924393" lon="8.7428624"><ele>259.0</ele><time>2026-04-18T12:13:16.283Z</time></trkpt><trkpt lat="45.792504" lon="8.7426991"><ele>259.0</ele><time>2026-04-18T12:13:17.282Z</time></trkpt><trkpt lat="45.7925681" lon="8.7425438"><ele>259.0</ele><time>2026-04-18T12:13:18.283Z</time></trkpt><trkpt lat="45.7926316" lon="8.7423932"><ele>259.0</ele><time>2026-04-18T12:13:19.282Z</time></trkpt><trkpt lat="45.7926944" lon="8.7422366"><ele>259.0</ele><time>2026-04-18T12:13:20.283Z</time></trkpt><trkpt lat="45.7927588" lon="8.7420786"><ele>259.0</ele><time>2026-04-18T12:13:21.283Z</time></trkpt><trkpt lat="45.7928242" lon="8.7419272"><ele>259.0</ele><time>2026-04-18T12:13:22.282Z</time></trkpt><trkpt lat="45.7928847" lon="8.7417767"><ele>259.0</ele><time>2026-04-18T12:13:23.283Z</time></trkpt><trkpt lat="45.7929463" lon="8.7416296"><ele>259.0</ele><time>2026-04-18T12:13:24.283Z</time></trkpt><trkpt lat="45.7930088" lon="8.7414788"><ele>259.0</ele><time>2026-04-18T12:13:25.283Z</time></trkpt><trkpt lat="45.7930723" lon="8.7413182"><ele>259.0</ele><time>2026-04-18T12:13:26.283Z</time></trkpt><trkpt lat="45.7931368" lon="8.741161"><ele>259.0</ele><time>2026-04-18T12:13:27.283Z</time></trkpt><trkpt lat="45.7932015" lon="8.740993"><ele>258.25</ele><time>2026-04-18T12:13:28.282Z</time></trkpt><trkpt lat="45.7932661" lon="8.7408341"><ele>257.5</ele><time>2026-04-18T12:13:29.282Z</time></trkpt><trkpt lat="45.7933328" lon="8.7406766"><ele>256.75</ele><time>2026-04-18T12:13:30.282Z</time></trkpt><trkpt lat="45.7934007" lon="8.7405106"><ele>256.0</ele><time>2026-04-18T12:13:31.283Z</time></trkpt><trkpt lat="45.7934678" lon="8.7403474"><ele>255.25</ele><time>2026-04-18T12:13:32.282Z</time></trkpt><trkpt lat="45.793533" lon="8.7401806"><ele>254.5</ele><time>2026-04-18T12:13:33.283Z</time></trkpt><trkpt lat="45.793604" lon="8.7400131"><ele>253.75</ele><time>2026-04-18T12:13:34.283Z</time></trkpt><trkpt lat="45.7936726" lon="8.7398471"><ele>253.0</ele><time>2026-04-18T12:13:35.282Z</time></trkpt><trkpt lat="45.7937396" lon="8.7396746"><ele>253.0</ele><time>2026-04-18T12:13:36.282Z</time></trkpt><trkpt lat="45.7938045" lon="8.7395144"><ele>253.0</ele><time>2026-04-18T12:13:37.283Z</time></trkpt><trkpt lat="45.7938682" lon="8.7393581"><ele>253.0</ele><time>2026-04-18T12:13:38.283Z</time></trkpt><trkpt lat="45.7939364" lon="8.7391964"><ele>253.0</ele><time>2026-04-18T12:13:39.282Z</time></trkpt><trkpt lat="45.7940006" lon="8.7390413"><ele>252.5</ele><time>2026-04-18T12:13:40.282Z</time></trkpt><trkpt lat="45.7940678" lon="8.7388818"><ele>252.0</ele><time>2026-04-18T12:13:41.282Z</time></trkpt><trkpt lat="45.7941331" lon="8.7387253"><ele>251.5</ele><time>2026-04-18T12:13:42.282Z</time></trkpt><trkpt lat="45.7941958" lon="8.7385594"><ele>251.0</ele><time>2026-04-18T12:13:43.282Z</time></trkpt><trkpt lat="45.7942579" lon="8.7383964"><ele>250.75</ele><time>2026-04-18T12:13:44.282Z</time></trkpt><trkpt lat="45.7943205" lon="8.7382378"><ele>250.5</ele><time>2026-04-18T12:13:45.282Z</time></trkpt><trkpt lat="45.794385" lon="8.7380744"><ele>250.25</ele><time>2026-04-18T12:13:46.283Z</time></trkpt><trkpt lat="45.7944509" lon="8.7379148"><ele>250.0</ele><time>2026-04-18T12:13:47.282Z</time></trkpt><trkpt lat="45.7945143" lon="8.7377583"><ele>249.8</ele><time>2026-04-18T12:13:48.282Z</time></trkpt><trkpt lat="45.794575" lon="8.7376047"><ele>249.6</ele><time>2026-04-18T12:13:49.283Z</time></trkpt><trkpt lat="45.7946268" lon="8.7374622"><ele>249.39999999999998</ele><time>2026-04-18T12:13:50.283Z</time></trkpt><trkpt lat="45.7946723" lon="8.7373375"><ele>249.2</ele><time>2026-04-18T12:13:51.282Z</time></trkpt><trkpt lat="45.7947318" lon="8.737221"><ele>249.0</ele><time>2026-04-18T12:13:52.282Z</time></trkpt><trkpt lat="45.7947997" lon="8.7371192"><ele>249.0</ele><time>2026-04-18T12:13:53.282Z</time></trkpt><trkpt lat="45.7948565" lon="8.7369973"><ele>249.0</ele><time>2026-04-18T12:13:54.283Z</time></trkpt><trkpt lat="45.7948755" lon="8.7368511"><ele>249.0</ele><time>2026-04-18T12:13:55.282Z</time></trkpt><trkpt lat="45.7948939" lon="8.7366803"><ele>249.0</ele><time>2026-04-18T12:13:56.282Z</time></trkpt><trkpt lat="45.7949334" lon="8.7364972"><ele>248.25</ele><time>2026-04-18T12:13:57.282Z</time></trkpt><trkpt lat="45.7949791" lon="8.7363031"><ele>247.5</ele><time>2026-04-18T12:13:58.282Z</time></trkpt><trkpt lat="45.7950265" lon="8.7361082"><ele>246.75</ele><time>2026-04-18T12:13:59.283Z</time></trkpt><trkpt lat="45.7950764" lon="8.7359117"><ele>246.0</ele><time>2026-04-18T12:14:00.282Z</time></trkpt><trkpt lat="45.7951295" lon="8.735714"><ele>246.25</ele><time>2026-04-18T12:14:01.282Z</time></trkpt><trkpt lat="45.7951799" lon="8.7355274"><ele>246.5</ele><time>2026-04-18T12:14:02.282Z</time></trkpt><trkpt lat="45.7952289" lon="8.7353448"><ele>246.75</ele><time>2026-04-18T12:14:03.281Z</time></trkpt><trkpt lat="45.7952768" lon="8.7351652"><ele>247.0</ele><time>2026-04-18T12:14:04.281Z</time></trkpt><trkpt lat="45.7953244" lon="8.7349863"><ele>247.0</ele><time>2026-04-18T12:14:05.282Z</time></trkpt><trkpt lat="45.795373" lon="8.7348077"><ele>247.0</ele><time>2026-04-18T12:14:06.281Z</time></trkpt><trkpt lat="45.7954226" lon="8.7346249"><ele>247.0</ele><time>2026-04-18T12:14:07.281Z</time></trkpt><trkpt lat="45.7954752" lon="8.7344415"><ele>247.0</ele><time>2026-04-18T12:14:08.281Z</time></trkpt><trkpt lat="45.795526" lon="8.7342556"><ele>247.5</ele><time>2026-04-18T12:14:09.281Z</time></trkpt><trkpt lat="45.7955747" lon="8.7340682"><ele>248.0</ele><time>2026-04-18T12:14:10.282Z</time></trkpt><trkpt lat="45.7956218" lon="8.7338763"><ele>248.5</ele><time>2026-04-18T12:14:11.281Z</time></trkpt><trkpt lat="45.7956696" lon="8.7336852"><ele>249.0</ele><time>2026-04-18T12:14:12.281Z</time></trkpt><trkpt lat="45.7957111" lon="8.733486"><ele>249.25</ele><time>2026-04-18T12:14:13.281Z</time></trkpt><trkpt lat="45.7957477" lon="8.7332867"><ele>249.5</ele><time>2026-04-18T12:14:14.281Z</time></trkpt><trkpt lat="45.7957795" lon="8.7330795"><ele>249.75</ele><time>2026-04-18T12:14:15.282Z</time></trkpt><trkpt lat="45.7958088" lon="8.732868"><ele>250.0</ele><time>2026-04-18T12:14:16.281Z</time></trkpt><trkpt lat="45.7958342" lon="8.7326546"><ele>249.33333333333331</ele><time>2026-04-18T12:14:17.281Z</time></trkpt><trkpt lat="45.7958531" lon="8.7324417"><ele>248.66666666666669</ele><time>2026-04-18T12:14:18.281Z</time></trkpt><trkpt lat="45.7958731" lon="8.732225"><ele>248.0</ele><time>2026-04-18T12:14:19.281Z</time></trkpt><trkpt lat="45.7958955" lon="8.7320067"><ele>247.33333333333334</ele><time>2026-04-18T12:14:20.281Z</time></trkpt><trkpt lat="45.7959151" lon="8.7317927"><ele>246.66666666666669</ele><time>2026-04-18T12:14:21.281Z</time></trkpt><trkpt lat="45.7959377" lon="8.7315682"><ele>246.0</ele><time>2026-04-18T12:14:22.281Z</time></trkpt><trkpt lat="45.7959604" lon="8.7313451"><ele>246.0</ele><time>2026-04-18T12:14:23.282Z</time></trkpt><trkpt lat="45.7959788" lon="8.7311246"><ele>246.0</ele><time>2026-04-18T12:14:24.281Z</time></trkpt><trkpt lat="45.7959962" lon="8.7309026"><ele>246.0</ele><time>2026-04-18T12:14:25.281Z</time></trkpt><trkpt lat="45.7960157" lon="8.7306668"><ele>249.0</ele><time>2026-04-18T12:14:26.281Z</time></trkpt><trkpt lat="45.7960357" lon="8.7304285"><ele>252.0</ele><time>2026-04-18T12:14:27.281Z</time></trkpt><trkpt lat="45.7960581" lon="8.7301761"><ele>255.0</ele><time>2026-04-18T12:14:28.281Z</time></trkpt><trkpt lat="45.7960788" lon="8.7299186"><ele>255.33333333333331</ele><time>2026-04-18T12:14:29.281Z</time></trkpt><trkpt lat="45.7961063" lon="8.7296558"><ele>255.66666666666666</ele><time>2026-04-18T12:14:30.282Z</time></trkpt><trkpt lat="45.7961318" lon="8.7293864"><ele>256.0</ele><time>2026-04-18T12:14:31.281Z</time></trkpt><trkpt lat="45.7961619" lon="8.729108"><ele>254.66666666666666</ele><time>2026-04-18T12:14:32.282Z</time></trkpt><trkpt lat="45.7961864" lon="8.7288223"><ele>253.33333333333331</ele><time>2026-04-18T12:14:33.281Z</time></trkpt><trkpt lat="45.7962128" lon="8.7285348"><ele>252.0</ele><time>2026-04-18T12:14:34.281Z</time></trkpt><trkpt lat="45.7962395" lon="8.7282482"><ele>251.33333333333331</ele><time>2026-04-18T12:14:35.281Z</time></trkpt><trkpt lat="45.7962637" lon="8.7279615"><ele>250.66666666666666</ele><time>2026-04-18T12:14:36.282Z</time></trkpt><trkpt lat="45.7962902" lon="8.7276786"><ele>250.0</ele><time>2026-04-18T12:14:37.281Z</time></trkpt><trkpt lat="45.7963136" lon="8.727402"><ele>250.0</ele><time>2026-04-18T12:14:38.281Z</time></trkpt><trkpt lat="45.7963325" lon="8.7271195"><ele>250.0</ele><time>2026-04-18T12:14:39.282Z</time></trkpt><trkpt lat="45.7963332" lon="8.726843"><ele>250.0</ele><time>2026-04-18T12:14:40.282Z</time></trkpt><trkpt lat="45.7963152" lon="8.7265673"><ele>249.66666666666666</ele><time>2026-04-18T12:14:41.281Z</time></trkpt><trkpt lat="45.7962788" lon="8.7262929"><ele>249.33333333333331</ele><time>2026-04-18T12:14:42.281Z</time></trkpt><trkpt lat="45.7962205" lon="8.7260218"><ele>249.0</ele><time>2026-04-18T12:14:43.281Z</time></trkpt><trkpt lat="45.7961476" lon="8.7257564"><ele>248.33333333333331</ele><time>2026-04-18T12:14:44.281Z</time></trkpt><trkpt lat="45.7960638" lon="8.7254894"><ele>247.66666666666666</ele><time>2026-04-18T12:14:45.282Z</time></trkpt><trkpt lat="45.7959774" lon="8.7252212"><ele>247.0</ele><time>2026-04-18T12:14:46.282Z</time></trkpt><trkpt lat="45.7958913" lon="8.7249554"><ele>247.0</ele><time>2026-04-18T12:14:47.282Z</time></trkpt><trkpt lat="45.7958051" lon="8.7246882"><ele>247.0</ele><time>2026-04-18T12:14:48.282Z</time></trkpt><trkpt lat="45.7957192" lon="8.7244217"><ele>247.0</ele><time>2026-04-18T12:14:49.282Z</time></trkpt><trkpt lat="45.7956332" lon="8.7241583"><ele>246.66666666666666</ele><time>2026-04-18T12:14:50.281Z</time></trkpt><trkpt lat="45.7955527" lon="8.7238955"><ele>246.33333333333331</ele><time>2026-04-18T12:14:51.283Z</time></trkpt><trkpt lat="45.795484" lon="8.7236307"><ele>246.0</ele><time>2026-04-18T12:14:52.281Z</time></trkpt><trkpt lat="45.7954315" lon="8.7233632"><ele>247.0</ele><time>2026-04-18T12:14:53.281Z</time></trkpt><trkpt lat="45.7953996" lon="8.7230889"><ele>248.0</ele><time>2026-04-18T12:14:54.281Z</time></trkpt><trkpt lat="45.795379" lon="8.7228197"><ele>249.0</ele><time>2026-04-18T12:14:55.281Z</time></trkpt><trkpt lat="45.7953592" lon="8.7225422"><ele>248.66666666666669</ele><time>2026-04-18T12:14:56.282Z</time></trkpt><trkpt lat="45.7953377" lon="8.7222681"><ele>248.33333333333334</ele><time>2026-04-18T12:14:57.281Z</time></trkpt><trkpt lat="45.7953178" lon="8.7219937"><ele>248.0</ele><time>2026-04-18T12:14:58.281Z</time></trkpt><trkpt lat="45.7952989" lon="8.7217139"><ele>248.0</ele><time>2026-04-18T12:14:59.281Z</time></trkpt><trkpt lat="45.795289" lon="8.721438"><ele>248.0</ele><time>2026-04-18T12:15:00.281Z</time></trkpt><trkpt lat="45.7952867" lon="8.7211581"><ele>248.0</ele><time>2026-04-18T12:15:01.281Z</time></trkpt><trkpt lat="45.7953049" lon="8.7208837"><ele>246.66666666666669</ele><time>2026-04-18T12:15:02.281Z</time></trkpt><trkpt lat="45.7953391" lon="8.7206103"><ele>245.33333333333331</ele><time>2026-04-18T12:15:03.281Z</time></trkpt><trkpt lat="45.7953846" lon="8.7203326"><ele>244.0</ele><time>2026-04-18T12:15:04.282Z</time></trkpt><trkpt lat="45.7954347" lon="8.7200529"><ele>244.0</ele><time>2026-04-18T12:15:05.281Z</time></trkpt><trkpt lat="45.7954832" lon="8.719769"><ele>244.0</ele><time>2026-04-18T12:15:06.282Z</time></trkpt><trkpt lat="45.7955355" lon="8.7194815"><ele>244.0</ele><time>2026-04-18T12:15:07.282Z</time></trkpt><trkpt lat="45.7955868" lon="8.7191888"><ele>244.33333333333331</ele><time>2026-04-18T12:15:08.282Z</time></trkpt><trkpt lat="45.7956394" lon="8.7188983"><ele>244.66666666666669</ele><time>2026-04-18T12:15:09.281Z</time></trkpt><trkpt lat="45.7956936" lon="8.7186046"><ele>245.0</ele><time>2026-04-18T12:15:10.282Z</time></trkpt><trkpt lat="45.7957468" lon="8.7183071"><ele>245.0</ele><time>2026-04-18T12:15:11.282Z</time></trkpt><trkpt lat="45.7958015" lon="8.7180079"><ele>245.0</ele><time>2026-04-18T12:15:12.282Z</time></trkpt><trkpt lat="45.795856" lon="8.7177089"><ele>245.0</ele><time>2026-04-18T12:15:13.282Z</time></trkpt><trkpt lat="45.7959112" lon="8.7174095"><ele>244.66666666666669</ele><time>2026-04-18T12:15:14.281Z</time></trkpt><trkpt lat="45.7959676" lon="8.7171069"><ele>244.33333333333331</ele><time>2026-04-18T12:15:15.281Z</time></trkpt><trkpt lat="45.7960224" lon="8.7168059"><ele>244.0</ele><time>2026-04-18T12:15:16.282Z</time></trkpt><trkpt lat="45.7960767" lon="8.7165076"><ele>244.0</ele><time>2026-04-18T12:15:17.281Z</time></trkpt><trkpt lat="45.7961313" lon="8.7162094"><ele>244.0</ele><time>2026-04-18T12:15:18.282Z</time></trkpt><trkpt lat="45.796186" lon="8.7159109"><ele>244.0</ele><time>2026-04-18T12:15:19.281Z</time></trkpt><trkpt lat="45.7962396" lon="8.7156138"><ele>243.66666666666666</ele><time>2026-04-18T12:15:20.281Z</time></trkpt><trkpt lat="45.796293" lon="8.7153176"><ele>243.33333333333331</ele><time>2026-04-18T12:15:21.282Z</time></trkpt><trkpt lat="45.7963469" lon="8.7150229"><ele>243.0</ele><time>2026-04-18T12:15:22.281Z</time></trkpt><trkpt lat="45.7964008" lon="8.7147296"><ele>243.0</ele><time>2026-04-18T12:15:23.281Z</time></trkpt><trkpt lat="45.7964568" lon="8.71444"><ele>243.0</ele><time>2026-04-18T12:15:24.281Z</time></trkpt><trkpt lat="45.7965078" lon="8.7141523"><ele>243.0</ele><time>2026-04-18T12:15:25.282Z</time></trkpt><trkpt lat="45.7965606" lon="8.7138661"><ele>243.0</ele><time>2026-04-18T12:15:26.281Z</time></trkpt><trkpt lat="45.7966126" lon="8.7135755"><ele>243.0</ele><time>2026-04-18T12:15:27.283Z</time></trkpt><trkpt lat="45.7966623" lon="8.7132865"><ele>243.0</ele><time>2026-04-18T12:15:28.282Z</time></trkpt><trkpt lat="45.7967139" lon="8.7129978"><ele>242.33333333333331</ele><time>2026-04-18T12:15:29.282Z</time></trkpt><trkpt lat="45.7967671" lon="8.7127056"><ele>241.66666666666666</ele><time>2026-04-18T12:15:30.281Z</time></trkpt><trkpt lat="45.7968171" lon="8.7124132"><ele>241.0</ele><time>2026-04-18T12:15:31.282Z</time></trkpt><trkpt lat="45.7968694" lon="8.7121263"><ele>242.33333333333331</ele><time>2026-04-18T12:15:32.281Z</time></trkpt><trkpt lat="45.7969231" lon="8.7118383"><ele>243.66666666666669</ele><time>2026-04-18T12:15:33.281Z</time></trkpt><trkpt lat="45.7969736" lon="8.7115525"><ele>245.0</ele><time>2026-04-18T12:15:34.282Z</time></trkpt><trkpt lat="45.7970259" lon="8.7112681"><ele>246.0</ele><time>2026-04-18T12:15:35.281Z</time></trkpt><trkpt lat="45.7970791" lon="8.7109865"><ele>247.0</ele><time>2026-04-18T12:15:36.281Z</time></trkpt><trkpt lat="45.7971301" lon="8.7107032"><ele>248.0</ele><time>2026-04-18T12:15:37.281Z</time></trkpt><trkpt lat="45.7971822" lon="8.7104191"><ele>247.0</ele><time>2026-04-18T12:15:38.282Z</time></trkpt><trkpt lat="45.7972343" lon="8.7101348"><ele>246.0</ele><time>2026-04-18T12:15:39.281Z</time></trkpt><trkpt lat="45.7972861" lon="8.7098514"><ele>245.0</ele><time>2026-04-18T12:15:40.282Z</time></trkpt><trkpt lat="45.7973381" lon="8.7095723"><ele>243.33333333333334</ele><time>2026-04-18T12:15:41.282Z</time></trkpt><trkpt lat="45.7973863" lon="8.7093036"><ele>241.66666666666669</ele><time>2026-04-18T12:15:42.281Z</time></trkpt><trkpt lat="45.7974337" lon="8.7090456"><ele>240.0</ele><time>2026-04-18T12:15:43.281Z</time></trkpt><trkpt lat="45.7974779" lon="8.7088018"><ele>240.66666666666669</ele><time>2026-04-18T12:15:44.281Z</time></trkpt><trkpt lat="45.797523" lon="8.7085714"><ele>241.33333333333334</ele><time>2026-04-18T12:15:45.281Z</time></trkpt><trkpt lat="45.7975715" lon="8.7083512"><ele>242.0</ele><time>2026-04-18T12:15:46.281Z</time></trkpt><trkpt lat="45.7976163" lon="8.7081381"><ele>242.0</ele><time>2026-04-18T12:15:47.282Z</time></trkpt><trkpt lat="45.797666" lon="8.7079335"><ele>242.0</ele><time>2026-04-18T12:15:48.281Z</time></trkpt><trkpt lat="45.797723" lon="8.7077325"><ele>242.0</ele><time>2026-04-18T12:15:49.281Z</time></trkpt><trkpt lat="45.7977953" lon="8.7075416"><ele>242.0</ele><time>2026-04-18T12:15:50.281Z</time></trkpt><trkpt lat="45.7978806" lon="8.7073616"><ele>242.0</ele><time>2026-04-18T12:15:51.281Z</time></trkpt><trkpt lat="45.7979737" lon="8.7071747"><ele>242.0</ele><time>2026-04-18T12:15:52.282Z</time></trkpt><trkpt lat="45.7980669" lon="8.706991"><ele>243.0</ele><time>2026-04-18T12:15:53.281Z</time></trkpt><trkpt lat="45.7981585" lon="8.7068047"><ele>244.0</ele><time>2026-04-18T12:15:54.282Z</time></trkpt><trkpt lat="45.7982559" lon="8.7066169"><ele>245.0</ele><time>2026-04-18T12:15:55.281Z</time></trkpt><trkpt lat="45.7983559" lon="8.7064316"><ele>245.0</ele><time>2026-04-18T12:15:56.281Z</time></trkpt><trkpt lat="45.7984557" lon="8.7062432"><ele>245.0</ele><time>2026-04-18T12:15:57.283Z</time></trkpt><trkpt lat="45.7985542" lon="8.7060519"><ele>245.0</ele><time>2026-04-18T12:15:58.281Z</time></trkpt><trkpt lat="45.7986512" lon="8.7058606"><ele>247.66666666666669</ele><time>2026-04-18T12:15:59.281Z</time></trkpt><trkpt lat="45.7987522" lon="8.7056732"><ele>250.33333333333331</ele><time>2026-04-18T12:16:00.281Z</time></trkpt><trkpt lat="45.7988548" lon="8.705494"><ele>253.0</ele><time>2026-04-18T12:16:01.282Z</time></trkpt><trkpt lat="45.7989573" lon="8.7053232"><ele>253.0</ele><time>2026-04-18T12:16:02.281Z</time></trkpt><trkpt lat="45.7990544" lon="8.7051715"><ele>253.0</ele><time>2026-04-18T12:16:03.281Z</time></trkpt><trkpt lat="45.7991497" lon="8.7050364"><ele>253.0</ele><time>2026-04-18T12:16:04.281Z</time></trkpt><trkpt lat="45.7992445" lon="8.7049197"><ele>253.0</ele><time>2026-04-18T12:16:05.282Z</time></trkpt><trkpt lat="45.7993329" lon="8.7048293"><ele>253.16666666666666</ele><time>2026-04-18T12:16:06.282Z</time></trkpt><trkpt lat="45.7994159" lon="8.7047633"><ele>253.33333333333331</ele><time>2026-04-18T12:16:07.281Z</time></trkpt><trkpt lat="45.7994866" lon="8.7047339"><ele>253.5</ele><time>2026-04-18T12:16:08.281Z</time></trkpt><trkpt lat="45.7995649" lon="8.7047073"><ele>253.66666666666669</ele><time>2026-04-18T12:16:09.282Z</time></trkpt><trkpt lat="45.7996322" lon="8.7046597"><ele>253.83333333333334</ele><time>2026-04-18T12:16:10.282Z</time></trkpt><trkpt lat="45.7996678" lon="8.7045063"><ele>254.0</ele><time>2026-04-18T12:16:12.281Z</time></trkpt><trkpt lat="45.7996265" lon="8.7044292"><ele>254.6</ele><time>2026-04-18T12:16:13.281Z</time></trkpt><trkpt lat="45.7995641" lon="8.7043567"><ele>255.2</ele><time>2026-04-18T12:16:14.281Z</time></trkpt><trkpt lat="45.7994877" lon="8.7042793"><ele>255.79999999999998</ele><time>2026-04-18T12:16:15.282Z</time></trkpt><trkpt lat="45.7994063" lon="8.7041858"><ele>256.4</ele><time>2026-04-18T12:16:16.282Z</time></trkpt><trkpt lat="45.7993232" lon="8.7040754"><ele>257.0</ele><time>2026-04-18T12:16:17.282Z</time></trkpt><trkpt lat="45.7992418" lon="8.7039669"><ele>257.25</ele><time>2026-04-18T12:16:18.281Z</time></trkpt><trkpt lat="45.7991522" lon="8.7038521"><ele>257.5</ele><time>2026-04-18T12:16:19.281Z</time></trkpt><trkpt lat="45.7990631" lon="8.7037321"><ele>257.75</ele><time>2026-04-18T12:16:20.281Z</time></trkpt><trkpt lat="45.7989753" lon="8.7036082"><ele>258.0</ele><time>2026-04-18T12:16:21.281Z</time></trkpt><trkpt lat="45.7988862" lon="8.7034832"><ele>259.25</ele><time>2026-04-18T12:16:22.281Z</time></trkpt><trkpt lat="45.7987879" lon="8.7033605"><ele>260.5</ele><time>2026-04-18T12:16:23.281Z</time></trkpt><trkpt lat="45.7986979" lon="8.7032477"><ele>261.75</ele><time>2026-04-18T12:16:24.282Z</time></trkpt><trkpt lat="45.7986128" lon="8.7031474"><ele>263.0</ele><time>2026-04-18T12:16:25.281Z</time></trkpt><trkpt lat="45.7985256" lon="8.7030502"><ele>263.0</ele><time>2026-04-18T12:16:26.282Z</time></trkpt><trkpt lat="45.7984382" lon="8.7029563"><ele>263.0</ele><time>2026-04-18T12:16:27.281Z</time></trkpt><trkpt lat="45.7983493" lon="8.7028578"><ele>263.0</ele><time>2026-04-18T12:16:28.282Z</time></trkpt><trkpt lat="45.7982598" lon="8.7027559"><ele>263.0</ele><time>2026-04-18T12:16:29.281Z</time></trkpt><trkpt lat="45.7981666" lon="8.7026505"><ele>263.8</ele><time>2026-04-18T12:16:30.281Z</time></trkpt><trkpt lat="45.7980752" lon="8.7025444"><ele>264.6</ele><time>2026-04-18T12:16:31.281Z</time></trkpt><trkpt lat="45.7979913" lon="8.7024464"><ele>265.4</ele><time>2026-04-18T12:16:32.282Z</time></trkpt><trkpt lat="45.7979171" lon="8.7023479"><ele>266.2</ele><time>2026-04-18T12:16:33.281Z</time></trkpt><trkpt lat="45.7978586" lon="8.7022506"><ele>267.0</ele><time>2026-04-18T12:16:34.282Z</time></trkpt><trkpt lat="45.7978062" lon="8.7021498"><ele>267.0</ele><time>2026-04-18T12:16:35.282Z</time></trkpt><trkpt lat="45.7977641" lon="8.7020359"><ele>267.0</ele><time>2026-04-18T12:16:36.282Z</time></trkpt><trkpt lat="45.7977364" lon="8.7019325"><ele>267.0</ele><time>2026-04-18T12:16:37.281Z</time></trkpt><trkpt lat="45.7977243" lon="8.7018341"><ele>267.0</ele><time>2026-04-18T12:16:38.281Z</time></trkpt><trkpt lat="45.7977165" lon="8.7017345"><ele>267.0</ele><time>2026-04-18T12:16:39.282Z</time></trkpt><trkpt lat="45.7977138" lon="8.7016364"><ele>267.0</ele><time>2026-04-18T12:16:40.281Z</time></trkpt><trkpt lat="45.7977024" lon="8.701476"><ele>266.8333333333333</ele><time>2026-04-18T12:16:42.281Z</time></trkpt><trkpt lat="45.7976872" lon="8.7013553"><ele>266.6666666666667</ele><time>2026-04-18T12:16:44.281Z</time></trkpt><trkpt lat="45.7976882" lon="8.7012493"><ele>266.5</ele><time>2026-04-18T12:16:46.281Z</time></trkpt><trkpt lat="45.7977052" lon="8.7011351"><ele>266.33333333333337</ele><time>2026-04-18T12:16:48.282Z</time></trkpt><trkpt lat="45.7977744" lon="8.7009985"><ele>266.1666666666667</ele><time>2026-04-18T12:16:50.281Z</time></trkpt><trkpt lat="45.7978378" lon="8.7009325"><ele>266.0</ele><time>2026-04-18T12:16:51.281Z</time></trkpt><trkpt lat="45.7979194" lon="8.7008886"><ele>266.40000000000003</ele><time>2026-04-18T12:16:52.281Z</time></trkpt><trkpt lat="45.7980164" lon="8.7008673"><ele>266.8</ele><time>2026-04-18T12:16:53.281Z</time></trkpt><trkpt lat="45.7981216" lon="8.7008586"><ele>267.20000000000005</ele><time>2026-04-18T12:16:54.281Z</time></trkpt><trkpt lat="45.7982369" lon="8.7008467"><ele>267.6</ele><time>2026-04-18T12:16:55.281Z</time></trkpt><trkpt lat="45.7983599" lon="8.7008326"><ele>268.0</ele><time>2026-04-18T12:16:56.282Z</time></trkpt><trkpt lat="45.7984887" lon="8.7008201"><ele>267.75</ele><time>2026-04-18T12:16:57.282Z</time></trkpt><trkpt lat="45.7986231" lon="8.700808"><ele>267.5</ele><time>2026-04-18T12:16:58.281Z</time></trkpt><trkpt lat="45.7987579" lon="8.7007903"><ele>267.25</ele><time>2026-04-18T12:16:59.281Z</time></trkpt><trkpt lat="45.7988923" lon="8.700753"><ele>267.0</ele><time>2026-04-18T12:17:00.282Z</time></trkpt><trkpt lat="45.7990192" lon="8.7006829"><ele>267.0</ele><time>2026-04-18T12:17:01.281Z</time></trkpt><trkpt lat="45.7991351" lon="8.700575"><ele>267.0</ele><time>2026-04-18T12:17:02.281Z</time></trkpt><trkpt lat="45.7992297" lon="8.7004331"><ele>267.0</ele><time>2026-04-18T12:17:03.281Z</time></trkpt><trkpt lat="45.7993043" lon="8.7002694"><ele>267.0</ele><time>2026-04-18T12:17:04.282Z</time></trkpt><trkpt lat="45.7993658" lon="8.700099"><ele>268.5</ele><time>2026-04-18T12:17:05.281Z</time></trkpt><trkpt lat="45.7994184" lon="8.6999187"><ele>270.0</ele><time>2026-04-18T12:17:06.282Z</time></trkpt><trkpt lat="45.7994759" lon="8.699738"><ele>271.5</ele><time>2026-04-18T12:17:07.282Z</time></trkpt><trkpt lat="45.7995395" lon="8.6995551"><ele>273.0</ele><time>2026-04-18T12:17:08.281Z</time></trkpt><trkpt lat="45.7996071" lon="8.6993696"><ele>275.0</ele><time>2026-04-18T12:17:09.281Z</time></trkpt><trkpt lat="45.7996784" lon="8.6991822"><ele>277.0</ele><time>2026-04-18T12:17:10.281Z</time></trkpt><trkpt lat="45.7997511" lon="8.6989921"><ele>279.0</ele><time>2026-04-18T12:17:11.282Z</time></trkpt><trkpt lat="45.7998314" lon="8.6988004"><ele>279.0</ele><time>2026-04-18T12:17:12.281Z</time></trkpt><trkpt lat="45.7999099" lon="8.6986085"><ele>279.0</ele><time>2026-04-18T12:17:13.282Z</time></trkpt><trkpt lat="45.799996" lon="8.6984124"><ele>279.0</ele><time>2026-04-18T12:17:14.282Z</time></trkpt><trkpt lat="45.8000813" lon="8.698215"><ele>279.0</ele><time>2026-04-18T12:17:15.282Z</time></trkpt><trkpt lat="45.8001635" lon="8.6980123"><ele>279.0</ele><time>2026-04-18T12:17:16.281Z</time></trkpt><trkpt lat="45.8002474" lon="8.6978135"><ele>279.0</ele><time>2026-04-18T12:17:17.281Z</time></trkpt><trkpt lat="45.8003322" lon="8.6976171"><ele>277.3333333333333</ele><time>2026-04-18T12:17:18.282Z</time></trkpt><trkpt lat="45.8004128" lon="8.697418"><ele>275.66666666666663</ele><time>2026-04-18T12:17:19.281Z</time></trkpt><trkpt lat="45.8004927" lon="8.6972141"><ele>274.0</ele><time>2026-04-18T12:17:20.281Z</time></trkpt><trkpt lat="45.8005718" lon="8.6970172"><ele>274.3333333333333</ele><time>2026-04-18T12:17:21.281Z</time></trkpt><trkpt lat="45.800653" lon="8.6968193"><ele>274.6666666666667</ele><time>2026-04-18T12:17:22.282Z</time></trkpt><trkpt lat="45.8007324" lon="8.6966261"><ele>275.0</ele><time>2026-04-18T12:17:23.281Z</time></trkpt><trkpt lat="45.8008119" lon="8.6964338"><ele>275.0</ele><time>2026-04-18T12:17:24.281Z</time></trkpt><trkpt lat="45.8008932" lon="8.6962411"><ele>275.0</ele><time>2026-04-18T12:17:25.281Z</time></trkpt><trkpt lat="45.8009692" lon="8.6960482"><ele>275.0</ele><time>2026-04-18T12:17:26.281Z</time></trkpt><trkpt lat="45.8010413" lon="8.6958431"><ele>275.33333333333337</ele><time>2026-04-18T12:17:27.281Z</time></trkpt><trkpt lat="45.8010998" lon="8.6956282"><ele>275.6666666666667</ele><time>2026-04-18T12:17:28.282Z</time></trkpt><trkpt lat="45.801152" lon="8.6954014"><ele>276.0</ele><time>2026-04-18T12:17:29.281Z</time></trkpt><trkpt lat="45.8011987" lon="8.6951639"><ele>276.0</ele><time>2026-04-18T12:17:30.281Z</time></trkpt><trkpt lat="45.8012445" lon="8.6949246"><ele>276.0</ele><time>2026-04-18T12:17:31.281Z</time></trkpt><trkpt lat="45.8012952" lon="8.6946786"><ele>276.0</ele><time>2026-04-18T12:17:32.282Z</time></trkpt><trkpt lat="45.801348" lon="8.6944296"><ele>276.3333333333333</ele><time>2026-04-18T12:17:33.281Z</time></trkpt><trkpt lat="45.8014002" lon="8.6941802"><ele>276.66666666666663</ele><time>2026-04-18T12:17:34.281Z</time></trkpt><trkpt lat="45.8014518" lon="8.6939273"><ele>277.0</ele><time>2026-04-18T12:17:35.282Z</time></trkpt><trkpt lat="45.8015026" lon="8.6936762"><ele>277.0</ele><time>2026-04-18T12:17:36.281Z</time></trkpt><trkpt lat="45.8015539" lon="8.6934233"><ele>277.0</ele><time>2026-04-18T12:17:37.281Z</time></trkpt><trkpt lat="45.8016053" lon="8.6931683"><ele>277.0</ele><time>2026-04-18T12:17:38.281Z</time></trkpt><trkpt lat="45.8016567" lon="8.692911"><ele>278.0</ele><time>2026-04-18T12:17:39.281Z</time></trkpt><trkpt lat="45.8017071" lon="8.6926473"><ele>279.0</ele><time>2026-04-18T12:17:40.281Z</time></trkpt><trkpt lat="45.8017576" lon="8.6923877"><ele>280.0</ele><time>2026-04-18T12:17:41.282Z</time></trkpt><trkpt lat="45.8018085" lon="8.6921276"><ele>277.0</ele><time>2026-04-18T12:17:42.282Z</time></trkpt><trkpt lat="45.8018551" lon="8.6918707"><ele>274.0</ele><time>2026-04-18T12:17:43.281Z</time></trkpt><trkpt lat="45.8018982" lon="8.6916125"><ele>271.0</ele><time>2026-04-18T12:17:44.28Z</time></trkpt><trkpt lat="45.8019249" lon="8.6913497"><ele>270.66666666666663</ele><time>2026-04-18T12:17:45.28Z</time></trkpt><trkpt lat="45.8019384" lon="8.6910868"><ele>270.3333333333333</ele><time>2026-04-18T12:17:46.28Z</time></trkpt><trkpt lat="45.8019445" lon="8.6908174"><ele>270.0</ele><time>2026-04-18T12:17:47.28Z</time></trkpt><trkpt lat="45.8019454" lon="8.6905442"><ele>270.0</ele><time>2026-04-18T12:17:48.28Z</time></trkpt><trkpt lat="45.8019493" lon="8.6902725"><ele>270.0</ele><time>2026-04-18T12:17:49.281Z</time></trkpt><trkpt lat="45.8019545" lon="8.6900019"><ele>270.0</ele><time>2026-04-18T12:17:50.28Z</time></trkpt><trkpt lat="45.8019553" lon="8.6897285"><ele>270.3333333333333</ele><time>2026-04-18T12:17:51.281Z</time></trkpt><trkpt lat="45.8019599" lon="8.6894569"><ele>270.66666666666663</ele><time>2026-04-18T12:17:52.28Z</time></trkpt><trkpt lat="45.801985" lon="8.6891944"><ele>271.0</ele><time>2026-04-18T12:17:53.28Z</time></trkpt><trkpt lat="45.8020421" lon="8.6889467"><ele>272.0</ele><time>2026-04-18T12:17:54.28Z</time></trkpt><trkpt lat="45.8021298" lon="8.6887168"><ele>273.0</ele><time>2026-04-18T12:17:55.281Z</time></trkpt><trkpt lat="45.8022501" lon="8.6885112"><ele>274.0</ele><time>2026-04-18T12:17:56.281Z</time></trkpt><trkpt lat="45.8023901" lon="8.6883252"><ele>275.66666666666663</ele><time>2026-04-18T12:17:57.281Z</time></trkpt><trkpt lat="45.8025282" lon="8.6881548"><ele>277.3333333333333</ele><time>2026-04-18T12:17:58.281Z</time></trkpt><trkpt lat="45.8026596" lon="8.6879952"><ele>279.0</ele><time>2026-04-18T12:17:59.28Z</time></trkpt><trkpt lat="45.8027818" lon="8.6878385"><ele>280.6666666666667</ele><time>2026-04-18T12:18:00.28Z</time></trkpt><trkpt lat="45.8029081" lon="8.6876802"><ele>282.33333333333337</ele><time>2026-04-18T12:18:01.281Z</time></trkpt><trkpt lat="45.8030319" lon="8.687525"><ele>284.0</ele><time>2026-04-18T12:18:02.28Z</time></trkpt><trkpt lat="45.8031558" lon="8.6873705"><ele>284.0</ele><time>2026-04-18T12:18:03.28Z</time></trkpt><trkpt lat="45.8032827" lon="8.6872203"><ele>284.0</ele><time>2026-04-18T12:18:04.28Z</time></trkpt><trkpt lat="45.8034074" lon="8.6870684"><ele>284.0</ele><time>2026-04-18T12:18:05.28Z</time></trkpt><trkpt lat="45.803526" lon="8.6869203"><ele>284.6666666666667</ele><time>2026-04-18T12:18:06.28Z</time></trkpt><trkpt lat="45.8036436" lon="8.6867698"><ele>285.3333333333333</ele><time>2026-04-18T12:18:07.28Z</time></trkpt><trkpt lat="45.8037606" lon="8.68662"><ele>286.0</ele><time>2026-04-18T12:18:08.28Z</time></trkpt><trkpt lat="45.8038817" lon="8.6864717"><ele>286.0</ele><time>2026-04-18T12:18:09.28Z</time></trkpt><trkpt lat="45.8040015" lon="8.6863317"><ele>286.0</ele><time>2026-04-18T12:18:10.28Z</time></trkpt><trkpt lat="45.8041213" lon="8.6861868"><ele>286.0</ele><time>2026-04-18T12:18:11.281Z</time></trkpt><trkpt lat="45.8042376" lon="8.6860375"><ele>285.66666666666663</ele><time>2026-04-18T12:18:12.281Z</time></trkpt><trkpt lat="45.8043497" lon="8.6858722"><ele>285.3333333333333</ele><time>2026-04-18T12:18:13.28Z</time></trkpt><trkpt lat="45.8044538" lon="8.6856994"><ele>285.0</ele><time>2026-04-18T12:18:14.28Z</time></trkpt><trkpt lat="45.8045502" lon="8.6855104"><ele>285.0</ele><time>2026-04-18T12:18:15.28Z</time></trkpt><trkpt lat="45.8046325" lon="8.6853019"><ele>285.0</ele><time>2026-04-18T12:18:16.28Z</time></trkpt><trkpt lat="45.804701" lon="8.6850742"><ele>285.0</ele><time>2026-04-18T12:18:17.28Z</time></trkpt><trkpt lat="45.8047529" lon="8.6848324"><ele>282.6666666666667</ele><time>2026-04-18T12:18:18.28Z</time></trkpt><trkpt lat="45.8047958" lon="8.6845872"><ele>280.33333333333337</ele><time>2026-04-18T12:18:19.28Z</time></trkpt><trkpt lat="45.8048385" lon="8.6843481"><ele>278.0</ele><time>2026-04-18T12:18:20.28Z</time></trkpt><trkpt lat="45.8048749" lon="8.6841119"><ele>277.33333333333337</ele><time>2026-04-18T12:18:21.28Z</time></trkpt><trkpt lat="45.8049203" lon="8.6838821"><ele>276.6666666666667</ele><time>2026-04-18T12:18:22.28Z</time></trkpt><trkpt lat="45.8049613" lon="8.6836444"><ele>276.0</ele><time>2026-04-18T12:18:23.28Z</time></trkpt><trkpt lat="45.8049926" lon="8.6834013"><ele>277.3333333333333</ele><time>2026-04-18T12:18:24.28Z</time></trkpt><trkpt lat="45.8050098" lon="8.6831487"><ele>278.66666666666663</ele><time>2026-04-18T12:18:25.28Z</time></trkpt><trkpt lat="45.8050123" lon="8.6828932"><ele>280.0</ele><time>2026-04-18T12:18:26.28Z</time></trkpt><trkpt lat="45.8050023" lon="8.6826467"><ele>280.3333333333333</ele><time>2026-04-18T12:18:27.281Z</time></trkpt><trkpt lat="45.8049856" lon="8.6824047"><ele>280.6666666666667</ele><time>2026-04-18T12:18:28.28Z</time></trkpt><trkpt lat="45.8049681" lon="8.6821687"><ele>281.0</ele><time>2026-04-18T12:18:29.281Z</time></trkpt><trkpt lat="45.8049442" lon="8.6819371"><ele>278.0</ele><time>2026-04-18T12:18:30.28Z</time></trkpt><trkpt lat="45.8049149" lon="8.6817062"><ele>275.0</ele><time>2026-04-18T12:18:31.281Z</time></trkpt><trkpt lat="45.8048805" lon="8.6814807"><ele>272.0</ele><time>2026-04-18T12:18:32.281Z</time></trkpt><trkpt lat="45.8048492" lon="8.6812573"><ele>271.0</ele><time>2026-04-18T12:18:33.28Z</time></trkpt><trkpt lat="45.8048174" lon="8.6810378"><ele>270.0</ele><time>2026-04-18T12:18:34.28Z</time></trkpt><trkpt lat="45.8047882" lon="8.6808191"><ele>269.0</ele><time>2026-04-18T12:18:35.281Z</time></trkpt><trkpt lat="45.8047573" lon="8.6806052"><ele>269.0</ele><time>2026-04-18T12:18:36.28Z</time></trkpt><trkpt lat="45.804723" lon="8.6803969"><ele>269.0</ele><time>2026-04-18T12:18:37.281Z</time></trkpt><trkpt lat="45.8046783" lon="8.6801842"><ele>269.0</ele><time>2026-04-18T12:18:38.28Z</time></trkpt><trkpt lat="45.804622" lon="8.6799884"><ele>269.0</ele><time>2026-04-18T12:18:39.281Z</time></trkpt><trkpt lat="45.8045598" lon="8.6797929"><ele>269.0</ele><time>2026-04-18T12:18:40.28Z</time></trkpt><trkpt lat="45.8044931" lon="8.679603"><ele>269.0</ele><time>2026-04-18T12:18:41.281Z</time></trkpt><trkpt lat="45.8044251" lon="8.6794229"><ele>269.0</ele><time>2026-04-18T12:18:42.28Z</time></trkpt><trkpt lat="45.804354" lon="8.6792553"><ele>271.5</ele><time>2026-04-18T12:18:43.281Z</time></trkpt><trkpt lat="45.8042816" lon="8.6791025"><ele>274.0</ele><time>2026-04-18T12:18:44.282Z</time></trkpt><trkpt lat="45.8042102" lon="8.6789533"><ele>276.5</ele><time>2026-04-18T12:18:45.28Z</time></trkpt><trkpt lat="45.8041376" lon="8.6788094"><ele>279.0</ele><time>2026-04-18T12:18:46.281Z</time></trkpt><trkpt lat="45.8040646" lon="8.6786697"><ele>278.0</ele><time>2026-04-18T12:18:47.281Z</time></trkpt><trkpt lat="45.8039918" lon="8.6785395"><ele>277.0</ele><time>2026-04-18T12:18:48.28Z</time></trkpt><trkpt lat="45.803916" lon="8.6784076"><ele>276.0</ele><time>2026-04-18T12:18:49.28Z</time></trkpt><trkpt lat="45.8038402" lon="8.6782839"><ele>275.0</ele><time>2026-04-18T12:18:50.28Z</time></trkpt><trkpt lat="45.8037626" lon="8.6781753"><ele>275.0</ele><time>2026-04-18T12:18:51.28Z</time></trkpt><trkpt lat="45.8036876" lon="8.678068"><ele>275.0</ele><time>2026-04-18T12:18:52.281Z</time></trkpt><trkpt lat="45.803621" lon="8.677978"><ele>275.0</ele><time>2026-04-18T12:18:53.28Z</time></trkpt><trkpt lat="45.8035712" lon="8.6778884"><ele>275.0</ele><time>2026-04-18T12:18:54.28Z</time></trkpt><trkpt lat="45.8035515" lon="8.6778005"><ele>275.0</ele><time>2026-04-18T12:18:55.28Z</time></trkpt><trkpt lat="45.8035643" lon="8.6776904"><ele>275.0</ele><time>2026-04-18T12:18:56.281Z</time></trkpt><trkpt lat="45.8035837" lon="8.6775792"><ele>274.83333333333337</ele><time>2026-04-18T12:18:57.28Z</time></trkpt><trkpt lat="45.8036079" lon="8.6774569"><ele>274.6666666666667</ele><time>2026-04-18T12:18:58.281Z</time></trkpt><trkpt lat="45.8036252" lon="8.6773307"><ele>274.5</ele><time>2026-04-18T12:18:59.28Z</time></trkpt><trkpt lat="45.8036438" lon="8.6772106"><ele>274.3333333333333</ele><time>2026-04-18T12:19:00.28Z</time></trkpt><trkpt lat="45.8036601" lon="8.6770826"><ele>274.16666666666663</ele><time>2026-04-18T12:19:01.28Z</time></trkpt><trkpt lat="45.8036716" lon="8.6769521"><ele>274.0</ele><time>2026-04-18T12:19:02.281Z</time></trkpt><trkpt lat="45.8036786" lon="8.6768094"><ele>273.8</ele><time>2026-04-18T12:19:03.281Z</time></trkpt><trkpt lat="45.8036805" lon="8.6766615"><ele>273.59999999999997</ele><time>2026-04-18T12:19:04.28Z</time></trkpt><trkpt lat="45.803689" lon="8.6765114"><ele>273.4</ele><time>2026-04-18T12:19:05.28Z</time></trkpt><trkpt lat="45.8036908" lon="8.6763601"><ele>273.2</ele><time>2026-04-18T12:19:06.28Z</time></trkpt><trkpt lat="45.8036882" lon="8.6762126"><ele>273.0</ele><time>2026-04-18T12:19:07.28Z</time></trkpt><trkpt lat="45.8036868" lon="8.6760649"><ele>272.6</ele><time>2026-04-18T12:19:08.28Z</time></trkpt><trkpt lat="45.8036869" lon="8.6759161"><ele>272.20000000000005</ele><time>2026-04-18T12:19:09.28Z</time></trkpt><trkpt lat="45.8036916" lon="8.6757663"><ele>271.8</ele><time>2026-04-18T12:19:10.281Z</time></trkpt><trkpt lat="45.8036974" lon="8.6756179"><ele>271.40000000000003</ele><time>2026-04-18T12:19:11.28Z</time></trkpt><trkpt lat="45.8037025" lon="8.6754657"><ele>271.0</ele><time>2026-04-18T12:19:12.281Z</time></trkpt><trkpt lat="45.8037121" lon="8.675309"><ele>271.2</ele><time>2026-04-18T12:19:13.281Z</time></trkpt><trkpt lat="45.8037266" lon="8.6751547"><ele>271.40000000000003</ele><time>2026-04-18T12:19:14.28Z</time></trkpt><trkpt lat="45.8037436" lon="8.6750107"><ele>271.6</ele><time>2026-04-18T12:19:15.28Z</time></trkpt><trkpt lat="45.8037627" lon="8.6748705"><ele>271.8</ele><time>2026-04-18T12:19:16.28Z</time></trkpt><trkpt lat="45.803784" lon="8.6747325"><ele>272.0</ele><time>2026-04-18T12:19:17.281Z</time></trkpt><trkpt lat="45.8037945" lon="8.6745802"><ele>272.2</ele><time>2026-04-18T12:19:18.281Z</time></trkpt><trkpt lat="45.8037914" lon="8.6744302"><ele>272.4</ele><time>2026-04-18T12:19:19.28Z</time></trkpt><trkpt lat="45.8037799" lon="8.6742847"><ele>272.6</ele><time>2026-04-18T12:19:20.281Z</time></trkpt><trkpt lat="45.803766" lon="8.6741518"><ele>272.8</ele><time>2026-04-18T12:19:21.28Z</time></trkpt><trkpt lat="45.8037492" lon="8.6740264"><ele>273.0</ele><time>2026-04-18T12:19:22.28Z</time></trkpt><trkpt lat="45.8037377" lon="8.6739089"><ele>273.0</ele><time>2026-04-18T12:19:23.28Z</time></trkpt><trkpt lat="45.8037254" lon="8.6738161"><ele>273.0</ele><time>2026-04-18T12:19:24.281Z</time></trkpt><trkpt lat="45.8037061" lon="8.6736907"><ele>273.0</ele><time>2026-04-18T12:19:26.28Z</time></trkpt><trkpt lat="45.8037071" lon="8.6735894"><ele>273.0</ele><time>2026-04-18T12:19:28.281Z</time></trkpt><trkpt lat="45.8037573" lon="8.6735054"><ele>273.0</ele><time>2026-04-18T12:19:30.281Z</time></trkpt><trkpt lat="45.8038458" lon="8.6734122"><ele>273.0</ele><time>2026-04-18T12:19:32.28Z</time></trkpt><trkpt lat="45.8039488" lon="8.6732931"><ele>273.0</ele><time>2026-04-18T12:19:34.281Z</time></trkpt><trkpt lat="45.8040077" lon="8.6732453"><ele>273.0</ele><time>2026-04-18T12:19:35.28Z</time></trkpt><trkpt lat="45.8040657" lon="8.6732002"><ele>273.0</ele><time>2026-04-18T12:19:36.28Z</time></trkpt><trkpt lat="45.8041292" lon="8.6731544"><ele>273.0</ele><time>2026-04-18T12:19:37.28Z</time></trkpt><trkpt lat="45.8041914" lon="8.6731095"><ele>273.0</ele><time>2026-04-18T12:19:38.28Z</time></trkpt><trkpt lat="45.8042576" lon="8.6730742"><ele>273.0</ele><time>2026-04-18T12:19:39.28Z</time></trkpt><trkpt lat="45.8043211" lon="8.6730492"><ele>273.0</ele><time>2026-04-18T12:19:40.28Z</time></trkpt><trkpt lat="45.8044374" lon="8.6729945"><ele>273.0</ele><time>2026-04-18T12:19:42.281Z</time></trkpt><trkpt lat="45.804506" lon="8.6729284"><ele>273.0</ele><time>2026-04-18T12:19:43.28Z</time></trkpt><trkpt lat="45.8045675" lon="8.6728454"><ele>273.0</ele><time>2026-04-18T12:19:44.281Z</time></trkpt><trkpt lat="45.8046085" lon="8.6727545"><ele>273.0</ele><time>2026-04-18T12:19:45.28Z</time></trkpt><trkpt lat="45.8046422" lon="8.6726492"><ele>273.0</ele><time>2026-04-18T12:19:46.281Z</time></trkpt><trkpt lat="45.804661" lon="8.6725128"><ele>273.0</ele><time>2026-04-18T12:19:47.281Z</time></trkpt><trkpt lat="45.8046827" lon="8.6723602"><ele>272.8</ele><time>2026-04-18T12:19:48.281Z</time></trkpt><trkpt lat="45.8047219" lon="8.6721985"><ele>272.6</ele><time>2026-04-18T12:19:49.281Z</time></trkpt><trkpt lat="45.8047662" lon="8.6720408"><ele>272.4</ele><time>2026-04-18T12:19:50.28Z</time></trkpt><trkpt lat="45.8048117" lon="8.6719021"><ele>272.2</ele><time>2026-04-18T12:19:51.28Z</time></trkpt><trkpt lat="45.8048507" lon="8.671765"><ele>272.0</ele><time>2026-04-18T12:19:52.28Z</time></trkpt><trkpt lat="45.8048728" lon="8.6716306"><ele>272.0</ele><time>2026-04-18T12:19:53.28Z</time></trkpt><trkpt lat="45.8048671" lon="8.6714963"><ele>272.0</ele><time>2026-04-18T12:19:54.28Z</time></trkpt><trkpt lat="45.8048501" lon="8.6713748"><ele>272.0</ele><time>2026-04-18T12:19:55.281Z</time></trkpt><trkpt lat="45.804834" lon="8.6712549"><ele>272.0</ele><time>2026-04-18T12:19:56.281Z</time></trkpt><trkpt lat="45.804844" lon="8.6711314"><ele>272.0</ele><time>2026-04-18T12:19:57.28Z</time></trkpt><trkpt lat="45.804869" lon="8.6710034"><ele>272.0</ele><time>2026-04-18T12:19:58.28Z</time></trkpt><trkpt lat="45.8049248" lon="8.6708918"><ele>272.4</ele><time>2026-04-18T12:19:59.28Z</time></trkpt><trkpt lat="45.8049806" lon="8.6707739"><ele>272.79999999999995</ele><time>2026-04-18T12:20:00.28Z</time></trkpt><trkpt lat="45.8050154" lon="8.6706604"><ele>273.2</ele><time>2026-04-18T12:20:01.28Z</time></trkpt><trkpt lat="45.8050062" lon="8.6705178"><ele>273.59999999999997</ele><time>2026-04-18T12:20:02.28Z</time></trkpt><trkpt lat="45.8049703" lon="8.670371"><ele>274.0</ele><time>2026-04-18T12:20:03.28Z</time></trkpt><trkpt lat="45.8049154" lon="8.6702194"><ele>274.5</ele><time>2026-04-18T12:20:04.28Z</time></trkpt><trkpt lat="45.8048547" lon="8.6700541"><ele>275.0</ele><time>2026-04-18T12:20:05.281Z</time></trkpt><trkpt lat="45.8047965" lon="8.6698879"><ele>275.5</ele><time>2026-04-18T12:20:06.28Z</time></trkpt><trkpt lat="45.8047433" lon="8.669711"><ele>276.0</ele><time>2026-04-18T12:20:07.28Z</time></trkpt><trkpt lat="45.8046955" lon="8.6695271"><ele>276.6</ele><time>2026-04-18T12:20:08.28Z</time></trkpt><trkpt lat="45.8046561" lon="8.6693497"><ele>277.20000000000005</ele><time>2026-04-18T12:20:09.281Z</time></trkpt><trkpt lat="45.8046252" lon="8.6691956"><ele>277.79999999999995</ele><time>2026-04-18T12:20:10.281Z</time></trkpt><trkpt lat="45.8046003" lon="8.6690626"><ele>278.4</ele><time>2026-04-18T12:20:11.279Z</time></trkpt><trkpt lat="45.8045798" lon="8.6689605"><ele>279.0</ele><time>2026-04-18T12:20:12.28Z</time></trkpt><trkpt lat="45.8045548" lon="8.668856"><ele>279.0</ele><time>2026-04-18T12:20:14.28Z</time></trkpt><trkpt lat="45.8045058" lon="8.6687375"><ele>279.0</ele><time>2026-04-18T12:20:20.28Z</time></trkpt><trkpt lat="45.8044917" lon="8.6686122"><ele>279.0</ele><time>2026-04-18T12:20:23.28Z</time></trkpt><trkpt lat="45.8044651" lon="8.6685111"><ele>279.0</ele><time>2026-04-18T12:21:08.281Z</time></trkpt><trkpt lat="45.8044365" lon="8.6683389"><ele>279.0</ele><time>2026-04-18T12:21:10.281Z</time></trkpt><trkpt lat="45.8044212" lon="8.6682418"><ele>278.8</ele><time>2026-04-18T12:21:11.28Z</time></trkpt><trkpt lat="45.8044079" lon="8.6681327"><ele>278.59999999999997</ele><time>2026-04-18T12:21:12.281Z</time></trkpt><trkpt lat="45.8044033" lon="8.6680095"><ele>278.4</ele><time>2026-04-18T12:21:13.281Z</time></trkpt><trkpt lat="45.8043964" lon="8.6678754"><ele>278.2</ele><time>2026-04-18T12:21:14.281Z</time></trkpt><trkpt lat="45.8043891" lon="8.6677295"><ele>278.0</ele><time>2026-04-18T12:21:15.28Z</time></trkpt><trkpt lat="45.8043819" lon="8.6675759"><ele>277.8</ele><time>2026-04-18T12:21:16.281Z</time></trkpt><trkpt lat="45.8043738" lon="8.6674155"><ele>277.6</ele><time>2026-04-18T12:21:17.281Z</time></trkpt><trkpt lat="45.8043692" lon="8.6672523"><ele>277.4</ele><time>2026-04-18T12:21:18.279Z</time></trkpt><trkpt lat="45.8043633" lon="8.6670951"><ele>277.2</ele><time>2026-04-18T12:21:19.278Z</time></trkpt><trkpt lat="45.8043504" lon="8.6669412"><ele>277.0</ele><time>2026-04-18T12:21:20.279Z</time></trkpt><trkpt lat="45.8043282" lon="8.6667923"><ele>276.25</ele><time>2026-04-18T12:21:21.279Z</time></trkpt><trkpt lat="45.8042907" lon="8.6666432"><ele>275.5</ele><time>2026-04-18T12:21:22.279Z</time></trkpt><trkpt lat="45.804251" lon="8.6664944"><ele>274.75</ele><time>2026-04-18T12:21:23.279Z</time></trkpt><trkpt lat="45.8042135" lon="8.6663364"><ele>274.0</ele><time>2026-04-18T12:21:24.279Z</time></trkpt><trkpt lat="45.8041841" lon="8.66617"><ele>274.25</ele><time>2026-04-18T12:21:25.28Z</time></trkpt><trkpt lat="45.8041779" lon="8.665995"><ele>274.5</ele><time>2026-04-18T12:21:26.28Z</time></trkpt><trkpt lat="45.8041909" lon="8.6658193"><ele>274.75</ele><time>2026-04-18T12:21:27.279Z</time></trkpt><trkpt lat="45.8042125" lon="8.665646"><ele>275.0</ele><time>2026-04-18T12:21:28.28Z</time></trkpt><trkpt lat="45.8042215" lon="8.665483"><ele>275.0</ele><time>2026-04-18T12:21:29.279Z</time></trkpt><trkpt lat="45.8042328" lon="8.6653292"><ele>275.0</ele><time>2026-04-18T12:21:30.28Z</time></trkpt><trkpt lat="45.8042458" lon="8.6651818"><ele>275.0</ele><time>2026-04-18T12:21:31.28Z</time></trkpt><trkpt lat="45.8042566" lon="8.6650279"><ele>275.0</ele><time>2026-04-18T12:21:32.279Z</time></trkpt><trkpt lat="45.8042687" lon="8.6648644"><ele>275.0</ele><time>2026-04-18T12:21:33.28Z</time></trkpt><trkpt lat="45.8042781" lon="8.6647017"><ele>275.0</ele><time>2026-04-18T12:21:34.28Z</time></trkpt><trkpt lat="45.8042898" lon="8.6645353"><ele>275.0</ele><time>2026-04-18T12:21:35.279Z</time></trkpt><trkpt lat="45.8043015" lon="8.6643571"><ele>275.0</ele><time>2026-04-18T12:21:36.279Z</time></trkpt><trkpt lat="45.8043124" lon="8.6641761"><ele>275.0</ele><time>2026-04-18T12:21:37.279Z</time></trkpt><trkpt lat="45.8043235" lon="8.6639918"><ele>277.0</ele><time>2026-04-18T12:21:38.28Z</time></trkpt><trkpt lat="45.8043357" lon="8.6638088"><ele>279.0</ele><time>2026-04-18T12:21:39.279Z</time></trkpt><trkpt lat="45.8043458" lon="8.6636271"><ele>281.0</ele><time>2026-04-18T12:21:40.28Z</time></trkpt><trkpt lat="45.8043555" lon="8.6634459"><ele>283.0</ele><time>2026-04-18T12:21:41.279Z</time></trkpt><trkpt lat="45.8043646" lon="8.6632617"><ele>283.0</ele><time>2026-04-18T12:21:42.279Z</time></trkpt><trkpt lat="45.8043777" lon="8.6630816"><ele>283.0</ele><time>2026-04-18T12:21:43.279Z</time></trkpt><trkpt lat="45.8043991" lon="8.6629096"><ele>283.0</ele><time>2026-04-18T12:21:44.279Z</time></trkpt><trkpt lat="45.8044374" lon="8.6627529"><ele>283.0</ele><time>2026-04-18T12:21:45.279Z</time></trkpt><trkpt lat="45.8044986" lon="8.6626225"><ele>282.75</ele><time>2026-04-18T12:21:46.28Z</time></trkpt><trkpt lat="45.8045788" lon="8.6625101"><ele>282.5</ele><time>2026-04-18T12:21:47.279Z</time></trkpt><trkpt lat="45.8046624" lon="8.6624016"><ele>282.25</ele><time>2026-04-18T12:21:48.279Z</time></trkpt><trkpt lat="45.8047449" lon="8.66228"><ele>282.0</ele><time>2026-04-18T12:21:49.279Z</time></trkpt><trkpt lat="45.8048288" lon="8.6621612"><ele>282.0</ele><time>2026-04-18T12:21:50.279Z</time></trkpt><trkpt lat="45.8049088" lon="8.6620491"><ele>282.0</ele><time>2026-04-18T12:21:51.279Z</time></trkpt><trkpt lat="45.8049958" lon="8.6619608"><ele>282.0</ele><time>2026-04-18T12:21:52.279Z</time></trkpt><trkpt lat="45.8050949" lon="8.6618975"><ele>282.0</ele><time>2026-04-18T12:21:53.28Z</time></trkpt><trkpt lat="45.8052007" lon="8.6618496"><ele>282.0</ele><time>2026-04-18T12:21:54.279Z</time></trkpt><trkpt lat="45.80531" lon="8.6618124"><ele>282.5</ele><time>2026-04-18T12:21:55.279Z</time></trkpt><trkpt lat="45.8054274" lon="8.6617625"><ele>283.0</ele><time>2026-04-18T12:21:56.279Z</time></trkpt><trkpt lat="45.8055412" lon="8.6616986"><ele>283.5</ele><time>2026-04-18T12:21:57.279Z</time></trkpt><trkpt lat="45.8056471" lon="8.6616156"><ele>284.0</ele><time>2026-04-18T12:21:58.279Z</time></trkpt><trkpt lat="45.8057376" lon="8.6615204"><ele>284.0</ele><time>2026-04-18T12:21:59.279Z</time></trkpt><trkpt lat="45.8058075" lon="8.6614087"><ele>284.0</ele><time>2026-04-18T12:22:00.28Z</time></trkpt><trkpt lat="45.8058478" lon="8.6612655"><ele>284.0</ele><time>2026-04-18T12:22:01.28Z</time></trkpt><trkpt lat="45.8058758" lon="8.6611177"><ele>284.0</ele><time>2026-04-18T12:22:02.279Z</time></trkpt><trkpt lat="45.8058853" lon="8.6609667"><ele>284.0</ele><time>2026-04-18T12:22:03.279Z</time></trkpt><trkpt lat="45.8058595" lon="8.6608085"><ele>283.25</ele><time>2026-04-18T12:22:04.28Z</time></trkpt><trkpt lat="45.8058103" lon="8.6606528"><ele>282.5</ele><time>2026-04-18T12:22:05.28Z</time></trkpt><trkpt lat="45.8057496" lon="8.6604869"><ele>281.75</ele><time>2026-04-18T12:22:06.279Z</time></trkpt><trkpt lat="45.8056865" lon="8.660318"><ele>281.0</ele><time>2026-04-18T12:22:07.279Z</time></trkpt><trkpt lat="45.805616" lon="8.6601363"><ele>279.25</ele><time>2026-04-18T12:22:08.279Z</time></trkpt><trkpt lat="45.805543" lon="8.6599529"><ele>277.5</ele><time>2026-04-18T12:22:09.279Z</time></trkpt><trkpt lat="45.8054721" lon="8.6597767"><ele>275.75</ele><time>2026-04-18T12:22:10.28Z</time></trkpt><trkpt lat="45.8054058" lon="8.6596037"><ele>274.0</ele><time>2026-04-18T12:22:11.279Z</time></trkpt><trkpt lat="45.8053495" lon="8.6594261"><ele>273.0</ele><time>2026-04-18T12:22:12.28Z</time></trkpt><trkpt lat="45.805304" lon="8.6592356"><ele>272.0</ele><time>2026-04-18T12:22:13.28Z</time></trkpt><trkpt lat="45.8052722" lon="8.6590359"><ele>271.0</ele><time>2026-04-18T12:22:14.279Z</time></trkpt><trkpt lat="45.8052606" lon="8.6588204"><ele>270.0</ele><time>2026-04-18T12:22:15.279Z</time></trkpt><trkpt lat="45.8052608" lon="8.6585991"><ele>270.0</ele><time>2026-04-18T12:22:16.28Z</time></trkpt><trkpt lat="45.8052646" lon="8.6583771"><ele>270.0</ele><time>2026-04-18T12:22:17.28Z</time></trkpt><trkpt lat="45.8052684" lon="8.6581498"><ele>270.0</ele><time>2026-04-18T12:22:18.28Z</time></trkpt><trkpt lat="45.8052705" lon="8.6579142"><ele>270.0</ele><time>2026-04-18T12:22:19.279Z</time></trkpt><trkpt lat="45.8052734" lon="8.6576768"><ele>270.0</ele><time>2026-04-18T12:22:20.28Z</time></trkpt><trkpt lat="45.8052789" lon="8.6574365"><ele>270.0</ele><time>2026-04-18T12:22:21.279Z</time></trkpt><trkpt lat="45.8052854" lon="8.6571982"><ele>270.0</ele><time>2026-04-18T12:22:22.279Z</time></trkpt><trkpt lat="45.8052984" lon="8.6569686"><ele>270.0</ele><time>2026-04-18T12:22:23.279Z</time></trkpt><trkpt lat="45.805318" lon="8.6567522"><ele>270.0</ele><time>2026-04-18T12:22:24.279Z</time></trkpt><trkpt lat="45.8053438" lon="8.6565395"><ele>269.6666666666667</ele><time>2026-04-18T12:22:25.279Z</time></trkpt><trkpt lat="45.8053736" lon="8.6563242"><ele>269.33333333333337</ele><time>2026-04-18T12:22:26.279Z</time></trkpt><trkpt lat="45.8054096" lon="8.656108"><ele>269.0</ele><time>2026-04-18T12:22:27.279Z</time></trkpt><trkpt lat="45.8054467" lon="8.655895"><ele>270.0</ele><time>2026-04-18T12:22:28.28Z</time></trkpt><trkpt lat="45.8054884" lon="8.6556763"><ele>271.0</ele><time>2026-04-18T12:22:29.279Z</time></trkpt><trkpt lat="45.8055196" lon="8.6554576"><ele>272.0</ele><time>2026-04-18T12:22:30.28Z</time></trkpt><trkpt lat="45.8055336" lon="8.6552479"><ele>274.0</ele><time>2026-04-18T12:22:31.279Z</time></trkpt><trkpt lat="45.8055313" lon="8.6550294"><ele>276.0</ele><time>2026-04-18T12:22:32.279Z</time></trkpt><trkpt lat="45.8055114" lon="8.6548072"><ele>278.0</ele><time>2026-04-18T12:22:33.279Z</time></trkpt><trkpt lat="45.8054798" lon="8.6545868"><ele>278.33333333333337</ele><time>2026-04-18T12:22:34.279Z</time></trkpt><trkpt lat="45.8054375" lon="8.6543578"><ele>278.6666666666667</ele><time>2026-04-18T12:22:35.28Z</time></trkpt><trkpt lat="45.805398" lon="8.6541351"><ele>279.0</ele><time>2026-04-18T12:22:36.279Z</time></trkpt><trkpt lat="45.8053591" lon="8.65392"><ele>279.0</ele><time>2026-04-18T12:22:37.28Z</time></trkpt><trkpt lat="45.8053196" lon="8.6537079"><ele>279.0</ele><time>2026-04-18T12:22:38.279Z</time></trkpt><trkpt lat="45.8052807" lon="8.6535047"><ele>279.0</ele><time>2026-04-18T12:22:39.279Z</time></trkpt><trkpt lat="45.8052455" lon="8.6533016"><ele>279.0</ele><time>2026-04-18T12:22:40.279Z</time></trkpt><trkpt lat="45.805208" lon="8.6531054"><ele>278.75</ele><time>2026-04-18T12:22:41.279Z</time></trkpt><trkpt lat="45.8051675" lon="8.6529037"><ele>278.5</ele><time>2026-04-18T12:22:42.279Z</time></trkpt><trkpt lat="45.805128" lon="8.6526993"><ele>278.25</ele><time>2026-04-18T12:22:43.28Z</time></trkpt><trkpt lat="45.805089" lon="8.6524916"><ele>278.0</ele><time>2026-04-18T12:22:44.279Z</time></trkpt><trkpt lat="45.8050474" lon="8.6522831"><ele>277.6666666666667</ele><time>2026-04-18T12:22:45.28Z</time></trkpt><trkpt lat="45.8050049" lon="8.6520715"><ele>277.3333333333333</ele><time>2026-04-18T12:22:46.28Z</time></trkpt><trkpt lat="45.8049639" lon="8.6518593"><ele>277.0</ele><time>2026-04-18T12:22:47.28Z</time></trkpt><trkpt lat="45.8049156" lon="8.651656"><ele>277.66666666666663</ele><time>2026-04-18T12:22:48.28Z</time></trkpt><trkpt lat="45.8048464" lon="8.6514655"><ele>278.3333333333333</ele><time>2026-04-18T12:22:49.279Z</time></trkpt><trkpt lat="45.8047566" lon="8.6512865"><ele>279.0</ele><time>2026-04-18T12:22:50.279Z</time></trkpt><trkpt lat="45.8046524" lon="8.6511341"><ele>279.0</ele><time>2026-04-18T12:22:51.279Z</time></trkpt><trkpt lat="45.8045345" lon="8.6509995"><ele>279.0</ele><time>2026-04-18T12:22:52.28Z</time></trkpt><trkpt lat="45.8044017" lon="8.6508785"><ele>279.0</ele><time>2026-04-18T12:22:53.279Z</time></trkpt><trkpt lat="45.8042643" lon="8.6507592"><ele>277.6666666666667</ele><time>2026-04-18T12:22:54.279Z</time></trkpt><trkpt lat="45.8041272" lon="8.6506378"><ele>276.33333333333337</ele><time>2026-04-18T12:22:55.28Z</time></trkpt><trkpt lat="45.8039909" lon="8.6505234"><ele>275.0</ele><time>2026-04-18T12:22:56.279Z</time></trkpt><trkpt lat="45.8038578" lon="8.650412"><ele>275.0</ele><time>2026-04-18T12:22:57.279Z</time></trkpt><trkpt lat="45.8037286" lon="8.650304"><ele>275.0</ele><time>2026-04-18T12:22:58.28Z</time></trkpt><trkpt lat="45.8036054" lon="8.650196"><ele>275.0</ele><time>2026-04-18T12:22:59.279Z</time></trkpt><trkpt lat="45.8034833" lon="8.6500863"><ele>275.0</ele><time>2026-04-18T12:23:00.28Z</time></trkpt><trkpt lat="45.8033594" lon="8.6499777"><ele>274.5</ele><time>2026-04-18T12:23:01.279Z</time></trkpt><trkpt lat="45.8032352" lon="8.6498679"><ele>274.0</ele><time>2026-04-18T12:23:02.279Z</time></trkpt><trkpt lat="45.8031146" lon="8.6497553"><ele>273.5</ele><time>2026-04-18T12:23:03.28Z</time></trkpt><trkpt lat="45.8029913" lon="8.649644"><ele>273.0</ele><time>2026-04-18T12:23:04.28Z</time></trkpt><trkpt lat="45.8028675" lon="8.6495304"><ele>273.0</ele><time>2026-04-18T12:23:05.28Z</time></trkpt><trkpt lat="45.8027437" lon="8.6494171"><ele>273.0</ele><time>2026-04-18T12:23:06.279Z</time></trkpt><trkpt lat="45.8026191" lon="8.6493012"><ele>273.0</ele><time>2026-04-18T12:23:07.28Z</time></trkpt><trkpt lat="45.802495" lon="8.6491886"><ele>273.0</ele><time>2026-04-18T12:23:08.279Z</time></trkpt><trkpt lat="45.8023756" lon="8.6490765"><ele>273.0</ele><time>2026-04-18T12:23:09.28Z</time></trkpt><trkpt lat="45.8022532" lon="8.6489637"><ele>273.0</ele><time>2026-04-18T12:23:10.279Z</time></trkpt><trkpt lat="45.8021349" lon="8.6488475"><ele>273.0</ele><time>2026-04-18T12:23:11.279Z</time></trkpt><trkpt lat="45.8020134" lon="8.6487385"><ele>273.0</ele><time>2026-04-18T12:23:12.279Z</time></trkpt><trkpt lat="45.8018958" lon="8.6486298"><ele>272.5</ele><time>2026-04-18T12:23:13.279Z</time></trkpt><trkpt lat="45.801777" lon="8.6485184"><ele>272.0</ele><time>2026-04-18T12:23:14.28Z</time></trkpt><trkpt lat="45.8016626" lon="8.6484093"><ele>271.5</ele><time>2026-04-18T12:23:15.28Z</time></trkpt><trkpt lat="45.8015494" lon="8.6483036"><ele>271.0</ele><time>2026-04-18T12:23:16.279Z</time></trkpt><trkpt lat="45.8014376" lon="8.6482008"><ele>271.0</ele><time>2026-04-18T12:23:17.28Z</time></trkpt><trkpt lat="45.8013293" lon="8.6480971"><ele>271.0</ele><time>2026-04-18T12:23:18.279Z</time></trkpt><trkpt lat="45.8012197" lon="8.6479967"><ele>271.0</ele><time>2026-04-18T12:23:19.279Z</time></trkpt><trkpt lat="45.8011111" lon="8.6478951"><ele>271.0</ele><time>2026-04-18T12:23:20.279Z</time></trkpt><trkpt lat="45.8010019" lon="8.6477953"><ele>272.25</ele><time>2026-04-18T12:23:21.279Z</time></trkpt><trkpt lat="45.8008894" lon="8.6476964"><ele>273.5</ele><time>2026-04-18T12:23:22.279Z</time></trkpt><trkpt lat="45.8007781" lon="8.6475949"><ele>274.75</ele><time>2026-04-18T12:23:23.28Z</time></trkpt><trkpt lat="45.8006657" lon="8.6474947"><ele>276.0</ele><time>2026-04-18T12:23:24.279Z</time></trkpt><trkpt lat="45.8005512" lon="8.6473919"><ele>276.0</ele><time>2026-04-18T12:23:25.279Z</time></trkpt><trkpt lat="45.800434" lon="8.6472854"><ele>276.0</ele><time>2026-04-18T12:23:26.279Z</time></trkpt><trkpt lat="45.8003153" lon="8.6471786"><ele>276.0</ele><time>2026-04-18T12:23:27.279Z</time></trkpt><trkpt lat="45.8002024" lon="8.6470568"><ele>276.0</ele><time>2026-04-18T12:23:28.279Z</time></trkpt><trkpt lat="45.8000899" lon="8.6469184"><ele>275.75</ele><time>2026-04-18T12:23:29.28Z</time></trkpt><trkpt lat="45.7999836" lon="8.6467681"><ele>275.5</ele><time>2026-04-18T12:23:30.28Z</time></trkpt><trkpt lat="45.7998833" lon="8.646619"><ele>275.25</ele><time>2026-04-18T12:23:31.279Z</time></trkpt><trkpt lat="45.7997895" lon="8.6464752"><ele>275.0</ele><time>2026-04-18T12:23:32.279Z</time></trkpt><trkpt lat="45.7996999" lon="8.6463332"><ele>275.0</ele><time>2026-04-18T12:23:33.28Z</time></trkpt><trkpt lat="45.7996062" lon="8.6461917"><ele>275.0</ele><time>2026-04-18T12:23:34.279Z</time></trkpt><trkpt lat="45.799513" lon="8.6460504"><ele>275.0</ele><time>2026-04-18T12:23:35.279Z</time></trkpt><trkpt lat="45.7994244" lon="8.6459154"><ele>275.0</ele><time>2026-04-18T12:23:36.279Z</time></trkpt><trkpt lat="45.7993381" lon="8.6457837"><ele>274.75</ele><time>2026-04-18T12:23:37.279Z</time></trkpt><trkpt lat="45.7992545" lon="8.6456566"><ele>274.5</ele><time>2026-04-18T12:23:38.279Z</time></trkpt><trkpt lat="45.7991686" lon="8.6455261"><ele>274.25</ele><time>2026-04-18T12:23:39.279Z</time></trkpt><trkpt lat="45.7990818" lon="8.6454016"><ele>274.0</ele><time>2026-04-18T12:23:40.279Z</time></trkpt><trkpt lat="45.7989951" lon="8.6452716"><ele>274.0</ele><time>2026-04-18T12:23:41.279Z</time></trkpt><trkpt lat="45.798906" lon="8.6451471"><ele>274.0</ele><time>2026-04-18T12:23:42.279Z</time></trkpt><trkpt lat="45.7988018" lon="8.6450543"><ele>274.0</ele><time>2026-04-18T12:23:43.279Z</time></trkpt><trkpt lat="45.798694" lon="8.6449781"><ele>274.0</ele><time>2026-04-18T12:23:44.28Z</time></trkpt><trkpt lat="45.7985797" lon="8.6449145"><ele>274.0</ele><time>2026-04-18T12:23:45.279Z</time></trkpt><trkpt lat="45.7984641" lon="8.6448592"><ele>274.0</ele><time>2026-04-18T12:23:46.28Z</time></trkpt><trkpt lat="45.7983609" lon="8.644808"><ele>274.0</ele><time>2026-04-18T12:23:47.279Z</time></trkpt><trkpt lat="45.7982752" lon="8.6447669"><ele>274.0</ele><time>2026-04-18T12:23:48.279Z</time></trkpt><trkpt lat="45.7982087" lon="8.6447256"><ele>274.0</ele><time>2026-04-18T12:23:49.279Z</time></trkpt><trkpt lat="45.7981442" lon="8.6446542"><ele>274.0</ele><time>2026-04-18T12:23:51.281Z</time></trkpt><trkpt lat="45.7980822" lon="8.6445399"><ele>274.0</ele><time>2026-04-18T12:23:53.281Z</time></trkpt><trkpt lat="45.7980079" lon="8.6444774"><ele>274.0</ele><time>2026-04-18T12:23:55.28Z</time></trkpt><trkpt lat="45.7979441" lon="8.6445346"><ele>274.0</ele><time>2026-04-18T12:23:57.279Z</time></trkpt><trkpt lat="45.7979313" lon="8.6446632"><ele>274.0</ele><time>2026-04-18T12:23:59.279Z</time></trkpt><trkpt lat="45.7979793" lon="8.6448176"><ele>274.0</ele><time>2026-04-18T12:24:01.28Z</time></trkpt><trkpt lat="45.7980515" lon="8.6449574"><ele>274.0</ele><time>2026-04-18T12:24:03.279Z</time></trkpt><trkpt lat="45.7981183" lon="8.6450939"><ele>274.0</ele><time>2026-04-18T12:24:05.279Z</time></trkpt><trkpt lat="45.7981761" lon="8.645217"><ele>274.0</ele><time>2026-04-18T12:24:07.279Z</time></trkpt><trkpt lat="45.7982182" lon="8.6453167"><ele>274.0</ele><time>2026-04-18T12:24:15.279Z</time></trkpt><trkpt lat="45.7982533" lon="8.6454247"><ele>274.0</ele><time>2026-04-18T12:24:17.28Z</time></trkpt><trkpt lat="45.7982752" lon="8.6455768"><ele>274.0</ele><time>2026-04-18T12:24:19.279Z</time></trkpt><trkpt lat="45.7982864" lon="8.6456666"><ele>274.0</ele><time>2026-04-18T12:24:20.279Z</time></trkpt><trkpt lat="45.7983135" lon="8.645818"><ele>274.0</ele><time>2026-04-18T12:24:22.281Z</time></trkpt><trkpt lat="45.7983064" lon="8.6459404"><ele>274.0</ele><time>2026-04-18T12:24:24.279Z</time></trkpt><trkpt lat="45.7982264" lon="8.6459912"><ele>274.0</ele><time>2026-04-18T12:24:26.279Z</time></trkpt><trkpt lat="45.7981238" lon="8.6459956"><ele>274.0</ele><time>2026-04-18T12:24:28.28Z</time></trkpt><trkpt lat="45.7980101" lon="8.6460042"><ele>274.0</ele><time>2026-04-18T12:24:30.28Z</time></trkpt><trkpt lat="45.7979264" lon="8.6460838"><ele>274.0</ele><time>2026-04-18T12:24:32.28Z</time></trkpt><trkpt lat="45.7978993" lon="8.6462172"><ele>274.0</ele><time>2026-04-18T12:24:34.28Z</time></trkpt><trkpt lat="45.7979312" lon="8.6463251"><ele>274.0</ele><time>2026-04-18T12:24:36.279Z</time></trkpt><trkpt lat="45.7980126" lon="8.6463407"><ele>274.0</ele><time>2026-04-18T12:24:38.279Z</time></trkpt><trkpt lat="45.7981227" lon="8.6463178"><ele>274.0</ele><time>2026-04-18T12:24:40.279Z</time></trkpt><trkpt lat="45.7982388" lon="8.6462821"><ele>274.0</ele><time>2026-04-18T12:24:42.28Z</time></trkpt><trkpt lat="45.7983146" lon="8.6461945"><ele>274.0</ele><time>2026-04-18T12:24:44.279Z</time></trkpt><trkpt lat="45.79833" lon="8.6460537"><ele>274.0</ele><time>2026-04-18T12:24:46.279Z</time></trkpt><trkpt lat="45.7983278" lon="8.6459634"><ele>274.0</ele><time>2026-04-18T12:24:47.279Z</time></trkpt><trkpt lat="45.7983268" lon="8.6458727"><ele>274.0</ele><time>2026-04-18T12:24:48.279Z</time></trkpt><trkpt lat="45.7983205" lon="8.6457092"><ele>274.0</ele><time>2026-04-18T12:24:50.279Z</time></trkpt><trkpt lat="45.7983007" lon="8.6455695"><ele>274.0</ele><time>2026-04-18T12:24:52.278Z</time></trkpt><trkpt lat="45.7982683" lon="8.6454392"><ele>274.0</ele><time>2026-04-18T12:24:54.279Z</time></trkpt><trkpt lat="45.7982293" lon="8.6453588"><ele>274.0</ele><time>2026-04-18T12:24:56.278Z</time></trkpt><trkpt lat="45.7982524" lon="8.6452619"><ele>274.0</ele><time>2026-04-18T12:25:56.278Z</time></trkpt></trkseg><trkseg><trkpt lat="45.7982311" lon="8.6452694"><ele>274.0</ele><time>2026-04-18T13:51:07.258Z</time></trkpt><trkpt lat="45.79817" lon="8.645162"><ele>274.0</ele><time>2026-04-18T13:51:39.257Z</time></trkpt><trkpt lat="45.7981254" lon="8.6450836"><ele>274.0</ele><time>2026-04-18T13:51:41.257Z</time></trkpt><trkpt lat="45.7980943" lon="8.6449787"><ele>274.0</ele><time>2026-04-18T13:51:43.257Z</time></trkpt><trkpt lat="45.7980612" lon="8.6448899"><ele>274.0</ele><time>2026-04-18T13:51:45.258Z</time></trkpt><trkpt lat="45.7980506" lon="8.6447868"><ele>274.0</ele><time>2026-04-18T13:51:56.258Z</time></trkpt><trkpt lat="45.7980547" lon="8.6446766"><ele>274.0</ele><time>2026-04-18T13:51:59.257Z</time></trkpt><trkpt lat="45.7980682" lon="8.644547"><ele>274.0</ele><time>2026-04-18T13:52:01.256Z</time></trkpt><trkpt lat="45.7980018" lon="8.6444562"><ele>274.0</ele><time>2026-04-18T13:52:03.256Z</time></trkpt><trkpt lat="45.797882" lon="8.6443912"><ele>274.0</ele><time>2026-04-18T13:52:05.256Z</time></trkpt><trkpt lat="45.7978216" lon="8.6443192"><ele>274.0</ele><time>2026-04-18T13:52:06.256Z</time></trkpt><trkpt lat="45.7977626" lon="8.6442405"><ele>274.16666666666663</ele><time>2026-04-18T13:52:07.256Z</time></trkpt><trkpt lat="45.7976998" lon="8.6441532"><ele>274.3333333333333</ele><time>2026-04-18T13:52:08.257Z</time></trkpt><trkpt lat="45.7976325" lon="8.6440617"><ele>274.5</ele><time>2026-04-18T13:52:09.256Z</time></trkpt><trkpt lat="45.7975663" lon="8.643975"><ele>274.6666666666667</ele><time>2026-04-18T13:52:10.256Z</time></trkpt><trkpt lat="45.7975067" lon="8.643899"><ele>274.83333333333337</ele><time>2026-04-18T13:52:11.257Z</time></trkpt><trkpt lat="45.7974564" lon="8.6438188"><ele>275.0</ele><time>2026-04-18T13:52:12.256Z</time></trkpt><trkpt lat="45.7974114" lon="8.6437472"><ele>275.0</ele><time>2026-04-18T13:52:13.256Z</time></trkpt><trkpt lat="45.7973751" lon="8.643645"><ele>275.0</ele><time>2026-04-18T13:52:14.256Z</time></trkpt><trkpt lat="45.7973786" lon="8.6435493"><ele>275.0</ele><time>2026-04-18T13:52:15.257Z</time></trkpt><trkpt lat="45.7974053" lon="8.6434151"><ele>275.0</ele><time>2026-04-18T13:52:17.256Z</time></trkpt><trkpt lat="45.7973581" lon="8.643315"><ele>275.0</ele><time>2026-04-18T13:52:19.256Z</time></trkpt><trkpt lat="45.7972548" lon="8.6432817"><ele>275.0</ele><time>2026-04-18T13:52:21.256Z</time></trkpt><trkpt lat="45.7971907" lon="8.6432775"><ele>275.0</ele><time>2026-04-18T13:52:22.256Z</time></trkpt><trkpt lat="45.7971231" lon="8.6432767"><ele>275.0</ele><time>2026-04-18T13:52:23.257Z</time></trkpt><trkpt lat="45.7970548" lon="8.6432795"><ele>275.0</ele><time>2026-04-18T13:52:24.257Z</time></trkpt><trkpt lat="45.7969876" lon="8.6432766"><ele>275.0</ele><time>2026-04-18T13:52:25.257Z</time></trkpt><trkpt lat="45.7968517" lon="8.6432892"><ele>275.0</ele><time>2026-04-18T13:52:27.256Z</time></trkpt><trkpt lat="45.7967753" lon="8.6432831"><ele>275.0</ele><time>2026-04-18T13:52:28.256Z</time></trkpt><trkpt lat="45.7967011" lon="8.6433035"><ele>275.33333333333337</ele><time>2026-04-18T13:52:29.256Z</time></trkpt><trkpt lat="45.796629" lon="8.6433313"><ele>275.6666666666667</ele><time>2026-04-18T13:52:30.257Z</time></trkpt><trkpt lat="45.7965557" lon="8.6433556"><ele>276.0</ele><time>2026-04-18T13:52:31.256Z</time></trkpt><trkpt lat="45.7964893" lon="8.6433754"><ele>276.3333333333333</ele><time>2026-04-18T13:52:32.256Z</time></trkpt><trkpt lat="45.7964273" lon="8.6434036"><ele>276.66666666666663</ele><time>2026-04-18T13:52:33.256Z</time></trkpt><trkpt lat="45.7963124" lon="8.64346"><ele>277.0</ele><time>2026-04-18T13:52:35.256Z</time></trkpt><trkpt lat="45.7961828" lon="8.6434856"><ele>277.0</ele><time>2026-04-18T13:52:37.256Z</time></trkpt><trkpt lat="45.7961151" lon="8.6434943"><ele>277.0</ele><time>2026-04-18T13:52:38.256Z</time></trkpt><trkpt lat="45.796042" lon="8.6434953"><ele>277.0</ele><time>2026-04-18T13:52:39.257Z</time></trkpt><trkpt lat="45.7959689" lon="8.6434966"><ele>277.0</ele><time>2026-04-18T13:52:40.256Z</time></trkpt><trkpt lat="45.7959013" lon="8.6435124"><ele>277.0</ele><time>2026-04-18T13:52:41.256Z</time></trkpt><trkpt lat="45.7957947" lon="8.6435655"><ele>277.0</ele><time>2026-04-18T13:52:43.256Z</time></trkpt><trkpt lat="45.7957784" lon="8.6437253"><ele>277.3333333333333</ele><time>2026-04-18T13:52:45.257Z</time></trkpt><trkpt lat="45.7957769" lon="8.6438249"><ele>277.66666666666663</ele><time>2026-04-18T13:52:46.256Z</time></trkpt><trkpt lat="45.79578" lon="8.6439333"><ele>278.0</ele><time>2026-04-18T13:52:47.256Z</time></trkpt><trkpt lat="45.7957765" lon="8.6440457"><ele>278.3333333333333</ele><time>2026-04-18T13:52:48.256Z</time></trkpt><trkpt lat="45.7957708" lon="8.6441626"><ele>278.6666666666667</ele><time>2026-04-18T13:52:49.256Z</time></trkpt><trkpt lat="45.7957622" lon="8.6442681"><ele>279.0</ele><time>2026-04-18T13:52:50.256Z</time></trkpt><trkpt lat="45.7957556" lon="8.6444135"><ele>278.59999999999997</ele><time>2026-04-18T13:52:52.256Z</time></trkpt><trkpt lat="45.7957628" lon="8.6445371"><ele>278.2</ele><time>2026-04-18T13:53:14.257Z</time></trkpt><trkpt lat="45.7956951" lon="8.6446226"><ele>277.79999999999995</ele><time>2026-04-18T13:53:16.256Z</time></trkpt><trkpt lat="45.7955652" lon="8.644673"><ele>277.4</ele><time>2026-04-18T13:53:18.256Z</time></trkpt><trkpt lat="45.7954877" lon="8.6447055"><ele>277.0</ele><time>2026-04-18T13:53:19.257Z</time></trkpt><trkpt lat="45.7954022" lon="8.6447471"><ele>277.0</ele><time>2026-04-18T13:53:20.256Z</time></trkpt><trkpt lat="45.7953183" lon="8.6447815"><ele>277.0</ele><time>2026-04-18T13:53:21.256Z</time></trkpt><trkpt lat="45.7952295" lon="8.6448188"><ele>277.0</ele><time>2026-04-18T13:53:22.256Z</time></trkpt><trkpt lat="45.7951378" lon="8.6448604"><ele>277.0</ele><time>2026-04-18T13:53:23.257Z</time></trkpt><trkpt lat="45.7950428" lon="8.6449027"><ele>277.0</ele><time>2026-04-18T13:53:24.256Z</time></trkpt><trkpt lat="45.7949439" lon="8.6449466"><ele>276.6</ele><time>2026-04-18T13:53:25.256Z</time></trkpt><trkpt lat="45.7948445" lon="8.6449864"><ele>276.2</ele><time>2026-04-18T13:53:26.256Z</time></trkpt><trkpt lat="45.7947427" lon="8.6450323"><ele>275.8</ele><time>2026-04-18T13:53:27.257Z</time></trkpt><trkpt lat="45.7946407" lon="8.6450756"><ele>275.4</ele><time>2026-04-18T13:53:28.257Z</time></trkpt><trkpt lat="45.7945348" lon="8.6451185"><ele>275.0</ele><time>2026-04-18T13:53:29.256Z</time></trkpt><trkpt lat="45.794429" lon="8.6451634"><ele>275.0</ele><time>2026-04-18T13:53:30.256Z</time></trkpt><trkpt lat="45.794324" lon="8.6452098"><ele>275.0</ele><time>2026-04-18T13:53:31.256Z</time></trkpt><trkpt lat="45.7942197" lon="8.645256"><ele>275.0</ele><time>2026-04-18T13:53:32.256Z</time></trkpt><trkpt lat="45.7941079" lon="8.6453028"><ele>275.0</ele><time>2026-04-18T13:53:33.256Z</time></trkpt><trkpt lat="45.7939957" lon="8.645349"><ele>275.0</ele><time>2026-04-18T13:53:34.256Z</time></trkpt><trkpt lat="45.7938845" lon="8.6453994"><ele>275.0</ele><time>2026-04-18T13:53:35.257Z</time></trkpt><trkpt lat="45.7937723" lon="8.6454509"><ele>275.0</ele><time>2026-04-18T13:53:36.256Z</time></trkpt><trkpt lat="45.7936581" lon="8.6454993"><ele>275.0</ele><time>2026-04-18T13:53:37.257Z</time></trkpt><trkpt lat="45.7935417" lon="8.6455495"><ele>275.5</ele><time>2026-04-18T13:53:38.256Z</time></trkpt><trkpt lat="45.7934271" lon="8.6455996"><ele>276.0</ele><time>2026-04-18T13:53:39.257Z</time></trkpt><trkpt lat="45.793313" lon="8.6456463"><ele>276.5</ele><time>2026-04-18T13:53:40.257Z</time></trkpt><trkpt lat="45.7932006" lon="8.6456956"><ele>277.0</ele><time>2026-04-18T13:53:41.256Z</time></trkpt><trkpt lat="45.7930928" lon="8.6457429"><ele>277.0</ele><time>2026-04-18T13:53:42.256Z</time></trkpt><trkpt lat="45.7929832" lon="8.6457861"><ele>277.0</ele><time>2026-04-18T13:53:43.256Z</time></trkpt><trkpt lat="45.7928705" lon="8.6458385"><ele>277.0</ele><time>2026-04-18T13:53:44.256Z</time></trkpt><trkpt lat="45.7927562" lon="8.6458898"><ele>277.0</ele><time>2026-04-18T13:53:45.257Z</time></trkpt><trkpt lat="45.7926379" lon="8.6459401"><ele>277.0</ele><time>2026-04-18T13:53:46.256Z</time></trkpt><trkpt lat="45.792517" lon="8.6459908"><ele>277.0</ele><time>2026-04-18T13:53:47.256Z</time></trkpt><trkpt lat="45.792395" lon="8.6460418"><ele>277.0</ele><time>2026-04-18T13:53:48.256Z</time></trkpt><trkpt lat="45.792273" lon="8.6460978"><ele>277.0</ele><time>2026-04-18T13:53:49.256Z</time></trkpt><trkpt lat="45.7921535" lon="8.6461507"><ele>277.0</ele><time>2026-04-18T13:53:50.257Z</time></trkpt><trkpt lat="45.7920313" lon="8.6462033"><ele>277.0</ele><time>2026-04-18T13:53:51.256Z</time></trkpt><trkpt lat="45.7919092" lon="8.6462539"><ele>277.0</ele><time>2026-04-18T13:53:52.256Z</time></trkpt><trkpt lat="45.7917874" lon="8.646307"><ele>277.0</ele><time>2026-04-18T13:53:53.256Z</time></trkpt><trkpt lat="45.7916686" lon="8.6463565"><ele>277.0</ele><time>2026-04-18T13:53:54.256Z</time></trkpt><trkpt lat="45.79155" lon="8.6464048"><ele>277.0</ele><time>2026-04-18T13:53:55.256Z</time></trkpt><trkpt lat="45.7914348" lon="8.646454"><ele>277.0</ele><time>2026-04-18T13:53:56.256Z</time></trkpt><trkpt lat="45.7913288" lon="8.6464958"><ele>277.0</ele><time>2026-04-18T13:53:57.256Z</time></trkpt><trkpt lat="45.7912301" lon="8.6465382"><ele>277.0</ele><time>2026-04-18T13:53:58.256Z</time></trkpt><trkpt lat="45.7911448" lon="8.6465988"><ele>277.0</ele><time>2026-04-18T13:53:59.257Z</time></trkpt><trkpt lat="45.7910807" lon="8.6466777"><ele>277.0</ele><time>2026-04-18T13:54:00.256Z</time></trkpt><trkpt lat="45.7910505" lon="8.6467921"><ele>277.0</ele><time>2026-04-18T13:54:01.256Z</time></trkpt><trkpt lat="45.7910432" lon="8.6469194"><ele>277.0</ele><time>2026-04-18T13:54:02.256Z</time></trkpt><trkpt lat="45.7910518" lon="8.6470582"><ele>277.25</ele><time>2026-04-18T13:54:03.256Z</time></trkpt><trkpt lat="45.7910703" lon="8.6472096"><ele>277.5</ele><time>2026-04-18T13:54:04.256Z</time></trkpt><trkpt lat="45.7910918" lon="8.6473731"><ele>277.75</ele><time>2026-04-18T13:54:05.256Z</time></trkpt><trkpt lat="45.7911161" lon="8.6475478"><ele>278.0</ele><time>2026-04-18T13:54:06.256Z</time></trkpt><trkpt lat="45.7911419" lon="8.6477288"><ele>278.25</ele><time>2026-04-18T13:54:07.256Z</time></trkpt><trkpt lat="45.7911635" lon="8.6479169"><ele>278.5</ele><time>2026-04-18T13:54:08.257Z</time></trkpt><trkpt lat="45.7911841" lon="8.6481141"><ele>278.75</ele><time>2026-04-18T13:54:09.257Z</time></trkpt><trkpt lat="45.7912037" lon="8.6483125"><ele>279.0</ele><time>2026-04-18T13:54:10.256Z</time></trkpt><trkpt lat="45.7912246" lon="8.6485147"><ele>280.0</ele><time>2026-04-18T13:54:11.257Z</time></trkpt><trkpt lat="45.7912414" lon="8.6487207"><ele>281.0</ele><time>2026-04-18T13:54:12.256Z</time></trkpt><trkpt lat="45.7912624" lon="8.6489225"><ele>282.0</ele><time>2026-04-18T13:54:13.257Z</time></trkpt><trkpt lat="45.7912785" lon="8.6491189"><ele>283.0</ele><time>2026-04-18T13:54:14.256Z</time></trkpt><trkpt lat="45.7913001" lon="8.6493017"><ele>283.25</ele><time>2026-04-18T13:54:15.256Z</time></trkpt><trkpt lat="45.7913217" lon="8.6494858"><ele>283.5</ele><time>2026-04-18T13:54:16.257Z</time></trkpt><trkpt lat="45.7913374" lon="8.6496657"><ele>283.75</ele><time>2026-04-18T13:54:17.257Z</time></trkpt><trkpt lat="45.7913505" lon="8.6498429"><ele>284.0</ele><time>2026-04-18T13:54:18.256Z</time></trkpt><trkpt lat="45.7913548" lon="8.6500218"><ele>284.0</ele><time>2026-04-18T13:54:19.256Z</time></trkpt><trkpt lat="45.7913538" lon="8.6501998"><ele>284.0</ele><time>2026-04-18T13:54:20.256Z</time></trkpt><trkpt lat="45.7913475" lon="8.650381"><ele>284.0</ele><time>2026-04-18T13:54:21.256Z</time></trkpt><trkpt lat="45.7913472" lon="8.650563"><ele>284.0</ele><time>2026-04-18T13:54:22.256Z</time></trkpt><trkpt lat="45.7913442" lon="8.6507403"><ele>284.75</ele><time>2026-04-18T13:54:23.256Z</time></trkpt><trkpt lat="45.7913341" lon="8.650921"><ele>285.5</ele><time>2026-04-18T13:54:24.257Z</time></trkpt><trkpt lat="45.7913134" lon="8.6511002"><ele>286.25</ele><time>2026-04-18T13:54:25.256Z</time></trkpt><trkpt lat="45.7912773" lon="8.6512757"><ele>287.0</ele><time>2026-04-18T13:54:26.256Z</time></trkpt><trkpt lat="45.7912297" lon="8.6514526"><ele>287.25</ele><time>2026-04-18T13:54:27.256Z</time></trkpt><trkpt lat="45.791176" lon="8.6516266"><ele>287.5</ele><time>2026-04-18T13:54:28.257Z</time></trkpt><trkpt lat="45.7911195" lon="8.6517985"><ele>287.75</ele><time>2026-04-18T13:54:29.257Z</time></trkpt><trkpt lat="45.7910625" lon="8.6519627"><ele>288.0</ele><time>2026-04-18T13:54:30.257Z</time></trkpt><trkpt lat="45.7910093" lon="8.652125"><ele>289.75</ele><time>2026-04-18T13:54:31.256Z</time></trkpt><trkpt lat="45.790971" lon="8.652289"><ele>291.5</ele><time>2026-04-18T13:54:32.257Z</time></trkpt><trkpt lat="45.7909554" lon="8.6524557"><ele>293.25</ele><time>2026-04-18T13:54:33.256Z</time></trkpt><trkpt lat="45.7909661" lon="8.6526249"><ele>295.0</ele><time>2026-04-18T13:54:34.257Z</time></trkpt><trkpt lat="45.7909919" lon="8.6527937"><ele>294.75</ele><time>2026-04-18T13:54:35.256Z</time></trkpt><trkpt lat="45.7910251" lon="8.6529722"><ele>294.5</ele><time>2026-04-18T13:54:36.256Z</time></trkpt><trkpt lat="45.7910603" lon="8.6531527"><ele>294.25</ele><time>2026-04-18T13:54:37.256Z</time></trkpt><trkpt lat="45.7910951" lon="8.6533348"><ele>294.0</ele><time>2026-04-18T13:54:38.256Z</time></trkpt><trkpt lat="45.7911321" lon="8.6535212"><ele>296.0</ele><time>2026-04-18T13:54:39.256Z</time></trkpt><trkpt lat="45.7911697" lon="8.6537088"><ele>298.0</ele><time>2026-04-18T13:54:40.256Z</time></trkpt><trkpt lat="45.7912045" lon="8.6538995"><ele>300.0</ele><time>2026-04-18T13:54:41.257Z</time></trkpt><trkpt lat="45.7912401" lon="8.6540747"><ele>302.0</ele><time>2026-04-18T13:54:42.256Z</time></trkpt><trkpt lat="45.7912734" lon="8.654244"><ele>302.0</ele><time>2026-04-18T13:54:43.256Z</time></trkpt><trkpt lat="45.791304" lon="8.6544056"><ele>302.0</ele><time>2026-04-18T13:54:44.256Z</time></trkpt><trkpt lat="45.7913292" lon="8.6545561"><ele>302.0</ele><time>2026-04-18T13:54:45.256Z</time></trkpt><trkpt lat="45.7913558" lon="8.6547022"><ele>302.0</ele><time>2026-04-18T13:54:46.257Z</time></trkpt><trkpt lat="45.7913892" lon="8.654845"><ele>302.0</ele><time>2026-04-18T13:54:47.256Z</time></trkpt><trkpt lat="45.7914229" lon="8.6549866"><ele>303.25</ele><time>2026-04-18T13:54:48.255Z</time></trkpt><trkpt lat="45.7914551" lon="8.6551382"><ele>304.5</ele><time>2026-04-18T13:54:49.255Z</time></trkpt><trkpt lat="45.7914833" lon="8.655295"><ele>305.75</ele><time>2026-04-18T13:54:50.255Z</time></trkpt><trkpt lat="45.7914958" lon="8.6554604"><ele>307.0</ele><time>2026-04-18T13:54:51.255Z</time></trkpt><trkpt lat="45.7914904" lon="8.6556271"><ele>307.25</ele><time>2026-04-18T13:54:52.256Z</time></trkpt><trkpt lat="45.7914663" lon="8.6557983"><ele>307.5</ele><time>2026-04-18T13:54:53.255Z</time></trkpt><trkpt lat="45.7914266" lon="8.6559628"><ele>307.75</ele><time>2026-04-18T13:54:54.256Z</time></trkpt><trkpt lat="45.7913819" lon="8.6561341"><ele>308.0</ele><time>2026-04-18T13:54:55.255Z</time></trkpt><trkpt lat="45.7913382" lon="8.6563045"><ele>308.0</ele><time>2026-04-18T13:54:56.255Z</time></trkpt><trkpt lat="45.7912958" lon="8.6564787"><ele>308.0</ele><time>2026-04-18T13:54:57.255Z</time></trkpt><trkpt lat="45.7912483" lon="8.6566531"><ele>308.0</ele><time>2026-04-18T13:54:58.256Z</time></trkpt><trkpt lat="45.7911992" lon="8.6568189"><ele>308.0</ele><time>2026-04-18T13:54:59.255Z</time></trkpt><trkpt lat="45.7911443" lon="8.6569744"><ele>308.0</ele><time>2026-04-18T13:55:00.256Z</time></trkpt><trkpt lat="45.7910781" lon="8.6571129"><ele>308.0</ele><time>2026-04-18T13:55:01.255Z</time></trkpt><trkpt lat="45.7910031" lon="8.6572389"><ele>308.0</ele><time>2026-04-18T13:55:02.255Z</time></trkpt><trkpt lat="45.7909217" lon="8.6573591"><ele>308.0</ele><time>2026-04-18T13:55:03.255Z</time></trkpt><trkpt lat="45.7908403" lon="8.6574747"><ele>309.75</ele><time>2026-04-18T13:55:04.255Z</time></trkpt><trkpt lat="45.7907527" lon="8.6575871"><ele>311.5</ele><time>2026-04-18T13:55:05.255Z</time></trkpt><trkpt lat="45.7906659" lon="8.6577018"><ele>313.25</ele><time>2026-04-18T13:55:06.255Z</time></trkpt><trkpt lat="45.7905752" lon="8.6578199"><ele>315.0</ele><time>2026-04-18T13:55:07.255Z</time></trkpt><trkpt lat="45.7904849" lon="8.6579368"><ele>315.0</ele><time>2026-04-18T13:55:08.256Z</time></trkpt><trkpt lat="45.7903955" lon="8.6580513"><ele>315.0</ele><time>2026-04-18T13:55:09.255Z</time></trkpt><trkpt lat="45.7902994" lon="8.6581661"><ele>315.0</ele><time>2026-04-18T13:55:10.256Z</time></trkpt><trkpt lat="45.7902032" lon="8.6582806"><ele>315.0</ele><time>2026-04-18T13:55:11.255Z</time></trkpt><trkpt lat="45.7901094" lon="8.6583967"><ele>315.75</ele><time>2026-04-18T13:55:12.255Z</time></trkpt><trkpt lat="45.7900134" lon="8.6585036"><ele>316.5</ele><time>2026-04-18T13:55:13.256Z</time></trkpt><trkpt lat="45.7899301" lon="8.6586188"><ele>317.25</ele><time>2026-04-18T13:55:14.255Z</time></trkpt><trkpt lat="45.7898416" lon="8.658723"><ele>318.0</ele><time>2026-04-18T13:55:15.256Z</time></trkpt><trkpt lat="45.7897525" lon="8.6588162"><ele>318.0</ele><time>2026-04-18T13:55:16.256Z</time></trkpt><trkpt lat="45.7896609" lon="8.6588986"><ele>318.0</ele><time>2026-04-18T13:55:17.255Z</time></trkpt><trkpt lat="45.7895627" lon="8.6589748"><ele>318.0</ele><time>2026-04-18T13:55:18.255Z</time></trkpt><trkpt lat="45.7894617" lon="8.6590474"><ele>318.0</ele><time>2026-04-18T13:55:19.255Z</time></trkpt><trkpt lat="45.7893707" lon="8.6591289"><ele>318.0</ele><time>2026-04-18T13:55:20.256Z</time></trkpt><trkpt lat="45.7892886" lon="8.6592106"><ele>319.0</ele><time>2026-04-18T13:55:21.255Z</time></trkpt><trkpt lat="45.7892169" lon="8.659297"><ele>320.0</ele><time>2026-04-18T13:55:22.256Z</time></trkpt><trkpt lat="45.7891462" lon="8.6593844"><ele>321.0</ele><time>2026-04-18T13:55:23.255Z</time></trkpt><trkpt lat="45.789085" lon="8.6594821"><ele>322.0</ele><time>2026-04-18T13:55:24.255Z</time></trkpt><trkpt lat="45.7890196" lon="8.6595788"><ele>323.0</ele><time>2026-04-18T13:55:25.255Z</time></trkpt><trkpt lat="45.7889579" lon="8.6596806"><ele>323.0</ele><time>2026-04-18T13:55:26.256Z</time></trkpt><trkpt lat="45.7888835" lon="8.6597735"><ele>323.0</ele><time>2026-04-18T13:55:27.256Z</time></trkpt><trkpt lat="45.7888071" lon="8.6598648"><ele>323.0</ele><time>2026-04-18T13:55:28.255Z</time></trkpt><trkpt lat="45.7887268" lon="8.6599517"><ele>323.0</ele><time>2026-04-18T13:55:29.256Z</time></trkpt><trkpt lat="45.7886453" lon="8.6600425"><ele>323.0</ele><time>2026-04-18T13:55:30.255Z</time></trkpt><trkpt lat="45.7885533" lon="8.6601221"><ele>324.0</ele><time>2026-04-18T13:55:31.255Z</time></trkpt><trkpt lat="45.7884591" lon="8.6601955"><ele>325.0</ele><time>2026-04-18T13:55:32.255Z</time></trkpt><trkpt lat="45.7883656" lon="8.6602633"><ele>326.0</ele><time>2026-04-18T13:55:33.255Z</time></trkpt><trkpt lat="45.7882785" lon="8.6603322"><ele>327.0</ele><time>2026-04-18T13:55:34.255Z</time></trkpt><trkpt lat="45.7881952" lon="8.6603875"><ele>328.0</ele><time>2026-04-18T13:55:35.255Z</time></trkpt><trkpt lat="45.7881158" lon="8.6604381"><ele>328.0</ele><time>2026-04-18T13:55:36.256Z</time></trkpt><trkpt lat="45.7880305" lon="8.6604848"><ele>328.0</ele><time>2026-04-18T13:55:37.256Z</time></trkpt><trkpt lat="45.7879446" lon="8.6605422"><ele>328.0</ele><time>2026-04-18T13:55:38.255Z</time></trkpt><trkpt lat="45.7878582" lon="8.6606222"><ele>328.0</ele><time>2026-04-18T13:55:39.255Z</time></trkpt><trkpt lat="45.7877671" lon="8.6607166"><ele>328.0</ele><time>2026-04-18T13:55:40.255Z</time></trkpt><trkpt lat="45.7876734" lon="8.6608151"><ele>326.75</ele><time>2026-04-18T13:55:41.255Z</time></trkpt><trkpt lat="45.7875766" lon="8.6609182"><ele>325.5</ele><time>2026-04-18T13:55:42.256Z</time></trkpt><trkpt lat="45.787482" lon="8.6610224"><ele>324.25</ele><time>2026-04-18T13:55:43.255Z</time></trkpt><trkpt lat="45.7873819" lon="8.6611223"><ele>323.0</ele><time>2026-04-18T13:55:44.255Z</time></trkpt><trkpt lat="45.7872831" lon="8.6612228"><ele>323.0</ele><time>2026-04-18T13:55:45.256Z</time></trkpt><trkpt lat="45.7871825" lon="8.6613186"><ele>323.0</ele><time>2026-04-18T13:55:46.255Z</time></trkpt><trkpt lat="45.7870806" lon="8.6614076"><ele>323.0</ele><time>2026-04-18T13:55:47.256Z</time></trkpt><trkpt lat="45.7869779" lon="8.661501"><ele>323.0</ele><time>2026-04-18T13:55:48.256Z</time></trkpt><trkpt lat="45.7868754" lon="8.6615936"><ele>322.0</ele><time>2026-04-18T13:55:49.256Z</time></trkpt><trkpt lat="45.7867704" lon="8.6616841"><ele>321.0</ele><time>2026-04-18T13:55:50.255Z</time></trkpt><trkpt lat="45.7866652" lon="8.6617834"><ele>320.0</ele><time>2026-04-18T13:55:51.255Z</time></trkpt><trkpt lat="45.7865576" lon="8.6618793"><ele>319.0</ele><time>2026-04-18T13:55:52.255Z</time></trkpt><trkpt lat="45.7864481" lon="8.6619732"><ele>319.0</ele><time>2026-04-18T13:55:53.255Z</time></trkpt><trkpt lat="45.7863387" lon="8.662067"><ele>319.0</ele><time>2026-04-18T13:55:54.256Z</time></trkpt><trkpt lat="45.7862282" lon="8.662161"><ele>319.0</ele><time>2026-04-18T13:55:55.256Z</time></trkpt><trkpt lat="45.7861189" lon="8.6622574"><ele>319.0</ele><time>2026-04-18T13:55:56.255Z</time></trkpt><trkpt lat="45.7860118" lon="8.6623688"><ele>318.0</ele><time>2026-04-18T13:55:57.255Z</time></trkpt><trkpt lat="45.7859091" lon="8.6624879"><ele>317.0</ele><time>2026-04-18T13:55:58.255Z</time></trkpt><trkpt lat="45.7858078" lon="8.6626107"><ele>316.0</ele><time>2026-04-18T13:55:59.255Z</time></trkpt><trkpt lat="45.7857074" lon="8.6627377"><ele>315.0</ele><time>2026-04-18T13:56:00.255Z</time></trkpt><trkpt lat="45.7856045" lon="8.6628591"><ele>315.0</ele><time>2026-04-18T13:56:01.255Z</time></trkpt><trkpt lat="45.7854995" lon="8.6629871"><ele>315.0</ele><time>2026-04-18T13:56:02.255Z</time></trkpt><trkpt lat="45.7853983" lon="8.6631097"><ele>315.0</ele><time>2026-04-18T13:56:03.256Z</time></trkpt><trkpt lat="45.7853006" lon="8.6632281"><ele>315.0</ele><time>2026-04-18T13:56:04.255Z</time></trkpt><trkpt lat="45.7852174" lon="8.6633415"><ele>317.5</ele><time>2026-04-18T13:56:05.256Z</time></trkpt><trkpt lat="45.7851478" lon="8.6634726"><ele>320.0</ele><time>2026-04-18T13:56:06.255Z</time></trkpt><trkpt lat="45.7850959" lon="8.6636176"><ele>322.5</ele><time>2026-04-18T13:56:07.256Z</time></trkpt><trkpt lat="45.7850678" lon="8.6637807"><ele>325.0</ele><time>2026-04-18T13:56:08.256Z</time></trkpt><trkpt lat="45.7850558" lon="8.6639578"><ele>325.0</ele><time>2026-04-18T13:56:09.255Z</time></trkpt><trkpt lat="45.7850604" lon="8.6641384"><ele>325.0</ele><time>2026-04-18T13:56:10.255Z</time></trkpt><trkpt lat="45.7850902" lon="8.6643236"><ele>325.0</ele><time>2026-04-18T13:56:11.256Z</time></trkpt><trkpt lat="45.7851324" lon="8.6645099"><ele>325.0</ele><time>2026-04-18T13:56:12.255Z</time></trkpt><trkpt lat="45.7851788" lon="8.6646991"><ele>324.0</ele><time>2026-04-18T13:56:13.255Z</time></trkpt><trkpt lat="45.785229" lon="8.6648932"><ele>323.0</ele><time>2026-04-18T13:56:14.256Z</time></trkpt><trkpt lat="45.785282" lon="8.6650895"><ele>322.0</ele><time>2026-04-18T13:56:15.256Z</time></trkpt><trkpt lat="45.7853349" lon="8.6652918"><ele>321.0</ele><time>2026-04-18T13:56:16.255Z</time></trkpt><trkpt lat="45.7853874" lon="8.6654938"><ele>320.6666666666667</ele><time>2026-04-18T13:56:17.255Z</time></trkpt><trkpt lat="45.7854386" lon="8.6657046"><ele>320.33333333333337</ele><time>2026-04-18T13:56:18.255Z</time></trkpt><trkpt lat="45.7854894" lon="8.6659163"><ele>320.0</ele><time>2026-04-18T13:56:19.256Z</time></trkpt><trkpt lat="45.7855374" lon="8.6661262"><ele>320.0</ele><time>2026-04-18T13:56:20.255Z</time></trkpt><trkpt lat="45.785584" lon="8.6663377"><ele>320.0</ele><time>2026-04-18T13:56:21.256Z</time></trkpt><trkpt lat="45.7856235" lon="8.6665529"><ele>320.0</ele><time>2026-04-18T13:56:22.255Z</time></trkpt><trkpt lat="45.7856458" lon="8.6667644"><ele>319.5</ele><time>2026-04-18T13:56:23.256Z</time></trkpt><trkpt lat="45.7856447" lon="8.6669728"><ele>319.0</ele><time>2026-04-18T13:56:24.256Z</time></trkpt><trkpt lat="45.7856267" lon="8.6671791"><ele>318.5</ele><time>2026-04-18T13:56:25.255Z</time></trkpt><trkpt lat="45.7855965" lon="8.6673706"><ele>318.0</ele><time>2026-04-18T13:56:26.255Z</time></trkpt><trkpt lat="45.7855433" lon="8.6675568"><ele>318.0</ele><time>2026-04-18T13:56:27.255Z</time></trkpt><trkpt lat="45.7854763" lon="8.6677439"><ele>318.0</ele><time>2026-04-18T13:56:28.255Z</time></trkpt><trkpt lat="45.7854022" lon="8.6679322"><ele>318.0</ele><time>2026-04-18T13:56:29.257Z</time></trkpt><trkpt lat="45.7853298" lon="8.6681247"><ele>317.5</ele><time>2026-04-18T13:56:30.256Z</time></trkpt><trkpt lat="45.7852604" lon="8.668309"><ele>317.0</ele><time>2026-04-18T13:56:31.255Z</time></trkpt><trkpt lat="45.7851894" lon="8.6684874"><ele>316.5</ele><time>2026-04-18T13:56:32.255Z</time></trkpt><trkpt lat="45.7851283" lon="8.6686605"><ele>316.0</ele><time>2026-04-18T13:56:33.256Z</time></trkpt><trkpt lat="45.7850679" lon="8.6688296"><ele>316.0</ele><time>2026-04-18T13:56:34.255Z</time></trkpt><trkpt lat="45.7850049" lon="8.6689972"><ele>316.0</ele><time>2026-04-18T13:56:35.256Z</time></trkpt><trkpt lat="45.7849347" lon="8.669164"><ele>316.0</ele><time>2026-04-18T13:56:36.255Z</time></trkpt><trkpt lat="45.7848538" lon="8.6693259"><ele>316.0</ele><time>2026-04-18T13:56:37.256Z</time></trkpt><trkpt lat="45.7847659" lon="8.6694781"><ele>313.25</ele><time>2026-04-18T13:56:38.255Z</time></trkpt><trkpt lat="45.7846725" lon="8.6696244"><ele>310.5</ele><time>2026-04-18T13:56:39.256Z</time></trkpt><trkpt lat="45.7845764" lon="8.6697753"><ele>307.75</ele><time>2026-04-18T13:56:40.256Z</time></trkpt><trkpt lat="45.7844774" lon="8.6699364"><ele>305.0</ele><time>2026-04-18T13:56:41.255Z</time></trkpt><trkpt lat="45.7843784" lon="8.6700997"><ele>305.5</ele><time>2026-04-18T13:56:42.255Z</time></trkpt><trkpt lat="45.7842745" lon="8.6702551"><ele>306.0</ele><time>2026-04-18T13:56:43.255Z</time></trkpt><trkpt lat="45.7841673" lon="8.6704016"><ele>306.5</ele><time>2026-04-18T13:56:44.255Z</time></trkpt><trkpt lat="45.7840575" lon="8.6705398"><ele>307.0</ele><time>2026-04-18T13:56:45.255Z</time></trkpt><trkpt lat="45.7839547" lon="8.6706683"><ele>307.0</ele><time>2026-04-18T13:56:46.256Z</time></trkpt><trkpt lat="45.7838493" lon="8.6707982"><ele>307.0</ele><time>2026-04-18T13:56:47.255Z</time></trkpt><trkpt lat="45.7837462" lon="8.6709216"><ele>307.0</ele><time>2026-04-18T13:56:48.255Z</time></trkpt><trkpt lat="45.7836388" lon="8.6710405"><ele>307.0</ele><time>2026-04-18T13:56:49.256Z</time></trkpt><trkpt lat="45.7835271" lon="8.6711504"><ele>305.75</ele><time>2026-04-18T13:56:50.255Z</time></trkpt><trkpt lat="45.7834126" lon="8.6712574"><ele>304.5</ele><time>2026-04-18T13:56:51.255Z</time></trkpt><trkpt lat="45.7832879" lon="8.6713503"><ele>303.25</ele><time>2026-04-18T13:56:52.256Z</time></trkpt><trkpt lat="45.7831613" lon="8.6714408"><ele>302.0</ele><time>2026-04-18T13:56:53.256Z</time></trkpt><trkpt lat="45.7830233" lon="8.6715391"><ele>302.0</ele><time>2026-04-18T13:56:54.257Z</time></trkpt><trkpt lat="45.7828749" lon="8.6716351"><ele>302.0</ele><time>2026-04-18T13:56:55.255Z</time></trkpt><trkpt lat="45.7827398" lon="8.6717243"><ele>302.0</ele><time>2026-04-18T13:56:56.255Z</time></trkpt><trkpt lat="45.782608" lon="8.671808"><ele>300.25</ele><time>2026-04-18T13:56:57.255Z</time></trkpt><trkpt lat="45.782483" lon="8.6718927"><ele>298.5</ele><time>2026-04-18T13:56:58.255Z</time></trkpt><trkpt lat="45.7823578" lon="8.6719732"><ele>296.75</ele><time>2026-04-18T13:56:59.256Z</time></trkpt><trkpt lat="45.7822357" lon="8.6720518"><ele>295.0</ele><time>2026-04-18T13:57:00.255Z</time></trkpt><trkpt lat="45.7821069" lon="8.6721314"><ele>295.0</ele><time>2026-04-18T13:57:01.257Z</time></trkpt><trkpt lat="45.7819742" lon="8.6722152"><ele>295.0</ele><time>2026-04-18T13:57:02.255Z</time></trkpt><trkpt lat="45.7818386" lon="8.6722997"><ele>295.0</ele><time>2026-04-18T13:57:03.256Z</time></trkpt><trkpt lat="45.7816999" lon="8.6723887"><ele>295.0</ele><time>2026-04-18T13:57:04.255Z</time></trkpt><trkpt lat="45.7815573" lon="8.6724798"><ele>296.66666666666663</ele><time>2026-04-18T13:57:05.255Z</time></trkpt><trkpt lat="45.7814087" lon="8.6725728"><ele>298.3333333333333</ele><time>2026-04-18T13:57:06.255Z</time></trkpt><trkpt lat="45.7812608" lon="8.672665"><ele>300.0</ele><time>2026-04-18T13:57:07.256Z</time></trkpt><trkpt lat="45.7811209" lon="8.6727587"><ele>295.3333333333333</ele><time>2026-04-18T13:57:08.255Z</time></trkpt><trkpt lat="45.7809738" lon="8.6728515"><ele>290.66666666666663</ele><time>2026-04-18T13:57:09.255Z</time></trkpt><trkpt lat="45.7808387" lon="8.6729458"><ele>286.0</ele><time>2026-04-18T13:57:10.256Z</time></trkpt><trkpt lat="45.7807135" lon="8.6730579"><ele>286.0</ele><time>2026-04-18T13:57:11.255Z</time></trkpt><trkpt lat="45.780598" lon="8.6731852"><ele>286.0</ele><time>2026-04-18T13:57:12.256Z</time></trkpt><trkpt lat="45.7804892" lon="8.6733328"><ele>286.0</ele><time>2026-04-18T13:57:13.255Z</time></trkpt><trkpt lat="45.7803981" lon="8.6734947"><ele>286.0</ele><time>2026-04-18T13:57:14.255Z</time></trkpt><trkpt lat="45.7803114" lon="8.6736405"><ele>284.40000000000003</ele><time>2026-04-18T13:57:15.256Z</time></trkpt><trkpt lat="45.7802313" lon="8.6737784"><ele>282.8</ele><time>2026-04-18T13:57:16.256Z</time></trkpt><trkpt lat="45.7801543" lon="8.6739039"><ele>281.20000000000005</ele><time>2026-04-18T13:57:17.255Z</time></trkpt><trkpt lat="45.7800848" lon="8.674015"><ele>279.6</ele><time>2026-04-18T13:57:18.255Z</time></trkpt><trkpt lat="45.7800235" lon="8.6741153"><ele>278.0</ele><time>2026-04-18T13:57:19.256Z</time></trkpt><trkpt lat="45.7799613" lon="8.6741936"><ele>278.0</ele><time>2026-04-18T13:57:20.256Z</time></trkpt><trkpt lat="45.7798979" lon="8.6742324"><ele>278.0</ele><time>2026-04-18T13:57:21.255Z</time></trkpt><trkpt lat="45.7797668" lon="8.6742043"><ele>278.0</ele><time>2026-04-18T13:57:23.256Z</time></trkpt><trkpt lat="45.7796908" lon="8.6741456"><ele>278.0</ele><time>2026-04-18T13:57:24.255Z</time></trkpt><trkpt lat="45.7796007" lon="8.6740953"><ele>278.0</ele><time>2026-04-18T13:57:25.255Z</time></trkpt><trkpt lat="45.7794992" lon="8.6740672"><ele>278.0</ele><time>2026-04-18T13:57:26.255Z</time></trkpt><trkpt lat="45.7793879" lon="8.6740514"><ele>278.0</ele><time>2026-04-18T13:57:27.255Z</time></trkpt><trkpt lat="45.7792729" lon="8.674044"><ele>278.0</ele><time>2026-04-18T13:57:28.256Z</time></trkpt><trkpt lat="45.7791575" lon="8.6740364"><ele>278.0</ele><time>2026-04-18T13:57:29.255Z</time></trkpt><trkpt lat="45.7790377" lon="8.6740336"><ele>277.75</ele><time>2026-04-18T13:57:30.255Z</time></trkpt><trkpt lat="45.7789224" lon="8.6740271"><ele>277.5</ele><time>2026-04-18T13:57:31.256Z</time></trkpt><trkpt lat="45.7788041" lon="8.6740323"><ele>277.25</ele><time>2026-04-18T13:57:32.256Z</time></trkpt><trkpt lat="45.7786869" lon="8.6740517"><ele>277.0</ele><time>2026-04-18T13:57:33.255Z</time></trkpt><trkpt lat="45.7785701" lon="8.6740846"><ele>277.0</ele><time>2026-04-18T13:57:34.255Z</time></trkpt><trkpt lat="45.7784535" lon="8.6741228"><ele>277.0</ele><time>2026-04-18T13:57:35.255Z</time></trkpt><trkpt lat="45.7783376" lon="8.6741599"><ele>277.0</ele><time>2026-04-18T13:57:36.255Z</time></trkpt><trkpt lat="45.7782265" lon="8.6742008"><ele>277.0</ele><time>2026-04-18T13:57:37.256Z</time></trkpt><trkpt lat="45.7781131" lon="8.6742497"><ele>277.0</ele><time>2026-04-18T13:57:38.256Z</time></trkpt><trkpt lat="45.777997" lon="8.6742976"><ele>277.0</ele><time>2026-04-18T13:57:39.255Z</time></trkpt><trkpt lat="45.7778804" lon="8.6743434"><ele>277.0</ele><time>2026-04-18T13:57:40.255Z</time></trkpt><trkpt lat="45.7777615" lon="8.6743923"><ele>277.0</ele><time>2026-04-18T13:57:41.255Z</time></trkpt><trkpt lat="45.77764" lon="8.6744486"><ele>275.75</ele><time>2026-04-18T13:57:42.255Z</time></trkpt><trkpt lat="45.7775173" lon="8.6745091"><ele>274.5</ele><time>2026-04-18T13:57:43.255Z</time></trkpt><trkpt lat="45.7773935" lon="8.6745656"><ele>273.25</ele><time>2026-04-18T13:57:44.255Z</time></trkpt><trkpt lat="45.7772613" lon="8.6746129"><ele>272.0</ele><time>2026-04-18T13:57:45.255Z</time></trkpt><trkpt lat="45.7771285" lon="8.6746485"><ele>272.0</ele><time>2026-04-18T13:57:46.255Z</time></trkpt><trkpt lat="45.7769962" lon="8.6746645"><ele>272.0</ele><time>2026-04-18T13:57:47.255Z</time></trkpt><trkpt lat="45.7768591" lon="8.674668"><ele>272.0</ele><time>2026-04-18T13:57:48.254Z</time></trkpt><trkpt lat="45.7767213" lon="8.6746683"><ele>272.0</ele><time>2026-04-18T13:57:49.254Z</time></trkpt><trkpt lat="45.7765797" lon="8.6746665"><ele>272.75</ele><time>2026-04-18T13:57:50.254Z</time></trkpt><trkpt lat="45.776439" lon="8.6746635"><ele>273.5</ele><time>2026-04-18T13:57:51.255Z</time></trkpt><trkpt lat="45.7763015" lon="8.6746599"><ele>274.25</ele><time>2026-04-18T13:57:52.256Z</time></trkpt><trkpt lat="45.7761702" lon="8.6746566"><ele>275.0</ele><time>2026-04-18T13:57:53.254Z</time></trkpt><trkpt lat="45.7760422" lon="8.6746546"><ele>275.5</ele><time>2026-04-18T13:57:54.255Z</time></trkpt><trkpt lat="45.7759174" lon="8.6746504"><ele>276.0</ele><time>2026-04-18T13:57:55.254Z</time></trkpt><trkpt lat="45.7757931" lon="8.6746457"><ele>276.5</ele><time>2026-04-18T13:57:56.255Z</time></trkpt><trkpt lat="45.7756688" lon="8.6746373"><ele>277.0</ele><time>2026-04-18T13:57:57.254Z</time></trkpt><trkpt lat="45.775543" lon="8.6746292"><ele>277.0</ele><time>2026-04-18T13:57:58.254Z</time></trkpt><trkpt lat="45.7754158" lon="8.6746264"><ele>277.0</ele><time>2026-04-18T13:57:59.254Z</time></trkpt><trkpt lat="45.775289" lon="8.6746214"><ele>277.0</ele><time>2026-04-18T13:58:00.254Z</time></trkpt><trkpt lat="45.7751614" lon="8.6746092"><ele>277.0</ele><time>2026-04-18T13:58:01.255Z</time></trkpt><trkpt lat="45.7750384" lon="8.6745885"><ele>276.4</ele><time>2026-04-18T13:58:02.255Z</time></trkpt><trkpt lat="45.7749165" lon="8.674563"><ele>275.79999999999995</ele><time>2026-04-18T13:58:03.255Z</time></trkpt><trkpt lat="45.7748019" lon="8.6745328"><ele>275.2</ele><time>2026-04-18T13:58:04.254Z</time></trkpt><trkpt lat="45.7746977" lon="8.6745073"><ele>274.59999999999997</ele><time>2026-04-18T13:58:05.254Z</time></trkpt><trkpt lat="45.7746036" lon="8.6744836"><ele>274.0</ele><time>2026-04-18T13:58:06.254Z</time></trkpt><trkpt lat="45.7745232" lon="8.6744661"><ele>274.00000000000006</ele><time>2026-04-18T13:58:07.254Z</time></trkpt><trkpt lat="45.7744413" lon="8.6744458"><ele>274.0</ele><time>2026-04-18T13:58:08.255Z</time></trkpt><trkpt lat="45.7743702" lon="8.6744304"><ele>274.0</ele><time>2026-04-18T13:58:09.255Z</time></trkpt><trkpt lat="45.7742975" lon="8.6744303"><ele>274.0</ele><time>2026-04-18T13:58:10.255Z</time></trkpt><trkpt lat="45.7742306" lon="8.6744553"><ele>274.0</ele><time>2026-04-18T13:58:11.254Z</time></trkpt><trkpt lat="45.7741726" lon="8.6745105"><ele>274.00000000000006</ele><time>2026-04-18T13:58:12.254Z</time></trkpt><trkpt lat="45.7741227" lon="8.6745804"><ele>274.0</ele><time>2026-04-18T13:58:13.254Z</time></trkpt><trkpt lat="45.7740887" lon="8.6746862"><ele>274.2</ele><time>2026-04-18T13:58:14.255Z</time></trkpt><trkpt lat="45.7740657" lon="8.6748127"><ele>274.4</ele><time>2026-04-18T13:58:15.254Z</time></trkpt><trkpt lat="45.7740478" lon="8.6749588"><ele>274.6</ele><time>2026-04-18T13:58:16.254Z</time></trkpt><trkpt lat="45.7740297" lon="8.6751107"><ele>274.8</ele><time>2026-04-18T13:58:17.255Z</time></trkpt><trkpt lat="45.77401" lon="8.6752662"><ele>275.0</ele><time>2026-04-18T13:58:18.254Z</time></trkpt><trkpt lat="45.7739902" lon="8.6754175"><ele>275.0</ele><time>2026-04-18T13:58:19.254Z</time></trkpt><trkpt lat="45.7739622" lon="8.6755741"><ele>275.0</ele><time>2026-04-18T13:58:20.254Z</time></trkpt><trkpt lat="45.7739227" lon="8.6757334"><ele>275.0</ele><time>2026-04-18T13:58:21.255Z</time></trkpt><trkpt lat="45.7738689" lon="8.6758914"><ele>275.0</ele><time>2026-04-18T13:58:22.254Z</time></trkpt><trkpt lat="45.7738025" lon="8.6760467"><ele>274.5</ele><time>2026-04-18T13:58:23.255Z</time></trkpt><trkpt lat="45.7737288" lon="8.6761954"><ele>274.0</ele><time>2026-04-18T13:58:24.254Z</time></trkpt><trkpt lat="45.7736418" lon="8.6763349"><ele>273.5</ele><time>2026-04-18T13:58:25.255Z</time></trkpt><trkpt lat="45.7735514" lon="8.6764647"><ele>273.0</ele><time>2026-04-18T13:58:26.255Z</time></trkpt><trkpt lat="45.7734569" lon="8.676585"><ele>272.25</ele><time>2026-04-18T13:58:27.254Z</time></trkpt><trkpt lat="45.773359" lon="8.6766955"><ele>271.5</ele><time>2026-04-18T13:58:28.254Z</time></trkpt><trkpt lat="45.7732612" lon="8.6767897"><ele>270.75</ele><time>2026-04-18T13:58:29.255Z</time></trkpt><trkpt lat="45.7731608" lon="8.6768824"><ele>270.0</ele><time>2026-04-18T13:58:30.254Z</time></trkpt><trkpt lat="45.7730604" lon="8.6769814"><ele>270.0</ele><time>2026-04-18T13:58:31.255Z</time></trkpt><trkpt lat="45.7729606" lon="8.6770775"><ele>270.0</ele><time>2026-04-18T13:58:32.254Z</time></trkpt><trkpt lat="45.7728663" lon="8.6771766"><ele>270.0</ele><time>2026-04-18T13:58:33.255Z</time></trkpt><trkpt lat="45.7727798" lon="8.6772749"><ele>270.0</ele><time>2026-04-18T13:58:34.254Z</time></trkpt><trkpt lat="45.7726977" lon="8.6773946"><ele>270.25</ele><time>2026-04-18T13:58:35.255Z</time></trkpt><trkpt lat="45.7726239" lon="8.6775288"><ele>270.5</ele><time>2026-04-18T13:58:36.254Z</time></trkpt><trkpt lat="45.7725632" lon="8.6776808"><ele>270.75</ele><time>2026-04-18T13:58:37.254Z</time></trkpt><trkpt lat="45.7725196" lon="8.6778405"><ele>271.0</ele><time>2026-04-18T13:58:38.254Z</time></trkpt><trkpt lat="45.7724972" lon="8.6779996"><ele>271.0</ele><time>2026-04-18T13:58:39.255Z</time></trkpt><trkpt lat="45.772489" lon="8.6781581"><ele>271.0</ele><time>2026-04-18T13:58:40.255Z</time></trkpt><trkpt lat="45.7724874" lon="8.678305"><ele>271.0</ele><time>2026-04-18T13:58:41.255Z</time></trkpt><trkpt lat="45.7724892" lon="8.6784363"><ele>271.0</ele><time>2026-04-18T13:58:42.254Z</time></trkpt><trkpt lat="45.7724908" lon="8.6785402"><ele>271.0</ele><time>2026-04-18T13:58:43.254Z</time></trkpt><trkpt lat="45.7724932" lon="8.6787056"><ele>270.8333333333333</ele><time>2026-04-18T13:58:45.254Z</time></trkpt><trkpt lat="45.7724893" lon="8.6787969"><ele>270.66666666666663</ele><time>2026-04-18T13:58:47.254Z</time></trkpt><trkpt lat="45.7724994" lon="8.6788862"><ele>270.5</ele><time>2026-04-18T13:58:49.255Z</time></trkpt><trkpt lat="45.7725181" lon="8.6790181"><ele>270.3333333333333</ele><time>2026-04-18T13:58:51.254Z</time></trkpt><trkpt lat="45.7725348" lon="8.6791076"><ele>270.1666666666667</ele><time>2026-04-18T13:58:52.254Z</time></trkpt><trkpt lat="45.7725588" lon="8.6792172"><ele>270.0</ele><time>2026-04-18T13:58:53.255Z</time></trkpt><trkpt lat="45.7725943" lon="8.6793392"><ele>270.0</ele><time>2026-04-18T13:58:54.254Z</time></trkpt><trkpt lat="45.7726497" lon="8.6794597"><ele>270.0</ele><time>2026-04-18T13:58:55.254Z</time></trkpt><trkpt lat="45.7727291" lon="8.6795768"><ele>270.0</ele><time>2026-04-18T13:58:56.254Z</time></trkpt><trkpt lat="45.7728217" lon="8.6796912"><ele>270.0</ele><time>2026-04-18T13:58:57.255Z</time></trkpt><trkpt lat="45.772925" lon="8.6797999"><ele>269.0</ele><time>2026-04-18T13:58:58.255Z</time></trkpt><trkpt lat="45.7730221" lon="8.6799049"><ele>268.0</ele><time>2026-04-18T13:58:59.254Z</time></trkpt><trkpt lat="45.7731216" lon="8.6799928"><ele>267.0</ele><time>2026-04-18T13:59:00.254Z</time></trkpt><trkpt lat="45.7732292" lon="8.6800595"><ele>266.0</ele><time>2026-04-18T13:59:01.254Z</time></trkpt><trkpt lat="45.7733372" lon="8.6801269"><ele>266.0</ele><time>2026-04-18T13:59:02.254Z</time></trkpt><trkpt lat="45.7734442" lon="8.6801988"><ele>266.0</ele><time>2026-04-18T13:59:03.254Z</time></trkpt><trkpt lat="45.7735462" lon="8.6802859"><ele>266.0</ele><time>2026-04-18T13:59:04.255Z</time></trkpt><trkpt lat="45.7736378" lon="8.6804058"><ele>266.0</ele><time>2026-04-18T13:59:05.254Z</time></trkpt><trkpt lat="45.7737212" lon="8.6805415"><ele>268.75</ele><time>2026-04-18T13:59:06.254Z</time></trkpt><trkpt lat="45.7738016" lon="8.6806952"><ele>271.5</ele><time>2026-04-18T13:59:07.254Z</time></trkpt><trkpt lat="45.7738763" lon="8.6808623"><ele>274.25</ele><time>2026-04-18T13:59:08.254Z</time></trkpt><trkpt lat="45.7739417" lon="8.6810335"><ele>277.0</ele><time>2026-04-18T13:59:09.254Z</time></trkpt><trkpt lat="45.7739978" lon="8.6812129"><ele>277.0</ele><time>2026-04-18T13:59:10.255Z</time></trkpt><trkpt lat="45.7740588" lon="8.6813977"><ele>277.0</ele><time>2026-04-18T13:59:11.254Z</time></trkpt><trkpt lat="45.7741328" lon="8.6815707"><ele>277.0</ele><time>2026-04-18T13:59:12.254Z</time></trkpt><trkpt lat="45.7742132" lon="8.681743"><ele>277.0</ele><time>2026-04-18T13:59:13.255Z</time></trkpt><trkpt lat="45.7743054" lon="8.6819049"><ele>276.5</ele><time>2026-04-18T13:59:14.255Z</time></trkpt><trkpt lat="45.7744004" lon="8.6820678"><ele>276.0</ele><time>2026-04-18T13:59:15.254Z</time></trkpt><trkpt lat="45.7744993" lon="8.6822296"><ele>275.5</ele><time>2026-04-18T13:59:16.254Z</time></trkpt><trkpt lat="45.7745948" lon="8.6823883"><ele>275.0</ele><time>2026-04-18T13:59:17.255Z</time></trkpt><trkpt lat="45.774683" lon="8.6825372"><ele>275.0</ele><time>2026-04-18T13:59:18.254Z</time></trkpt><trkpt lat="45.7747715" lon="8.6826799"><ele>275.0</ele><time>2026-04-18T13:59:19.254Z</time></trkpt><trkpt lat="45.7748547" lon="8.6828202"><ele>275.0</ele><time>2026-04-18T13:59:20.255Z</time></trkpt><trkpt lat="45.7749389" lon="8.6829578"><ele>275.0</ele><time>2026-04-18T13:59:21.254Z</time></trkpt><trkpt lat="45.7750235" lon="8.6831016"><ele>274.5</ele><time>2026-04-18T13:59:22.255Z</time></trkpt><trkpt lat="45.7751084" lon="8.6832457"><ele>274.0</ele><time>2026-04-18T13:59:23.255Z</time></trkpt><trkpt lat="45.7751904" lon="8.6833886"><ele>273.5</ele><time>2026-04-18T13:59:24.254Z</time></trkpt><trkpt lat="45.7752697" lon="8.6835335"><ele>273.0</ele><time>2026-04-18T13:59:25.254Z</time></trkpt><trkpt lat="45.7753492" lon="8.6836775"><ele>275.0</ele><time>2026-04-18T13:59:26.254Z</time></trkpt><trkpt lat="45.7754351" lon="8.6838142"><ele>277.0</ele><time>2026-04-18T13:59:27.255Z</time></trkpt><trkpt lat="45.77552" lon="8.6839526"><ele>279.0</ele><time>2026-04-18T13:59:28.254Z</time></trkpt><trkpt lat="45.775604" lon="8.684083"><ele>281.0</ele><time>2026-04-18T13:59:29.255Z</time></trkpt><trkpt lat="45.7756885" lon="8.6842144"><ele>281.0</ele><time>2026-04-18T13:59:30.255Z</time></trkpt><trkpt lat="45.7757745" lon="8.6843329"><ele>281.0</ele><time>2026-04-18T13:59:31.254Z</time></trkpt><trkpt lat="45.7758634" lon="8.6844407"><ele>281.0</ele><time>2026-04-18T13:59:32.254Z</time></trkpt><trkpt lat="45.7759566" lon="8.684531"><ele>281.0</ele><time>2026-04-18T13:59:33.254Z</time></trkpt><trkpt lat="45.7760599" lon="8.6846051"><ele>282.40000000000003</ele><time>2026-04-18T13:59:34.256Z</time></trkpt><trkpt lat="45.7761657" lon="8.6846699"><ele>283.8</ele><time>2026-04-18T13:59:35.255Z</time></trkpt><trkpt lat="45.7762656" lon="8.684725"><ele>285.20000000000005</ele><time>2026-04-18T13:59:36.254Z</time></trkpt><trkpt lat="45.7763642" lon="8.6847766"><ele>286.6</ele><time>2026-04-18T13:59:37.255Z</time></trkpt><trkpt lat="45.7764581" lon="8.684823"><ele>288.0</ele><time>2026-04-18T13:59:38.254Z</time></trkpt><trkpt lat="45.7765474" lon="8.6848647"><ele>288.0</ele><time>2026-04-18T13:59:39.254Z</time></trkpt><trkpt lat="45.7766371" lon="8.6849118"><ele>288.0</ele><time>2026-04-18T13:59:40.255Z</time></trkpt><trkpt lat="45.7767183" lon="8.6849524"><ele>288.0</ele><time>2026-04-18T13:59:41.254Z</time></trkpt><trkpt lat="45.776785" lon="8.684989"><ele>288.0</ele><time>2026-04-18T13:59:42.254Z</time></trkpt><trkpt lat="45.7768521" lon="8.6850248"><ele>288.0</ele><time>2026-04-18T13:59:43.255Z</time></trkpt><trkpt lat="45.7769687" lon="8.6850635"><ele>288.0</ele><time>2026-04-18T13:59:45.254Z</time></trkpt><trkpt lat="45.7770892" lon="8.6851593"><ele>288.3333333333333</ele><time>2026-04-18T13:59:47.255Z</time></trkpt><trkpt lat="45.7771584" lon="8.6852191"><ele>288.6666666666667</ele><time>2026-04-18T13:59:48.254Z</time></trkpt><trkpt lat="45.7772271" lon="8.6852811"><ele>289.0</ele><time>2026-04-18T13:59:49.255Z</time></trkpt><trkpt lat="45.7772994" lon="8.6853459"><ele>289.33333333333337</ele><time>2026-04-18T13:59:50.254Z</time></trkpt><trkpt lat="45.7773766" lon="8.6853953"><ele>289.6666666666667</ele><time>2026-04-18T13:59:51.254Z</time></trkpt><trkpt lat="45.7774552" lon="8.6854397"><ele>290.0</ele><time>2026-04-18T13:59:52.254Z</time></trkpt><trkpt lat="45.7775375" lon="8.6854748"><ele>288.83333333333337</ele><time>2026-04-18T13:59:53.254Z</time></trkpt><trkpt lat="45.7776198" lon="8.6855092"><ele>287.6666666666667</ele><time>2026-04-18T13:59:54.254Z</time></trkpt><trkpt lat="45.7777114" lon="8.6855388"><ele>286.5</ele><time>2026-04-18T13:59:55.254Z</time></trkpt><trkpt lat="45.7777933" lon="8.6855618"><ele>285.3333333333333</ele><time>2026-04-18T13:59:56.255Z</time></trkpt><trkpt lat="45.7778775" lon="8.6855908"><ele>284.16666666666663</ele><time>2026-04-18T13:59:57.254Z</time></trkpt><trkpt lat="45.7779599" lon="8.6856226"><ele>283.0</ele><time>2026-04-18T13:59:58.254Z</time></trkpt><trkpt lat="45.7780361" lon="8.6856463"><ele>283.0</ele><time>2026-04-18T13:59:59.255Z</time></trkpt><trkpt lat="45.7781108" lon="8.6856698"><ele>283.0</ele><time>2026-04-18T14:00:00.254Z</time></trkpt><trkpt lat="45.7781844" lon="8.6856963"><ele>283.0</ele><time>2026-04-18T14:00:01.255Z</time></trkpt><trkpt lat="45.7782696" lon="8.6857201"><ele>283.0</ele><time>2026-04-18T14:00:02.254Z</time></trkpt><trkpt lat="45.7783593" lon="8.6857479"><ele>283.0</ele><time>2026-04-18T14:00:03.254Z</time></trkpt><trkpt lat="45.7784581" lon="8.6857792"><ele>283.0</ele><time>2026-04-18T14:00:04.254Z</time></trkpt><trkpt lat="45.7785656" lon="8.6858135"><ele>285.6</ele><time>2026-04-18T14:00:05.255Z</time></trkpt><trkpt lat="45.77867" lon="8.6858451"><ele>288.20000000000005</ele><time>2026-04-18T14:00:06.254Z</time></trkpt><trkpt lat="45.7787693" lon="8.6858779"><ele>290.8</ele><time>2026-04-18T14:00:07.255Z</time></trkpt><trkpt lat="45.7788774" lon="8.6859207"><ele>293.40000000000003</ele><time>2026-04-18T14:00:08.255Z</time></trkpt><trkpt lat="45.7789784" lon="8.6859683"><ele>296.0</ele><time>2026-04-18T14:00:09.254Z</time></trkpt><trkpt lat="45.7790801" lon="8.6860354"><ele>293.8</ele><time>2026-04-18T14:00:10.254Z</time></trkpt><trkpt lat="45.7791878" lon="8.6861076"><ele>291.6</ele><time>2026-04-18T14:00:11.255Z</time></trkpt><trkpt lat="45.7792888" lon="8.6861839"><ele>289.4</ele><time>2026-04-18T14:00:12.256Z</time></trkpt><trkpt lat="45.7793809" lon="8.6862662"><ele>287.2</ele><time>2026-04-18T14:00:13.254Z</time></trkpt><trkpt lat="45.7794618" lon="8.6863605"><ele>285.0</ele><time>2026-04-18T14:00:14.254Z</time></trkpt><trkpt lat="45.779537" lon="8.6864604"><ele>285.0</ele><time>2026-04-18T14:00:15.254Z</time></trkpt><trkpt lat="45.7796073" lon="8.6866082"><ele>285.0</ele><time>2026-04-18T14:00:16.254Z</time></trkpt><trkpt lat="45.7796686" lon="8.686748"><ele>285.0</ele><time>2026-04-18T14:00:17.254Z</time></trkpt><trkpt lat="45.7797221" lon="8.6868941"><ele>285.0</ele><time>2026-04-18T14:00:18.255Z</time></trkpt><trkpt lat="45.779764" lon="8.6870323"><ele>283.0</ele><time>2026-04-18T14:00:19.254Z</time></trkpt><trkpt lat="45.7797829" lon="8.6871732"><ele>281.0</ele><time>2026-04-18T14:00:20.254Z</time></trkpt><trkpt lat="45.7797977" lon="8.6873035"><ele>279.0</ele><time>2026-04-18T14:00:21.254Z</time></trkpt><trkpt lat="45.7798087" lon="8.6874089"><ele>277.0</ele><time>2026-04-18T14:00:22.254Z</time></trkpt><trkpt lat="45.7798323" lon="8.687498"><ele>275.0</ele><time>2026-04-18T14:00:23.254Z</time></trkpt><trkpt lat="45.7798703" lon="8.6876019"><ele>273.0</ele><time>2026-04-18T14:00:24.255Z</time></trkpt><trkpt lat="45.7799333" lon="8.6877008"><ele>273.2</ele><time>2026-04-18T14:00:25.254Z</time></trkpt><trkpt lat="45.7800107" lon="8.6877724"><ele>273.4</ele><time>2026-04-18T14:00:26.255Z</time></trkpt><trkpt lat="45.780092" lon="8.6878378"><ele>273.59999999999997</ele><time>2026-04-18T14:00:27.254Z</time></trkpt><trkpt lat="45.7801696" lon="8.6879021"><ele>273.8</ele><time>2026-04-18T14:00:28.254Z</time></trkpt><trkpt lat="45.7802391" lon="8.6879518"><ele>274.0</ele><time>2026-04-18T14:00:29.254Z</time></trkpt><trkpt lat="45.7803286" lon="8.6880216"><ele>275.2</ele><time>2026-04-18T14:00:31.254Z</time></trkpt><trkpt lat="45.780396" lon="8.6880818"><ele>276.4</ele><time>2026-04-18T14:00:48.255Z</time></trkpt><trkpt lat="45.7804796" lon="8.6881484"><ele>277.6</ele><time>2026-04-18T14:00:50.253Z</time></trkpt><trkpt lat="45.7805963" lon="8.6882412"><ele>278.8</ele><time>2026-04-18T14:00:52.253Z</time></trkpt><trkpt lat="45.7806625" lon="8.6882951"><ele>280.0</ele><time>2026-04-18T14:00:53.254Z</time></trkpt><trkpt lat="45.780733" lon="8.6883559"><ele>280.0</ele><time>2026-04-18T14:00:54.253Z</time></trkpt><trkpt lat="45.7808071" lon="8.6884167"><ele>280.0</ele><time>2026-04-18T14:00:55.254Z</time></trkpt><trkpt lat="45.7808827" lon="8.688487"><ele>280.0</ele><time>2026-04-18T14:00:56.254Z</time></trkpt><trkpt lat="45.7809636" lon="8.6885606"><ele>280.0</ele><time>2026-04-18T14:00:57.254Z</time></trkpt><trkpt lat="45.7810494" lon="8.6886365"><ele>280.0</ele><time>2026-04-18T14:00:58.253Z</time></trkpt><trkpt lat="45.7811296" lon="8.6887127"><ele>280.4</ele><time>2026-04-18T14:00:59.253Z</time></trkpt><trkpt lat="45.7812213" lon="8.6887993"><ele>280.8</ele><time>2026-04-18T14:01:00.253Z</time></trkpt><trkpt lat="45.7813143" lon="8.6888841"><ele>281.2</ele><time>2026-04-18T14:01:01.253Z</time></trkpt><trkpt lat="45.7814008" lon="8.6889682"><ele>281.6</ele><time>2026-04-18T14:01:02.254Z</time></trkpt><trkpt lat="45.781482" lon="8.6890482"><ele>282.0</ele><time>2026-04-18T14:01:03.253Z</time></trkpt><trkpt lat="45.7815579" lon="8.6891193"><ele>282.0</ele><time>2026-04-18T14:01:04.254Z</time></trkpt><trkpt lat="45.7816411" lon="8.6891952"><ele>282.0</ele><time>2026-04-18T14:01:05.254Z</time></trkpt><trkpt lat="45.7817106" lon="8.6892695"><ele>282.0</ele><time>2026-04-18T14:01:06.253Z</time></trkpt><trkpt lat="45.7817757" lon="8.6893486"><ele>282.0</ele><time>2026-04-18T14:01:07.254Z</time></trkpt><trkpt lat="45.7818328" lon="8.6894413"><ele>282.0</ele><time>2026-04-18T14:01:08.253Z</time></trkpt><trkpt lat="45.7818786" lon="8.6895442"><ele>282.0</ele><time>2026-04-18T14:01:09.253Z</time></trkpt><trkpt lat="45.7819166" lon="8.6896557"><ele>282.6666666666667</ele><time>2026-04-18T14:01:10.253Z</time></trkpt><trkpt lat="45.7819584" lon="8.6897648"><ele>283.3333333333333</ele><time>2026-04-18T14:01:11.254Z</time></trkpt><trkpt lat="45.7820031" lon="8.6898627"><ele>284.0</ele><time>2026-04-18T14:01:12.253Z</time></trkpt><trkpt lat="45.7820496" lon="8.6899597"><ele>284.66666666666663</ele><time>2026-04-18T14:01:13.254Z</time></trkpt><trkpt lat="45.7820948" lon="8.6900568"><ele>285.3333333333333</ele><time>2026-04-18T14:01:14.254Z</time></trkpt><trkpt lat="45.782137" lon="8.6901529"><ele>286.0</ele><time>2026-04-18T14:01:15.253Z</time></trkpt><trkpt lat="45.782176" lon="8.6902465"><ele>285.66666666666663</ele><time>2026-04-18T14:01:16.253Z</time></trkpt><trkpt lat="45.7822118" lon="8.6903323"><ele>285.3333333333333</ele><time>2026-04-18T14:01:17.253Z</time></trkpt><trkpt lat="45.7822482" lon="8.6904184"><ele>285.0</ele><time>2026-04-18T14:01:18.253Z</time></trkpt><trkpt lat="45.7822889" lon="8.6905056"><ele>284.6666666666667</ele><time>2026-04-18T14:01:19.253Z</time></trkpt><trkpt lat="45.7823302" lon="8.6905912"><ele>284.33333333333337</ele><time>2026-04-18T14:01:20.253Z</time></trkpt><trkpt lat="45.782385" lon="8.6906926"><ele>284.0</ele><time>2026-04-18T14:01:21.254Z</time></trkpt><trkpt lat="45.7824392" lon="8.6907825"><ele>284.0</ele><time>2026-04-18T14:01:22.253Z</time></trkpt><trkpt lat="45.7824928" lon="8.6908601"><ele>284.0</ele><time>2026-04-18T14:01:23.253Z</time></trkpt><trkpt lat="45.782566" lon="8.6909354"><ele>284.0</ele><time>2026-04-18T14:01:24.253Z</time></trkpt><trkpt lat="45.7826453" lon="8.6909959"><ele>284.0</ele><time>2026-04-18T14:01:25.253Z</time></trkpt><trkpt lat="45.7827355" lon="8.6910583"><ele>284.0</ele><time>2026-04-18T14:01:26.253Z</time></trkpt><trkpt lat="45.7828277" lon="8.6911179"><ele>282.8</ele><time>2026-04-18T14:01:27.253Z</time></trkpt><trkpt lat="45.7829247" lon="8.6911832"><ele>281.59999999999997</ele><time>2026-04-18T14:01:28.253Z</time></trkpt><trkpt lat="45.7830101" lon="8.6912395"><ele>280.4</ele><time>2026-04-18T14:01:29.253Z</time></trkpt><trkpt lat="45.7831034" lon="8.6912893"><ele>279.2</ele><time>2026-04-18T14:01:30.253Z</time></trkpt><trkpt lat="45.783198" lon="8.6913337"><ele>278.0</ele><time>2026-04-18T14:01:31.253Z</time></trkpt><trkpt lat="45.783296" lon="8.6913631"><ele>278.0</ele><time>2026-04-18T14:01:32.253Z</time></trkpt><trkpt lat="45.7833853" lon="8.6914107"><ele>278.0</ele><time>2026-04-18T14:01:33.253Z</time></trkpt><trkpt lat="45.7834666" lon="8.6914881"><ele>278.0</ele><time>2026-04-18T14:01:34.254Z</time></trkpt><trkpt lat="45.7835495" lon="8.6915709"><ele>278.0</ele><time>2026-04-18T14:01:35.253Z</time></trkpt><trkpt lat="45.7836387" lon="8.6916629"><ele>278.0</ele><time>2026-04-18T14:01:36.254Z</time></trkpt><trkpt lat="45.7837204" lon="8.691769"><ele>278.4</ele><time>2026-04-18T14:01:37.253Z</time></trkpt><trkpt lat="45.7837824" lon="8.6918889"><ele>278.8</ele><time>2026-04-18T14:01:38.253Z</time></trkpt><trkpt lat="45.7838177" lon="8.6920307"><ele>279.2</ele><time>2026-04-18T14:01:39.253Z</time></trkpt><trkpt lat="45.783843" lon="8.6921863"><ele>279.6</ele><time>2026-04-18T14:01:40.253Z</time></trkpt><trkpt lat="45.7838697" lon="8.6923406"><ele>280.0</ele><time>2026-04-18T14:01:41.253Z</time></trkpt><trkpt lat="45.7839001" lon="8.6925046"><ele>280.25</ele><time>2026-04-18T14:01:42.253Z</time></trkpt><trkpt lat="45.7839376" lon="8.6926656"><ele>280.5</ele><time>2026-04-18T14:01:43.253Z</time></trkpt><trkpt lat="45.7839915" lon="8.6928156"><ele>280.75</ele><time>2026-04-18T14:01:44.253Z</time></trkpt><trkpt lat="45.7840579" lon="8.6929528"><ele>281.0</ele><time>2026-04-18T14:01:45.254Z</time></trkpt><trkpt lat="45.7841337" lon="8.6930818"><ele>280.5</ele><time>2026-04-18T14:01:46.253Z</time></trkpt><trkpt lat="45.7842245" lon="8.6931895"><ele>280.0</ele><time>2026-04-18T14:01:47.254Z</time></trkpt><trkpt lat="45.784327" lon="8.6932689"><ele>279.5</ele><time>2026-04-18T14:01:48.253Z</time></trkpt><trkpt lat="45.7844356" lon="8.6933402"><ele>279.0</ele><time>2026-04-18T14:01:49.253Z</time></trkpt><trkpt lat="45.7845401" lon="8.6934077"><ele>279.0</ele><time>2026-04-18T14:01:50.254Z</time></trkpt><trkpt lat="45.784633" lon="8.6934762"><ele>279.0</ele><time>2026-04-18T14:01:51.253Z</time></trkpt><trkpt lat="45.7847133" lon="8.693564"><ele>279.0</ele><time>2026-04-18T14:01:52.254Z</time></trkpt><trkpt lat="45.7847858" lon="8.6936727"><ele>279.0</ele><time>2026-04-18T14:01:53.253Z</time></trkpt><trkpt lat="45.7848531" lon="8.6937936"><ele>279.0</ele><time>2026-04-18T14:01:54.253Z</time></trkpt><trkpt lat="45.784922" lon="8.6939282"><ele>279.0</ele><time>2026-04-18T14:01:55.253Z</time></trkpt><trkpt lat="45.7849922" lon="8.6940728"><ele>279.0</ele><time>2026-04-18T14:01:56.254Z</time></trkpt><trkpt lat="45.7850644" lon="8.6942201"><ele>279.0</ele><time>2026-04-18T14:01:57.253Z</time></trkpt><trkpt lat="45.7851392" lon="8.6943752"><ele>279.0</ele><time>2026-04-18T14:01:58.253Z</time></trkpt><trkpt lat="45.7852167" lon="8.6945191"><ele>278.75</ele><time>2026-04-18T14:01:59.254Z</time></trkpt><trkpt lat="45.7852948" lon="8.6946528"><ele>278.5</ele><time>2026-04-18T14:02:00.254Z</time></trkpt><trkpt lat="45.7853758" lon="8.6947788"><ele>278.25</ele><time>2026-04-18T14:02:01.253Z</time></trkpt><trkpt lat="45.7854711" lon="8.6948913"><ele>278.0</ele><time>2026-04-18T14:02:02.254Z</time></trkpt><trkpt lat="45.7855821" lon="8.6949822"><ele>278.0</ele><time>2026-04-18T14:02:03.254Z</time></trkpt><trkpt lat="45.785701" lon="8.6950514"><ele>278.0</ele><time>2026-04-18T14:02:04.253Z</time></trkpt><trkpt lat="45.7858297" lon="8.6951092"><ele>278.0</ele><time>2026-04-18T14:02:05.253Z</time></trkpt><trkpt lat="45.78596" lon="8.6951629"><ele>278.0</ele><time>2026-04-18T14:02:06.253Z</time></trkpt><trkpt lat="45.7860879" lon="8.6952122"><ele>276.0</ele><time>2026-04-18T14:02:07.253Z</time></trkpt><trkpt lat="45.7862167" lon="8.6952679"><ele>274.0</ele><time>2026-04-18T14:02:08.254Z</time></trkpt><trkpt lat="45.7863472" lon="8.69532"><ele>272.0</ele><time>2026-04-18T14:02:09.254Z</time></trkpt><trkpt lat="45.786477" lon="8.695373"><ele>270.0</ele><time>2026-04-18T14:02:10.253Z</time></trkpt><trkpt lat="45.7866047" lon="8.6954232"><ele>270.0</ele><time>2026-04-18T14:02:11.253Z</time></trkpt><trkpt lat="45.7867301" lon="8.695471"><ele>270.0</ele><time>2026-04-18T14:02:12.253Z</time></trkpt><trkpt lat="45.7868501" lon="8.6955263"><ele>270.0</ele><time>2026-04-18T14:02:13.254Z</time></trkpt><trkpt lat="45.7869647" lon="8.6955762"><ele>270.0</ele><time>2026-04-18T14:02:14.253Z</time></trkpt><trkpt lat="45.7870782" lon="8.6956272"><ele>271.25</ele><time>2026-04-18T14:02:15.253Z</time></trkpt><trkpt lat="45.7871903" lon="8.6956763"><ele>272.5</ele><time>2026-04-18T14:02:16.254Z</time></trkpt><trkpt lat="45.7873046" lon="8.6957305"><ele>273.75</ele><time>2026-04-18T14:02:17.253Z</time></trkpt><trkpt lat="45.7874209" lon="8.6957901"><ele>275.0</ele><time>2026-04-18T14:02:18.254Z</time></trkpt><trkpt lat="45.7875387" lon="8.6958501"><ele>275.0</ele><time>2026-04-18T14:02:19.254Z</time></trkpt><trkpt lat="45.7876574" lon="8.695923"><ele>275.0</ele><time>2026-04-18T14:02:20.253Z</time></trkpt><trkpt lat="45.7877797" lon="8.6959901"><ele>275.0</ele><time>2026-04-18T14:02:21.253Z</time></trkpt><trkpt lat="45.7879051" lon="8.6960557"><ele>275.0</ele><time>2026-04-18T14:02:22.253Z</time></trkpt><trkpt lat="45.788031" lon="8.6961258"><ele>275.5</ele><time>2026-04-18T14:02:23.253Z</time></trkpt><trkpt lat="45.7881601" lon="8.6961925"><ele>276.0</ele><time>2026-04-18T14:02:24.253Z</time></trkpt><trkpt lat="45.7882869" lon="8.6962701"><ele>276.5</ele><time>2026-04-18T14:02:25.254Z</time></trkpt><trkpt lat="45.7884171" lon="8.6963298"><ele>277.0</ele><time>2026-04-18T14:02:26.253Z</time></trkpt><trkpt lat="45.7885616" lon="8.6963647"><ele>277.0</ele><time>2026-04-18T14:02:27.254Z</time></trkpt><trkpt lat="45.7887048" lon="8.6963657"><ele>277.0</ele><time>2026-04-18T14:02:28.254Z</time></trkpt><trkpt lat="45.7888543" lon="8.6963646"><ele>277.0</ele><time>2026-04-18T14:02:29.253Z</time></trkpt><trkpt lat="45.7890061" lon="8.6963532"><ele>277.0</ele><time>2026-04-18T14:02:30.253Z</time></trkpt><trkpt lat="45.789166" lon="8.6963418"><ele>277.0</ele><time>2026-04-18T14:02:31.254Z</time></trkpt><trkpt lat="45.7893276" lon="8.6963318"><ele>277.0</ele><time>2026-04-18T14:02:32.254Z</time></trkpt><trkpt lat="45.7894866" lon="8.696325"><ele>277.0</ele><time>2026-04-18T14:02:33.253Z</time></trkpt><trkpt lat="45.7896401" lon="8.6963295"><ele>277.25</ele><time>2026-04-18T14:02:34.254Z</time></trkpt><trkpt lat="45.7897865" lon="8.6963398"><ele>277.5</ele><time>2026-04-18T14:02:35.254Z</time></trkpt><trkpt lat="45.7899258" lon="8.6963507"><ele>277.75</ele><time>2026-04-18T14:02:36.253Z</time></trkpt><trkpt lat="45.7900593" lon="8.6963657"><ele>278.0</ele><time>2026-04-18T14:02:37.253Z</time></trkpt><trkpt lat="45.7901885" lon="8.6963947"><ele>278.0</ele><time>2026-04-18T14:02:38.253Z</time></trkpt><trkpt lat="45.7903155" lon="8.6964313"><ele>278.0</ele><time>2026-04-18T14:02:39.253Z</time></trkpt><trkpt lat="45.7904403" lon="8.6964736"><ele>278.0</ele><time>2026-04-18T14:02:40.253Z</time></trkpt><trkpt lat="45.7905653" lon="8.696517"><ele>278.0</ele><time>2026-04-18T14:02:41.254Z</time></trkpt><trkpt lat="45.7906901" lon="8.6965573"><ele>278.0</ele><time>2026-04-18T14:02:42.254Z</time></trkpt><trkpt lat="45.7908168" lon="8.6966015"><ele>278.0</ele><time>2026-04-18T14:02:43.253Z</time></trkpt><trkpt lat="45.7909466" lon="8.6966545"><ele>278.0</ele><time>2026-04-18T14:02:44.254Z</time></trkpt><trkpt lat="45.7910783" lon="8.6967209"><ele>278.0</ele><time>2026-04-18T14:02:45.254Z</time></trkpt><trkpt lat="45.7912085" lon="8.6968003"><ele>278.5</ele><time>2026-04-18T14:02:46.253Z</time></trkpt><trkpt lat="45.7913368" lon="8.6968926"><ele>279.0</ele><time>2026-04-18T14:02:47.253Z</time></trkpt><trkpt lat="45.7914653" lon="8.6969957"><ele>279.5</ele><time>2026-04-18T14:02:48.253Z</time></trkpt><trkpt lat="45.7915911" lon="8.6970977"><ele>280.0</ele><time>2026-04-18T14:02:49.253Z</time></trkpt><trkpt lat="45.7917201" lon="8.697207"><ele>279.5</ele><time>2026-04-18T14:02:50.254Z</time></trkpt><trkpt lat="45.7918454" lon="8.6973097"><ele>279.0</ele><time>2026-04-18T14:02:51.253Z</time></trkpt><trkpt lat="45.7919674" lon="8.6974105"><ele>278.5</ele><time>2026-04-18T14:02:52.254Z</time></trkpt><trkpt lat="45.7920863" lon="8.6975009"><ele>278.0</ele><time>2026-04-18T14:02:53.254Z</time></trkpt><trkpt lat="45.792202" lon="8.6975949"><ele>278.0</ele><time>2026-04-18T14:02:54.253Z</time></trkpt><trkpt lat="45.7923165" lon="8.6976867"><ele>278.0</ele><time>2026-04-18T14:02:55.253Z</time></trkpt><trkpt lat="45.792424" lon="8.6977745"><ele>278.0</ele><time>2026-04-18T14:02:56.253Z</time></trkpt><trkpt lat="45.7925154" lon="8.6978486"><ele>278.0</ele><time>2026-04-18T14:02:57.254Z</time></trkpt><trkpt lat="45.7925897" lon="8.6979176"><ele>278.0</ele><time>2026-04-18T14:02:58.254Z</time></trkpt><trkpt lat="45.7926414" lon="8.6979908"><ele>277.33333333333337</ele><time>2026-04-18T14:02:59.253Z</time></trkpt><trkpt lat="45.7926767" lon="8.6981247"><ele>276.6666666666667</ele><time>2026-04-18T14:03:01.253Z</time></trkpt><trkpt lat="45.7926758" lon="8.6982488"><ele>276.0</ele><time>2026-04-18T14:03:03.254Z</time></trkpt><trkpt lat="45.7926514" lon="8.6983322"><ele>275.3333333333333</ele><time>2026-04-18T14:03:04.254Z</time></trkpt><trkpt lat="45.7926117" lon="8.698416"><ele>274.66666666666663</ele><time>2026-04-18T14:03:05.253Z</time></trkpt><trkpt lat="45.7925939" lon="8.6985032"><ele>274.0</ele><time>2026-04-18T14:03:06.254Z</time></trkpt><trkpt lat="45.7926741" lon="8.6986258"><ele>273.8</ele><time>2026-04-18T14:03:08.253Z</time></trkpt><trkpt lat="45.7927475" lon="8.6986307"><ele>273.59999999999997</ele><time>2026-04-18T14:03:09.254Z</time></trkpt><trkpt lat="45.7928421" lon="8.6986064"><ele>273.4</ele><time>2026-04-18T14:03:10.254Z</time></trkpt><trkpt lat="45.7929451" lon="8.698569"><ele>273.2</ele><time>2026-04-18T14:03:11.254Z</time></trkpt><trkpt lat="45.7930554" lon="8.6985089"><ele>273.0</ele><time>2026-04-18T14:03:12.253Z</time></trkpt><trkpt lat="45.793177" lon="8.6984628"><ele>273.0</ele><time>2026-04-18T14:03:13.253Z</time></trkpt><trkpt lat="45.7933064" lon="8.6984379"><ele>273.0</ele><time>2026-04-18T14:03:14.253Z</time></trkpt><trkpt lat="45.7934414" lon="8.6984259"><ele>273.0</ele><time>2026-04-18T14:03:15.253Z</time></trkpt><trkpt lat="45.7935833" lon="8.6984247"><ele>273.0</ele><time>2026-04-18T14:03:16.253Z</time></trkpt><trkpt lat="45.7937311" lon="8.6984427"><ele>273.75</ele><time>2026-04-18T14:03:17.253Z</time></trkpt><trkpt lat="45.7938756" lon="8.6984853"><ele>274.5</ele><time>2026-04-18T14:03:18.254Z</time></trkpt><trkpt lat="45.7940184" lon="8.6985496"><ele>275.25</ele><time>2026-04-18T14:03:19.253Z</time></trkpt><trkpt lat="45.7941565" lon="8.6986247"><ele>276.0</ele><time>2026-04-18T14:03:20.254Z</time></trkpt><trkpt lat="45.7942984" lon="8.6987075"><ele>275.0</ele><time>2026-04-18T14:03:21.253Z</time></trkpt><trkpt lat="45.794441" lon="8.6987941"><ele>274.0</ele><time>2026-04-18T14:03:22.253Z</time></trkpt><trkpt lat="45.7945917" lon="8.6988815"><ele>273.0</ele><time>2026-04-18T14:03:23.253Z</time></trkpt><trkpt lat="45.7947445" lon="8.6989709"><ele>273.0</ele><time>2026-04-18T14:03:24.254Z</time></trkpt><trkpt lat="45.7948975" lon="8.6990641"><ele>273.0</ele><time>2026-04-18T14:03:25.253Z</time></trkpt><trkpt lat="45.795043" lon="8.6991551"><ele>273.0</ele><time>2026-04-18T14:03:26.253Z</time></trkpt><trkpt lat="45.7951855" lon="8.6992428"><ele>272.0</ele><time>2026-04-18T14:03:27.253Z</time></trkpt><trkpt lat="45.7953231" lon="8.6993288"><ele>271.0</ele><time>2026-04-18T14:03:28.253Z</time></trkpt><trkpt lat="45.795458" lon="8.6994096"><ele>270.0</ele><time>2026-04-18T14:03:29.253Z</time></trkpt><trkpt lat="45.7955918" lon="8.6994965"><ele>269.0</ele><time>2026-04-18T14:03:30.253Z</time></trkpt><trkpt lat="45.7957222" lon="8.6995966"><ele>269.0</ele><time>2026-04-18T14:03:31.253Z</time></trkpt><trkpt lat="45.7958398" lon="8.699711"><ele>269.0</ele><time>2026-04-18T14:03:32.254Z</time></trkpt><trkpt lat="45.7959473" lon="8.6998429"><ele>269.0</ele><time>2026-04-18T14:03:33.253Z</time></trkpt><trkpt lat="45.7960534" lon="8.6999843"><ele>269.0</ele><time>2026-04-18T14:03:34.254Z</time></trkpt><trkpt lat="45.7961629" lon="8.700124"><ele>268.25</ele><time>2026-04-18T14:03:35.253Z</time></trkpt><trkpt lat="45.7962707" lon="8.7002623"><ele>267.5</ele><time>2026-04-18T14:03:36.253Z</time></trkpt><trkpt lat="45.7963704" lon="8.7003958"><ele>266.75</ele><time>2026-04-18T14:03:37.253Z</time></trkpt><trkpt lat="45.7964664" lon="8.7005237"><ele>266.0</ele><time>2026-04-18T14:03:38.254Z</time></trkpt><trkpt lat="45.7965607" lon="8.7006408"><ele>266.0</ele><time>2026-04-18T14:03:39.253Z</time></trkpt><trkpt lat="45.7966515" lon="8.7007488"><ele>266.0</ele><time>2026-04-18T14:03:40.252Z</time></trkpt><trkpt lat="45.7967415" lon="8.7008485"><ele>266.0</ele><time>2026-04-18T14:03:41.252Z</time></trkpt><trkpt lat="45.7968385" lon="8.7009249"><ele>266.0</ele><time>2026-04-18T14:03:42.253Z</time></trkpt><trkpt lat="45.7969514" lon="8.700966"><ele>266.40000000000003</ele><time>2026-04-18T14:03:43.252Z</time></trkpt><trkpt lat="45.7970686" lon="8.700968"><ele>266.8</ele><time>2026-04-18T14:03:44.253Z</time></trkpt><trkpt lat="45.7971789" lon="8.7009528"><ele>267.20000000000005</ele><time>2026-04-18T14:03:45.253Z</time></trkpt><trkpt lat="45.7972777" lon="8.7009302"><ele>267.6</ele><time>2026-04-18T14:03:46.252Z</time></trkpt><trkpt lat="45.797371" lon="8.7009179"><ele>268.0</ele><time>2026-04-18T14:03:47.252Z</time></trkpt><trkpt lat="45.797447" lon="8.7009305"><ele>268.0</ele><time>2026-04-18T14:03:48.252Z</time></trkpt><trkpt lat="45.7975103" lon="8.7009703"><ele>268.0</ele><time>2026-04-18T14:03:49.252Z</time></trkpt><trkpt lat="45.7975646" lon="8.701027"><ele>268.0</ele><time>2026-04-18T14:03:50.253Z</time></trkpt><trkpt lat="45.7976119" lon="8.7011016"><ele>268.0</ele><time>2026-04-18T14:03:51.252Z</time></trkpt><trkpt lat="45.7976461" lon="8.701195"><ele>268.0</ele><time>2026-04-18T14:03:52.252Z</time></trkpt><trkpt lat="45.7976535" lon="8.7013109"><ele>268.0</ele><time>2026-04-18T14:03:53.253Z</time></trkpt><trkpt lat="45.7976601" lon="8.7014422"><ele>267.8</ele><time>2026-04-18T14:03:54.253Z</time></trkpt><trkpt lat="45.7976717" lon="8.7015851"><ele>267.6</ele><time>2026-04-18T14:03:55.253Z</time></trkpt><trkpt lat="45.7976803" lon="8.7017346"><ele>267.4</ele><time>2026-04-18T14:03:56.252Z</time></trkpt><trkpt lat="45.7976974" lon="8.7018774"><ele>267.2</ele><time>2026-04-18T14:03:57.252Z</time></trkpt><trkpt lat="45.7977278" lon="8.7020125"><ele>267.0</ele><time>2026-04-18T14:03:58.252Z</time></trkpt><trkpt lat="45.7977752" lon="8.7021348"><ele>267.0</ele><time>2026-04-18T14:03:59.252Z</time></trkpt><trkpt lat="45.7978328" lon="8.7022611"><ele>267.0</ele><time>2026-04-18T14:04:00.253Z</time></trkpt><trkpt lat="45.7979048" lon="8.7023866"><ele>267.0</ele><time>2026-04-18T14:04:01.252Z</time></trkpt><trkpt lat="45.7979807" lon="8.7024884"><ele>267.0</ele><time>2026-04-18T14:04:02.253Z</time></trkpt><trkpt lat="45.7980564" lon="8.7025875"><ele>267.0</ele><time>2026-04-18T14:04:03.253Z</time></trkpt><trkpt lat="45.7981333" lon="8.7026784"><ele>266.2</ele><time>2026-04-18T14:04:04.253Z</time></trkpt><trkpt lat="45.7982091" lon="8.7027641"><ele>265.4</ele><time>2026-04-18T14:04:05.252Z</time></trkpt><trkpt lat="45.7982819" lon="8.7028424"><ele>264.6</ele><time>2026-04-18T14:04:06.253Z</time></trkpt><trkpt lat="45.7983535" lon="8.7029159"><ele>263.8</ele><time>2026-04-18T14:04:07.253Z</time></trkpt><trkpt lat="45.7984283" lon="8.7029922"><ele>263.0</ele><time>2026-04-18T14:04:08.252Z</time></trkpt><trkpt lat="45.7985074" lon="8.7030759"><ele>263.0</ele><time>2026-04-18T14:04:09.252Z</time></trkpt><trkpt lat="45.7985795" lon="8.7031637"><ele>263.0</ele><time>2026-04-18T14:04:10.252Z</time></trkpt><trkpt lat="45.7986461" lon="8.7032525"><ele>263.0</ele><time>2026-04-18T14:04:11.252Z</time></trkpt><trkpt lat="45.7987165" lon="8.7033372"><ele>263.0</ele><time>2026-04-18T14:04:12.252Z</time></trkpt><trkpt lat="45.7987889" lon="8.7034284"><ele>263.0</ele><time>2026-04-18T14:04:13.252Z</time></trkpt><trkpt lat="45.7988675" lon="8.7035327"><ele>261.75</ele><time>2026-04-18T14:04:14.252Z</time></trkpt><trkpt lat="45.7989502" lon="8.7036443"><ele>260.5</ele><time>2026-04-18T14:04:15.252Z</time></trkpt><trkpt lat="45.7990399" lon="8.7037644"><ele>259.25</ele><time>2026-04-18T14:04:16.252Z</time></trkpt><trkpt lat="45.7991264" lon="8.7038784"><ele>258.0</ele><time>2026-04-18T14:04:17.252Z</time></trkpt><trkpt lat="45.7992032" lon="8.7039835"><ele>258.0</ele><time>2026-04-18T14:04:18.252Z</time></trkpt><trkpt lat="45.7992674" lon="8.704071"><ele>258.0</ele><time>2026-04-18T14:04:19.253Z</time></trkpt><trkpt lat="45.7993271" lon="8.7041481"><ele>258.0</ele><time>2026-04-18T14:04:20.253Z</time></trkpt><trkpt lat="45.7994124" lon="8.7042511"><ele>258.0</ele><time>2026-04-18T14:04:22.252Z</time></trkpt><trkpt lat="45.799459" lon="8.7043532"><ele>258.0</ele><time>2026-04-18T14:04:24.253Z</time></trkpt><trkpt lat="45.7994834" lon="8.7044673"><ele>258.0</ele><time>2026-04-18T14:04:28.252Z</time></trkpt><trkpt lat="45.7994252" lon="8.7046221"><ele>257.2</ele><time>2026-04-18T14:04:30.252Z</time></trkpt><trkpt lat="45.7993682" lon="8.7047065"><ele>256.4</ele><time>2026-04-18T14:04:31.252Z</time></trkpt><trkpt lat="45.7992967" lon="8.7048027"><ele>255.59999999999997</ele><time>2026-04-18T14:04:32.252Z</time></trkpt><trkpt lat="45.7992225" lon="8.7048975"><ele>254.79999999999998</ele><time>2026-04-18T14:04:33.252Z</time></trkpt><trkpt lat="45.799144" lon="8.7050006"><ele>254.0</ele><time>2026-04-18T14:04:34.253Z</time></trkpt><trkpt lat="45.7990688" lon="8.7051056"><ele>253.79999999999998</ele><time>2026-04-18T14:04:35.252Z</time></trkpt><trkpt lat="45.7989966" lon="8.705207"><ele>253.59999999999997</ele><time>2026-04-18T14:04:36.253Z</time></trkpt><trkpt lat="45.7989284" lon="8.7053155"><ele>253.4</ele><time>2026-04-18T14:04:37.252Z</time></trkpt><trkpt lat="45.7988576" lon="8.7054379"><ele>253.2</ele><time>2026-04-18T14:04:38.252Z</time></trkpt><trkpt lat="45.7987837" lon="8.7055674"><ele>253.0</ele><time>2026-04-18T14:04:39.253Z</time></trkpt><trkpt lat="45.7987161" lon="8.7056949"><ele>253.0</ele><time>2026-04-18T14:04:40.253Z</time></trkpt><trkpt lat="45.7986445" lon="8.7058236"><ele>253.0</ele><time>2026-04-18T14:04:41.252Z</time></trkpt><trkpt lat="45.7985718" lon="8.7059483"><ele>253.0</ele><time>2026-04-18T14:04:42.252Z</time></trkpt><trkpt lat="45.7985035" lon="8.7060697"><ele>253.0</ele><time>2026-04-18T14:04:43.253Z</time></trkpt><trkpt lat="45.7984326" lon="8.7061998"><ele>251.0</ele><time>2026-04-18T14:04:44.253Z</time></trkpt><trkpt lat="45.7983592" lon="8.7063328"><ele>249.0</ele><time>2026-04-18T14:04:45.252Z</time></trkpt><trkpt lat="45.7982872" lon="8.7064608"><ele>247.0</ele><time>2026-04-18T14:04:46.252Z</time></trkpt><trkpt lat="45.7982152" lon="8.7065957"><ele>245.0</ele><time>2026-04-18T14:04:47.252Z</time></trkpt><trkpt lat="45.7981411" lon="8.7067329"><ele>245.0</ele><time>2026-04-18T14:04:48.252Z</time></trkpt><trkpt lat="45.7980686" lon="8.7068718"><ele>245.0</ele><time>2026-04-18T14:04:49.253Z</time></trkpt><trkpt lat="45.7979974" lon="8.7070102"><ele>245.0</ele><time>2026-04-18T14:04:50.252Z</time></trkpt><trkpt lat="45.7979247" lon="8.7071377"><ele>245.0</ele><time>2026-04-18T14:04:51.252Z</time></trkpt><trkpt lat="45.7978564" lon="8.7072656"><ele>244.25</ele><time>2026-04-18T14:04:52.252Z</time></trkpt><trkpt lat="45.7977898" lon="8.7074021"><ele>243.5</ele><time>2026-04-18T14:04:53.253Z</time></trkpt><trkpt lat="45.7977281" lon="8.7075437"><ele>242.75</ele><time>2026-04-18T14:04:54.252Z</time></trkpt><trkpt lat="45.7976749" lon="8.7077054"><ele>242.0</ele><time>2026-04-18T14:04:55.253Z</time></trkpt><trkpt lat="45.7976384" lon="8.70788"><ele>242.0</ele><time>2026-04-18T14:04:56.252Z</time></trkpt><trkpt lat="45.797602" lon="8.7080571"><ele>242.0</ele><time>2026-04-18T14:04:57.252Z</time></trkpt><trkpt lat="45.7975672" lon="8.708231"><ele>242.0</ele><time>2026-04-18T14:04:58.252Z</time></trkpt><trkpt lat="45.7975321" lon="8.7084027"><ele>242.0</ele><time>2026-04-18T14:04:59.252Z</time></trkpt><trkpt lat="45.7974989" lon="8.7085762"><ele>241.5</ele><time>2026-04-18T14:05:00.253Z</time></trkpt><trkpt lat="45.797461" lon="8.7087499"><ele>241.0</ele><time>2026-04-18T14:05:01.253Z</time></trkpt><trkpt lat="45.7974251" lon="8.7089292"><ele>240.5</ele><time>2026-04-18T14:05:02.253Z</time></trkpt><trkpt lat="45.7973855" lon="8.7091189"><ele>240.0</ele><time>2026-04-18T14:05:03.252Z</time></trkpt><trkpt lat="45.7973505" lon="8.7093068"><ele>241.25</ele><time>2026-04-18T14:05:04.253Z</time></trkpt><trkpt lat="45.7973133" lon="8.7094996"><ele>242.5</ele><time>2026-04-18T14:05:05.253Z</time></trkpt><trkpt lat="45.7972762" lon="8.7096974"><ele>243.75</ele><time>2026-04-18T14:05:06.253Z</time></trkpt><trkpt lat="45.7972359" lon="8.7098983"><ele>245.0</ele><time>2026-04-18T14:05:07.252Z</time></trkpt><trkpt lat="45.7971958" lon="8.7101072"><ele>246.0</ele><time>2026-04-18T14:05:08.253Z</time></trkpt><trkpt lat="45.7971565" lon="8.7103154"><ele>247.0</ele><time>2026-04-18T14:05:09.253Z</time></trkpt><trkpt lat="45.7971159" lon="8.7105336"><ele>248.0</ele><time>2026-04-18T14:05:10.253Z</time></trkpt><trkpt lat="45.7970756" lon="8.7107637"><ele>248.0</ele><time>2026-04-18T14:05:11.252Z</time></trkpt><trkpt lat="45.7970334" lon="8.7109984"><ele>248.0</ele><time>2026-04-18T14:05:12.253Z</time></trkpt><trkpt lat="45.7969922" lon="8.7112433"><ele>248.0</ele><time>2026-04-18T14:05:13.253Z</time></trkpt><trkpt lat="45.7969464" lon="8.7114872"><ele>247.0</ele><time>2026-04-18T14:05:14.252Z</time></trkpt><trkpt lat="45.7969014" lon="8.7117358"><ele>246.0</ele><time>2026-04-18T14:05:15.253Z</time></trkpt><trkpt lat="45.7968603" lon="8.7119751"><ele>245.0</ele><time>2026-04-18T14:05:16.252Z</time></trkpt><trkpt lat="45.7968189" lon="8.7122041"><ele>243.66666666666669</ele><time>2026-04-18T14:05:17.252Z</time></trkpt><trkpt lat="45.7967783" lon="8.7124322"><ele>242.33333333333331</ele><time>2026-04-18T14:05:18.252Z</time></trkpt><trkpt lat="45.79674" lon="8.7126611"><ele>241.0</ele><time>2026-04-18T14:05:19.252Z</time></trkpt><trkpt lat="45.7967019" lon="8.7128914"><ele>241.0</ele><time>2026-04-18T14:05:20.252Z</time></trkpt><trkpt lat="45.7966617" lon="8.7131172"><ele>241.0</ele><time>2026-04-18T14:05:21.252Z</time></trkpt><trkpt lat="45.7966217" lon="8.7133403"><ele>241.0</ele><time>2026-04-18T14:05:22.252Z</time></trkpt><trkpt lat="45.7965809" lon="8.7135569"><ele>241.66666666666666</ele><time>2026-04-18T14:05:23.252Z</time></trkpt><trkpt lat="45.7965414" lon="8.7137759"><ele>242.33333333333331</ele><time>2026-04-18T14:05:24.252Z</time></trkpt><trkpt lat="45.7965019" lon="8.7139952"><ele>243.0</ele><time>2026-04-18T14:05:25.252Z</time></trkpt><trkpt lat="45.7964613" lon="8.7142116"><ele>243.0</ele><time>2026-04-18T14:05:26.252Z</time></trkpt><trkpt lat="45.7964213" lon="8.7144285"><ele>243.0</ele><time>2026-04-18T14:05:27.253Z</time></trkpt><trkpt lat="45.7963805" lon="8.7146481"><ele>243.0</ele><time>2026-04-18T14:05:28.252Z</time></trkpt><trkpt lat="45.7963382" lon="8.7148692"><ele>243.0</ele><time>2026-04-18T14:05:29.253Z</time></trkpt><trkpt lat="45.796296" lon="8.7150916"><ele>243.0</ele><time>2026-04-18T14:05:30.253Z</time></trkpt><trkpt lat="45.7962511" lon="8.7153133"><ele>243.0</ele><time>2026-04-18T14:05:31.252Z</time></trkpt><trkpt lat="45.7962111" lon="8.7155386"><ele>243.0</ele><time>2026-04-18T14:05:32.252Z</time></trkpt><trkpt lat="45.7961707" lon="8.7157626"><ele>243.0</ele><time>2026-04-18T14:05:33.252Z</time></trkpt><trkpt lat="45.79613" lon="8.7159885"><ele>243.0</ele><time>2026-04-18T14:05:34.252Z</time></trkpt><trkpt lat="45.7960899" lon="8.7162158"><ele>243.0</ele><time>2026-04-18T14:05:35.252Z</time></trkpt><trkpt lat="45.7960488" lon="8.7164464"><ele>243.0</ele><time>2026-04-18T14:05:36.253Z</time></trkpt><trkpt lat="45.7960109" lon="8.7166753"><ele>243.0</ele><time>2026-04-18T14:05:37.253Z</time></trkpt><trkpt lat="45.795969" lon="8.7169063"><ele>243.0</ele><time>2026-04-18T14:05:38.252Z</time></trkpt><trkpt lat="45.7959255" lon="8.7171323"><ele>243.0</ele><time>2026-04-18T14:05:39.252Z</time></trkpt><trkpt lat="45.7958843" lon="8.7173637"><ele>243.0</ele><time>2026-04-18T14:05:40.252Z</time></trkpt><trkpt lat="45.7958437" lon="8.7175914"><ele>243.66666666666669</ele><time>2026-04-18T14:05:41.252Z</time></trkpt><trkpt lat="45.7958042" lon="8.7178241"><ele>244.33333333333334</ele><time>2026-04-18T14:05:42.252Z</time></trkpt><trkpt lat="45.7957621" lon="8.7180556"><ele>245.0</ele><time>2026-04-18T14:05:43.252Z</time></trkpt><trkpt lat="45.7957193" lon="8.7182875"><ele>245.0</ele><time>2026-04-18T14:05:44.252Z</time></trkpt><trkpt lat="45.7956811" lon="8.7185245"><ele>245.0</ele><time>2026-04-18T14:05:45.253Z</time></trkpt><trkpt lat="45.7956382" lon="8.7187574"><ele>245.0</ele><time>2026-04-18T14:05:46.253Z</time></trkpt><trkpt lat="45.7955936" lon="8.7189959"><ele>245.0</ele><time>2026-04-18T14:05:47.252Z</time></trkpt><trkpt lat="45.7955536" lon="8.719234"><ele>245.0</ele><time>2026-04-18T14:05:48.252Z</time></trkpt><trkpt lat="45.7955126" lon="8.719473"><ele>245.0</ele><time>2026-04-18T14:05:49.253Z</time></trkpt><trkpt lat="45.7954704" lon="8.7197076"><ele>244.66666666666669</ele><time>2026-04-18T14:05:50.252Z</time></trkpt><trkpt lat="45.7954304" lon="8.719932"><ele>244.33333333333331</ele><time>2026-04-18T14:05:51.253Z</time></trkpt><trkpt lat="45.7953897" lon="8.7201493"><ele>244.0</ele><time>2026-04-18T14:05:52.253Z</time></trkpt><trkpt lat="45.7953523" lon="8.7203741"><ele>244.0</ele><time>2026-04-18T14:05:53.253Z</time></trkpt><trkpt lat="45.7953108" lon="8.7205907"><ele>244.0</ele><time>2026-04-18T14:05:54.252Z</time></trkpt><trkpt lat="45.7952799" lon="8.7208122"><ele>244.0</ele><time>2026-04-18T14:05:55.253Z</time></trkpt><trkpt lat="45.7952629" lon="8.7210438"><ele>245.33333333333331</ele><time>2026-04-18T14:05:56.252Z</time></trkpt><trkpt lat="45.7952609" lon="8.7212805"><ele>246.66666666666669</ele><time>2026-04-18T14:05:57.252Z</time></trkpt><trkpt lat="45.7952682" lon="8.7215219"><ele>248.0</ele><time>2026-04-18T14:05:58.252Z</time></trkpt><trkpt lat="45.7952835" lon="8.7217642"><ele>249.0</ele><time>2026-04-18T14:05:59.253Z</time></trkpt><trkpt lat="45.7952997" lon="8.7219984"><ele>250.0</ele><time>2026-04-18T14:06:00.253Z</time></trkpt><trkpt lat="45.7953171" lon="8.7222124"><ele>251.0</ele><time>2026-04-18T14:06:01.252Z</time></trkpt><trkpt lat="45.7953316" lon="8.7224357"><ele>251.0</ele><time>2026-04-18T14:06:02.252Z</time></trkpt><trkpt lat="45.7953461" lon="8.7226473"><ele>251.0</ele><time>2026-04-18T14:06:03.252Z</time></trkpt><trkpt lat="45.7953638" lon="8.7228568"><ele>251.0</ele><time>2026-04-18T14:06:04.253Z</time></trkpt><trkpt lat="45.7953785" lon="8.7230669"><ele>251.0</ele><time>2026-04-18T14:06:05.252Z</time></trkpt><trkpt lat="45.7954067" lon="8.723285"><ele>250.33333333333334</ele><time>2026-04-18T14:06:06.253Z</time></trkpt><trkpt lat="45.7954431" lon="8.7234977"><ele>249.66666666666669</ele><time>2026-04-18T14:06:07.252Z</time></trkpt><trkpt lat="45.7954922" lon="8.7237124"><ele>249.0</ele><time>2026-04-18T14:06:08.252Z</time></trkpt><trkpt lat="45.7955502" lon="8.7239316"><ele>248.33333333333331</ele><time>2026-04-18T14:06:09.252Z</time></trkpt><trkpt lat="45.7956114" lon="8.724146"><ele>247.66666666666666</ele><time>2026-04-18T14:06:10.253Z</time></trkpt><trkpt lat="45.7956735" lon="8.7243575"><ele>247.0</ele><time>2026-04-18T14:06:11.253Z</time></trkpt><trkpt lat="45.795746" lon="8.7245665"><ele>247.0</ele><time>2026-04-18T14:06:12.252Z</time></trkpt><trkpt lat="45.7958133" lon="8.7247717"><ele>247.0</ele><time>2026-04-18T14:06:13.253Z</time></trkpt><trkpt lat="45.7958854" lon="8.7249791"><ele>247.0</ele><time>2026-04-18T14:06:14.252Z</time></trkpt><trkpt lat="45.7959499" lon="8.7251819"><ele>246.66666666666666</ele><time>2026-04-18T14:06:15.252Z</time></trkpt><trkpt lat="45.7960172" lon="8.7253818"><ele>246.33333333333331</ele><time>2026-04-18T14:06:16.252Z</time></trkpt><trkpt lat="45.7960802" lon="8.7255835"><ele>246.0</ele><time>2026-04-18T14:06:17.252Z</time></trkpt><trkpt lat="45.7961474" lon="8.725783"><ele>246.0</ele><time>2026-04-18T14:06:18.252Z</time></trkpt><trkpt lat="45.7962049" lon="8.7259879"><ele>246.0</ele><time>2026-04-18T14:06:19.252Z</time></trkpt><trkpt lat="45.7962492" lon="8.7261934"><ele>246.0</ele><time>2026-04-18T14:06:20.252Z</time></trkpt><trkpt lat="45.796283" lon="8.7264081"><ele>247.0</ele><time>2026-04-18T14:06:21.252Z</time></trkpt><trkpt lat="45.7963079" lon="8.7266274"><ele>248.0</ele><time>2026-04-18T14:06:22.252Z</time></trkpt><trkpt lat="45.7963175" lon="8.726849"><ele>249.0</ele><time>2026-04-18T14:06:23.252Z</time></trkpt><trkpt lat="45.7963134" lon="8.7270738"><ele>249.33333333333331</ele><time>2026-04-18T14:06:24.252Z</time></trkpt><trkpt lat="45.7962977" lon="8.7272999"><ele>249.66666666666666</ele><time>2026-04-18T14:06:25.253Z</time></trkpt><trkpt lat="45.7962757" lon="8.7275262"><ele>250.0</ele><time>2026-04-18T14:06:26.253Z</time></trkpt><trkpt lat="45.7962541" lon="8.7277512"><ele>250.0</ele><time>2026-04-18T14:06:27.251Z</time></trkpt><trkpt lat="45.7962341" lon="8.7279857"><ele>250.0</ele><time>2026-04-18T14:06:28.252Z</time></trkpt><trkpt lat="45.7962119" lon="8.7282216"><ele>250.0</ele><time>2026-04-18T14:06:29.252Z</time></trkpt><trkpt lat="45.796188" lon="8.7284594"><ele>250.66666666666666</ele><time>2026-04-18T14:06:30.252Z</time></trkpt><trkpt lat="45.7961662" lon="8.7286938"><ele>251.33333333333331</ele><time>2026-04-18T14:06:31.251Z</time></trkpt><trkpt lat="45.796147" lon="8.7289349"><ele>252.0</ele><time>2026-04-18T14:06:32.251Z</time></trkpt><trkpt lat="45.7961252" lon="8.7291785"><ele>253.33333333333331</ele><time>2026-04-18T14:06:33.252Z</time></trkpt><trkpt lat="45.7961027" lon="8.7294224"><ele>254.66666666666666</ele><time>2026-04-18T14:06:34.251Z</time></trkpt><trkpt lat="45.7960829" lon="8.7296692"><ele>256.0</ele><time>2026-04-18T14:06:35.251Z</time></trkpt><trkpt lat="45.7960593" lon="8.7299206"><ele>256.0</ele><time>2026-04-18T14:06:36.251Z</time></trkpt><trkpt lat="45.7960341" lon="8.7301724"><ele>256.0</ele><time>2026-04-18T14:06:37.251Z</time></trkpt><trkpt lat="45.7960096" lon="8.7304297"><ele>256.0</ele><time>2026-04-18T14:06:38.252Z</time></trkpt><trkpt lat="45.7959869" lon="8.7306821"><ele>253.0</ele><time>2026-04-18T14:06:39.251Z</time></trkpt><trkpt lat="45.7959636" lon="8.7309217"><ele>250.0</ele><time>2026-04-18T14:06:40.251Z</time></trkpt><trkpt lat="45.7959418" lon="8.731156"><ele>247.0</ele><time>2026-04-18T14:06:41.251Z</time></trkpt><trkpt lat="45.7959191" lon="8.7313836"><ele>246.66666666666666</ele><time>2026-04-18T14:06:42.251Z</time></trkpt><trkpt lat="45.7959037" lon="8.7316077"><ele>246.33333333333331</ele><time>2026-04-18T14:06:43.253Z</time></trkpt><trkpt lat="45.7958849" lon="8.7318287"><ele>246.0</ele><time>2026-04-18T14:06:44.252Z</time></trkpt><trkpt lat="45.7958635" lon="8.7320526"><ele>246.66666666666669</ele><time>2026-04-18T14:06:45.251Z</time></trkpt><trkpt lat="45.7958419" lon="8.7322745"><ele>247.33333333333334</ele><time>2026-04-18T14:06:46.252Z</time></trkpt><trkpt lat="45.7958189" lon="8.7324979"><ele>248.0</ele><time>2026-04-18T14:06:47.251Z</time></trkpt><trkpt lat="45.7957954" lon="8.7327206"><ele>248.66666666666669</ele><time>2026-04-18T14:06:48.252Z</time></trkpt><trkpt lat="45.7957671" lon="8.7329423"><ele>249.33333333333331</ele><time>2026-04-18T14:06:49.251Z</time></trkpt><trkpt lat="45.7957339" lon="8.7331635"><ele>250.0</ele><time>2026-04-18T14:06:50.251Z</time></trkpt><trkpt lat="45.7956948" lon="8.7333849"><ele>249.66666666666666</ele><time>2026-04-18T14:06:51.251Z</time></trkpt><trkpt lat="45.7956522" lon="8.7336072"><ele>249.33333333333331</ele><time>2026-04-18T14:06:52.252Z</time></trkpt><trkpt lat="45.7956011" lon="8.733829"><ele>249.0</ele><time>2026-04-18T14:06:53.251Z</time></trkpt><trkpt lat="45.7955458" lon="8.7340505"><ele>249.0</ele><time>2026-04-18T14:06:54.251Z</time></trkpt><trkpt lat="45.7954914" lon="8.734268"><ele>249.0</ele><time>2026-04-18T14:06:55.251Z</time></trkpt><trkpt lat="45.795434" lon="8.7344838"><ele>249.0</ele><time>2026-04-18T14:06:56.251Z</time></trkpt><trkpt lat="45.7953778" lon="8.734695"><ele>248.5</ele><time>2026-04-18T14:06:57.252Z</time></trkpt><trkpt lat="45.7953257" lon="8.734895"><ele>248.0</ele><time>2026-04-18T14:06:58.251Z</time></trkpt><trkpt lat="45.7952721" lon="8.7350909"><ele>247.5</ele><time>2026-04-18T14:06:59.251Z</time></trkpt><trkpt lat="45.7952239" lon="8.7352852"><ele>247.0</ele><time>2026-04-18T14:07:00.251Z</time></trkpt><trkpt lat="45.7951708" lon="8.7354758"><ele>246.75</ele><time>2026-04-18T14:07:01.252Z</time></trkpt><trkpt lat="45.7951175" lon="8.7356618"><ele>246.5</ele><time>2026-04-18T14:07:02.251Z</time></trkpt><trkpt lat="45.7950725" lon="8.7358348"><ele>246.25</ele><time>2026-04-18T14:07:03.251Z</time></trkpt><trkpt lat="45.7950242" lon="8.7360006"><ele>246.0</ele><time>2026-04-18T14:07:04.252Z</time></trkpt><trkpt lat="45.7949779" lon="8.7361572"><ele>246.0</ele><time>2026-04-18T14:07:05.251Z</time></trkpt><trkpt lat="45.7949356" lon="8.7363015"><ele>246.0</ele><time>2026-04-18T14:07:06.252Z</time></trkpt><trkpt lat="45.7948942" lon="8.7364303"><ele>246.0</ele><time>2026-04-18T14:07:07.251Z</time></trkpt><trkpt lat="45.7948499" lon="8.7365338"><ele>246.0</ele><time>2026-04-18T14:07:08.251Z</time></trkpt><trkpt lat="45.7947982" lon="8.7366175"><ele>246.0</ele><time>2026-04-18T14:07:09.252Z</time></trkpt><trkpt lat="45.7947419" lon="8.7366821"><ele>246.0</ele><time>2026-04-18T14:07:10.251Z</time></trkpt><trkpt lat="45.7946884" lon="8.7367642"><ele>246.0</ele><time>2026-04-18T14:07:11.252Z</time></trkpt><trkpt lat="45.7946657" lon="8.7368585"><ele>246.0</ele><time>2026-04-18T14:07:12.252Z</time></trkpt><trkpt lat="45.7946592" lon="8.7369653"><ele>246.0</ele><time>2026-04-18T14:07:13.252Z</time></trkpt><trkpt lat="45.7946642" lon="8.7370762"><ele>246.0</ele><time>2026-04-18T14:07:14.251Z</time></trkpt><trkpt lat="45.7946601" lon="8.7371916"><ele>246.0</ele><time>2026-04-18T14:07:15.253Z</time></trkpt><trkpt lat="45.794643" lon="8.7373097"><ele>246.0</ele><time>2026-04-18T14:07:16.251Z</time></trkpt><trkpt lat="45.794614" lon="8.7374245"><ele>246.20000000000002</ele><time>2026-04-18T14:07:17.252Z</time></trkpt><trkpt lat="45.7945755" lon="8.7375392"><ele>246.40000000000003</ele><time>2026-04-18T14:07:18.252Z</time></trkpt><trkpt lat="45.7945319" lon="8.7376667"><ele>246.6</ele><time>2026-04-18T14:07:19.253Z</time></trkpt><trkpt lat="45.7944778" lon="8.7377979"><ele>246.8</ele><time>2026-04-18T14:07:20.252Z</time></trkpt><trkpt lat="45.7944202" lon="8.7379377"><ele>247.0</ele><time>2026-04-18T14:07:21.251Z</time></trkpt><trkpt lat="45.7943604" lon="8.7380878"><ele>247.75</ele><time>2026-04-18T14:07:22.251Z</time></trkpt><trkpt lat="45.7942967" lon="8.7382462"><ele>248.5</ele><time>2026-04-18T14:07:23.251Z</time></trkpt><trkpt lat="45.7942322" lon="8.7384084"><ele>249.25</ele><time>2026-04-18T14:07:24.252Z</time></trkpt><trkpt lat="45.7941704" lon="8.7385579"><ele>250.0</ele><time>2026-04-18T14:07:25.251Z</time></trkpt><trkpt lat="45.7941131" lon="8.7387047"><ele>250.25</ele><time>2026-04-18T14:07:26.252Z</time></trkpt><trkpt lat="45.794054" lon="8.7388468"><ele>250.5</ele><time>2026-04-18T14:07:27.252Z</time></trkpt><trkpt lat="45.7939947" lon="8.7389935"><ele>250.75</ele><time>2026-04-18T14:07:28.252Z</time></trkpt><trkpt lat="45.7939365" lon="8.7391408"><ele>251.0</ele><time>2026-04-18T14:07:29.251Z</time></trkpt><trkpt lat="45.7938732" lon="8.7392902"><ele>251.5</ele><time>2026-04-18T14:07:30.251Z</time></trkpt><trkpt lat="45.7938093" lon="8.7394414"><ele>252.0</ele><time>2026-04-18T14:07:31.251Z</time></trkpt><trkpt lat="45.7937423" lon="8.7396003"><ele>252.5</ele><time>2026-04-18T14:07:32.252Z</time></trkpt><trkpt lat="45.7936818" lon="8.7397486"><ele>253.0</ele><time>2026-04-18T14:07:33.252Z</time></trkpt><trkpt lat="45.7936237" lon="8.7398994"><ele>253.0</ele><time>2026-04-18T14:07:34.251Z</time></trkpt><trkpt lat="45.7935614" lon="8.74005"><ele>253.0</ele><time>2026-04-18T14:07:35.251Z</time></trkpt><trkpt lat="45.7935029" lon="8.7401945"><ele>253.0</ele><time>2026-04-18T14:07:36.252Z</time></trkpt><trkpt lat="45.793444" lon="8.7403419"><ele>253.0</ele><time>2026-04-18T14:07:37.251Z</time></trkpt><trkpt lat="45.7933834" lon="8.7404933"><ele>253.75</ele><time>2026-04-18T14:07:38.251Z</time></trkpt><trkpt lat="45.7933262" lon="8.7406428"><ele>254.5</ele><time>2026-04-18T14:07:39.251Z</time></trkpt><trkpt lat="45.7932658" lon="8.7407923"><ele>255.25</ele><time>2026-04-18T14:07:40.251Z</time></trkpt><trkpt lat="45.7932042" lon="8.7409449"><ele>256.0</ele><time>2026-04-18T14:07:41.252Z</time></trkpt><trkpt lat="45.7931409" lon="8.7410895"><ele>256.75</ele><time>2026-04-18T14:07:42.251Z</time></trkpt><trkpt lat="45.7930782" lon="8.7412376"><ele>257.5</ele><time>2026-04-18T14:07:43.252Z</time></trkpt><trkpt lat="45.7930143" lon="8.7413903"><ele>258.25</ele><time>2026-04-18T14:07:44.251Z</time></trkpt><trkpt lat="45.7929513" lon="8.7415413"><ele>259.0</ele><time>2026-04-18T14:07:45.252Z</time></trkpt><trkpt lat="45.7928854" lon="8.7416995"><ele>259.0</ele><time>2026-04-18T14:07:46.252Z</time></trkpt><trkpt lat="45.792819" lon="8.7418555"><ele>259.0</ele><time>2026-04-18T14:07:47.251Z</time></trkpt><trkpt lat="45.7927548" lon="8.7420184"><ele>259.0</ele><time>2026-04-18T14:07:48.252Z</time></trkpt><trkpt lat="45.7926861" lon="8.7421857"><ele>259.0</ele><time>2026-04-18T14:07:49.252Z</time></trkpt><trkpt lat="45.7926157" lon="8.7423561"><ele>259.0</ele><time>2026-04-18T14:07:50.251Z</time></trkpt><trkpt lat="45.7925461" lon="8.7425349"><ele>259.0</ele><time>2026-04-18T14:07:51.252Z</time></trkpt><trkpt lat="45.7924753" lon="8.7427148"><ele>259.0</ele><time>2026-04-18T14:07:52.252Z</time></trkpt><trkpt lat="45.7923989" lon="8.7428934"><ele>259.0</ele><time>2026-04-18T14:07:53.251Z</time></trkpt><trkpt lat="45.7923251" lon="8.7430767"><ele>259.0</ele><time>2026-04-18T14:07:54.252Z</time></trkpt><trkpt lat="45.7922456" lon="8.7432653"><ele>259.0</ele><time>2026-04-18T14:07:55.251Z</time></trkpt><trkpt lat="45.7921674" lon="8.7434543"><ele>259.0</ele><time>2026-04-18T14:07:56.252Z</time></trkpt><trkpt lat="45.7920925" lon="8.7436422"><ele>259.0</ele><time>2026-04-18T14:07:57.251Z</time></trkpt><trkpt lat="45.7920174" lon="8.7438292"><ele>259.0</ele><time>2026-04-18T14:07:58.251Z</time></trkpt><trkpt lat="45.7919489" lon="8.7440002"><ele>259.0</ele><time>2026-04-18T14:07:59.252Z</time></trkpt><trkpt lat="45.7918852" lon="8.744158"><ele>259.0</ele><time>2026-04-18T14:08:00.252Z</time></trkpt><trkpt lat="45.7918301" lon="8.7442904"><ele>259.4</ele><time>2026-04-18T14:08:01.252Z</time></trkpt><trkpt lat="45.7917888" lon="8.744407"><ele>259.79999999999995</ele><time>2026-04-18T14:08:02.251Z</time></trkpt><trkpt lat="45.7917508" lon="8.7444967"><ele>260.20000000000005</ele><time>2026-04-18T14:08:03.251Z</time></trkpt><trkpt lat="45.7917178" lon="8.7445751"><ele>260.6</ele><time>2026-04-18T14:08:04.252Z</time></trkpt><trkpt lat="45.7916574" lon="8.7447207"><ele>261.0</ele><time>2026-04-18T14:08:06.252Z</time></trkpt><trkpt lat="45.7916029" lon="8.7448556"><ele>261.0</ele><time>2026-04-18T14:08:08.251Z</time></trkpt><trkpt lat="45.791551" lon="8.7449812"><ele>261.0</ele><time>2026-04-18T14:08:10.251Z</time></trkpt><trkpt lat="45.7914982" lon="8.7451196"><ele>261.0</ele><time>2026-04-18T14:08:12.252Z</time></trkpt><trkpt lat="45.791455" lon="8.7452465"><ele>261.0</ele><time>2026-04-18T14:08:14.251Z</time></trkpt><trkpt lat="45.7913921" lon="8.7453945"><ele>261.0</ele><time>2026-04-18T14:08:16.251Z</time></trkpt><trkpt lat="45.7913374" lon="8.7455273"><ele>261.3333333333333</ele><time>2026-04-18T14:08:18.251Z</time></trkpt><trkpt lat="45.7912748" lon="8.7456777"><ele>261.6666666666667</ele><time>2026-04-18T14:08:20.251Z</time></trkpt><trkpt lat="45.7912379" lon="8.7457694"><ele>262.0</ele><time>2026-04-18T14:08:21.252Z</time></trkpt><trkpt lat="45.7911989" lon="8.7458708"><ele>262.33333333333337</ele><time>2026-04-18T14:08:22.251Z</time></trkpt><trkpt lat="45.7911575" lon="8.7459753"><ele>262.6666666666667</ele><time>2026-04-18T14:08:23.252Z</time></trkpt><trkpt lat="45.791119" lon="8.7460819"><ele>263.0</ele><time>2026-04-18T14:08:24.251Z</time></trkpt><trkpt lat="45.7910741" lon="8.7461921"><ele>263.1428571428571</ele><time>2026-04-18T14:08:25.251Z</time></trkpt><trkpt lat="45.7910234" lon="8.7462969"><ele>263.2857142857143</ele><time>2026-04-18T14:08:26.251Z</time></trkpt><trkpt lat="45.7909732" lon="8.7463923"><ele>263.42857142857144</ele><time>2026-04-18T14:08:27.251Z</time></trkpt><trkpt lat="45.7909282" lon="8.7464792"><ele>263.57142857142856</ele><time>2026-04-18T14:08:28.252Z</time></trkpt><trkpt lat="45.790875" lon="8.7465404"><ele>263.7142857142857</ele><time>2026-04-18T14:08:29.251Z</time></trkpt><trkpt lat="45.7908168" lon="8.7465832"><ele>263.85714285714283</ele><time>2026-04-18T14:08:30.251Z</time></trkpt><trkpt lat="45.7907703" lon="8.7466523"><ele>264.0</ele><time>2026-04-18T14:08:31.252Z</time></trkpt><trkpt lat="45.790746" lon="8.7467383"><ele>264.0</ele><time>2026-04-18T14:08:32.249Z</time></trkpt><trkpt lat="45.7907425" lon="8.7468306"><ele>264.0</ele><time>2026-04-18T14:08:33.252Z</time></trkpt><trkpt lat="45.7907408" lon="8.7469375"><ele>264.0</ele><time>2026-04-18T14:08:34.251Z</time></trkpt><trkpt lat="45.7907271" lon="8.7470528"><ele>264.0</ele><time>2026-04-18T14:08:35.251Z</time></trkpt><trkpt lat="45.7907041" lon="8.7471715"><ele>264.0</ele><time>2026-04-18T14:08:36.251Z</time></trkpt><trkpt lat="45.7906825" lon="8.7472927"><ele>264.0</ele><time>2026-04-18T14:08:37.251Z</time></trkpt><trkpt lat="45.7906619" lon="8.7474196"><ele>264.0</ele><time>2026-04-18T14:08:38.251Z</time></trkpt><trkpt lat="45.7906404" lon="8.747533"><ele>264.0</ele><time>2026-04-18T14:08:39.252Z</time></trkpt><trkpt lat="45.7906217" lon="8.7476329"><ele>264.0</ele><time>2026-04-18T14:08:40.251Z</time></trkpt><trkpt lat="45.7906019" lon="8.7477282"><ele>264.0</ele><time>2026-04-18T14:08:41.251Z</time></trkpt><trkpt lat="45.7905813" lon="8.7478373"><ele>264.0</ele><time>2026-04-18T14:08:42.251Z</time></trkpt><trkpt lat="45.7905807" lon="8.7479575"><ele>264.0</ele><time>2026-04-18T14:08:43.252Z</time></trkpt><trkpt lat="45.7905878" lon="8.7480874"><ele>264.0</ele><time>2026-04-18T14:08:44.252Z</time></trkpt><trkpt lat="45.7905937" lon="8.7482286"><ele>264.0</ele><time>2026-04-18T14:08:45.251Z</time></trkpt><trkpt lat="45.7905925" lon="8.7483776"><ele>264.0</ele><time>2026-04-18T14:08:46.251Z</time></trkpt><trkpt lat="45.7905856" lon="8.7485316"><ele>264.0</ele><time>2026-04-18T14:08:47.251Z</time></trkpt><trkpt lat="45.7905733" lon="8.7486912"><ele>264.0</ele><time>2026-04-18T14:08:48.251Z</time></trkpt><trkpt lat="45.790563" lon="8.7488569"><ele>264.0</ele><time>2026-04-18T14:08:49.251Z</time></trkpt><trkpt lat="45.7905598" lon="8.7490348"><ele>264.0</ele><time>2026-04-18T14:08:50.251Z</time></trkpt><trkpt lat="45.79056" lon="8.7492205"><ele>264.0</ele><time>2026-04-18T14:08:51.251Z</time></trkpt><trkpt lat="45.7905663" lon="8.7494239"><ele>264.0</ele><time>2026-04-18T14:08:52.251Z</time></trkpt><trkpt lat="45.7905723" lon="8.7496326"><ele>264.5</ele><time>2026-04-18T14:08:53.252Z</time></trkpt><trkpt lat="45.7905753" lon="8.7498369"><ele>265.0</ele><time>2026-04-18T14:08:54.252Z</time></trkpt><trkpt lat="45.7905786" lon="8.7500312"><ele>265.5</ele><time>2026-04-18T14:08:55.252Z</time></trkpt><trkpt lat="45.7905822" lon="8.75022"><ele>266.0</ele><time>2026-04-18T14:08:56.252Z</time></trkpt><trkpt lat="45.7905858" lon="8.7504098"><ele>266.5</ele><time>2026-04-18T14:08:57.252Z</time></trkpt><trkpt lat="45.7905883" lon="8.7506018"><ele>267.0</ele><time>2026-04-18T14:08:58.251Z</time></trkpt><trkpt lat="45.7905884" lon="8.750801"><ele>267.5</ele><time>2026-04-18T14:08:59.252Z</time></trkpt><trkpt lat="45.7905914" lon="8.7510025"><ele>268.0</ele><time>2026-04-18T14:09:00.251Z</time></trkpt><trkpt lat="45.7905949" lon="8.7512119"><ele>268.75</ele><time>2026-04-18T14:09:01.251Z</time></trkpt><trkpt lat="45.7905986" lon="8.7514229"><ele>269.5</ele><time>2026-04-18T14:09:02.251Z</time></trkpt><trkpt lat="45.7906004" lon="8.7516338"><ele>270.25</ele><time>2026-04-18T14:09:03.251Z</time></trkpt><trkpt lat="45.7906017" lon="8.7518348"><ele>271.0</ele><time>2026-04-18T14:09:04.251Z</time></trkpt><trkpt lat="45.7906046" lon="8.7520346"><ele>271.0</ele><time>2026-04-18T14:09:05.251Z</time></trkpt><trkpt lat="45.790605" lon="8.7522384"><ele>271.0</ele><time>2026-04-18T14:09:06.252Z</time></trkpt><trkpt lat="45.7906041" lon="8.7524426"><ele>271.0</ele><time>2026-04-18T14:09:07.251Z</time></trkpt><trkpt lat="45.7906079" lon="8.752647"><ele>271.0</ele><time>2026-04-18T14:09:08.251Z</time></trkpt><trkpt lat="45.790612" lon="8.7528539"><ele>270.25</ele><time>2026-04-18T14:09:09.251Z</time></trkpt><trkpt lat="45.7906129" lon="8.753068"><ele>269.5</ele><time>2026-04-18T14:09:10.251Z</time></trkpt><trkpt lat="45.7906161" lon="8.7532802"><ele>268.75</ele><time>2026-04-18T14:09:11.251Z</time></trkpt><trkpt lat="45.7906206" lon="8.7534942"><ele>268.0</ele><time>2026-04-18T14:09:12.252Z</time></trkpt><trkpt lat="45.7906222" lon="8.7537138"><ele>267.66666666666663</ele><time>2026-04-18T14:09:13.251Z</time></trkpt><trkpt lat="45.7906231" lon="8.753929"><ele>267.3333333333333</ele><time>2026-04-18T14:09:14.252Z</time></trkpt><trkpt lat="45.7906286" lon="8.7541522"><ele>267.0</ele><time>2026-04-18T14:09:15.251Z</time></trkpt><trkpt lat="45.7906334" lon="8.7543784"><ele>266.0</ele><time>2026-04-18T14:09:16.25Z</time></trkpt><trkpt lat="45.7906354" lon="8.7546045"><ele>265.0</ele><time>2026-04-18T14:09:17.25Z</time></trkpt><trkpt lat="45.7906439" lon="8.7548362"><ele>264.0</ele><time>2026-04-18T14:09:18.25Z</time></trkpt><trkpt lat="45.7906494" lon="8.7550681"><ele>264.0</ele><time>2026-04-18T14:09:19.25Z</time></trkpt><trkpt lat="45.7906542" lon="8.7552983"><ele>264.0</ele><time>2026-04-18T14:09:20.25Z</time></trkpt><trkpt lat="45.7906604" lon="8.7555191"><ele>264.0</ele><time>2026-04-18T14:09:21.25Z</time></trkpt><trkpt lat="45.7906642" lon="8.755725"><ele>264.0</ele><time>2026-04-18T14:09:22.25Z</time></trkpt><trkpt lat="45.7906642" lon="8.7559357"><ele>264.0</ele><time>2026-04-18T14:09:23.25Z</time></trkpt><trkpt lat="45.7906543" lon="8.7561488"><ele>264.0</ele><time>2026-04-18T14:09:24.251Z</time></trkpt><trkpt lat="45.7906434" lon="8.7563606"><ele>264.0</ele><time>2026-04-18T14:09:25.25Z</time></trkpt><trkpt lat="45.7906344" lon="8.756567"><ele>263.5</ele><time>2026-04-18T14:09:26.25Z</time></trkpt><trkpt lat="45.7906265" lon="8.7567793"><ele>263.0</ele><time>2026-04-18T14:09:27.25Z</time></trkpt><trkpt lat="45.7906152" lon="8.7569867"><ele>262.5</ele><time>2026-04-18T14:09:28.25Z</time></trkpt><trkpt lat="45.7906027" lon="8.7571981"><ele>262.0</ele><time>2026-04-18T14:09:29.25Z</time></trkpt><trkpt lat="45.7905904" lon="8.757413"><ele>261.3333333333333</ele><time>2026-04-18T14:09:30.251Z</time></trkpt><trkpt lat="45.7905789" lon="8.7576281"><ele>260.6666666666667</ele><time>2026-04-18T14:09:31.25Z</time></trkpt><trkpt lat="45.7905674" lon="8.7578486"><ele>260.0</ele><time>2026-04-18T14:09:32.25Z</time></trkpt><trkpt lat="45.7905555" lon="8.7580653"><ele>260.0</ele><time>2026-04-18T14:09:33.25Z</time></trkpt><trkpt lat="45.7905426" lon="8.7582879"><ele>260.0</ele><time>2026-04-18T14:09:34.25Z</time></trkpt><trkpt lat="45.7905288" lon="8.7585083"><ele>260.0</ele><time>2026-04-18T14:09:35.25Z</time></trkpt><trkpt lat="45.790515" lon="8.7587362"><ele>259.6666666666667</ele><time>2026-04-18T14:09:36.25Z</time></trkpt><trkpt lat="45.7904998" lon="8.758967"><ele>259.3333333333333</ele><time>2026-04-18T14:09:37.25Z</time></trkpt><trkpt lat="45.7904894" lon="8.7591934"><ele>259.0</ele><time>2026-04-18T14:09:38.25Z</time></trkpt><trkpt lat="45.7904761" lon="8.7594215"><ele>259.0</ele><time>2026-04-18T14:09:39.25Z</time></trkpt><trkpt lat="45.7904649" lon="8.7596448"><ele>259.0</ele><time>2026-04-18T14:09:40.251Z</time></trkpt><trkpt lat="45.7904525" lon="8.7598724"><ele>259.0</ele><time>2026-04-18T14:09:41.25Z</time></trkpt><trkpt lat="45.7904398" lon="8.7601016"><ele>258.3333333333333</ele><time>2026-04-18T14:09:42.25Z</time></trkpt><trkpt lat="45.7904239" lon="8.760332"><ele>257.6666666666667</ele><time>2026-04-18T14:09:43.25Z</time></trkpt><trkpt lat="45.7904105" lon="8.7605682"><ele>257.0</ele><time>2026-04-18T14:09:44.25Z</time></trkpt><trkpt lat="45.7903961" lon="8.7608077"><ele>257.0</ele><time>2026-04-18T14:09:45.252Z</time></trkpt><trkpt lat="45.7903821" lon="8.7610502"><ele>257.0</ele><time>2026-04-18T14:09:46.25Z</time></trkpt><trkpt lat="45.7903681" lon="8.7612911"><ele>257.0</ele><time>2026-04-18T14:09:47.251Z</time></trkpt><trkpt lat="45.7903537" lon="8.7615225"><ele>257.0</ele><time>2026-04-18T14:09:48.25Z</time></trkpt><trkpt lat="45.7903405" lon="8.7617472"><ele>257.0</ele><time>2026-04-18T14:09:49.251Z</time></trkpt><trkpt lat="45.7903308" lon="8.7619668"><ele>257.0</ele><time>2026-04-18T14:09:50.251Z</time></trkpt><trkpt lat="45.7903267" lon="8.7621783"><ele>257.25</ele><time>2026-04-18T14:09:51.25Z</time></trkpt><trkpt lat="45.7903264" lon="8.7623844"><ele>257.5</ele><time>2026-04-18T14:09:52.25Z</time></trkpt><trkpt lat="45.7903369" lon="8.7625847"><ele>257.75</ele><time>2026-04-18T14:09:53.25Z</time></trkpt><trkpt lat="45.7903431" lon="8.7627944"><ele>258.0</ele><time>2026-04-18T14:09:54.251Z</time></trkpt><trkpt lat="45.7903477" lon="8.7630056"><ele>257.25</ele><time>2026-04-18T14:09:55.25Z</time></trkpt><trkpt lat="45.7903574" lon="8.7632133"><ele>256.5</ele><time>2026-04-18T14:09:56.251Z</time></trkpt><trkpt lat="45.7903682" lon="8.76341"><ele>255.75</ele><time>2026-04-18T14:09:57.25Z</time></trkpt><trkpt lat="45.7903751" lon="8.7636028"><ele>255.0</ele><time>2026-04-18T14:09:58.25Z</time></trkpt><trkpt lat="45.7903776" lon="8.763795"><ele>255.0</ele><time>2026-04-18T14:09:59.251Z</time></trkpt><trkpt lat="45.790379" lon="8.7639812"><ele>255.0</ele><time>2026-04-18T14:10:00.25Z</time></trkpt><trkpt lat="45.7903901" lon="8.7641736"><ele>255.0</ele><time>2026-04-18T14:10:01.25Z</time></trkpt><trkpt lat="45.7903976" lon="8.7643629"><ele>255.0</ele><time>2026-04-18T14:10:02.25Z</time></trkpt><trkpt lat="45.7904089" lon="8.7645574"><ele>255.0</ele><time>2026-04-18T14:10:03.25Z</time></trkpt><trkpt lat="45.7904171" lon="8.7647564"><ele>255.0</ele><time>2026-04-18T14:10:04.252Z</time></trkpt><trkpt lat="45.7904249" lon="8.7649602"><ele>255.0</ele><time>2026-04-18T14:10:05.25Z</time></trkpt><trkpt lat="45.7904353" lon="8.7651672"><ele>255.0</ele><time>2026-04-18T14:10:06.25Z</time></trkpt><trkpt lat="45.7904431" lon="8.7653803"><ele>255.0</ele><time>2026-04-18T14:10:07.251Z</time></trkpt><trkpt lat="45.7904521" lon="8.7655974"><ele>255.0</ele><time>2026-04-18T14:10:08.25Z</time></trkpt><trkpt lat="45.7904588" lon="8.7658213"><ele>255.0</ele><time>2026-04-18T14:10:09.25Z</time></trkpt><trkpt lat="45.7904667" lon="8.7660505"><ele>254.66666666666669</ele><time>2026-04-18T14:10:10.25Z</time></trkpt><trkpt lat="45.7904742" lon="8.766282"><ele>254.33333333333334</ele><time>2026-04-18T14:10:11.25Z</time></trkpt><trkpt lat="45.7904817" lon="8.766509"><ele>254.0</ele><time>2026-04-18T14:10:12.251Z</time></trkpt><trkpt lat="45.7904773" lon="8.7667293"><ele>252.66666666666669</ele><time>2026-04-18T14:10:13.25Z</time></trkpt><trkpt lat="45.7904655" lon="8.7669492"><ele>251.33333333333331</ele><time>2026-04-18T14:10:14.251Z</time></trkpt><trkpt lat="45.7904411" lon="8.7671653"><ele>250.0</ele><time>2026-04-18T14:10:15.25Z</time></trkpt><trkpt lat="45.7904124" lon="8.7673672"><ele>250.0</ele><time>2026-04-18T14:10:16.25Z</time></trkpt><trkpt lat="45.7903843" lon="8.7675668"><ele>250.0</ele><time>2026-04-18T14:10:17.25Z</time></trkpt><trkpt lat="45.7903521" lon="8.7677705"><ele>250.0</ele><time>2026-04-18T14:10:18.25Z</time></trkpt><trkpt lat="45.7903241" lon="8.7679754"><ele>250.0</ele><time>2026-04-18T14:10:19.25Z</time></trkpt><trkpt lat="45.7902947" lon="8.7681844"><ele>249.33333333333331</ele><time>2026-04-18T14:10:20.25Z</time></trkpt><trkpt lat="45.7902652" lon="8.7683938"><ele>248.66666666666669</ele><time>2026-04-18T14:10:21.251Z</time></trkpt><trkpt lat="45.7902353" lon="8.7686091"><ele>248.0</ele><time>2026-04-18T14:10:22.251Z</time></trkpt><trkpt lat="45.7902007" lon="8.7688209"><ele>251.0</ele><time>2026-04-18T14:10:23.251Z</time></trkpt><trkpt lat="45.7901709" lon="8.7690382"><ele>254.0</ele><time>2026-04-18T14:10:24.25Z</time></trkpt><trkpt lat="45.7901426" lon="8.7692585"><ele>257.0</ele><time>2026-04-18T14:10:25.25Z</time></trkpt><trkpt lat="45.7901097" lon="8.7694843"><ele>257.0</ele><time>2026-04-18T14:10:26.251Z</time></trkpt><trkpt lat="45.7900804" lon="8.7697129"><ele>257.0</ele><time>2026-04-18T14:10:27.25Z</time></trkpt><trkpt lat="45.7900514" lon="8.7699455"><ele>257.0</ele><time>2026-04-18T14:10:28.251Z</time></trkpt><trkpt lat="45.7900283" lon="8.7701834"><ele>256.0</ele><time>2026-04-18T14:10:29.25Z</time></trkpt><trkpt lat="45.7900075" lon="8.7704208"><ele>255.0</ele><time>2026-04-18T14:10:30.251Z</time></trkpt><trkpt lat="45.7899854" lon="8.7706621"><ele>254.0</ele><time>2026-04-18T14:10:31.251Z</time></trkpt><trkpt lat="45.7899595" lon="8.7709083"><ele>253.66666666666669</ele><time>2026-04-18T14:10:32.25Z</time></trkpt><trkpt lat="45.789938" lon="8.7711423"><ele>253.33333333333331</ele><time>2026-04-18T14:10:33.25Z</time></trkpt><trkpt lat="45.7899155" lon="8.7713757"><ele>253.0</ele><time>2026-04-18T14:10:34.25Z</time></trkpt><trkpt lat="45.7898944" lon="8.7716035"><ele>253.0</ele><time>2026-04-18T14:10:35.251Z</time></trkpt><trkpt lat="45.7898764" lon="8.7718284"><ele>253.0</ele><time>2026-04-18T14:10:36.251Z</time></trkpt><trkpt lat="45.7898566" lon="8.772051"><ele>253.0</ele><time>2026-04-18T14:10:37.25Z</time></trkpt><trkpt lat="45.7898372" lon="8.7722757"><ele>253.66666666666666</ele><time>2026-04-18T14:10:38.25Z</time></trkpt><trkpt lat="45.7898165" lon="8.7725001"><ele>254.33333333333331</ele><time>2026-04-18T14:10:39.25Z</time></trkpt><trkpt lat="45.7897962" lon="8.7727213"><ele>255.0</ele><time>2026-04-18T14:10:40.25Z</time></trkpt><trkpt lat="45.7897779" lon="8.772949"><ele>255.0</ele><time>2026-04-18T14:10:41.252Z</time></trkpt><trkpt lat="45.7897573" lon="8.7731766"><ele>255.0</ele><time>2026-04-18T14:10:42.251Z</time></trkpt><trkpt lat="45.7897362" lon="8.7734104"><ele>255.0</ele><time>2026-04-18T14:10:43.251Z</time></trkpt><trkpt lat="45.7897139" lon="8.7736402"><ele>253.66666666666669</ele><time>2026-04-18T14:10:44.25Z</time></trkpt><trkpt lat="45.7896887" lon="8.7738695"><ele>252.33333333333334</ele><time>2026-04-18T14:10:45.251Z</time></trkpt><trkpt lat="45.7896589" lon="8.7740996"><ele>251.0</ele><time>2026-04-18T14:10:46.25Z</time></trkpt><trkpt lat="45.7896248" lon="8.7743293"><ele>251.33333333333334</ele><time>2026-04-18T14:10:47.251Z</time></trkpt><trkpt lat="45.7895832" lon="8.7745495"><ele>251.66666666666669</ele><time>2026-04-18T14:10:48.25Z</time></trkpt><trkpt lat="45.7895388" lon="8.7747736"><ele>252.0</ele><time>2026-04-18T14:10:49.25Z</time></trkpt><trkpt lat="45.7894931" lon="8.7749999"><ele>251.33333333333331</ele><time>2026-04-18T14:10:50.251Z</time></trkpt><trkpt lat="45.7894477" lon="8.7752262"><ele>250.66666666666666</ele><time>2026-04-18T14:10:51.251Z</time></trkpt><trkpt lat="45.7894068" lon="8.7754482"><ele>250.0</ele><time>2026-04-18T14:10:52.25Z</time></trkpt><trkpt lat="45.7893649" lon="8.7756727"><ele>253.33333333333331</ele><time>2026-04-18T14:10:53.25Z</time></trkpt><trkpt lat="45.7893216" lon="8.7758954"><ele>256.6666666666667</ele><time>2026-04-18T14:10:54.25Z</time></trkpt><trkpt lat="45.7892752" lon="8.7761153"><ele>260.0</ele><time>2026-04-18T14:10:55.25Z</time></trkpt><trkpt lat="45.7892315" lon="8.776329"><ele>260.0</ele><time>2026-04-18T14:10:56.25Z</time></trkpt><trkpt lat="45.7891896" lon="8.7765356"><ele>260.0</ele><time>2026-04-18T14:10:57.25Z</time></trkpt><trkpt lat="45.7891539" lon="8.7767342"><ele>260.0</ele><time>2026-04-18T14:10:58.25Z</time></trkpt><trkpt lat="45.789115" lon="8.7769301"><ele>260.0</ele><time>2026-04-18T14:10:59.251Z</time></trkpt><trkpt lat="45.7890771" lon="8.7771256"><ele>259.25</ele><time>2026-04-18T14:11:00.251Z</time></trkpt><trkpt lat="45.7890372" lon="8.7773275"><ele>258.5</ele><time>2026-04-18T14:11:01.251Z</time></trkpt><trkpt lat="45.7889956" lon="8.7775305"><ele>257.75</ele><time>2026-04-18T14:11:02.25Z</time></trkpt><trkpt lat="45.788953" lon="8.7777388"><ele>257.0</ele><time>2026-04-18T14:11:03.25Z</time></trkpt><trkpt lat="45.7889131" lon="8.7779408"><ele>256.5</ele><time>2026-04-18T14:11:04.251Z</time></trkpt><trkpt lat="45.7888738" lon="8.7781417"><ele>256.0</ele><time>2026-04-18T14:11:05.251Z</time></trkpt><trkpt lat="45.7888296" lon="8.7783427"><ele>255.5</ele><time>2026-04-18T14:11:06.25Z</time></trkpt><trkpt lat="45.7887872" lon="8.7785488"><ele>255.0</ele><time>2026-04-18T14:11:07.251Z</time></trkpt><trkpt lat="45.7887435" lon="8.7787544"><ele>254.25</ele><time>2026-04-18T14:11:08.25Z</time></trkpt><trkpt lat="45.7887068" lon="8.778957"><ele>253.5</ele><time>2026-04-18T14:11:09.25Z</time></trkpt><trkpt lat="45.7886697" lon="8.7791511"><ele>252.75</ele><time>2026-04-18T14:11:10.252Z</time></trkpt><trkpt lat="45.788631" lon="8.7793347"><ele>252.0</ele><time>2026-04-18T14:11:11.25Z</time></trkpt><trkpt lat="45.7885979" lon="8.7795133"><ele>251.25</ele><time>2026-04-18T14:11:12.25Z</time></trkpt><trkpt lat="45.7885643" lon="8.7796933"><ele>250.5</ele><time>2026-04-18T14:11:13.251Z</time></trkpt><trkpt lat="45.7885304" lon="8.7798785"><ele>249.75</ele><time>2026-04-18T14:11:14.251Z</time></trkpt><trkpt lat="45.7884954" lon="8.7800647"><ele>249.0</ele><time>2026-04-18T14:11:15.25Z</time></trkpt><trkpt lat="45.7884583" lon="8.7802519"><ele>249.0</ele><time>2026-04-18T14:11:16.25Z</time></trkpt><trkpt lat="45.7884239" lon="8.7804376"><ele>249.0</ele><time>2026-04-18T14:11:17.251Z</time></trkpt><trkpt lat="45.7883883" lon="8.7806125"><ele>249.0</ele><time>2026-04-18T14:11:18.251Z</time></trkpt><trkpt lat="45.7883558" lon="8.7807685"><ele>249.0</ele><time>2026-04-18T14:11:19.25Z</time></trkpt><trkpt lat="45.7883319" lon="8.7809027"><ele>249.0</ele><time>2026-04-18T14:11:20.25Z</time></trkpt><trkpt lat="45.788306" lon="8.7809943"><ele>248.99999999999997</ele><time>2026-04-18T14:11:21.251Z</time></trkpt><trkpt lat="45.788282" lon="8.7810822"><ele>248.99999999999997</ele><time>2026-04-18T14:11:24.25Z</time></trkpt><trkpt lat="45.7882453" lon="8.7812081"><ele>249.0</ele><time>2026-04-18T14:11:28.251Z</time></trkpt><trkpt lat="45.7881947" lon="8.7813335"><ele>249.0</ele><time>2026-04-18T14:11:30.251Z</time></trkpt><trkpt lat="45.7882013" lon="8.7815119"><ele>249.0</ele><time>2026-04-18T14:11:32.25Z</time></trkpt><trkpt lat="45.7882284" lon="8.7816172"><ele>248.99999999999997</ele><time>2026-04-18T14:11:33.25Z</time></trkpt><trkpt lat="45.7882593" lon="8.7817324"><ele>248.99999999999997</ele><time>2026-04-18T14:11:34.25Z</time></trkpt><trkpt lat="45.7882798" lon="8.7818582"><ele>249.0</ele><time>2026-04-18T14:11:35.251Z</time></trkpt><trkpt lat="45.7882973" lon="8.7819983"><ele>249.0</ele><time>2026-04-18T14:11:36.251Z</time></trkpt><trkpt lat="45.7883123" lon="8.782153"><ele>249.0</ele><time>2026-04-18T14:11:37.251Z</time></trkpt><trkpt lat="45.7883272" lon="8.782319"><ele>249.0</ele><time>2026-04-18T14:11:38.25Z</time></trkpt><trkpt lat="45.7883452" lon="8.7824984"><ele>249.0</ele><time>2026-04-18T14:11:39.251Z</time></trkpt><trkpt lat="45.7883625" lon="8.7826807"><ele>249.0</ele><time>2026-04-18T14:11:40.25Z</time></trkpt><trkpt lat="45.7883809" lon="8.7828709"><ele>249.25</ele><time>2026-04-18T14:11:41.25Z</time></trkpt><trkpt lat="45.7884042" lon="8.7830638"><ele>249.5</ele><time>2026-04-18T14:11:42.251Z</time></trkpt><trkpt lat="45.7884272" lon="8.783262"><ele>249.75</ele><time>2026-04-18T14:11:43.251Z</time></trkpt><trkpt lat="45.7884489" lon="8.7834557"><ele>250.0</ele><time>2026-04-18T14:11:44.25Z</time></trkpt><trkpt lat="45.7884698" lon="8.7836526"><ele>250.0</ele><time>2026-04-18T14:11:45.251Z</time></trkpt><trkpt lat="45.788491" lon="8.7838546"><ele>250.0</ele><time>2026-04-18T14:11:46.251Z</time></trkpt><trkpt lat="45.788513" lon="8.7840572"><ele>250.0</ele><time>2026-04-18T14:11:47.251Z</time></trkpt><trkpt lat="45.7885381" lon="8.7842622"><ele>250.0</ele><time>2026-04-18T14:11:48.25Z</time></trkpt><trkpt lat="45.7885652" lon="8.7844693"><ele>249.0</ele><time>2026-04-18T14:11:49.251Z</time></trkpt><trkpt lat="45.7885891" lon="8.7846825"><ele>248.0</ele><time>2026-04-18T14:11:50.25Z</time></trkpt><trkpt lat="45.7886142" lon="8.7849026"><ele>247.0</ele><time>2026-04-18T14:11:51.251Z</time></trkpt><trkpt lat="45.7886373" lon="8.7851215"><ele>247.75</ele><time>2026-04-18T14:11:52.25Z</time></trkpt><trkpt lat="45.7886621" lon="8.7853289"><ele>248.5</ele><time>2026-04-18T14:11:53.251Z</time></trkpt><trkpt lat="45.788684" lon="8.7855334"><ele>249.25</ele><time>2026-04-18T14:11:54.25Z</time></trkpt><trkpt lat="45.7887065" lon="8.7857353"><ele>250.0</ele><time>2026-04-18T14:11:55.251Z</time></trkpt><trkpt lat="45.7887281" lon="8.7859444"><ele>249.75</ele><time>2026-04-18T14:11:56.25Z</time></trkpt><trkpt lat="45.7887524" lon="8.7861515"><ele>249.5</ele><time>2026-04-18T14:11:57.25Z</time></trkpt><trkpt lat="45.7887742" lon="8.786364"><ele>249.25</ele><time>2026-04-18T14:11:58.251Z</time></trkpt><trkpt lat="45.7887978" lon="8.7865793"><ele>249.0</ele><time>2026-04-18T14:11:59.25Z</time></trkpt><trkpt lat="45.7888243" lon="8.7867969"><ele>249.0</ele><time>2026-04-18T14:12:00.25Z</time></trkpt><trkpt lat="45.7888495" lon="8.7870094"><ele>249.0</ele><time>2026-04-18T14:12:01.251Z</time></trkpt><trkpt lat="45.7888711" lon="8.7872168"><ele>249.0</ele><time>2026-04-18T14:12:02.249Z</time></trkpt><trkpt lat="45.7888955" lon="8.7874238"><ele>249.0</ele><time>2026-04-18T14:12:03.249Z</time></trkpt><trkpt lat="45.7889208" lon="8.7876305"><ele>248.25</ele><time>2026-04-18T14:12:04.249Z</time></trkpt><trkpt lat="45.7889457" lon="8.7878384"><ele>247.5</ele><time>2026-04-18T14:12:05.25Z</time></trkpt><trkpt lat="45.7889685" lon="8.7880513"><ele>246.75</ele><time>2026-04-18T14:12:06.25Z</time></trkpt><trkpt lat="45.7889938" lon="8.7882639"><ele>246.0</ele><time>2026-04-18T14:12:07.25Z</time></trkpt><trkpt lat="45.7890164" lon="8.7884675"><ele>246.0</ele><time>2026-04-18T14:12:08.25Z</time></trkpt><trkpt lat="45.789038" lon="8.7886664"><ele>246.0</ele><time>2026-04-18T14:12:09.25Z</time></trkpt><trkpt lat="45.7890586" lon="8.7888572"><ele>246.0</ele><time>2026-04-18T14:12:10.249Z</time></trkpt><trkpt lat="45.7890788" lon="8.7890395"><ele>246.0</ele><time>2026-04-18T14:12:11.249Z</time></trkpt><trkpt lat="45.7890997" lon="8.7892175"><ele>245.75</ele><time>2026-04-18T14:12:12.249Z</time></trkpt><trkpt lat="45.7891229" lon="8.7893902"><ele>245.5</ele><time>2026-04-18T14:12:13.25Z</time></trkpt><trkpt lat="45.7891434" lon="8.7895639"><ele>245.25</ele><time>2026-04-18T14:12:14.25Z</time></trkpt><trkpt lat="45.7891619" lon="8.7897306"><ele>245.0</ele><time>2026-04-18T14:12:15.25Z</time></trkpt><trkpt lat="45.7891778" lon="8.7898843"><ele>245.0</ele><time>2026-04-18T14:12:16.25Z</time></trkpt><trkpt lat="45.7891873" lon="8.7900283"><ele>245.0</ele><time>2026-04-18T14:12:17.25Z</time></trkpt><trkpt lat="45.789195" lon="8.790162"><ele>245.0</ele><time>2026-04-18T14:12:18.249Z</time></trkpt><trkpt lat="45.7891929" lon="8.7902846"><ele>245.0</ele><time>2026-04-18T14:12:19.25Z</time></trkpt><trkpt lat="45.7891802" lon="8.7904097"><ele>245.0</ele><time>2026-04-18T14:12:20.25Z</time></trkpt><trkpt lat="45.7891855" lon="8.7905448"><ele>245.0</ele><time>2026-04-18T14:12:21.25Z</time></trkpt><trkpt lat="45.789215" lon="8.7906761"><ele>245.0</ele><time>2026-04-18T14:12:22.25Z</time></trkpt><trkpt lat="45.7892533" lon="8.7908112"><ele>245.0</ele><time>2026-04-18T14:12:23.249Z</time></trkpt><trkpt lat="45.7892783" lon="8.7909541"><ele>245.0</ele><time>2026-04-18T14:12:24.249Z</time></trkpt><trkpt lat="45.7893044" lon="8.7911025"><ele>245.0</ele><time>2026-04-18T14:12:25.25Z</time></trkpt><trkpt lat="45.7893293" lon="8.7912561"><ele>244.75</ele><time>2026-04-18T14:12:26.25Z</time></trkpt><trkpt lat="45.7893526" lon="8.7914171"><ele>244.5</ele><time>2026-04-18T14:12:27.25Z</time></trkpt><trkpt lat="45.7893754" lon="8.7915826"><ele>244.25</ele><time>2026-04-18T14:12:28.25Z</time></trkpt><trkpt lat="45.7893981" lon="8.7917501"><ele>244.0</ele><time>2026-04-18T14:12:29.249Z</time></trkpt><trkpt lat="45.7894183" lon="8.7919269"><ele>244.0</ele><time>2026-04-18T14:12:30.249Z</time></trkpt><trkpt lat="45.7894372" lon="8.7921036"><ele>244.0</ele><time>2026-04-18T14:12:31.25Z</time></trkpt><trkpt lat="45.7894573" lon="8.7922895"><ele>244.0</ele><time>2026-04-18T14:12:32.249Z</time></trkpt><trkpt lat="45.7894752" lon="8.7924772"><ele>244.0</ele><time>2026-04-18T14:12:33.249Z</time></trkpt><trkpt lat="45.7894969" lon="8.7926702"><ele>244.25</ele><time>2026-04-18T14:12:34.25Z</time></trkpt><trkpt lat="45.789517" lon="8.7928676"><ele>244.5</ele><time>2026-04-18T14:12:35.249Z</time></trkpt><trkpt lat="45.7895394" lon="8.7930703"><ele>244.75</ele><time>2026-04-18T14:12:36.249Z</time></trkpt><trkpt lat="45.7895614" lon="8.7932765"><ele>245.0</ele><time>2026-04-18T14:12:37.249Z</time></trkpt><trkpt lat="45.7895837" lon="8.7934856"><ele>245.25</ele><time>2026-04-18T14:12:38.249Z</time></trkpt><trkpt lat="45.7896059" lon="8.7936945"><ele>245.5</ele><time>2026-04-18T14:12:39.249Z</time></trkpt><trkpt lat="45.7896315" lon="8.793899"><ele>245.75</ele><time>2026-04-18T14:12:40.25Z</time></trkpt><trkpt lat="45.7896669" lon="8.7940952"><ele>246.0</ele><time>2026-04-18T14:12:41.249Z</time></trkpt><trkpt lat="45.78971" lon="8.7942812"><ele>246.25</ele><time>2026-04-18T14:12:42.249Z</time></trkpt><trkpt lat="45.7897591" lon="8.7944539"><ele>246.5</ele><time>2026-04-18T14:12:43.25Z</time></trkpt><trkpt lat="45.789817" lon="8.794616"><ele>246.75</ele><time>2026-04-18T14:12:44.25Z</time></trkpt><trkpt lat="45.7898838" lon="8.7947728"><ele>247.0</ele><time>2026-04-18T14:12:45.25Z</time></trkpt><trkpt lat="45.7899509" lon="8.7949256"><ele>247.0</ele><time>2026-04-18T14:12:46.249Z</time></trkpt><trkpt lat="45.7900244" lon="8.7950859"><ele>247.0</ele><time>2026-04-18T14:12:47.249Z</time></trkpt><trkpt lat="45.7900974" lon="8.7952457"><ele>247.0</ele><time>2026-04-18T14:12:48.25Z</time></trkpt><trkpt lat="45.7901756" lon="8.7954162"><ele>247.0</ele><time>2026-04-18T14:12:49.25Z</time></trkpt><trkpt lat="45.7902603" lon="8.7955958"><ele>246.66666666666666</ele><time>2026-04-18T14:12:50.249Z</time></trkpt><trkpt lat="45.7903462" lon="8.7957777"><ele>246.33333333333331</ele><time>2026-04-18T14:12:51.249Z</time></trkpt><trkpt lat="45.7904319" lon="8.7959607"><ele>246.0</ele><time>2026-04-18T14:12:52.249Z</time></trkpt><trkpt lat="45.7905227" lon="8.796142"><ele>246.0</ele><time>2026-04-18T14:12:53.249Z</time></trkpt><trkpt lat="45.7906121" lon="8.7963191"><ele>246.0</ele><time>2026-04-18T14:12:54.249Z</time></trkpt><trkpt lat="45.7906948" lon="8.7964883"><ele>246.0</ele><time>2026-04-18T14:12:55.249Z</time></trkpt><trkpt lat="45.7907746" lon="8.7966515"><ele>246.0</ele><time>2026-04-18T14:12:56.249Z</time></trkpt><trkpt lat="45.7908532" lon="8.796814"><ele>246.0</ele><time>2026-04-18T14:12:57.25Z</time></trkpt><trkpt lat="45.7909308" lon="8.7969733"><ele>246.0</ele><time>2026-04-18T14:12:58.249Z</time></trkpt><trkpt lat="45.7910118" lon="8.7971388"><ele>246.0</ele><time>2026-04-18T14:12:59.249Z</time></trkpt><trkpt lat="45.7910953" lon="8.7973147"><ele>246.0</ele><time>2026-04-18T14:13:00.249Z</time></trkpt><trkpt lat="45.791181" lon="8.7974867"><ele>246.0</ele><time>2026-04-18T14:13:01.25Z</time></trkpt><trkpt lat="45.7912653" lon="8.797666"><ele>246.0</ele><time>2026-04-18T14:13:02.249Z</time></trkpt><trkpt lat="45.7913467" lon="8.7978514"><ele>246.0</ele><time>2026-04-18T14:13:03.249Z</time></trkpt><trkpt lat="45.7914179" lon="8.7980262"><ele>246.0</ele><time>2026-04-18T14:13:04.249Z</time></trkpt><trkpt lat="45.7914891" lon="8.7981965"><ele>246.25</ele><time>2026-04-18T14:13:05.25Z</time></trkpt><trkpt lat="45.7915608" lon="8.7983664"><ele>246.5</ele><time>2026-04-18T14:13:06.249Z</time></trkpt><trkpt lat="45.7916381" lon="8.7985406"><ele>246.75</ele><time>2026-04-18T14:13:07.25Z</time></trkpt><trkpt lat="45.7917195" lon="8.7987125"><ele>247.0</ele><time>2026-04-18T14:13:08.249Z</time></trkpt><trkpt lat="45.791809" lon="8.7988849"><ele>246.75</ele><time>2026-04-18T14:13:09.25Z</time></trkpt><trkpt lat="45.7918967" lon="8.7990539"><ele>246.5</ele><time>2026-04-18T14:13:10.25Z</time></trkpt><trkpt lat="45.7919868" lon="8.799213"><ele>246.25</ele><time>2026-04-18T14:13:11.25Z</time></trkpt><trkpt lat="45.792076" lon="8.7993662"><ele>246.0</ele><time>2026-04-18T14:13:12.251Z</time></trkpt><trkpt lat="45.7921617" lon="8.7995098"><ele>245.8</ele><time>2026-04-18T14:13:13.25Z</time></trkpt><trkpt lat="45.7922459" lon="8.7996462"><ele>245.60000000000002</ele><time>2026-04-18T14:13:14.25Z</time></trkpt><trkpt lat="45.7923145" lon="8.7997762"><ele>245.4</ele><time>2026-04-18T14:13:15.249Z</time></trkpt><trkpt lat="45.7923726" lon="8.7999021"><ele>245.2</ele><time>2026-04-18T14:13:16.249Z</time></trkpt><trkpt lat="45.792407" lon="8.8000401"><ele>245.0</ele><time>2026-04-18T14:13:17.25Z</time></trkpt><trkpt lat="45.7924117" lon="8.8001842"><ele>244.6</ele><time>2026-04-18T14:13:18.249Z</time></trkpt><trkpt lat="45.7923854" lon="8.8003287"><ele>244.2</ele><time>2026-04-18T14:13:19.25Z</time></trkpt><trkpt lat="45.7923271" lon="8.8004506"><ele>243.8</ele><time>2026-04-18T14:13:20.249Z</time></trkpt><trkpt lat="45.7922487" lon="8.8005463"><ele>243.4</ele><time>2026-04-18T14:13:21.249Z</time></trkpt><trkpt lat="45.792151" lon="8.8006245"><ele>243.0</ele><time>2026-04-18T14:13:22.25Z</time></trkpt><trkpt lat="45.7920488" lon="8.8007002"><ele>243.0</ele><time>2026-04-18T14:13:23.249Z</time></trkpt><trkpt lat="45.7919321" lon="8.8007765"><ele>243.0</ele><time>2026-04-18T14:13:24.25Z</time></trkpt><trkpt lat="45.7918097" lon="8.8008527"><ele>243.0</ele><time>2026-04-18T14:13:25.249Z</time></trkpt><trkpt lat="45.7916849" lon="8.8009264"><ele>243.0</ele><time>2026-04-18T14:13:26.249Z</time></trkpt><trkpt lat="45.7915573" lon="8.8009946"><ele>244.75</ele><time>2026-04-18T14:13:27.249Z</time></trkpt><trkpt lat="45.7914257" lon="8.801058"><ele>246.5</ele><time>2026-04-18T14:13:28.249Z</time></trkpt><trkpt lat="45.7912933" lon="8.8011188"><ele>248.25</ele><time>2026-04-18T14:13:29.25Z</time></trkpt><trkpt lat="45.7911571" lon="8.8011841"><ele>250.0</ele><time>2026-04-18T14:13:30.249Z</time></trkpt><trkpt lat="45.7910255" lon="8.8012583"><ele>251.5</ele><time>2026-04-18T14:13:31.249Z</time></trkpt><trkpt lat="45.7908927" lon="8.8013497"><ele>253.0</ele><time>2026-04-18T14:13:32.249Z</time></trkpt><trkpt lat="45.7907689" lon="8.801464"><ele>254.5</ele><time>2026-04-18T14:13:33.249Z</time></trkpt><trkpt lat="45.790657" lon="8.801599"><ele>256.0</ele><time>2026-04-18T14:13:34.249Z</time></trkpt><trkpt lat="45.7905581" lon="8.8017382"><ele>256.75</ele><time>2026-04-18T14:13:35.249Z</time></trkpt><trkpt lat="45.7904718" lon="8.8018831"><ele>257.5</ele><time>2026-04-18T14:13:36.25Z</time></trkpt><trkpt lat="45.790398" lon="8.8020428"><ele>258.25</ele><time>2026-04-18T14:13:37.249Z</time></trkpt><trkpt lat="45.7903348" lon="8.8022081"><ele>259.0</ele><time>2026-04-18T14:13:38.249Z</time></trkpt><trkpt lat="45.7902837" lon="8.8023853"><ele>259.0</ele><time>2026-04-18T14:13:39.249Z</time></trkpt><trkpt lat="45.790244" lon="8.8025747"><ele>259.0</ele><time>2026-04-18T14:13:40.249Z</time></trkpt><trkpt lat="45.7902127" lon="8.8027705"><ele>259.0</ele><time>2026-04-18T14:13:41.249Z</time></trkpt><trkpt lat="45.7901962" lon="8.8029659"><ele>259.0</ele><time>2026-04-18T14:13:42.25Z</time></trkpt><trkpt lat="45.7901949" lon="8.8031636"><ele>259.5</ele><time>2026-04-18T14:13:43.249Z</time></trkpt><trkpt lat="45.7902102" lon="8.8033571"><ele>260.0</ele><time>2026-04-18T14:13:44.25Z</time></trkpt><trkpt lat="45.790238" lon="8.8035421"><ele>260.5</ele><time>2026-04-18T14:13:45.249Z</time></trkpt><trkpt lat="45.7902758" lon="8.8037269"><ele>261.0</ele><time>2026-04-18T14:13:46.249Z</time></trkpt><trkpt lat="45.7903245" lon="8.8039098"><ele>261.0</ele><time>2026-04-18T14:13:47.249Z</time></trkpt><trkpt lat="45.7903744" lon="8.8041012"><ele>261.0</ele><time>2026-04-18T14:13:48.25Z</time></trkpt><trkpt lat="45.7904227" lon="8.804302"><ele>261.0</ele><time>2026-04-18T14:13:49.249Z</time></trkpt><trkpt lat="45.7904759" lon="8.8045032"><ele>261.0</ele><time>2026-04-18T14:13:50.25Z</time></trkpt><trkpt lat="45.7905288" lon="8.8047063"><ele>263.3333333333333</ele><time>2026-04-18T14:13:51.249Z</time></trkpt><trkpt lat="45.7905839" lon="8.8049081"><ele>265.66666666666663</ele><time>2026-04-18T14:13:52.249Z</time></trkpt><trkpt lat="45.7906375" lon="8.8051109"><ele>268.0</ele><time>2026-04-18T14:13:53.249Z</time></trkpt><trkpt lat="45.7906921" lon="8.8053087"><ele>270.3333333333333</ele><time>2026-04-18T14:13:54.249Z</time></trkpt><trkpt lat="45.790745" lon="8.8055101"><ele>272.6666666666667</ele><time>2026-04-18T14:13:55.249Z</time></trkpt><trkpt lat="45.7908" lon="8.8057108"><ele>275.0</ele><time>2026-04-18T14:13:56.25Z</time></trkpt><trkpt lat="45.7908546" lon="8.805918"><ele>272.0</ele><time>2026-04-18T14:13:57.249Z</time></trkpt><trkpt lat="45.7909064" lon="8.8061282"><ele>269.0</ele><time>2026-04-18T14:13:58.249Z</time></trkpt><trkpt lat="45.7909618" lon="8.8063367"><ele>266.0</ele><time>2026-04-18T14:13:59.249Z</time></trkpt><trkpt lat="45.7910146" lon="8.8065427"><ele>266.0</ele><time>2026-04-18T14:14:00.249Z</time></trkpt><trkpt lat="45.7910644" lon="8.8067324"><ele>266.0</ele><time>2026-04-18T14:14:01.249Z</time></trkpt><trkpt lat="45.7911128" lon="8.8069162"><ele>266.0</ele><time>2026-04-18T14:14:02.249Z</time></trkpt><trkpt lat="45.79116" lon="8.8070953"><ele>266.0</ele><time>2026-04-18T14:14:03.249Z</time></trkpt><trkpt lat="45.7912049" lon="8.8072851"><ele>267.0</ele><time>2026-04-18T14:14:04.249Z</time></trkpt><trkpt lat="45.7912535" lon="8.8074784"><ele>268.0</ele><time>2026-04-18T14:14:05.25Z</time></trkpt><trkpt lat="45.7913048" lon="8.8076679"><ele>269.0</ele><time>2026-04-18T14:14:06.249Z</time></trkpt><trkpt lat="45.7913544" lon="8.807863"><ele>270.0</ele><time>2026-04-18T14:14:07.249Z</time></trkpt><trkpt lat="45.7914012" lon="8.8080599"><ele>271.75</ele><time>2026-04-18T14:14:08.249Z</time></trkpt><trkpt lat="45.7914442" lon="8.808262"><ele>273.5</ele><time>2026-04-18T14:14:09.25Z</time></trkpt><trkpt lat="45.7914762" lon="8.8084653"><ele>275.25</ele><time>2026-04-18T14:14:10.249Z</time></trkpt><trkpt lat="45.7914944" lon="8.8086511"><ele>277.0</ele><time>2026-04-18T14:14:11.249Z</time></trkpt><trkpt lat="45.7915" lon="8.8088116"><ele>278.0</ele><time>2026-04-18T14:14:12.25Z</time></trkpt><trkpt lat="45.7914978" lon="8.8089343"><ele>279.0</ele><time>2026-04-18T14:14:13.249Z</time></trkpt><trkpt lat="45.7914835" lon="8.8091083"><ele>280.0</ele><time>2026-04-18T14:14:15.25Z</time></trkpt><trkpt lat="45.7914683" lon="8.8092491"><ele>281.0</ele><time>2026-04-18T14:14:17.249Z</time></trkpt><trkpt lat="45.7914538" lon="8.8093728"><ele>282.0</ele><time>2026-04-18T14:14:19.249Z</time></trkpt><trkpt lat="45.7914239" lon="8.8095079"><ele>282.0</ele><time>2026-04-18T14:14:21.249Z</time></trkpt><trkpt lat="45.7913867" lon="8.8096054"><ele>282.0</ele><time>2026-04-18T14:14:23.249Z</time></trkpt><trkpt lat="45.7913413" lon="8.8097272"><ele>282.0</ele><time>2026-04-18T14:14:25.25Z</time></trkpt><trkpt lat="45.7912784" lon="8.8098795"><ele>282.0</ele><time>2026-04-18T14:14:27.25Z</time></trkpt><trkpt lat="45.7912124" lon="8.8100029"><ele>282.0</ele><time>2026-04-18T14:14:29.25Z</time></trkpt><trkpt lat="45.7911451" lon="8.810112"><ele>282.6</ele><time>2026-04-18T14:14:31.25Z</time></trkpt><trkpt lat="45.7910881" lon="8.8101987"><ele>283.2</ele><time>2026-04-18T14:14:33.249Z</time></trkpt><trkpt lat="45.791019" lon="8.8102827"><ele>283.8</ele><time>2026-04-18T14:14:35.249Z</time></trkpt><trkpt lat="45.7909288" lon="8.8103765"><ele>284.4</ele><time>2026-04-18T14:14:37.249Z</time></trkpt><trkpt lat="45.7908571" lon="8.8104413"><ele>285.0</ele><time>2026-04-18T14:14:39.25Z</time></trkpt><trkpt lat="45.7907617" lon="8.8105119"><ele>285.0</ele><time>2026-04-18T14:14:41.249Z</time></trkpt><trkpt lat="45.7906686" lon="8.8105695"><ele>285.0</ele><time>2026-04-18T14:14:43.249Z</time></trkpt><trkpt lat="45.790563" lon="8.8106123"><ele>285.0</ele><time>2026-04-18T14:14:45.249Z</time></trkpt><trkpt lat="45.7904693" lon="8.8106489"><ele>285.0</ele><time>2026-04-18T14:14:47.249Z</time></trkpt><trkpt lat="45.7903825" lon="8.810665"><ele>285.0</ele><time>2026-04-18T14:14:49.248Z</time></trkpt><trkpt lat="45.7902837" lon="8.8106807"><ele>286.5</ele><time>2026-04-18T14:14:51.248Z</time></trkpt><trkpt lat="45.7901619" lon="8.8106896"><ele>288.0</ele><time>2026-04-18T14:14:53.248Z</time></trkpt><trkpt lat="45.7900922" lon="8.8106833"><ele>289.5</ele><time>2026-04-18T14:14:54.248Z</time></trkpt><trkpt lat="45.790017" lon="8.8106742"><ele>291.0</ele><time>2026-04-18T14:14:55.249Z</time></trkpt><trkpt lat="45.7899377" lon="8.8106645"><ele>292.5</ele><time>2026-04-18T14:14:56.249Z</time></trkpt><trkpt lat="45.7898463" lon="8.8106376"><ele>294.0</ele><time>2026-04-18T14:14:57.248Z</time></trkpt><trkpt lat="45.7897458" lon="8.8106026"><ele>294.0</ele><time>2026-04-18T14:14:58.248Z</time></trkpt><trkpt lat="45.7896499" lon="8.8105497"><ele>294.0</ele><time>2026-04-18T14:14:59.248Z</time></trkpt><trkpt lat="45.7895518" lon="8.8105041"><ele>294.0</ele><time>2026-04-18T14:15:00.249Z</time></trkpt><trkpt lat="45.7894545" lon="8.8104596"><ele>294.0</ele><time>2026-04-18T14:15:01.248Z</time></trkpt><trkpt lat="45.7893637" lon="8.8104166"><ele>294.0</ele><time>2026-04-18T14:15:02.249Z</time></trkpt><trkpt lat="45.7892695" lon="8.8103721"><ele>294.59999999999997</ele><time>2026-04-18T14:15:03.248Z</time></trkpt><trkpt lat="45.7891821" lon="8.8103252"><ele>295.2</ele><time>2026-04-18T14:15:04.248Z</time></trkpt><trkpt lat="45.7890932" lon="8.8102791"><ele>295.79999999999995</ele><time>2026-04-18T14:15:05.248Z</time></trkpt><trkpt lat="45.7890052" lon="8.8102295"><ele>296.4</ele><time>2026-04-18T14:15:06.248Z</time></trkpt><trkpt lat="45.7889141" lon="8.8101817"><ele>297.0</ele><time>2026-04-18T14:15:07.248Z</time></trkpt><trkpt lat="45.7888208" lon="8.8101303"><ele>297.0</ele><time>2026-04-18T14:15:08.248Z</time></trkpt><trkpt lat="45.7887259" lon="8.8100827"><ele>297.0</ele><time>2026-04-18T14:15:09.249Z</time></trkpt><trkpt lat="45.7886363" lon="8.8100254"><ele>297.0</ele><time>2026-04-18T14:15:10.248Z</time></trkpt><trkpt lat="45.7885529" lon="8.8099727"><ele>297.0</ele><time>2026-04-18T14:15:11.248Z</time></trkpt><trkpt lat="45.7884752" lon="8.8099308"><ele>297.0</ele><time>2026-04-18T14:15:12.249Z</time></trkpt><trkpt lat="45.7883925" lon="8.8098916"><ele>296.6</ele><time>2026-04-18T14:15:13.248Z</time></trkpt><trkpt lat="45.7883067" lon="8.8098458"><ele>296.2</ele><time>2026-04-18T14:15:14.248Z</time></trkpt><trkpt lat="45.7882114" lon="8.809793"><ele>295.8</ele><time>2026-04-18T14:15:15.248Z</time></trkpt><trkpt lat="45.7881086" lon="8.8097322"><ele>295.4</ele><time>2026-04-18T14:15:16.249Z</time></trkpt><trkpt lat="45.7879909" lon="8.8096683"><ele>295.0</ele><time>2026-04-18T14:15:17.248Z</time></trkpt><trkpt lat="45.7878668" lon="8.8096025"><ele>295.0</ele><time>2026-04-18T14:15:18.248Z</time></trkpt><trkpt lat="45.7877372" lon="8.8095386"><ele>295.0</ele><time>2026-04-18T14:15:19.248Z</time></trkpt><trkpt lat="45.7876041" lon="8.8094867"><ele>295.0</ele><time>2026-04-18T14:15:20.249Z</time></trkpt><trkpt lat="45.7874635" lon="8.8094383"><ele>295.0</ele><time>2026-04-18T14:15:21.249Z</time></trkpt><trkpt lat="45.7873231" lon="8.8093999"><ele>295.5</ele><time>2026-04-18T14:15:22.249Z</time></trkpt><trkpt lat="45.7871795" lon="8.8093717"><ele>296.0</ele><time>2026-04-18T14:15:23.25Z</time></trkpt><trkpt lat="45.7870342" lon="8.8093582"><ele>296.5</ele><time>2026-04-18T14:15:24.248Z</time></trkpt><trkpt lat="45.7868895" lon="8.8093578"><ele>297.0</ele><time>2026-04-18T14:15:25.248Z</time></trkpt><trkpt lat="45.7867374" lon="8.8093658"><ele>298.0</ele><time>2026-04-18T14:15:26.249Z</time></trkpt><trkpt lat="45.7865848" lon="8.8093798"><ele>299.0</ele><time>2026-04-18T14:15:27.249Z</time></trkpt><trkpt lat="45.7864369" lon="8.8094091"><ele>300.0</ele><time>2026-04-18T14:15:28.248Z</time></trkpt><trkpt lat="45.7862924" lon="8.8094468"><ele>301.0</ele><time>2026-04-18T14:15:29.249Z</time></trkpt><trkpt lat="45.7861518" lon="8.8095014"><ele>301.0</ele><time>2026-04-18T14:15:30.248Z</time></trkpt><trkpt lat="45.7860117" lon="8.8095635"><ele>301.0</ele><time>2026-04-18T14:15:31.248Z</time></trkpt><trkpt lat="45.7858761" lon="8.8096277"><ele>301.0</ele><time>2026-04-18T14:15:32.248Z</time></trkpt><trkpt lat="45.7857373" lon="8.8096999"><ele>301.0</ele><time>2026-04-18T14:15:33.248Z</time></trkpt><trkpt lat="45.7856" lon="8.8097794"><ele>302.5</ele><time>2026-04-18T14:15:34.248Z</time></trkpt><trkpt lat="45.7854625" lon="8.809856"><ele>304.0</ele><time>2026-04-18T14:15:35.249Z</time></trkpt><trkpt lat="45.7853259" lon="8.8099308"><ele>305.5</ele><time>2026-04-18T14:15:36.248Z</time></trkpt><trkpt lat="45.7851936" lon="8.8100007"><ele>307.0</ele><time>2026-04-18T14:15:37.248Z</time></trkpt><trkpt lat="45.7850623" lon="8.8100698"><ele>307.75</ele><time>2026-04-18T14:15:38.249Z</time></trkpt><trkpt lat="45.7849384" lon="8.8101337"><ele>308.5</ele><time>2026-04-18T14:15:39.248Z</time></trkpt><trkpt lat="45.784818" lon="8.8101925"><ele>309.25</ele><time>2026-04-18T14:15:40.248Z</time></trkpt><trkpt lat="45.7846952" lon="8.8102505"><ele>310.0</ele><time>2026-04-18T14:15:41.249Z</time></trkpt><trkpt lat="45.7845629" lon="8.8102931"><ele>310.0</ele><time>2026-04-18T14:15:42.248Z</time></trkpt><trkpt lat="45.7844257" lon="8.8103217"><ele>310.0</ele><time>2026-04-18T14:15:43.248Z</time></trkpt><trkpt lat="45.7842884" lon="8.8103431"><ele>310.0</ele><time>2026-04-18T14:15:44.248Z</time></trkpt><trkpt lat="45.7841461" lon="8.8103588"><ele>310.0</ele><time>2026-04-18T14:15:45.248Z</time></trkpt><trkpt lat="45.7840003" lon="8.810363"><ele>311.0</ele><time>2026-04-18T14:15:46.249Z</time></trkpt><trkpt lat="45.7838512" lon="8.810352"><ele>312.0</ele><time>2026-04-18T14:15:47.249Z</time></trkpt><trkpt lat="45.7836959" lon="8.8103297"><ele>313.0</ele><time>2026-04-18T14:15:48.248Z</time></trkpt><trkpt lat="45.7835353" lon="8.8102961"><ele>313.66666666666663</ele><time>2026-04-18T14:15:49.248Z</time></trkpt><trkpt lat="45.7833823" lon="8.8102478"><ele>314.3333333333333</ele><time>2026-04-18T14:15:50.248Z</time></trkpt><trkpt lat="45.7832358" lon="8.8101899"><ele>315.0</ele><time>2026-04-18T14:15:51.248Z</time></trkpt><trkpt lat="45.7830946" lon="8.8101221"><ele>316.5</ele><time>2026-04-18T14:15:52.249Z</time></trkpt><trkpt lat="45.7829559" lon="8.8100522"><ele>318.0</ele><time>2026-04-18T14:15:53.249Z</time></trkpt><trkpt lat="45.7828166" lon="8.8099792"><ele>319.5</ele><time>2026-04-18T14:15:54.248Z</time></trkpt><trkpt lat="45.7826739" lon="8.8099101"><ele>321.0</ele><time>2026-04-18T14:15:55.249Z</time></trkpt><trkpt lat="45.7825354" lon="8.8098333"><ele>321.0</ele><time>2026-04-18T14:15:56.249Z</time></trkpt><trkpt lat="45.7823987" lon="8.8097612"><ele>321.0</ele><time>2026-04-18T14:15:57.248Z</time></trkpt><trkpt lat="45.7822708" lon="8.8096966"><ele>321.0</ele><time>2026-04-18T14:15:58.249Z</time></trkpt><trkpt lat="45.7821468" lon="8.8096295"><ele>321.0</ele><time>2026-04-18T14:15:59.248Z</time></trkpt><trkpt lat="45.7820223" lon="8.8095677"><ele>321.0</ele><time>2026-04-18T14:16:00.248Z</time></trkpt><trkpt lat="45.7818974" lon="8.8094984"><ele>321.0</ele><time>2026-04-18T14:16:01.248Z</time></trkpt><trkpt lat="45.7817687" lon="8.8094355"><ele>321.0</ele><time>2026-04-18T14:16:02.248Z</time></trkpt><trkpt lat="45.7816337" lon="8.8093704"><ele>321.0</ele><time>2026-04-18T14:16:03.248Z</time></trkpt><trkpt lat="45.7815003" lon="8.8093001"><ele>321.0</ele><time>2026-04-18T14:16:04.248Z</time></trkpt><trkpt lat="45.7813635" lon="8.809228"><ele>321.0</ele><time>2026-04-18T14:16:05.248Z</time></trkpt><trkpt lat="45.7812221" lon="8.8091594"><ele>321.0</ele><time>2026-04-18T14:16:06.249Z</time></trkpt><trkpt lat="45.7810695" lon="8.8090962"><ele>320.6666666666667</ele><time>2026-04-18T14:16:07.248Z</time></trkpt><trkpt lat="45.7809148" lon="8.8090406"><ele>320.33333333333337</ele><time>2026-04-18T14:16:08.248Z</time></trkpt><trkpt lat="45.780755" lon="8.8089922"><ele>320.0</ele><time>2026-04-18T14:16:09.248Z</time></trkpt><trkpt lat="45.7805911" lon="8.8089564"><ele>320.0</ele><time>2026-04-18T14:16:10.249Z</time></trkpt><trkpt lat="45.7804293" lon="8.8089223"><ele>320.0</ele><time>2026-04-18T14:16:11.249Z</time></trkpt><trkpt lat="45.7802604" lon="8.8088991"><ele>320.0</ele><time>2026-04-18T14:16:12.248Z</time></trkpt><trkpt lat="45.780095" lon="8.8088805"><ele>320.0</ele><time>2026-04-18T14:16:13.248Z</time></trkpt><trkpt lat="45.7799282" lon="8.8088714"><ele>320.0</ele><time>2026-04-18T14:16:14.248Z</time></trkpt><trkpt lat="45.7797655" lon="8.8088692"><ele>320.0</ele><time>2026-04-18T14:16:15.249Z</time></trkpt><trkpt lat="45.7796083" lon="8.8088769"><ele>320.0</ele><time>2026-04-18T14:16:16.248Z</time></trkpt><trkpt lat="45.7794545" lon="8.8088912"><ele>320.0</ele><time>2026-04-18T14:16:17.248Z</time></trkpt><trkpt lat="45.7793048" lon="8.8089118"><ele>320.0</ele><time>2026-04-18T14:16:18.248Z</time></trkpt><trkpt lat="45.7791573" lon="8.8089451"><ele>320.25</ele><time>2026-04-18T14:16:19.248Z</time></trkpt><trkpt lat="45.7790083" lon="8.8089839"><ele>320.5</ele><time>2026-04-18T14:16:20.248Z</time></trkpt><trkpt lat="45.778861" lon="8.8090258"><ele>320.75</ele><time>2026-04-18T14:16:21.248Z</time></trkpt><trkpt lat="45.7787244" lon="8.8090655"><ele>321.0</ele><time>2026-04-18T14:16:22.249Z</time></trkpt><trkpt lat="45.7785964" lon="8.8091063"><ele>322.0</ele><time>2026-04-18T14:16:23.249Z</time></trkpt><trkpt lat="45.7784786" lon="8.8091486"><ele>323.0</ele><time>2026-04-18T14:16:24.248Z</time></trkpt><trkpt lat="45.7783676" lon="8.8091832"><ele>324.0</ele><time>2026-04-18T14:16:25.248Z</time></trkpt><trkpt lat="45.778265" lon="8.8092207"><ele>325.0</ele><time>2026-04-18T14:16:26.248Z</time></trkpt><trkpt lat="45.7781568" lon="8.8092573"><ele>325.0</ele><time>2026-04-18T14:16:27.249Z</time></trkpt><trkpt lat="45.7780483" lon="8.8092941"><ele>325.0</ele><time>2026-04-18T14:16:28.248Z</time></trkpt><trkpt lat="45.7779436" lon="8.80933"><ele>325.0</ele><time>2026-04-18T14:16:29.248Z</time></trkpt><trkpt lat="45.7778361" lon="8.8093673"><ele>325.0</ele><time>2026-04-18T14:16:30.248Z</time></trkpt><trkpt lat="45.7777257" lon="8.8094036"><ele>325.0</ele><time>2026-04-18T14:16:31.249Z</time></trkpt><trkpt lat="45.7776135" lon="8.8094406"><ele>326.75</ele><time>2026-04-18T14:16:32.248Z</time></trkpt><trkpt lat="45.7774989" lon="8.8094774"><ele>328.5</ele><time>2026-04-18T14:16:33.249Z</time></trkpt><trkpt lat="45.7773789" lon="8.8095136"><ele>330.25</ele><time>2026-04-18T14:16:34.248Z</time></trkpt><trkpt lat="45.777253" lon="8.8095522"><ele>332.0</ele><time>2026-04-18T14:16:35.248Z</time></trkpt><trkpt lat="45.7771223" lon="8.8095929"><ele>332.0</ele><time>2026-04-18T14:16:36.248Z</time></trkpt><trkpt lat="45.7769906" lon="8.8096357"><ele>332.0</ele><time>2026-04-18T14:16:37.249Z</time></trkpt><trkpt lat="45.7768666" lon="8.8096748"><ele>332.0</ele><time>2026-04-18T14:16:38.248Z</time></trkpt><trkpt lat="45.7767537" lon="8.8097108"><ele>332.0</ele><time>2026-04-18T14:16:39.248Z</time></trkpt><trkpt lat="45.776647" lon="8.809744"><ele>333.40000000000003</ele><time>2026-04-18T14:16:40.248Z</time></trkpt><trkpt lat="45.7765465" lon="8.8097761"><ele>334.8</ele><time>2026-04-18T14:16:41.249Z</time></trkpt><trkpt lat="45.7764518" lon="8.8098077"><ele>336.2</ele><time>2026-04-18T14:16:42.249Z</time></trkpt><trkpt lat="45.776363" lon="8.8098363"><ele>337.6</ele><time>2026-04-18T14:16:43.248Z</time></trkpt><trkpt lat="45.7762809" lon="8.8098657"><ele>339.0</ele><time>2026-04-18T14:16:44.248Z</time></trkpt><trkpt lat="45.7761988" lon="8.809893"><ele>339.0</ele><time>2026-04-18T14:16:45.248Z</time></trkpt><trkpt lat="45.7761195" lon="8.8099162"><ele>339.0</ele><time>2026-04-18T14:16:46.249Z</time></trkpt><trkpt lat="45.7760343" lon="8.8099432"><ele>339.0</ele><time>2026-04-18T14:16:47.249Z</time></trkpt><trkpt lat="45.7759496" lon="8.8099748"><ele>339.0</ele><time>2026-04-18T14:16:48.248Z</time></trkpt><trkpt lat="45.7758619" lon="8.8100068"><ele>339.0</ele><time>2026-04-18T14:16:49.248Z</time></trkpt><trkpt lat="45.7757718" lon="8.8100371"><ele>339.0</ele><time>2026-04-18T14:16:50.249Z</time></trkpt><trkpt lat="45.7756881" lon="8.8100732"><ele>341.2</ele><time>2026-04-18T14:16:51.248Z</time></trkpt><trkpt lat="45.7755877" lon="8.8101051"><ele>343.4</ele><time>2026-04-18T14:16:52.248Z</time></trkpt><trkpt lat="45.7754848" lon="8.8101383"><ele>345.6</ele><time>2026-04-18T14:16:53.249Z</time></trkpt><trkpt lat="45.7753852" lon="8.8101693"><ele>347.8</ele><time>2026-04-18T14:16:54.248Z</time></trkpt><trkpt lat="45.775287" lon="8.8101984"><ele>350.0</ele><time>2026-04-18T14:16:55.248Z</time></trkpt><trkpt lat="45.7751861" lon="8.8102321"><ele>351.0</ele><time>2026-04-18T14:16:56.248Z</time></trkpt><trkpt lat="45.7750814" lon="8.8102692"><ele>352.0</ele><time>2026-04-18T14:16:57.249Z</time></trkpt><trkpt lat="45.7749704" lon="8.8103101"><ele>353.0</ele><time>2026-04-18T14:16:58.248Z</time></trkpt><trkpt lat="45.7748494" lon="8.8103525"><ele>354.0</ele><time>2026-04-18T14:16:59.249Z</time></trkpt><trkpt lat="45.7747154" lon="8.8104"><ele>354.0</ele><time>2026-04-18T14:17:00.249Z</time></trkpt><trkpt lat="45.7745778" lon="8.8104537"><ele>354.0</ele><time>2026-04-18T14:17:01.248Z</time></trkpt><trkpt lat="45.7744392" lon="8.8105185"><ele>354.0</ele><time>2026-04-18T14:17:02.249Z</time></trkpt><trkpt lat="45.7743117" lon="8.810588"><ele>354.0</ele><time>2026-04-18T14:17:03.249Z</time></trkpt><trkpt lat="45.7741892" lon="8.8106668"><ele>354.0</ele><time>2026-04-18T14:17:04.248Z</time></trkpt><trkpt lat="45.7740657" lon="8.8107569"><ele>354.0</ele><time>2026-04-18T14:17:05.249Z</time></trkpt><trkpt lat="45.7739349" lon="8.8108781"><ele>354.0</ele><time>2026-04-18T14:17:06.249Z</time></trkpt><trkpt lat="45.7738028" lon="8.8110137"><ele>354.0</ele><time>2026-04-18T14:17:07.248Z</time></trkpt><trkpt lat="45.7736685" lon="8.8111754"><ele>354.0</ele><time>2026-04-18T14:17:08.249Z</time></trkpt><trkpt lat="45.7735368" lon="8.8113576"><ele>354.0</ele><time>2026-04-18T14:17:09.249Z</time></trkpt><trkpt lat="45.7734115" lon="8.8115552"><ele>352.3333333333333</ele><time>2026-04-18T14:17:10.248Z</time></trkpt><trkpt lat="45.7732874" lon="8.8117694"><ele>350.66666666666663</ele><time>2026-04-18T14:17:11.248Z</time></trkpt><trkpt lat="45.773176" lon="8.8120021"><ele>349.0</ele><time>2026-04-18T14:17:12.248Z</time></trkpt><trkpt lat="45.7730726" lon="8.8122512"><ele>348.3333333333333</ele><time>2026-04-18T14:17:13.248Z</time></trkpt><trkpt lat="45.7729791" lon="8.8125098"><ele>347.6666666666667</ele><time>2026-04-18T14:17:14.249Z</time></trkpt><trkpt lat="45.7729044" lon="8.8127756"><ele>347.0</ele><time>2026-04-18T14:17:15.249Z</time></trkpt><trkpt lat="45.7728291" lon="8.8130468"><ele>347.33333333333337</ele><time>2026-04-18T14:17:16.249Z</time></trkpt><trkpt lat="45.7727535" lon="8.8133193"><ele>347.6666666666667</ele><time>2026-04-18T14:17:17.248Z</time></trkpt><trkpt lat="45.7726772" lon="8.8135937"><ele>348.0</ele><time>2026-04-18T14:17:18.248Z</time></trkpt><trkpt lat="45.7726027" lon="8.813868"><ele>348.0</ele><time>2026-04-18T14:17:19.249Z</time></trkpt><trkpt lat="45.7725302" lon="8.8141453"><ele>348.0</ele><time>2026-04-18T14:17:20.249Z</time></trkpt><trkpt lat="45.7724569" lon="8.8144192"><ele>348.0</ele><time>2026-04-18T14:17:21.248Z</time></trkpt><trkpt lat="45.7723848" lon="8.8146913"><ele>348.3333333333333</ele><time>2026-04-18T14:17:22.248Z</time></trkpt><trkpt lat="45.7723127" lon="8.814961"><ele>348.66666666666663</ele><time>2026-04-18T14:17:23.248Z</time></trkpt><trkpt lat="45.7722353" lon="8.8152247"><ele>349.0</ele><time>2026-04-18T14:17:24.249Z</time></trkpt><trkpt lat="45.7721582" lon="8.8154862"><ele>349.0</ele><time>2026-04-18T14:17:25.248Z</time></trkpt><trkpt lat="45.7720742" lon="8.8157498"><ele>349.0</ele><time>2026-04-18T14:17:26.248Z</time></trkpt><trkpt lat="45.7719886" lon="8.8160294"><ele>349.0</ele><time>2026-04-18T14:17:27.248Z</time></trkpt><trkpt lat="45.7719017" lon="8.8163193"><ele>349.0</ele><time>2026-04-18T14:17:28.249Z</time></trkpt><trkpt lat="45.7718123" lon="8.8166195"><ele>349.0</ele><time>2026-04-18T14:17:29.249Z</time></trkpt><trkpt lat="45.7717164" lon="8.8169216"><ele>349.0</ele><time>2026-04-18T14:17:30.248Z</time></trkpt><trkpt lat="45.771618" lon="8.81723"><ele>349.0</ele><time>2026-04-18T14:17:31.249Z</time></trkpt><trkpt lat="45.7715252" lon="8.8175204"><ele>348.66666666666663</ele><time>2026-04-18T14:17:32.248Z</time></trkpt><trkpt lat="45.7714373" lon="8.8178019"><ele>348.3333333333333</ele><time>2026-04-18T14:17:33.248Z</time></trkpt><trkpt lat="45.7713548" lon="8.8180768"><ele>348.0</ele><time>2026-04-18T14:17:34.248Z</time></trkpt><trkpt lat="45.7712755" lon="8.8183479"><ele>349.0</ele><time>2026-04-18T14:17:35.249Z</time></trkpt><trkpt lat="45.7711998" lon="8.8186168"><ele>350.0</ele><time>2026-04-18T14:17:36.249Z</time></trkpt><trkpt lat="45.7711261" lon="8.8188827"><ele>351.0</ele><time>2026-04-18T14:17:37.248Z</time></trkpt><trkpt lat="45.7710542" lon="8.8191424"><ele>352.3333333333333</ele><time>2026-04-18T14:17:38.248Z</time></trkpt><trkpt lat="45.7709843" lon="8.8194029"><ele>353.66666666666663</ele><time>2026-04-18T14:17:39.248Z</time></trkpt><trkpt lat="45.7709175" lon="8.8196623"><ele>355.0</ele><time>2026-04-18T14:17:40.249Z</time></trkpt><trkpt lat="45.7708476" lon="8.8199189"><ele>355.0</ele><time>2026-04-18T14:17:41.248Z</time></trkpt><trkpt lat="45.7707704" lon="8.8201661"><ele>355.0</ele><time>2026-04-18T14:17:42.248Z</time></trkpt><trkpt lat="45.7706884" lon="8.820404"><ele>355.0</ele><time>2026-04-18T14:17:43.248Z</time></trkpt><trkpt lat="45.7705994" lon="8.8206341"><ele>355.0</ele><time>2026-04-18T14:17:44.249Z</time></trkpt><trkpt lat="45.7704969" lon="8.8208579"><ele>355.0</ele><time>2026-04-18T14:17:45.248Z</time></trkpt><trkpt lat="45.7703813" lon="8.821074"><ele>355.0</ele><time>2026-04-18T14:17:46.248Z</time></trkpt><trkpt lat="45.770262" lon="8.8212796"><ele>356.0</ele><time>2026-04-18T14:17:47.249Z</time></trkpt><trkpt lat="45.7701442" lon="8.821479"><ele>357.0</ele><time>2026-04-18T14:17:48.248Z</time></trkpt><trkpt lat="45.7700375" lon="8.8216741"><ele>358.0</ele><time>2026-04-18T14:17:49.248Z</time></trkpt><trkpt lat="45.7699468" lon="8.8218714"><ele>358.0</ele><time>2026-04-18T14:17:50.248Z</time></trkpt><trkpt lat="45.7698784" lon="8.8220762"><ele>358.0</ele><time>2026-04-18T14:17:51.248Z</time></trkpt><trkpt lat="45.7698406" lon="8.8222874"><ele>358.0</ele><time>2026-04-18T14:17:52.247Z</time></trkpt><trkpt lat="45.7698322" lon="8.8225015"><ele>359.66666666666663</ele><time>2026-04-18T14:17:53.247Z</time></trkpt><trkpt lat="45.7698561" lon="8.8227157"><ele>361.3333333333333</ele><time>2026-04-18T14:17:54.248Z</time></trkpt><trkpt lat="45.769915" lon="8.8229213"><ele>363.0</ele><time>2026-04-18T14:17:55.248Z</time></trkpt><trkpt lat="45.7700061" lon="8.8231088"><ele>363.0</ele><time>2026-04-18T14:17:56.248Z</time></trkpt><trkpt lat="45.7701281" lon="8.8232804"><ele>363.0</ele><time>2026-04-18T14:17:57.247Z</time></trkpt><trkpt lat="45.7702481" lon="8.8234421"><ele>363.0</ele><time>2026-04-18T14:17:58.248Z</time></trkpt><trkpt lat="45.770382" lon="8.8236119"><ele>364.3333333333333</ele><time>2026-04-18T14:17:59.247Z</time></trkpt><trkpt lat="45.7705576" lon="8.8237691"><ele>365.66666666666663</ele><time>2026-04-18T14:18:00.248Z</time></trkpt><trkpt lat="45.7707176" lon="8.8239315"><ele>367.0</ele><time>2026-04-18T14:18:01.248Z</time></trkpt><trkpt lat="45.7708709" lon="8.8240884"><ele>367.0</ele><time>2026-04-18T14:18:02.247Z</time></trkpt><trkpt lat="45.7710386" lon="8.8242533"><ele>367.0</ele><time>2026-04-18T14:18:03.248Z</time></trkpt><trkpt lat="45.7711995" lon="8.8244182"><ele>367.0</ele><time>2026-04-18T14:18:04.247Z</time></trkpt><trkpt lat="45.7713515" lon="8.8245883"><ele>367.0</ele><time>2026-04-18T14:18:05.248Z</time></trkpt><trkpt lat="45.7715077" lon="8.8247495"><ele>367.0</ele><time>2026-04-18T14:18:06.247Z</time></trkpt><trkpt lat="45.7716532" lon="8.8249059"><ele>367.0</ele><time>2026-04-18T14:18:07.248Z</time></trkpt><trkpt lat="45.7717904" lon="8.8250506"><ele>367.66666666666663</ele><time>2026-04-18T14:18:08.248Z</time></trkpt><trkpt lat="45.7719266" lon="8.825197"><ele>368.3333333333333</ele><time>2026-04-18T14:18:09.248Z</time></trkpt><trkpt lat="45.7720617" lon="8.8253423"><ele>369.0</ele><time>2026-04-18T14:18:10.248Z</time></trkpt><trkpt lat="45.7721984" lon="8.8254881"><ele>369.0</ele><time>2026-04-18T14:18:11.247Z</time></trkpt><trkpt lat="45.772335" lon="8.8256319"><ele>369.0</ele><time>2026-04-18T14:18:12.248Z</time></trkpt><trkpt lat="45.7724634" lon="8.8257679"><ele>369.0</ele><time>2026-04-18T14:18:13.248Z</time></trkpt><trkpt lat="45.7725855" lon="8.8259002"><ele>369.75</ele><time>2026-04-18T14:18:14.248Z</time></trkpt><trkpt lat="45.7727033" lon="8.8260223"><ele>370.5</ele><time>2026-04-18T14:18:15.248Z</time></trkpt><trkpt lat="45.7728068" lon="8.8261351"><ele>371.25</ele><time>2026-04-18T14:18:16.247Z</time></trkpt><trkpt lat="45.7728964" lon="8.8262364"><ele>372.0</ele><time>2026-04-18T14:18:17.248Z</time></trkpt><trkpt lat="45.7729733" lon="8.8263255"><ele>372.0</ele><time>2026-04-18T14:18:18.247Z</time></trkpt><trkpt lat="45.7730387" lon="8.8264073"><ele>372.0</ele><time>2026-04-18T14:18:19.248Z</time></trkpt><trkpt lat="45.7731082" lon="8.8265307"><ele>372.0</ele><time>2026-04-18T14:18:21.248Z</time></trkpt><trkpt lat="45.773151" lon="8.826627"><ele>372.0</ele><time>2026-04-18T14:18:23.248Z</time></trkpt><trkpt lat="45.7731828" lon="8.8267286"><ele>372.0</ele><time>2026-04-18T14:18:25.247Z</time></trkpt><trkpt lat="45.7732161" lon="8.826917"><ele>372.1666666666667</ele><time>2026-04-18T14:18:27.248Z</time></trkpt><trkpt lat="45.7732671" lon="8.827019"><ele>372.3333333333333</ele><time>2026-04-18T14:18:28.248Z</time></trkpt><trkpt lat="45.7733323" lon="8.8270814"><ele>372.5</ele><time>2026-04-18T14:18:29.247Z</time></trkpt><trkpt lat="45.7734134" lon="8.827109"><ele>372.66666666666663</ele><time>2026-04-18T14:18:30.247Z</time></trkpt><trkpt lat="45.7735011" lon="8.827108"><ele>372.8333333333333</ele><time>2026-04-18T14:18:31.247Z</time></trkpt><trkpt lat="45.7735977" lon="8.8271163"><ele>373.0</ele><time>2026-04-18T14:18:32.248Z</time></trkpt><trkpt lat="45.7736987" lon="8.8271538"><ele>373.0</ele><time>2026-04-18T14:18:33.248Z</time></trkpt><trkpt lat="45.7737978" lon="8.8272107"><ele>373.0</ele><time>2026-04-18T14:18:34.248Z</time></trkpt><trkpt lat="45.7739008" lon="8.8272803"><ele>373.0</ele><time>2026-04-18T14:18:35.247Z</time></trkpt><trkpt lat="45.7740009" lon="8.8273692"><ele>373.0</ele><time>2026-04-18T14:18:36.247Z</time></trkpt><trkpt lat="45.774103" lon="8.8274677"><ele>373.0</ele><time>2026-04-18T14:18:37.247Z</time></trkpt><trkpt lat="45.7742091" lon="8.8275731"><ele>373.0</ele><time>2026-04-18T14:18:38.248Z</time></trkpt><trkpt lat="45.7743191" lon="8.8276814"><ele>373.0</ele><time>2026-04-18T14:18:39.247Z</time></trkpt><trkpt lat="45.7744309" lon="8.8277952"><ele>373.0</ele><time>2026-04-18T14:18:40.247Z</time></trkpt><trkpt lat="45.7745467" lon="8.8279145"><ele>373.0</ele><time>2026-04-18T14:18:41.247Z</time></trkpt><trkpt lat="45.7746664" lon="8.8280383"><ele>373.0</ele><time>2026-04-18T14:18:42.247Z</time></trkpt><trkpt lat="45.7747917" lon="8.8281623"><ele>373.0</ele><time>2026-04-18T14:18:43.247Z</time></trkpt><trkpt lat="45.7749178" lon="8.8282879"><ele>373.0</ele><time>2026-04-18T14:18:44.247Z</time></trkpt><trkpt lat="45.7750465" lon="8.8284183"><ele>373.0</ele><time>2026-04-18T14:18:45.247Z</time></trkpt><trkpt lat="45.7751784" lon="8.8285577"><ele>373.0</ele><time>2026-04-18T14:18:46.248Z</time></trkpt><trkpt lat="45.7753114" lon="8.8287006"><ele>372.0</ele><time>2026-04-18T14:18:47.247Z</time></trkpt><trkpt lat="45.7754483" lon="8.8288422"><ele>371.0</ele><time>2026-04-18T14:18:48.247Z</time></trkpt><trkpt lat="45.7755851" lon="8.8289856"><ele>370.0</ele><time>2026-04-18T14:18:49.247Z</time></trkpt><trkpt lat="45.7757245" lon="8.8291303"><ele>370.0</ele><time>2026-04-18T14:18:50.247Z</time></trkpt><trkpt lat="45.7758692" lon="8.8292773"><ele>370.0</ele><time>2026-04-18T14:18:51.247Z</time></trkpt><trkpt lat="45.7760149" lon="8.8294291"><ele>370.0</ele><time>2026-04-18T14:18:52.249Z</time></trkpt><trkpt lat="45.7761613" lon="8.8295805"><ele>370.0</ele><time>2026-04-18T14:18:53.247Z</time></trkpt><trkpt lat="45.7763094" lon="8.8297386"><ele>370.0</ele><time>2026-04-18T14:18:54.248Z</time></trkpt><trkpt lat="45.7764605" lon="8.8298968"><ele>370.0</ele><time>2026-04-18T14:18:55.248Z</time></trkpt><trkpt lat="45.7766176" lon="8.8300569"><ele>370.66666666666663</ele><time>2026-04-18T14:18:56.247Z</time></trkpt><trkpt lat="45.7767705" lon="8.8302136"><ele>371.3333333333333</ele><time>2026-04-18T14:18:57.248Z</time></trkpt><trkpt lat="45.7769223" lon="8.8303691"><ele>372.0</ele><time>2026-04-18T14:18:58.247Z</time></trkpt><trkpt lat="45.7770701" lon="8.8305232"><ele>372.0</ele><time>2026-04-18T14:18:59.247Z</time></trkpt><trkpt lat="45.7772146" lon="8.8306842"><ele>372.0</ele><time>2026-04-18T14:19:00.248Z</time></trkpt><trkpt lat="45.7773488" lon="8.8308502"><ele>372.0</ele><time>2026-04-18T14:19:01.248Z</time></trkpt><trkpt lat="45.7774815" lon="8.8310179"><ele>372.0</ele><time>2026-04-18T14:19:02.247Z</time></trkpt><trkpt lat="45.7776087" lon="8.831187"><ele>372.0</ele><time>2026-04-18T14:19:03.247Z</time></trkpt><trkpt lat="45.777734" lon="8.8313638"><ele>372.0</ele><time>2026-04-18T14:19:04.247Z</time></trkpt><trkpt lat="45.7778523" lon="8.8315506"><ele>371.6666666666667</ele><time>2026-04-18T14:19:05.249Z</time></trkpt><trkpt lat="45.7779679" lon="8.8317439"><ele>371.33333333333337</ele><time>2026-04-18T14:19:06.247Z</time></trkpt><trkpt lat="45.7780806" lon="8.831946"><ele>371.0</ele><time>2026-04-18T14:19:07.247Z</time></trkpt><trkpt lat="45.7781829" lon="8.8321603"><ele>371.0</ele><time>2026-04-18T14:19:08.248Z</time></trkpt><trkpt lat="45.7782739" lon="8.8323842"><ele>371.0</ele><time>2026-04-18T14:19:09.247Z</time></trkpt><trkpt lat="45.7783645" lon="8.832612"><ele>371.0</ele><time>2026-04-18T14:19:10.248Z</time></trkpt><trkpt lat="45.7784464" lon="8.8328477"><ele>371.6666666666667</ele><time>2026-04-18T14:19:11.247Z</time></trkpt><trkpt lat="45.778516" lon="8.8330833"><ele>372.3333333333333</ele><time>2026-04-18T14:19:12.248Z</time></trkpt><trkpt lat="45.7785756" lon="8.833316"><ele>373.0</ele><time>2026-04-18T14:19:13.247Z</time></trkpt><trkpt lat="45.7786265" lon="8.8335441"><ele>375.3333333333333</ele><time>2026-04-18T14:19:14.247Z</time></trkpt><trkpt lat="45.7786672" lon="8.8337691"><ele>377.6666666666667</ele><time>2026-04-18T14:19:15.247Z</time></trkpt><trkpt lat="45.7786982" lon="8.8340023"><ele>380.0</ele><time>2026-04-18T14:19:16.248Z</time></trkpt><trkpt lat="45.7787245" lon="8.8342356"><ele>380.33333333333337</ele><time>2026-04-18T14:19:17.248Z</time></trkpt><trkpt lat="45.7787445" lon="8.8344743"><ele>380.6666666666667</ele><time>2026-04-18T14:19:18.248Z</time></trkpt><trkpt lat="45.7787589" lon="8.8347184"><ele>381.0</ele><time>2026-04-18T14:19:19.248Z</time></trkpt><trkpt lat="45.7787642" lon="8.8349703"><ele>382.0</ele><time>2026-04-18T14:19:20.248Z</time></trkpt><trkpt lat="45.7787605" lon="8.8352387"><ele>383.0</ele><time>2026-04-18T14:19:21.247Z</time></trkpt><trkpt lat="45.7787461" lon="8.835521"><ele>384.0</ele><time>2026-04-18T14:19:22.248Z</time></trkpt><trkpt lat="45.7787246" lon="8.8358132"><ele>383.3333333333333</ele><time>2026-04-18T14:19:23.247Z</time></trkpt><trkpt lat="45.7786912" lon="8.8361"><ele>382.66666666666663</ele><time>2026-04-18T14:19:24.248Z</time></trkpt><trkpt lat="45.7786488" lon="8.8363855"><ele>382.0</ele><time>2026-04-18T14:19:25.247Z</time></trkpt><trkpt lat="45.7786035" lon="8.8366599"><ele>382.3333333333333</ele><time>2026-04-18T14:19:26.248Z</time></trkpt><trkpt lat="45.7785533" lon="8.8369144"><ele>382.6666666666667</ele><time>2026-04-18T14:19:27.248Z</time></trkpt><trkpt lat="45.7785067" lon="8.8371629"><ele>383.0</ele><time>2026-04-18T14:19:28.248Z</time></trkpt><trkpt lat="45.7784603" lon="8.8373984"><ele>380.33333333333337</ele><time>2026-04-18T14:19:29.248Z</time></trkpt><trkpt lat="45.7784124" lon="8.8376343"><ele>377.6666666666667</ele><time>2026-04-18T14:19:30.248Z</time></trkpt><trkpt lat="45.7783619" lon="8.837872"><ele>375.0</ele><time>2026-04-18T14:19:31.248Z</time></trkpt><trkpt lat="45.7783079" lon="8.8381093"><ele>374.6666666666667</ele><time>2026-04-18T14:19:32.247Z</time></trkpt><trkpt lat="45.7782544" lon="8.8383481"><ele>374.33333333333337</ele><time>2026-04-18T14:19:33.247Z</time></trkpt><trkpt lat="45.7782011" lon="8.8385911"><ele>374.0</ele><time>2026-04-18T14:19:34.248Z</time></trkpt><trkpt lat="45.7781504" lon="8.8388322"><ele>373.0</ele><time>2026-04-18T14:19:35.247Z</time></trkpt><trkpt lat="45.7780956" lon="8.8390814"><ele>372.0</ele><time>2026-04-18T14:19:36.247Z</time></trkpt><trkpt lat="45.7780385" lon="8.8393303"><ele>371.0</ele><time>2026-04-18T14:19:37.248Z</time></trkpt><trkpt lat="45.777985" lon="8.8395935"><ele>370.33333333333337</ele><time>2026-04-18T14:19:38.248Z</time></trkpt><trkpt lat="45.7779289" lon="8.8398559"><ele>369.6666666666667</ele><time>2026-04-18T14:19:39.248Z</time></trkpt><trkpt lat="45.777874" lon="8.8401249"><ele>369.0</ele><time>2026-04-18T14:19:40.248Z</time></trkpt><trkpt lat="45.7778187" lon="8.8403834"><ele>368.6666666666667</ele><time>2026-04-18T14:19:41.248Z</time></trkpt><trkpt lat="45.7777628" lon="8.8406405"><ele>368.33333333333337</ele><time>2026-04-18T14:19:42.247Z</time></trkpt><trkpt lat="45.7777122" lon="8.840887"><ele>368.0</ele><time>2026-04-18T14:19:43.247Z</time></trkpt><trkpt lat="45.7776614" lon="8.8411264"><ele>367.6666666666667</ele><time>2026-04-18T14:19:44.249Z</time></trkpt><trkpt lat="45.7776142" lon="8.8413635"><ele>367.3333333333333</ele><time>2026-04-18T14:19:45.248Z</time></trkpt><trkpt lat="45.7775656" lon="8.8415922"><ele>367.0</ele><time>2026-04-18T14:19:46.247Z</time></trkpt><trkpt lat="45.7775197" lon="8.8418058"><ele>367.0</ele><time>2026-04-18T14:19:47.249Z</time></trkpt><trkpt lat="45.7774724" lon="8.8419995"><ele>367.0</ele><time>2026-04-18T14:19:48.247Z</time></trkpt><trkpt lat="45.7774243" lon="8.8421796"><ele>367.0</ele><time>2026-04-18T14:19:49.247Z</time></trkpt><trkpt lat="45.7773788" lon="8.8423567"><ele>367.0</ele><time>2026-04-18T14:19:50.248Z</time></trkpt><trkpt lat="45.7773237" lon="8.8425234"><ele>366.5</ele><time>2026-04-18T14:19:51.247Z</time></trkpt><trkpt lat="45.7772691" lon="8.8426644"><ele>366.0</ele><time>2026-04-18T14:19:52.248Z</time></trkpt><trkpt lat="45.7772216" lon="8.8427825"><ele>365.5</ele><time>2026-04-18T14:19:53.247Z</time></trkpt><trkpt lat="45.7771803" lon="8.8428803"><ele>365.0</ele><time>2026-04-18T14:19:54.247Z</time></trkpt><trkpt lat="45.7771441" lon="8.8429753"><ele>364.5</ele><time>2026-04-18T14:19:55.247Z</time></trkpt><trkpt lat="45.7770992" lon="8.8430675"><ele>364.0</ele><time>2026-04-18T14:19:56.248Z</time></trkpt><trkpt lat="45.7770436" lon="8.8431861"><ele>364.0</ele><time>2026-04-18T14:19:57.248Z</time></trkpt><trkpt lat="45.7769642" lon="8.8433275"><ele>364.0</ele><time>2026-04-18T14:19:58.247Z</time></trkpt><trkpt lat="45.7768591" lon="8.843494"><ele>364.0</ele><time>2026-04-18T14:19:59.247Z</time></trkpt><trkpt lat="45.7767208" lon="8.8436714"><ele>362.66666666666663</ele><time>2026-04-18T14:20:00.248Z</time></trkpt><trkpt lat="45.7765594" lon="8.8438582"><ele>361.3333333333333</ele><time>2026-04-18T14:20:01.248Z</time></trkpt><trkpt lat="45.7763791" lon="8.8440518"><ele>360.0</ele><time>2026-04-18T14:20:02.247Z</time></trkpt><trkpt lat="45.776181" lon="8.8442623"><ele>359.0</ele><time>2026-04-18T14:20:03.247Z</time></trkpt><trkpt lat="45.7759593" lon="8.8444804"><ele>358.0</ele><time>2026-04-18T14:20:04.247Z</time></trkpt><trkpt lat="45.7757375" lon="8.8447032"><ele>358.0</ele><time>2026-04-18T14:20:05.247Z</time></trkpt><trkpt lat="45.7755323" lon="8.8449092"><ele>358.0</ele><time>2026-04-18T14:20:06.247Z</time></trkpt><trkpt lat="45.775336" lon="8.8451115"><ele>357.5</ele><time>2026-04-18T14:20:07.247Z</time></trkpt><trkpt lat="45.7751448" lon="8.845309"><ele>357.0</ele><time>2026-04-18T14:20:08.247Z</time></trkpt><trkpt lat="45.7749554" lon="8.845497"><ele>357.0</ele><time>2026-04-18T14:20:09.247Z</time></trkpt><trkpt lat="45.7747647" lon="8.8456897"><ele>357.0</ele><time>2026-04-18T14:20:10.247Z</time></trkpt><trkpt lat="45.7745728" lon="8.8458825"><ele>356.5</ele><time>2026-04-18T14:20:11.247Z</time></trkpt><trkpt lat="45.774381" lon="8.846075"><ele>356.0</ele><time>2026-04-18T14:20:12.247Z</time></trkpt><trkpt lat="45.7741865" lon="8.8462737"><ele>356.0</ele><time>2026-04-18T14:20:13.248Z</time></trkpt><trkpt lat="45.7739945" lon="8.8464709"><ele>356.0</ele><time>2026-04-18T14:20:14.247Z</time></trkpt><trkpt lat="45.7737988" lon="8.8466672"><ele>356.0</ele><time>2026-04-18T14:20:15.248Z</time></trkpt><trkpt lat="45.7736125" lon="8.8468778"><ele>356.0</ele><time>2026-04-18T14:20:16.247Z</time></trkpt><trkpt lat="45.7734437" lon="8.8471061"><ele>349.5</ele><time>2026-04-18T14:20:17.247Z</time></trkpt><trkpt lat="45.7732914" lon="8.8473516"><ele>343.0</ele><time>2026-04-18T14:20:18.247Z</time></trkpt><trkpt lat="45.7731533" lon="8.8476238"><ele>341.5</ele><time>2026-04-18T14:20:19.247Z</time></trkpt><trkpt lat="45.7730416" lon="8.8479119"><ele>340.0</ele><time>2026-04-18T14:20:20.247Z</time></trkpt><trkpt lat="45.7729462" lon="8.8482055"><ele>340.3333333333333</ele><time>2026-04-18T14:20:21.248Z</time></trkpt><trkpt lat="45.7728714" lon="8.8485006"><ele>340.6666666666667</ele><time>2026-04-18T14:20:22.247Z</time></trkpt><trkpt lat="45.7728162" lon="8.8487998"><ele>341.0</ele><time>2026-04-18T14:20:23.247Z</time></trkpt><trkpt lat="45.7727865" lon="8.8491101"><ele>340.0</ele><time>2026-04-18T14:20:24.247Z</time></trkpt><trkpt lat="45.7727817" lon="8.849431"><ele>339.0</ele><time>2026-04-18T14:20:25.248Z</time></trkpt><trkpt lat="45.772789" lon="8.84976"><ele>339.0</ele><time>2026-04-18T14:20:26.247Z</time></trkpt><trkpt lat="45.7728077" lon="8.8500927"><ele>339.0</ele><time>2026-04-18T14:20:27.247Z</time></trkpt><trkpt lat="45.772828" lon="8.8504312"><ele>336.5</ele><time>2026-04-18T14:20:28.247Z</time></trkpt><trkpt lat="45.7728525" lon="8.8507744"><ele>334.0</ele><time>2026-04-18T14:20:29.248Z</time></trkpt><trkpt lat="45.7728743" lon="8.8511218"><ele>327.5</ele><time>2026-04-18T14:20:30.247Z</time></trkpt><trkpt lat="45.7728908" lon="8.8514614"><ele>321.0</ele><time>2026-04-18T14:20:31.248Z</time></trkpt><trkpt lat="45.7729094" lon="8.8517926"><ele>318.3333333333333</ele><time>2026-04-18T14:20:32.247Z</time></trkpt><trkpt lat="45.7729272" lon="8.8521131"><ele>315.66666666666663</ele><time>2026-04-18T14:20:33.247Z</time></trkpt><trkpt lat="45.7729404" lon="8.8524347"><ele>313.0</ele><time>2026-04-18T14:20:34.247Z</time></trkpt><trkpt lat="45.7729493" lon="8.8527559"><ele>312.0</ele><time>2026-04-18T14:20:35.248Z</time></trkpt><trkpt lat="45.7729401" lon="8.853079"><ele>311.0</ele><time>2026-04-18T14:20:36.247Z</time></trkpt><trkpt lat="45.772914" lon="8.8534039"><ele>314.0</ele><time>2026-04-18T14:20:37.248Z</time></trkpt><trkpt lat="45.7728805" lon="8.8537357"><ele>317.0</ele><time>2026-04-18T14:20:38.247Z</time></trkpt><trkpt lat="45.7728401" lon="8.8540702"><ele>318.5</ele><time>2026-04-18T14:20:39.248Z</time></trkpt><trkpt lat="45.7728012" lon="8.8544071"><ele>320.0</ele><time>2026-04-18T14:20:40.248Z</time></trkpt><trkpt lat="45.7727648" lon="8.8547428"><ele>320.0</ele><time>2026-04-18T14:20:41.248Z</time></trkpt><trkpt lat="45.7727266" lon="8.855075"><ele>320.0</ele><time>2026-04-18T14:20:42.248Z</time></trkpt><trkpt lat="45.7726909" lon="8.8554012"><ele>314.33333333333337</ele><time>2026-04-18T14:20:43.247Z</time></trkpt><trkpt lat="45.772655" lon="8.8557156"><ele>308.6666666666667</ele><time>2026-04-18T14:20:44.248Z</time></trkpt><trkpt lat="45.7726205" lon="8.8560283"><ele>303.0</ele><time>2026-04-18T14:20:45.248Z</time></trkpt><trkpt lat="45.7725902" lon="8.856331"><ele>303.0</ele><time>2026-04-18T14:20:46.248Z</time></trkpt><trkpt lat="45.7725562" lon="8.8566335"><ele>303.0</ele><time>2026-04-18T14:20:47.248Z</time></trkpt><trkpt lat="45.7725252" lon="8.8569416"><ele>303.0</ele><time>2026-04-18T14:20:48.247Z</time></trkpt><trkpt lat="45.7725028" lon="8.857253"><ele>302.6666666666667</ele><time>2026-04-18T14:20:49.247Z</time></trkpt><trkpt lat="45.7724816" lon="8.8575615"><ele>302.33333333333337</ele><time>2026-04-18T14:20:50.247Z</time></trkpt><trkpt lat="45.7724655" lon="8.8578705"><ele>302.0</ele><time>2026-04-18T14:20:51.247Z</time></trkpt><trkpt lat="45.7724528" lon="8.858179"><ele>298.6666666666667</ele><time>2026-04-18T14:20:52.247Z</time></trkpt><trkpt lat="45.7724419" lon="8.8584812"><ele>295.3333333333333</ele><time>2026-04-18T14:20:53.247Z</time></trkpt><trkpt lat="45.7724287" lon="8.858777"><ele>292.0</ele><time>2026-04-18T14:20:54.247Z</time></trkpt><trkpt lat="45.7724155" lon="8.8590632"><ele>291.66666666666663</ele><time>2026-04-18T14:20:55.247Z</time></trkpt><trkpt lat="45.7724017" lon="8.8593453"><ele>291.3333333333333</ele><time>2026-04-18T14:20:56.246Z</time></trkpt><trkpt lat="45.7723869" lon="8.859608"><ele>291.0</ele><time>2026-04-18T14:20:57.246Z</time></trkpt><trkpt lat="45.772382" lon="8.8598515"><ele>291.0</ele><time>2026-04-18T14:20:58.246Z</time></trkpt><trkpt lat="45.7723956" lon="8.8600766"><ele>291.0</ele><time>2026-04-18T14:20:59.247Z</time></trkpt><trkpt lat="45.7724153" lon="8.8602747"><ele>291.0</ele><time>2026-04-18T14:21:00.247Z</time></trkpt><trkpt lat="45.7724375" lon="8.8604452"><ele>291.0</ele><time>2026-04-18T14:21:01.247Z</time></trkpt><trkpt lat="45.7724463" lon="8.8605884"><ele>290.0</ele><time>2026-04-18T14:21:02.246Z</time></trkpt><trkpt lat="45.7724408" lon="8.8607135"><ele>289.0</ele><time>2026-04-18T14:21:03.247Z</time></trkpt><trkpt lat="45.7724081" lon="8.8608237"><ele>288.0</ele><time>2026-04-18T14:21:04.247Z</time></trkpt><trkpt lat="45.7723679" lon="8.8609568"><ele>287.0</ele><time>2026-04-18T14:21:05.246Z</time></trkpt><trkpt lat="45.7723611" lon="8.8610868"><ele>286.0</ele><time>2026-04-18T14:21:06.246Z</time></trkpt><trkpt lat="45.772398" lon="8.861186"><ele>285.0</ele><time>2026-04-18T14:21:07.246Z</time></trkpt><trkpt lat="45.7724729" lon="8.8612626"><ele>285.0</ele><time>2026-04-18T14:21:08.246Z</time></trkpt><trkpt lat="45.7725781" lon="8.8613189"><ele>285.0</ele><time>2026-04-18T14:21:09.247Z</time></trkpt><trkpt lat="45.772683" lon="8.8614147"><ele>285.0</ele><time>2026-04-18T14:21:10.246Z</time></trkpt><trkpt lat="45.7727869" lon="8.8615497"><ele>285.0</ele><time>2026-04-18T14:21:11.246Z</time></trkpt><trkpt lat="45.7728739" lon="8.8616805"><ele>284.75</ele><time>2026-04-18T14:21:12.247Z</time></trkpt><trkpt lat="45.7729549" lon="8.8618167"><ele>284.5</ele><time>2026-04-18T14:21:13.247Z</time></trkpt><trkpt lat="45.7730346" lon="8.8619676"><ele>284.25</ele><time>2026-04-18T14:21:14.246Z</time></trkpt><trkpt lat="45.7731106" lon="8.8621386"><ele>284.0</ele><time>2026-04-18T14:21:15.246Z</time></trkpt><trkpt lat="45.7731867" lon="8.8623134"><ele>284.0</ele><time>2026-04-18T14:21:16.246Z</time></trkpt><trkpt lat="45.7732678" lon="8.862504"><ele>284.0</ele><time>2026-04-18T14:21:17.246Z</time></trkpt><trkpt lat="45.7733481" lon="8.8626965"><ele>284.0</ele><time>2026-04-18T14:21:18.246Z</time></trkpt><trkpt lat="45.7734272" lon="8.8628839"><ele>283.5</ele><time>2026-04-18T14:21:19.247Z</time></trkpt><trkpt lat="45.7735035" lon="8.8630647"><ele>283.0</ele><time>2026-04-18T14:21:20.246Z</time></trkpt><trkpt lat="45.7735761" lon="8.8632386"><ele>282.5</ele><time>2026-04-18T14:21:21.246Z</time></trkpt><trkpt lat="45.7736459" lon="8.8634069"><ele>282.0</ele><time>2026-04-18T14:21:22.247Z</time></trkpt><trkpt lat="45.7737161" lon="8.8635717"><ele>281.25</ele><time>2026-04-18T14:21:23.246Z</time></trkpt><trkpt lat="45.7737826" lon="8.8637316"><ele>280.5</ele><time>2026-04-18T14:21:24.247Z</time></trkpt><trkpt lat="45.7738499" lon="8.8638887"><ele>279.75</ele><time>2026-04-18T14:21:25.246Z</time></trkpt><trkpt lat="45.773917" lon="8.8640398"><ele>279.0</ele><time>2026-04-18T14:21:26.246Z</time></trkpt><trkpt lat="45.7739779" lon="8.8641784"><ele>278.59999999999997</ele><time>2026-04-18T14:21:27.247Z</time></trkpt><trkpt lat="45.7740333" lon="8.8643112"><ele>278.2</ele><time>2026-04-18T14:21:28.246Z</time></trkpt><trkpt lat="45.7740707" lon="8.8644396"><ele>277.79999999999995</ele><time>2026-04-18T14:21:29.247Z</time></trkpt><trkpt lat="45.7740866" lon="8.8645599"><ele>277.4</ele><time>2026-04-18T14:21:30.246Z</time></trkpt><trkpt lat="45.7740851" lon="8.8646582"><ele>277.0</ele><time>2026-04-18T14:21:31.246Z</time></trkpt><trkpt lat="45.7740377" lon="8.8648191"><ele>277.0</ele><time>2026-04-18T14:21:33.246Z</time></trkpt><trkpt lat="45.7739933" lon="8.8648984"><ele>277.0</ele><time>2026-04-18T14:21:34.246Z</time></trkpt><trkpt lat="45.7739515" lon="8.865001"><ele>277.0</ele><time>2026-04-18T14:21:35.246Z</time></trkpt><trkpt lat="45.7739353" lon="8.8651051"><ele>277.0</ele><time>2026-04-18T14:21:36.246Z</time></trkpt><trkpt lat="45.7739431" lon="8.8652122"><ele>277.0</ele><time>2026-04-18T14:21:37.246Z</time></trkpt><trkpt lat="45.7739678" lon="8.8653211"><ele>277.0</ele><time>2026-04-18T14:21:38.246Z</time></trkpt><trkpt lat="45.7740027" lon="8.865427"><ele>276.6</ele><time>2026-04-18T14:21:39.247Z</time></trkpt><trkpt lat="45.7740414" lon="8.8655413"><ele>276.2</ele><time>2026-04-18T14:21:40.246Z</time></trkpt><trkpt lat="45.7740993" lon="8.8656456"><ele>275.8</ele><time>2026-04-18T14:21:41.246Z</time></trkpt><trkpt lat="45.7741808" lon="8.8657222"><ele>275.4</ele><time>2026-04-18T14:21:42.246Z</time></trkpt><trkpt lat="45.774282" lon="8.8657781"><ele>275.0</ele><time>2026-04-18T14:21:43.247Z</time></trkpt><trkpt lat="45.7743884" lon="8.8658427"><ele>275.5</ele><time>2026-04-18T14:21:44.247Z</time></trkpt><trkpt lat="45.7744968" lon="8.8659271"><ele>276.0</ele><time>2026-04-18T14:21:45.246Z</time></trkpt><trkpt lat="45.7746061" lon="8.8660211"><ele>276.5</ele><time>2026-04-18T14:21:46.247Z</time></trkpt><trkpt lat="45.7747186" lon="8.866125"><ele>277.0</ele><time>2026-04-18T14:21:47.246Z</time></trkpt><trkpt lat="45.7748343" lon="8.8662265"><ele>277.0</ele><time>2026-04-18T14:21:48.246Z</time></trkpt><trkpt lat="45.7749449" lon="8.8663277"><ele>277.0</ele><time>2026-04-18T14:21:49.246Z</time></trkpt><trkpt lat="45.7750491" lon="8.8664351"><ele>277.0</ele><time>2026-04-18T14:21:50.247Z</time></trkpt><trkpt lat="45.7751483" lon="8.8665462"><ele>277.0</ele><time>2026-04-18T14:21:51.246Z</time></trkpt><trkpt lat="45.7752411" lon="8.8666688"><ele>277.5</ele><time>2026-04-18T14:21:52.247Z</time></trkpt><trkpt lat="45.775327" lon="8.8667973"><ele>278.0</ele><time>2026-04-18T14:21:53.247Z</time></trkpt><trkpt lat="45.7754124" lon="8.8669342"><ele>278.5</ele><time>2026-04-18T14:21:54.246Z</time></trkpt><trkpt lat="45.7754914" lon="8.8670851"><ele>279.0</ele><time>2026-04-18T14:21:55.246Z</time></trkpt><trkpt lat="45.7755631" lon="8.8672408"><ele>279.0</ele><time>2026-04-18T14:21:56.247Z</time></trkpt><trkpt lat="45.7756326" lon="8.8673978"><ele>279.0</ele><time>2026-04-18T14:21:57.246Z</time></trkpt><trkpt lat="45.7756954" lon="8.8675491"><ele>279.0</ele><time>2026-04-18T14:21:58.247Z</time></trkpt><trkpt lat="45.7757471" lon="8.8677027"><ele>279.0</ele><time>2026-04-18T14:21:59.246Z</time></trkpt><trkpt lat="45.7757853" lon="8.8678514"><ele>279.0</ele><time>2026-04-18T14:22:00.246Z</time></trkpt><trkpt lat="45.7758154" lon="8.8680029"><ele>279.0</ele><time>2026-04-18T14:22:01.246Z</time></trkpt><trkpt lat="45.7758436" lon="8.8681576"><ele>279.0</ele><time>2026-04-18T14:22:02.246Z</time></trkpt><trkpt lat="45.7758667" lon="8.8682999"><ele>279.0</ele><time>2026-04-18T14:22:03.247Z</time></trkpt><trkpt lat="45.7758854" lon="8.8684315"><ele>279.0</ele><time>2026-04-18T14:22:04.246Z</time></trkpt><trkpt lat="45.7758966" lon="8.8685596"><ele>279.1666666666667</ele><time>2026-04-18T14:22:05.246Z</time></trkpt><trkpt lat="45.7759034" lon="8.8686818"><ele>279.3333333333333</ele><time>2026-04-18T14:22:06.247Z</time></trkpt><trkpt lat="45.7759124" lon="8.8688012"><ele>279.5</ele><time>2026-04-18T14:22:07.247Z</time></trkpt><trkpt lat="45.775929" lon="8.8689133"><ele>279.66666666666663</ele><time>2026-04-18T14:22:08.246Z</time></trkpt><trkpt lat="45.7759596" lon="8.8690034"><ele>279.8333333333333</ele><time>2026-04-18T14:22:09.246Z</time></trkpt><trkpt lat="45.7760043" lon="8.8690701"><ele>280.0</ele><time>2026-04-18T14:22:10.246Z</time></trkpt><trkpt lat="45.7760924" lon="8.8691627"><ele>280.0</ele><time>2026-04-18T14:22:12.247Z</time></trkpt><trkpt lat="45.7761409" lon="8.8692538"><ele>280.0</ele><time>2026-04-18T14:22:15.247Z</time></trkpt><trkpt lat="45.7761518" lon="8.8693525"><ele>280.0</ele><time>2026-04-18T14:22:18.247Z</time></trkpt><trkpt lat="45.7761384" lon="8.8694586"><ele>280.0</ele><time>2026-04-18T14:22:21.247Z</time></trkpt><trkpt lat="45.7761022" lon="8.8696"><ele>280.0</ele><time>2026-04-18T14:22:27.246Z</time></trkpt><trkpt lat="45.77607" lon="8.8696935"><ele>280.0</ele><time>2026-04-18T14:22:28.246Z</time></trkpt><trkpt lat="45.7760487" lon="8.869815"><ele>280.2</ele><time>2026-04-18T14:22:29.248Z</time></trkpt><trkpt lat="45.7760479" lon="8.8699497"><ele>280.4</ele><time>2026-04-18T14:22:30.246Z</time></trkpt><trkpt lat="45.7760734" lon="8.870086"><ele>280.6</ele><time>2026-04-18T14:22:31.246Z</time></trkpt><trkpt lat="45.7761305" lon="8.8702031"><ele>280.8</ele><time>2026-04-18T14:22:32.247Z</time></trkpt><trkpt lat="45.7762148" lon="8.8702938"><ele>281.0</ele><time>2026-04-18T14:22:33.246Z</time></trkpt><trkpt lat="45.7763177" lon="8.8703471"><ele>281.40000000000003</ele><time>2026-04-18T14:22:34.247Z</time></trkpt><trkpt lat="45.7764181" lon="8.870391"><ele>281.8</ele><time>2026-04-18T14:22:35.247Z</time></trkpt><trkpt lat="45.7765127" lon="8.8704542"><ele>282.20000000000005</ele><time>2026-04-18T14:22:36.246Z</time></trkpt><trkpt lat="45.7765949" lon="8.8705437"><ele>282.6</ele><time>2026-04-18T14:22:37.246Z</time></trkpt><trkpt lat="45.7766774" lon="8.870618"><ele>283.0</ele><time>2026-04-18T14:22:38.247Z</time></trkpt><trkpt lat="45.7767702" lon="8.8706597"><ele>283.16666666666663</ele><time>2026-04-18T14:22:39.247Z</time></trkpt><trkpt lat="45.7768554" lon="8.8706887"><ele>283.3333333333333</ele><time>2026-04-18T14:22:40.246Z</time></trkpt><trkpt lat="45.7769305" lon="8.8707309"><ele>283.5</ele><time>2026-04-18T14:22:41.246Z</time></trkpt><trkpt lat="45.7769964" lon="8.8707946"><ele>283.6666666666667</ele><time>2026-04-18T14:22:42.247Z</time></trkpt><trkpt lat="45.7770529" lon="8.8708891"><ele>283.83333333333337</ele><time>2026-04-18T14:22:43.246Z</time></trkpt><trkpt lat="45.7771182" lon="8.8709845"><ele>284.0</ele><time>2026-04-18T14:22:44.246Z</time></trkpt><trkpt lat="45.7771987" lon="8.8710627"><ele>284.2</ele><time>2026-04-18T14:22:45.246Z</time></trkpt><trkpt lat="45.7772885" lon="8.8711214"><ele>284.4</ele><time>2026-04-18T14:22:46.247Z</time></trkpt><trkpt lat="45.7773865" lon="8.871179"><ele>284.6</ele><time>2026-04-18T14:22:47.246Z</time></trkpt><trkpt lat="45.7774908" lon="8.8712344"><ele>284.8</ele><time>2026-04-18T14:22:48.247Z</time></trkpt><trkpt lat="45.7776044" lon="8.871293"><ele>285.0</ele><time>2026-04-18T14:22:49.246Z</time></trkpt><trkpt lat="45.7777229" lon="8.8713481"><ele>285.0</ele><time>2026-04-18T14:22:50.247Z</time></trkpt><trkpt lat="45.7778493" lon="8.8714028"><ele>285.0</ele><time>2026-04-18T14:22:51.247Z</time></trkpt><trkpt lat="45.7779762" lon="8.8714636"><ele>285.0</ele><time>2026-04-18T14:22:52.247Z</time></trkpt><trkpt lat="45.7781035" lon="8.8715235"><ele>285.0</ele><time>2026-04-18T14:22:53.246Z</time></trkpt><trkpt lat="45.7782233" lon="8.8715757"><ele>285.0</ele><time>2026-04-18T14:22:54.247Z</time></trkpt><trkpt lat="45.7783345" lon="8.8716285"><ele>285.0</ele><time>2026-04-18T14:22:55.246Z</time></trkpt><trkpt lat="45.7784244" lon="8.8717008"><ele>285.0</ele><time>2026-04-18T14:22:56.247Z</time></trkpt><trkpt lat="45.7784821" lon="8.8718038"><ele>285.0</ele><time>2026-04-18T14:22:57.246Z</time></trkpt><trkpt lat="45.7785135" lon="8.8719371"><ele>285.0</ele><time>2026-04-18T14:22:58.246Z</time></trkpt><trkpt lat="45.7785227" lon="8.8720975"><ele>285.0</ele><time>2026-04-18T14:22:59.246Z</time></trkpt><trkpt lat="45.778518" lon="8.8722536"><ele>285.0</ele><time>2026-04-18T14:23:00.247Z</time></trkpt><trkpt lat="45.7785352" lon="8.872387"><ele>285.0</ele><time>2026-04-18T14:23:01.246Z</time></trkpt><trkpt lat="45.7785815" lon="8.872493"><ele>285.0</ele><time>2026-04-18T14:23:02.246Z</time></trkpt><trkpt lat="45.7786573" lon="8.8725601"><ele>285.0</ele><time>2026-04-18T14:23:03.246Z</time></trkpt><trkpt lat="45.7787619" lon="8.8725843"><ele>285.0</ele><time>2026-04-18T14:23:04.247Z</time></trkpt><trkpt lat="45.7788914" lon="8.8725725"><ele>285.0</ele><time>2026-04-18T14:23:05.247Z</time></trkpt><trkpt lat="45.7790363" lon="8.8725382"><ele>285.0</ele><time>2026-04-18T14:23:06.246Z</time></trkpt><trkpt lat="45.779195" lon="8.8724883"><ele>285.0</ele><time>2026-04-18T14:23:07.247Z</time></trkpt><trkpt lat="45.779366" lon="8.8724386"><ele>284.6666666666667</ele><time>2026-04-18T14:23:08.246Z</time></trkpt><trkpt lat="45.7795451" lon="8.872386"><ele>284.33333333333337</ele><time>2026-04-18T14:23:09.247Z</time></trkpt><trkpt lat="45.7797283" lon="8.872328"><ele>284.0</ele><time>2026-04-18T14:23:10.246Z</time></trkpt><trkpt lat="45.7799113" lon="8.8722522"><ele>284.0</ele><time>2026-04-18T14:23:11.246Z</time></trkpt><trkpt lat="45.7800937" lon="8.8721658"><ele>284.0</ele><time>2026-04-18T14:23:12.246Z</time></trkpt><trkpt lat="45.7802692" lon="8.8720582"><ele>284.0</ele><time>2026-04-18T14:23:13.247Z</time></trkpt><trkpt lat="45.7804396" lon="8.8719317"><ele>284.0</ele><time>2026-04-18T14:23:14.247Z</time></trkpt><trkpt lat="45.7806057" lon="8.8717893"><ele>284.0</ele><time>2026-04-18T14:23:15.246Z</time></trkpt><trkpt lat="45.780763" lon="8.8716341"><ele>284.0</ele><time>2026-04-18T14:23:16.247Z</time></trkpt><trkpt lat="45.7809244" lon="8.8714813"><ele>284.33333333333337</ele><time>2026-04-18T14:23:17.247Z</time></trkpt><trkpt lat="45.7810864" lon="8.8713294"><ele>284.6666666666667</ele><time>2026-04-18T14:23:18.247Z</time></trkpt><trkpt lat="45.7812516" lon="8.8711771"><ele>285.0</ele><time>2026-04-18T14:23:19.246Z</time></trkpt><trkpt lat="45.7814159" lon="8.8710183"><ele>285.3333333333333</ele><time>2026-04-18T14:23:20.246Z</time></trkpt><trkpt lat="45.7815848" lon="8.87086"><ele>285.66666666666663</ele><time>2026-04-18T14:23:21.246Z</time></trkpt><trkpt lat="45.7817528" lon="8.8707006"><ele>286.0</ele><time>2026-04-18T14:23:22.246Z</time></trkpt><trkpt lat="45.7819211" lon="8.8705388"><ele>287.0</ele><time>2026-04-18T14:23:23.247Z</time></trkpt><trkpt lat="45.7820892" lon="8.870375"><ele>288.0</ele><time>2026-04-18T14:23:24.247Z</time></trkpt><trkpt lat="45.7822561" lon="8.8702096"><ele>289.0</ele><time>2026-04-18T14:23:25.246Z</time></trkpt><trkpt lat="45.782425" lon="8.870047"><ele>289.0</ele><time>2026-04-18T14:23:26.246Z</time></trkpt><trkpt lat="45.7825946" lon="8.8698833"><ele>289.0</ele><time>2026-04-18T14:23:27.246Z</time></trkpt><trkpt lat="45.7827634" lon="8.8697215"><ele>289.0</ele><time>2026-04-18T14:23:28.246Z</time></trkpt><trkpt lat="45.7829318" lon="8.8695584"><ele>289.66666666666663</ele><time>2026-04-18T14:23:29.246Z</time></trkpt><trkpt lat="45.7831014" lon="8.8693905"><ele>290.3333333333333</ele><time>2026-04-18T14:23:30.247Z</time></trkpt><trkpt lat="45.783272" lon="8.8692248"><ele>291.0</ele><time>2026-04-18T14:23:31.247Z</time></trkpt><trkpt lat="45.7834485" lon="8.8690638"><ele>294.0</ele><time>2026-04-18T14:23:32.246Z</time></trkpt><trkpt lat="45.78363" lon="8.8689183"><ele>297.0</ele><time>2026-04-18T14:23:33.246Z</time></trkpt><trkpt lat="45.7838226" lon="8.8688049"><ele>300.0</ele><time>2026-04-18T14:23:34.246Z</time></trkpt><trkpt lat="45.7840122" lon="8.8686977"><ele>300.0</ele><time>2026-04-18T14:23:35.246Z</time></trkpt><trkpt lat="45.7842171" lon="8.8686476"><ele>300.0</ele><time>2026-04-18T14:23:36.246Z</time></trkpt><trkpt lat="45.7844047" lon="8.8685779"><ele>300.0</ele><time>2026-04-18T14:23:37.247Z</time></trkpt><trkpt lat="45.7845787" lon="8.868515"><ele>302.6666666666667</ele><time>2026-04-18T14:23:38.246Z</time></trkpt><trkpt lat="45.7847388" lon="8.8684474"><ele>305.33333333333337</ele><time>2026-04-18T14:23:39.246Z</time></trkpt><trkpt lat="45.7848809" lon="8.868353"><ele>308.0</ele><time>2026-04-18T14:23:40.247Z</time></trkpt><trkpt lat="45.7850161" lon="8.868232"><ele>308.0</ele><time>2026-04-18T14:23:41.246Z</time></trkpt><trkpt lat="45.7851454" lon="8.8680853"><ele>308.0</ele><time>2026-04-18T14:23:42.247Z</time></trkpt><trkpt lat="45.7852735" lon="8.8679271"><ele>308.0</ele><time>2026-04-18T14:23:43.246Z</time></trkpt><trkpt lat="45.7854029" lon="8.8677526"><ele>310.33333333333337</ele><time>2026-04-18T14:23:44.246Z</time></trkpt><trkpt lat="45.7855299" lon="8.8675687"><ele>312.6666666666667</ele><time>2026-04-18T14:23:45.246Z</time></trkpt><trkpt lat="45.7856606" lon="8.8674011"><ele>315.0</ele><time>2026-04-18T14:23:46.246Z</time></trkpt><trkpt lat="45.7857783" lon="8.8672356"><ele>315.0</ele><time>2026-04-18T14:23:47.246Z</time></trkpt><trkpt lat="45.7858756" lon="8.8670747"><ele>315.0</ele><time>2026-04-18T14:23:48.246Z</time></trkpt><trkpt lat="45.7859524" lon="8.8668932"><ele>315.0</ele><time>2026-04-18T14:23:49.247Z</time></trkpt><trkpt lat="45.7859998" lon="8.8666926"><ele>315.0</ele><time>2026-04-18T14:23:50.247Z</time></trkpt><trkpt lat="45.7860262" lon="8.8664887"><ele>317.0</ele><time>2026-04-18T14:23:51.246Z</time></trkpt><trkpt lat="45.7860369" lon="8.866312"><ele>319.0</ele><time>2026-04-18T14:23:52.246Z</time></trkpt><trkpt lat="45.7860589" lon="8.8661525"><ele>321.0</ele><time>2026-04-18T14:23:53.245Z</time></trkpt><trkpt lat="45.7861128" lon="8.8660411"><ele>323.0</ele><time>2026-04-18T14:23:54.245Z</time></trkpt><trkpt lat="45.7861925" lon="8.8659719"><ele>325.0</ele><time>2026-04-18T14:23:55.246Z</time></trkpt><trkpt lat="45.7862776" lon="8.8659659"><ele>325.0</ele><time>2026-04-18T14:23:56.245Z</time></trkpt><trkpt lat="45.7863545" lon="8.8660105"><ele>325.0</ele><time>2026-04-18T14:23:57.245Z</time></trkpt><trkpt lat="45.7864012" lon="8.8661029"><ele>325.0</ele><time>2026-04-18T14:23:58.246Z</time></trkpt><trkpt lat="45.7864132" lon="8.8662178"><ele>325.0</ele><time>2026-04-18T14:23:59.245Z</time></trkpt><trkpt lat="45.786405" lon="8.866363"><ele>325.0</ele><time>2026-04-18T14:24:00.246Z</time></trkpt><trkpt lat="45.7863886" lon="8.8665377"><ele>325.0</ele><time>2026-04-18T14:24:01.246Z</time></trkpt><trkpt lat="45.7863721" lon="8.866733"><ele>325.0</ele><time>2026-04-18T14:24:02.246Z</time></trkpt><trkpt lat="45.7863541" lon="8.8669302"><ele>325.0</ele><time>2026-04-18T14:24:03.245Z</time></trkpt><trkpt lat="45.7863327" lon="8.8671245"><ele>325.0</ele><time>2026-04-18T14:24:04.245Z</time></trkpt><trkpt lat="45.786326" lon="8.8672973"><ele>326.2</ele><time>2026-04-18T14:24:05.245Z</time></trkpt><trkpt lat="45.7863504" lon="8.8674509"><ele>327.4</ele><time>2026-04-18T14:24:06.246Z</time></trkpt><trkpt lat="45.786413" lon="8.8675768"><ele>328.6</ele><time>2026-04-18T14:24:07.245Z</time></trkpt><trkpt lat="45.7864902" lon="8.8676733"><ele>329.8</ele><time>2026-04-18T14:24:08.245Z</time></trkpt><trkpt lat="45.7865764" lon="8.8677536"><ele>331.0</ele><time>2026-04-18T14:24:09.245Z</time></trkpt><trkpt lat="45.7866728" lon="8.8678088"><ele>332.0</ele><time>2026-04-18T14:24:10.245Z</time></trkpt><trkpt lat="45.7867799" lon="8.8678163"><ele>333.0</ele><time>2026-04-18T14:24:11.245Z</time></trkpt><trkpt lat="45.7868913" lon="8.8678217"><ele>334.0</ele><time>2026-04-18T14:24:12.246Z</time></trkpt><trkpt lat="45.7870269" lon="8.8677486"><ele>335.0</ele><time>2026-04-18T14:24:13.245Z</time></trkpt><trkpt lat="45.7871541" lon="8.8677066"><ele>335.2</ele><time>2026-04-18T14:24:14.246Z</time></trkpt><trkpt lat="45.7872823" lon="8.8676626"><ele>335.4</ele><time>2026-04-18T14:24:15.245Z</time></trkpt><trkpt lat="45.787399" lon="8.8676217"><ele>335.6</ele><time>2026-04-18T14:24:16.245Z</time></trkpt><trkpt lat="45.7875019" lon="8.8675843"><ele>335.8</ele><time>2026-04-18T14:24:17.245Z</time></trkpt><trkpt lat="45.787583" lon="8.8675547"><ele>336.0</ele><time>2026-04-18T14:24:18.245Z</time></trkpt><trkpt lat="45.7876783" lon="8.8675264"><ele>336.1666666666667</ele><time>2026-04-18T14:24:20.245Z</time></trkpt><trkpt lat="45.7877473" lon="8.8675033"><ele>336.3333333333333</ele><time>2026-04-18T14:24:31.246Z</time></trkpt><trkpt lat="45.7877835" lon="8.8673674"><ele>336.5</ele><time>2026-04-18T14:24:33.245Z</time></trkpt><trkpt lat="45.7877745" lon="8.8672713"><ele>336.66666666666663</ele><time>2026-04-18T14:24:34.245Z</time></trkpt><trkpt lat="45.7877594" lon="8.8671579"><ele>336.8333333333333</ele><time>2026-04-18T14:24:35.245Z</time></trkpt><trkpt lat="45.7877492" lon="8.8670363"><ele>337.0</ele><time>2026-04-18T14:24:36.245Z</time></trkpt><trkpt lat="45.7877584" lon="8.8669192"><ele>337.0</ele><time>2026-04-18T14:24:37.245Z</time></trkpt><trkpt lat="45.7877927" lon="8.866826"><ele>337.0</ele><time>2026-04-18T14:24:38.245Z</time></trkpt><trkpt lat="45.7878563" lon="8.8667757"><ele>337.0</ele><time>2026-04-18T14:24:39.245Z</time></trkpt><trkpt lat="45.7879365" lon="8.8667606"><ele>337.0</ele><time>2026-04-18T14:24:40.245Z</time></trkpt><trkpt lat="45.7880224" lon="8.86675"><ele>337.0</ele><time>2026-04-18T14:24:41.245Z</time></trkpt><trkpt lat="45.7881173" lon="8.8667398"><ele>337.0</ele><time>2026-04-18T14:24:42.245Z</time></trkpt><trkpt lat="45.7882146" lon="8.8667255"><ele>337.0</ele><time>2026-04-18T14:24:43.246Z</time></trkpt><trkpt lat="45.7883078" lon="8.8667121"><ele>337.0</ele><time>2026-04-18T14:24:44.245Z</time></trkpt><trkpt lat="45.7883991" lon="8.8666968"><ele>337.0</ele><time>2026-04-18T14:24:45.246Z</time></trkpt><trkpt lat="45.7884823" lon="8.8666815"><ele>337.0</ele><time>2026-04-18T14:24:46.245Z</time></trkpt><trkpt lat="45.7885668" lon="8.8666622"><ele>337.0</ele><time>2026-04-18T14:24:47.245Z</time></trkpt><trkpt lat="45.7886424" lon="8.8666431"><ele>337.0</ele><time>2026-04-18T14:24:48.245Z</time></trkpt><trkpt lat="45.7887288" lon="8.8666195"><ele>337.0</ele><time>2026-04-18T14:24:49.245Z</time></trkpt><trkpt lat="45.7888201" lon="8.8665981"><ele>337.0</ele><time>2026-04-18T14:24:50.246Z</time></trkpt><trkpt lat="45.7889137" lon="8.8665737"><ele>337.0</ele><time>2026-04-18T14:24:51.245Z</time></trkpt><trkpt lat="45.7890149" lon="8.8665482"><ele>337.0</ele><time>2026-04-18T14:24:52.245Z</time></trkpt><trkpt lat="45.7891181" lon="8.8665285"><ele>337.0</ele><time>2026-04-18T14:24:53.245Z</time></trkpt><trkpt lat="45.7892235" lon="8.8665076"><ele>337.0</ele><time>2026-04-18T14:24:54.245Z</time></trkpt><trkpt lat="45.7893339" lon="8.8664876"><ele>337.0</ele><time>2026-04-18T14:24:55.245Z</time></trkpt><trkpt lat="45.7894466" lon="8.8664647"><ele>337.0</ele><time>2026-04-18T14:24:56.245Z</time></trkpt><trkpt lat="45.7895643" lon="8.8664433"><ele>337.0</ele><time>2026-04-18T14:24:57.246Z</time></trkpt><trkpt lat="45.7896864" lon="8.8664242"><ele>336.8333333333333</ele><time>2026-04-18T14:24:58.246Z</time></trkpt><trkpt lat="45.7897995" lon="8.8664171"><ele>336.66666666666663</ele><time>2026-04-18T14:24:59.245Z</time></trkpt><trkpt lat="45.7898967" lon="8.8664152"><ele>336.5</ele><time>2026-04-18T14:25:00.246Z</time></trkpt><trkpt lat="45.7899717" lon="8.8664343"><ele>336.3333333333333</ele><time>2026-04-18T14:25:01.245Z</time></trkpt><trkpt lat="45.7900348" lon="8.866482"><ele>336.1666666666667</ele><time>2026-04-18T14:25:02.245Z</time></trkpt><trkpt lat="45.7900979" lon="8.8665292"><ele>336.0</ele><time>2026-04-18T14:25:03.246Z</time></trkpt><trkpt lat="45.7902205" lon="8.8665073"><ele>336.3333333333333</ele><time>2026-04-18T14:25:05.245Z</time></trkpt><trkpt lat="45.7902892" lon="8.866485"><ele>336.6666666666667</ele><time>2026-04-18T14:25:06.246Z</time></trkpt><trkpt lat="45.7903636" lon="8.866489"><ele>337.0</ele><time>2026-04-18T14:25:07.245Z</time></trkpt><trkpt lat="45.7904361" lon="8.8665108"><ele>337.33333333333337</ele><time>2026-04-18T14:25:08.245Z</time></trkpt><trkpt lat="45.7905122" lon="8.866536"><ele>337.6666666666667</ele><time>2026-04-18T14:25:09.245Z</time></trkpt><trkpt lat="45.7905917" lon="8.8665667"><ele>338.0</ele><time>2026-04-18T14:25:10.245Z</time></trkpt><trkpt lat="45.7906789" lon="8.8665955"><ele>338.0</ele><time>2026-04-18T14:25:11.245Z</time></trkpt><trkpt lat="45.7907698" lon="8.8666384"><ele>338.0</ele><time>2026-04-18T14:25:12.245Z</time></trkpt><trkpt lat="45.7908726" lon="8.8666894"><ele>338.0</ele><time>2026-04-18T14:25:13.245Z</time></trkpt><trkpt lat="45.7909868" lon="8.866751"><ele>338.0</ele><time>2026-04-18T14:25:14.245Z</time></trkpt><trkpt lat="45.7911026" lon="8.8668104"><ele>338.0</ele><time>2026-04-18T14:25:15.246Z</time></trkpt><trkpt lat="45.7912274" lon="8.8668718"><ele>338.5</ele><time>2026-04-18T14:25:16.245Z</time></trkpt><trkpt lat="45.7913526" lon="8.8669445"><ele>339.0</ele><time>2026-04-18T14:25:17.246Z</time></trkpt><trkpt lat="45.7914772" lon="8.8670283"><ele>339.5</ele><time>2026-04-18T14:25:18.245Z</time></trkpt><trkpt lat="45.7916027" lon="8.8671189"><ele>340.0</ele><time>2026-04-18T14:25:19.245Z</time></trkpt><trkpt lat="45.7917287" lon="8.8672123"><ele>339.75</ele><time>2026-04-18T14:25:20.245Z</time></trkpt><trkpt lat="45.7918531" lon="8.8673108"><ele>339.5</ele><time>2026-04-18T14:25:21.245Z</time></trkpt><trkpt lat="45.7919796" lon="8.86741"><ele>339.25</ele><time>2026-04-18T14:25:22.245Z</time></trkpt><trkpt lat="45.7921076" lon="8.867511"><ele>339.0</ele><time>2026-04-18T14:25:23.246Z</time></trkpt><trkpt lat="45.7922358" lon="8.867612"><ele>339.0</ele><time>2026-04-18T14:25:24.245Z</time></trkpt><trkpt lat="45.7923579" lon="8.8677255"><ele>339.0</ele><time>2026-04-18T14:25:25.245Z</time></trkpt><trkpt lat="45.7924748" lon="8.8678536"><ele>339.0</ele><time>2026-04-18T14:25:26.245Z</time></trkpt><trkpt lat="45.7925914" lon="8.8679824"><ele>339.0</ele><time>2026-04-18T14:25:27.246Z</time></trkpt><trkpt lat="45.792703" lon="8.8681125"><ele>339.0</ele><time>2026-04-18T14:25:28.245Z</time></trkpt><trkpt lat="45.7928142" lon="8.8682353"><ele>339.0</ele><time>2026-04-18T14:25:29.246Z</time></trkpt><trkpt lat="45.7929241" lon="8.8683539"><ele>339.0</ele><time>2026-04-18T14:25:30.245Z</time></trkpt><trkpt lat="45.7930349" lon="8.8684744"><ele>339.0</ele><time>2026-04-18T14:25:31.246Z</time></trkpt><trkpt lat="45.7931452" lon="8.8685955"><ele>339.75</ele><time>2026-04-18T14:25:32.246Z</time></trkpt><trkpt lat="45.7932556" lon="8.8687195"><ele>340.5</ele><time>2026-04-18T14:25:33.246Z</time></trkpt><trkpt lat="45.7933672" lon="8.8688461"><ele>341.25</ele><time>2026-04-18T14:25:34.246Z</time></trkpt><trkpt lat="45.7934823" lon="8.8689731"><ele>342.0</ele><time>2026-04-18T14:25:35.245Z</time></trkpt><trkpt lat="45.7935956" lon="8.8691024"><ele>342.0</ele><time>2026-04-18T14:25:36.246Z</time></trkpt><trkpt lat="45.7937023" lon="8.8692237"><ele>342.0</ele><time>2026-04-18T14:25:37.246Z</time></trkpt><trkpt lat="45.7938039" lon="8.8693341"><ele>342.0</ele><time>2026-04-18T14:25:38.246Z</time></trkpt><trkpt lat="45.7938993" lon="8.8694405"><ele>342.0</ele><time>2026-04-18T14:25:39.246Z</time></trkpt><trkpt lat="45.793996" lon="8.8695511"><ele>341.75</ele><time>2026-04-18T14:25:40.245Z</time></trkpt><trkpt lat="45.7940983" lon="8.8696618"><ele>341.5</ele><time>2026-04-18T14:25:41.246Z</time></trkpt><trkpt lat="45.7942017" lon="8.8697789"><ele>341.25</ele><time>2026-04-18T14:25:42.245Z</time></trkpt><trkpt lat="45.7943061" lon="8.8699014"><ele>341.0</ele><time>2026-04-18T14:25:43.246Z</time></trkpt><trkpt lat="45.7944034" lon="8.8700136"><ele>342.75</ele><time>2026-04-18T14:25:44.245Z</time></trkpt><trkpt lat="45.7945018" lon="8.8701254"><ele>344.5</ele><time>2026-04-18T14:25:45.245Z</time></trkpt><trkpt lat="45.7946033" lon="8.8702404"><ele>346.25</ele><time>2026-04-18T14:25:46.245Z</time></trkpt><trkpt lat="45.7947059" lon="8.8703581"><ele>348.0</ele><time>2026-04-18T14:25:47.246Z</time></trkpt><trkpt lat="45.7948112" lon="8.8704772"><ele>348.0</ele><time>2026-04-18T14:25:48.245Z</time></trkpt><trkpt lat="45.7949177" lon="8.8705972"><ele>348.0</ele><time>2026-04-18T14:25:49.246Z</time></trkpt><trkpt lat="45.7950295" lon="8.870714"><ele>348.0</ele><time>2026-04-18T14:25:50.245Z</time></trkpt><trkpt lat="45.7951481" lon="8.8708264"><ele>348.0</ele><time>2026-04-18T14:25:51.245Z</time></trkpt><trkpt lat="45.7952705" lon="8.8709274"><ele>346.25</ele><time>2026-04-18T14:25:52.245Z</time></trkpt><trkpt lat="45.7953911" lon="8.8710358"><ele>344.5</ele><time>2026-04-18T14:25:53.245Z</time></trkpt><trkpt lat="45.7954988" lon="8.8711675"><ele>342.75</ele><time>2026-04-18T14:25:54.247Z</time></trkpt><trkpt lat="45.7956093" lon="8.8713137"><ele>341.0</ele><time>2026-04-18T14:25:55.245Z</time></trkpt><trkpt lat="45.7956674" lon="8.8714952"><ele>341.0</ele><time>2026-04-18T14:25:56.245Z</time></trkpt><trkpt lat="45.7957185" lon="8.8716826"><ele>341.0</ele><time>2026-04-18T14:25:57.246Z</time></trkpt><trkpt lat="45.7957595" lon="8.8718771"><ele>341.0</ele><time>2026-04-18T14:25:58.246Z</time></trkpt><trkpt lat="45.7957953" lon="8.8720804"><ele>341.0</ele><time>2026-04-18T14:25:59.245Z</time></trkpt><trkpt lat="45.795825" lon="8.872283"><ele>342.6666666666667</ele><time>2026-04-18T14:26:00.245Z</time></trkpt><trkpt lat="45.7958408" lon="8.8724954"><ele>344.3333333333333</ele><time>2026-04-18T14:26:01.245Z</time></trkpt><trkpt lat="45.7958425" lon="8.8727139"><ele>346.0</ele><time>2026-04-18T14:26:02.245Z</time></trkpt><trkpt lat="45.7958315" lon="8.8729291"><ele>346.3333333333333</ele><time>2026-04-18T14:26:03.246Z</time></trkpt><trkpt lat="45.7958045" lon="8.8731516"><ele>346.6666666666667</ele><time>2026-04-18T14:26:04.246Z</time></trkpt><trkpt lat="45.7957627" lon="8.8733682"><ele>347.0</ele><time>2026-04-18T14:26:05.245Z</time></trkpt><trkpt lat="45.795708" lon="8.8735789"><ele>347.33333333333337</ele><time>2026-04-18T14:26:06.246Z</time></trkpt><trkpt lat="45.7956451" lon="8.873782"><ele>347.6666666666667</ele><time>2026-04-18T14:26:07.245Z</time></trkpt><trkpt lat="45.79558" lon="8.8739884"><ele>348.0</ele><time>2026-04-18T14:26:08.246Z</time></trkpt><trkpt lat="45.7955126" lon="8.8741962"><ele>347.0</ele><time>2026-04-18T14:26:09.246Z</time></trkpt><trkpt lat="45.795453" lon="8.8744111"><ele>346.0</ele><time>2026-04-18T14:26:10.246Z</time></trkpt><trkpt lat="45.7954067" lon="8.874632"><ele>345.0</ele><time>2026-04-18T14:26:11.246Z</time></trkpt><trkpt lat="45.7953699" lon="8.874853"><ele>345.0</ele><time>2026-04-18T14:26:12.246Z</time></trkpt><trkpt lat="45.7953349" lon="8.8750598"><ele>345.0</ele><time>2026-04-18T14:26:13.245Z</time></trkpt><trkpt lat="45.7953092" lon="8.8752609"><ele>345.0</ele><time>2026-04-18T14:26:14.246Z</time></trkpt><trkpt lat="45.7953013" lon="8.8754641"><ele>345.0</ele><time>2026-04-18T14:26:15.246Z</time></trkpt><trkpt lat="45.7953096" lon="8.8756667"><ele>344.75</ele><time>2026-04-18T14:26:16.246Z</time></trkpt><trkpt lat="45.7953224" lon="8.8758503"><ele>344.5</ele><time>2026-04-18T14:26:17.245Z</time></trkpt><trkpt lat="45.7953335" lon="8.8760155"><ele>344.25</ele><time>2026-04-18T14:26:18.245Z</time></trkpt><trkpt lat="45.7953386" lon="8.8761703"><ele>344.0</ele><time>2026-04-18T14:26:19.245Z</time></trkpt><trkpt lat="45.7953449" lon="8.8763344"><ele>344.0</ele><time>2026-04-18T14:26:20.246Z</time></trkpt><trkpt lat="45.7953712" lon="8.8765221"><ele>344.0</ele><time>2026-04-18T14:26:21.245Z</time></trkpt><trkpt lat="45.7954197" lon="8.8767191"><ele>344.0</ele><time>2026-04-18T14:26:22.245Z</time></trkpt><trkpt lat="45.7954906" lon="8.8769138"><ele>344.0</ele><time>2026-04-18T14:26:23.245Z</time></trkpt><trkpt lat="45.7955803" lon="8.8771028"><ele>346.0</ele><time>2026-04-18T14:26:24.245Z</time></trkpt><trkpt lat="45.7956761" lon="8.8772855"><ele>348.0</ele><time>2026-04-18T14:26:25.245Z</time></trkpt><trkpt lat="45.7957738" lon="8.877457"><ele>350.0</ele><time>2026-04-18T14:26:26.245Z</time></trkpt><trkpt lat="45.7958715" lon="8.8776286"><ele>350.5</ele><time>2026-04-18T14:26:27.245Z</time></trkpt><trkpt lat="45.795963" lon="8.877785"><ele>351.0</ele><time>2026-04-18T14:26:28.245Z</time></trkpt><trkpt lat="45.7960472" lon="8.8779231"><ele>351.5</ele><time>2026-04-18T14:26:29.246Z</time></trkpt><trkpt lat="45.7961175" lon="8.8780409"><ele>352.0</ele><time>2026-04-18T14:26:30.245Z</time></trkpt><trkpt lat="45.796175" lon="8.8781423"><ele>352.0</ele><time>2026-04-18T14:26:31.246Z</time></trkpt><trkpt lat="45.796214" lon="8.8782178"><ele>352.0</ele><time>2026-04-18T14:26:32.245Z</time></trkpt><trkpt lat="45.7962258" lon="8.8783374"><ele>352.0</ele><time>2026-04-18T14:26:35.245Z</time></trkpt><trkpt lat="45.79617" lon="8.8783987"><ele>352.0</ele><time>2026-04-18T14:26:37.245Z</time></trkpt><trkpt lat="45.7960529" lon="8.8783737"><ele>352.0</ele><time>2026-04-18T14:26:39.245Z</time></trkpt><trkpt lat="45.7959363" lon="8.878383"><ele>352.20000000000005</ele><time>2026-04-18T14:26:41.246Z</time></trkpt><trkpt lat="45.7958774" lon="8.8785039"><ele>352.4</ele><time>2026-04-18T14:26:43.245Z</time></trkpt><trkpt lat="45.7959111" lon="8.8786704"><ele>352.6</ele><time>2026-04-18T14:26:45.247Z</time></trkpt><trkpt lat="45.7959399" lon="8.8787756"><ele>352.79999999999995</ele><time>2026-04-18T14:26:46.245Z</time></trkpt><trkpt lat="45.795971" lon="8.8788948"><ele>353.0</ele><time>2026-04-18T14:26:47.246Z</time></trkpt><trkpt lat="45.7960049" lon="8.8790244"><ele>353.2</ele><time>2026-04-18T14:26:48.245Z</time></trkpt><trkpt lat="45.7960418" lon="8.8791673"><ele>353.4</ele><time>2026-04-18T14:26:49.245Z</time></trkpt><trkpt lat="45.7960809" lon="8.879311"><ele>353.59999999999997</ele><time>2026-04-18T14:26:50.246Z</time></trkpt><trkpt lat="45.7961223" lon="8.8794534"><ele>353.79999999999995</ele><time>2026-04-18T14:26:51.245Z</time></trkpt><trkpt lat="45.796159" lon="8.8795951"><ele>354.0</ele><time>2026-04-18T14:26:52.244Z</time></trkpt><trkpt lat="45.7961899" lon="8.8797316"><ele>354.0</ele><time>2026-04-18T14:26:53.244Z</time></trkpt><trkpt lat="45.7962202" lon="8.8798572"><ele>354.0</ele><time>2026-04-18T14:26:54.244Z</time></trkpt><trkpt lat="45.7962546" lon="8.8799793"><ele>354.0</ele><time>2026-04-18T14:26:55.244Z</time></trkpt><trkpt lat="45.7962926" lon="8.8800997"><ele>354.0</ele><time>2026-04-18T14:26:56.245Z</time></trkpt><trkpt lat="45.7963293" lon="8.8802182"><ele>354.0</ele><time>2026-04-18T14:26:57.244Z</time></trkpt><trkpt lat="45.7963702" lon="8.8803255"><ele>354.3333333333333</ele><time>2026-04-18T14:26:58.244Z</time></trkpt><trkpt lat="45.7964258" lon="8.8803977"><ele>354.6666666666667</ele><time>2026-04-18T14:26:59.244Z</time></trkpt><trkpt lat="45.7965006" lon="8.880424"><ele>355.0</ele><time>2026-04-18T14:27:00.245Z</time></trkpt><trkpt lat="45.7965806" lon="8.8804248"><ele>355.33333333333337</ele><time>2026-04-18T14:27:01.245Z</time></trkpt><trkpt lat="45.7966697" lon="8.8803812"><ele>355.6666666666667</ele><time>2026-04-18T14:27:02.245Z</time></trkpt><trkpt lat="45.79677" lon="8.8803363"><ele>356.0</ele><time>2026-04-18T14:27:03.245Z</time></trkpt><trkpt lat="45.7968724" lon="8.8803003"><ele>356.0</ele><time>2026-04-18T14:27:04.244Z</time></trkpt><trkpt lat="45.7969813" lon="8.8802684"><ele>356.0</ele><time>2026-04-18T14:27:05.245Z</time></trkpt><trkpt lat="45.7970971" lon="8.8802347"><ele>356.0</ele><time>2026-04-18T14:27:06.244Z</time></trkpt><trkpt lat="45.7972172" lon="8.8802016"><ele>356.0</ele><time>2026-04-18T14:27:07.244Z</time></trkpt><trkpt lat="45.7973288" lon="8.8801622"><ele>356.0</ele><time>2026-04-18T14:27:08.245Z</time></trkpt><trkpt lat="45.7974334" lon="8.8801229"><ele>356.0</ele><time>2026-04-18T14:27:09.244Z</time></trkpt><trkpt lat="45.7975342" lon="8.8800836"><ele>356.0</ele><time>2026-04-18T14:27:10.244Z</time></trkpt><trkpt lat="45.7976239" lon="8.8800505"><ele>356.0</ele><time>2026-04-18T14:27:11.244Z</time></trkpt><trkpt lat="45.7977026" lon="8.8800204"><ele>356.0</ele><time>2026-04-18T14:27:12.244Z</time></trkpt><trkpt lat="45.7977819" lon="8.8799747"><ele>356.0</ele><time>2026-04-18T14:27:13.244Z</time></trkpt><trkpt lat="45.7978512" lon="8.8799127"><ele>356.0</ele><time>2026-04-18T14:27:14.244Z</time></trkpt><trkpt lat="45.7979178" lon="8.8798441"><ele>356.0</ele><time>2026-04-18T14:27:15.244Z</time></trkpt><trkpt lat="45.7979793" lon="8.8797525"><ele>356.0</ele><time>2026-04-18T14:27:16.244Z</time></trkpt><trkpt lat="45.7980373" lon="8.8796648"><ele>356.0</ele><time>2026-04-18T14:27:17.245Z</time></trkpt><trkpt lat="45.7980844" lon="8.8795851"><ele>356.0</ele><time>2026-04-18T14:27:18.245Z</time></trkpt><trkpt lat="45.7981277" lon="8.8795117"><ele>356.0</ele><time>2026-04-18T14:27:19.244Z</time></trkpt><trkpt lat="45.798195" lon="8.8793996"><ele>356.0</ele><time>2026-04-18T14:27:21.245Z</time></trkpt><trkpt lat="45.7982324" lon="8.8793165"><ele>356.0</ele><time>2026-04-18T14:27:24.244Z</time></trkpt><trkpt lat="45.7982749" lon="8.8792294"><ele>356.0</ele><time>2026-04-18T14:27:26.244Z</time></trkpt><trkpt lat="45.7983792" lon="8.8791483"><ele>356.0</ele><time>2026-04-18T14:27:28.245Z</time></trkpt><trkpt lat="45.7984495" lon="8.8791426"><ele>356.0</ele><time>2026-04-18T14:27:29.245Z</time></trkpt><trkpt lat="45.7985245" lon="8.8791578"><ele>355.83333333333337</ele><time>2026-04-18T14:27:30.244Z</time></trkpt><trkpt lat="45.7985975" lon="8.8791767"><ele>355.6666666666667</ele><time>2026-04-18T14:27:31.245Z</time></trkpt><trkpt lat="45.7986631" lon="8.8791969"><ele>355.5</ele><time>2026-04-18T14:27:32.244Z</time></trkpt><trkpt lat="45.7987597" lon="8.8792314"><ele>355.3333333333333</ele><time>2026-04-18T14:27:34.244Z</time></trkpt><trkpt lat="45.7988371" lon="8.87928"><ele>355.16666666666663</ele><time>2026-04-18T14:27:36.245Z</time></trkpt><trkpt lat="45.7989043" lon="8.879361"><ele>355.0</ele><time>2026-04-18T14:27:38.244Z</time></trkpt><trkpt lat="45.7989672" lon="8.8794426"><ele>354.8333333333333</ele><time>2026-04-18T14:27:40.244Z</time></trkpt><trkpt lat="45.7990237" lon="8.8795043"><ele>354.66666666666663</ele><time>2026-04-18T14:27:42.245Z</time></trkpt><trkpt lat="45.7990876" lon="8.8795869"><ele>354.5</ele><time>2026-04-18T14:27:44.244Z</time></trkpt><trkpt lat="45.7991707" lon="8.8796752"><ele>354.3333333333333</ele><time>2026-04-18T14:27:46.244Z</time></trkpt><trkpt lat="45.7992504" lon="8.8797609"><ele>354.1666666666667</ele><time>2026-04-18T14:27:48.244Z</time></trkpt><trkpt lat="45.7993185" lon="8.8798081"><ele>354.0</ele><time>2026-04-18T14:27:54.245Z</time></trkpt><trkpt lat="45.7993719" lon="8.8798689"><ele>353.8333333333333</ele><time>2026-04-18T14:27:56.244Z</time></trkpt><trkpt lat="45.7994183" lon="8.8799475"><ele>353.6666666666667</ele><time>2026-04-18T14:27:58.244Z</time></trkpt><trkpt lat="45.7994209" lon="8.8800698"><ele>353.5</ele><time>2026-04-18T14:28:00.245Z</time></trkpt><trkpt lat="45.7993902" lon="8.8801507"><ele>353.33333333333337</ele><time>2026-04-18T14:28:02.245Z</time></trkpt><trkpt lat="45.799359" lon="8.8802768"><ele>353.1666666666667</ele><time>2026-04-18T14:28:05.244Z</time></trkpt><trkpt lat="45.7994139" lon="8.8804163"><ele>353.0</ele><time>2026-04-18T14:28:07.244Z</time></trkpt><trkpt lat="45.7994683" lon="8.8804945"><ele>353.0</ele><time>2026-04-18T14:28:08.244Z</time></trkpt><trkpt lat="45.7995392" lon="8.8805686"><ele>353.0</ele><time>2026-04-18T14:28:09.245Z</time></trkpt><trkpt lat="45.7996229" lon="8.8806187"><ele>353.0</ele><time>2026-04-18T14:28:10.244Z</time></trkpt><trkpt lat="45.7997189" lon="8.8806564"><ele>353.0</ele><time>2026-04-18T14:28:11.244Z</time></trkpt><trkpt lat="45.7998192" lon="8.8806898"><ele>353.0</ele><time>2026-04-18T14:28:12.244Z</time></trkpt><trkpt lat="45.7999261" lon="8.880733"><ele>353.0</ele><time>2026-04-18T14:28:13.245Z</time></trkpt><trkpt lat="45.8000367" lon="8.8807805"><ele>353.0</ele><time>2026-04-18T14:28:14.245Z</time></trkpt><trkpt lat="45.8001528" lon="8.8808187"><ele>353.0</ele><time>2026-04-18T14:28:15.245Z</time></trkpt><trkpt lat="45.8002711" lon="8.8808594"><ele>353.0</ele><time>2026-04-18T14:28:16.244Z</time></trkpt><trkpt lat="45.8003914" lon="8.8808967"><ele>353.59999999999997</ele><time>2026-04-18T14:28:17.245Z</time></trkpt><trkpt lat="45.8005125" lon="8.8809372"><ele>354.2</ele><time>2026-04-18T14:28:18.244Z</time></trkpt><trkpt lat="45.8006254" lon="8.880978"><ele>354.8</ele><time>2026-04-18T14:28:19.245Z</time></trkpt><trkpt lat="45.8007235" lon="8.8810124"><ele>355.4</ele><time>2026-04-18T14:28:20.244Z</time></trkpt><trkpt lat="45.8008074" lon="8.8810535"><ele>356.0</ele><time>2026-04-18T14:28:21.244Z</time></trkpt><trkpt lat="45.8008796" lon="8.8810979"><ele>356.0</ele><time>2026-04-18T14:28:22.244Z</time></trkpt><trkpt lat="45.8009335" lon="8.8811582"><ele>356.0</ele><time>2026-04-18T14:28:23.244Z</time></trkpt><trkpt lat="45.8009795" lon="8.8812246"><ele>356.0</ele><time>2026-04-18T14:28:24.244Z</time></trkpt><trkpt lat="45.8010303" lon="8.8813106"><ele>356.0</ele><time>2026-04-18T14:28:25.245Z</time></trkpt><trkpt lat="45.8010802" lon="8.8814116"><ele>356.0</ele><time>2026-04-18T14:28:26.244Z</time></trkpt><trkpt lat="45.8011283" lon="8.8815214"><ele>356.0</ele><time>2026-04-18T14:28:27.244Z</time></trkpt><trkpt lat="45.8011648" lon="8.8816402"><ele>355.8</ele><time>2026-04-18T14:28:28.244Z</time></trkpt><trkpt lat="45.8011853" lon="8.8817561"><ele>355.6</ele><time>2026-04-18T14:28:29.244Z</time></trkpt><trkpt lat="45.8011982" lon="8.8818758"><ele>355.4</ele><time>2026-04-18T14:28:30.245Z</time></trkpt><trkpt lat="45.8011963" lon="8.8819988"><ele>355.2</ele><time>2026-04-18T14:28:31.244Z</time></trkpt><trkpt lat="45.8011996" lon="8.8821445"><ele>355.0</ele><time>2026-04-18T14:28:32.245Z</time></trkpt><trkpt lat="45.8011984" lon="8.8823011"><ele>355.5</ele><time>2026-04-18T14:28:33.244Z</time></trkpt><trkpt lat="45.8011948" lon="8.8824635"><ele>356.0</ele><time>2026-04-18T14:28:34.244Z</time></trkpt><trkpt lat="45.8011913" lon="8.8826288"><ele>356.5</ele><time>2026-04-18T14:28:35.245Z</time></trkpt><trkpt lat="45.8011914" lon="8.8827965"><ele>357.0</ele><time>2026-04-18T14:28:36.244Z</time></trkpt><trkpt lat="45.8011892" lon="8.8829665"><ele>357.1666666666667</ele><time>2026-04-18T14:28:37.245Z</time></trkpt><trkpt lat="45.8011842" lon="8.8831183"><ele>357.3333333333333</ele><time>2026-04-18T14:28:38.245Z</time></trkpt><trkpt lat="45.8011745" lon="8.883245"><ele>357.5</ele><time>2026-04-18T14:28:39.244Z</time></trkpt><trkpt lat="45.8011609" lon="8.8833408"><ele>357.66666666666663</ele><time>2026-04-18T14:28:40.244Z</time></trkpt><trkpt lat="45.8011602" lon="8.8834716"><ele>357.8333333333333</ele><time>2026-04-18T14:28:42.245Z</time></trkpt><trkpt lat="45.8012363" lon="8.8835471"><ele>358.0</ele><time>2026-04-18T14:28:44.245Z</time></trkpt><trkpt lat="45.8013014" lon="8.8835437"><ele>359.66666666666663</ele><time>2026-04-18T14:28:45.245Z</time></trkpt><trkpt lat="45.8013762" lon="8.8835376"><ele>361.3333333333333</ele><time>2026-04-18T14:28:46.244Z</time></trkpt><trkpt lat="45.8014558" lon="8.8835401"><ele>363.0</ele><time>2026-04-18T14:28:47.244Z</time></trkpt><trkpt lat="45.8015464" lon="8.8834998"><ele>364.6666666666667</ele><time>2026-04-18T14:28:48.244Z</time></trkpt><trkpt lat="45.8016396" lon="8.8834898"><ele>366.33333333333337</ele><time>2026-04-18T14:28:49.245Z</time></trkpt><trkpt lat="45.8017304" lon="8.8834835"><ele>368.0</ele><time>2026-04-18T14:28:50.244Z</time></trkpt><trkpt lat="45.801803" lon="8.8834674"><ele>368.4</ele><time>2026-04-18T14:28:51.245Z</time></trkpt><trkpt lat="45.8019185" lon="8.8834642"><ele>368.79999999999995</ele><time>2026-04-18T14:28:53.244Z</time></trkpt><trkpt lat="45.8020229" lon="8.8834929"><ele>369.2</ele><time>2026-04-18T14:28:55.245Z</time></trkpt><trkpt lat="45.8020931" lon="8.8835538"><ele>369.6</ele><time>2026-04-18T14:28:57.245Z</time></trkpt><trkpt lat="45.802123" lon="8.8836773"><ele>370.0</ele><time>2026-04-18T14:28:59.244Z</time></trkpt><trkpt lat="45.8021421" lon="8.8838058"><ele>370.0</ele><time>2026-04-18T14:29:01.244Z</time></trkpt><trkpt lat="45.8022155" lon="8.8839377"><ele>370.0</ele><time>2026-04-18T14:29:03.244Z</time></trkpt><trkpt lat="45.8022837" lon="8.8839859"><ele>370.0</ele><time>2026-04-18T14:29:04.244Z</time></trkpt><trkpt lat="45.8023656" lon="8.8840211"><ele>370.0</ele><time>2026-04-18T14:29:05.244Z</time></trkpt><trkpt lat="45.8024578" lon="8.8840593"><ele>370.0</ele><time>2026-04-18T14:29:06.245Z</time></trkpt><trkpt lat="45.8025593" lon="8.8841061"><ele>370.0</ele><time>2026-04-18T14:29:07.244Z</time></trkpt><trkpt lat="45.8026507" lon="8.8841877"><ele>370.0</ele><time>2026-04-18T14:29:08.245Z</time></trkpt><trkpt lat="45.8027151" lon="8.8842962"><ele>370.0</ele><time>2026-04-18T14:29:09.244Z</time></trkpt><trkpt lat="45.8027521" lon="8.8844365"><ele>370.0</ele><time>2026-04-18T14:29:10.244Z</time></trkpt><trkpt lat="45.8027753" lon="8.8845935"><ele>370.0</ele><time>2026-04-18T14:29:11.244Z</time></trkpt><trkpt lat="45.8027963" lon="8.8847731"><ele>371.75</ele><time>2026-04-18T14:29:12.244Z</time></trkpt><trkpt lat="45.8028072" lon="8.8849631"><ele>373.5</ele><time>2026-04-18T14:29:13.244Z</time></trkpt><trkpt lat="45.8028154" lon="8.8851685"><ele>375.25</ele><time>2026-04-18T14:29:14.244Z</time></trkpt><trkpt lat="45.8028184" lon="8.885367"><ele>377.0</ele><time>2026-04-18T14:29:15.245Z</time></trkpt><trkpt lat="45.8028115" lon="8.8855561"><ele>377.75</ele><time>2026-04-18T14:29:16.245Z</time></trkpt><trkpt lat="45.802812" lon="8.8857358"><ele>378.5</ele><time>2026-04-18T14:29:17.244Z</time></trkpt><trkpt lat="45.8028416" lon="8.8858997"><ele>379.25</ele><time>2026-04-18T14:29:18.245Z</time></trkpt><trkpt lat="45.8028865" lon="8.8860616"><ele>380.0</ele><time>2026-04-18T14:29:19.244Z</time></trkpt><trkpt lat="45.8029468" lon="8.8862189"><ele>380.75</ele><time>2026-04-18T14:29:20.244Z</time></trkpt><trkpt lat="45.803013" lon="8.8863818"><ele>381.5</ele><time>2026-04-18T14:29:21.244Z</time></trkpt><trkpt lat="45.8030862" lon="8.886543"><ele>382.25</ele><time>2026-04-18T14:29:22.245Z</time></trkpt><trkpt lat="45.8031654" lon="8.8867063"><ele>383.0</ele><time>2026-04-18T14:29:23.244Z</time></trkpt><trkpt lat="45.8032402" lon="8.8868786"><ele>383.25</ele><time>2026-04-18T14:29:24.245Z</time></trkpt><trkpt lat="45.8033086" lon="8.8870618"><ele>383.5</ele><time>2026-04-18T14:29:25.245Z</time></trkpt><trkpt lat="45.8033748" lon="8.8872515"><ele>383.75</ele><time>2026-04-18T14:29:26.244Z</time></trkpt><trkpt lat="45.8034452" lon="8.8874431"><ele>384.0</ele><time>2026-04-18T14:29:27.244Z</time></trkpt><trkpt lat="45.803516" lon="8.8876371"><ele>384.5</ele><time>2026-04-18T14:29:28.245Z</time></trkpt><trkpt lat="45.8035855" lon="8.8878302"><ele>385.0</ele><time>2026-04-18T14:29:29.244Z</time></trkpt><trkpt lat="45.8036466" lon="8.8880104"><ele>385.5</ele><time>2026-04-18T14:29:30.245Z</time></trkpt><trkpt lat="45.8037002" lon="8.8881785"><ele>386.0</ele><time>2026-04-18T14:29:31.245Z</time></trkpt><trkpt lat="45.8037407" lon="8.8883327"><ele>386.20000000000005</ele><time>2026-04-18T14:29:32.244Z</time></trkpt><trkpt lat="45.8037683" lon="8.8884616"><ele>386.40000000000003</ele><time>2026-04-18T14:29:33.244Z</time></trkpt><trkpt lat="45.8037847" lon="8.8885673"><ele>386.6</ele><time>2026-04-18T14:29:34.245Z</time></trkpt><trkpt lat="45.8038169" lon="8.8887028"><ele>386.8</ele><time>2026-04-18T14:29:36.244Z</time></trkpt><trkpt lat="45.8038843" lon="8.8886737"><ele>387.0</ele><time>2026-04-18T14:29:39.245Z</time></trkpt><trkpt lat="45.8038197" lon="8.88843"><ele>386.8333333333333</ele><time>2026-04-18T14:36:24.243Z</time></trkpt><trkpt lat="45.803796" lon="8.8883424"><ele>386.66666666666663</ele><time>2026-04-18T14:36:25.243Z</time></trkpt><trkpt lat="45.8037579" lon="8.8882348"><ele>386.5</ele><time>2026-04-18T14:36:26.242Z</time></trkpt><trkpt lat="45.8037222" lon="8.8881247"><ele>386.3333333333333</ele><time>2026-04-18T14:36:27.243Z</time></trkpt><trkpt lat="45.8036803" lon="8.8880056"><ele>386.16666666666663</ele><time>2026-04-18T14:36:28.244Z</time></trkpt><trkpt lat="45.8036363" lon="8.8878853"><ele>386.0</ele><time>2026-04-18T14:36:29.243Z</time></trkpt><trkpt lat="45.8035921" lon="8.8877578"><ele>386.0</ele><time>2026-04-18T14:36:30.242Z</time></trkpt><trkpt lat="45.8035456" lon="8.8876285"><ele>386.0</ele><time>2026-04-18T14:36:31.243Z</time></trkpt><trkpt lat="45.8034988" lon="8.8874904"><ele>386.0</ele><time>2026-04-18T14:36:32.242Z</time></trkpt><trkpt lat="45.8034511" lon="8.887352"><ele>386.0</ele><time>2026-04-18T14:36:33.243Z</time></trkpt><trkpt lat="45.8034033" lon="8.8872067"><ele>386.0</ele><time>2026-04-18T14:36:34.243Z</time></trkpt><trkpt lat="45.8033499" lon="8.8870677"><ele>385.6</ele><time>2026-04-18T14:36:35.242Z</time></trkpt><trkpt lat="45.8033007" lon="8.8869384"><ele>385.20000000000005</ele><time>2026-04-18T14:36:36.242Z</time></trkpt><trkpt lat="45.803247" lon="8.8868141"><ele>384.79999999999995</ele><time>2026-04-18T14:36:37.242Z</time></trkpt><trkpt lat="45.8031848" lon="8.8866844"><ele>384.4</ele><time>2026-04-18T14:36:38.242Z</time></trkpt><trkpt lat="45.8031234" lon="8.8865619"><ele>384.0</ele><time>2026-04-18T14:36:39.242Z</time></trkpt><trkpt lat="45.8030657" lon="8.8864395"><ele>383.79999999999995</ele><time>2026-04-18T14:36:40.241Z</time></trkpt><trkpt lat="45.8030151" lon="8.8863156"><ele>383.59999999999997</ele><time>2026-04-18T14:36:41.241Z</time></trkpt><trkpt lat="45.8029683" lon="8.8861909"><ele>383.4</ele><time>2026-04-18T14:36:42.242Z</time></trkpt><trkpt lat="45.8029224" lon="8.886058"><ele>383.2</ele><time>2026-04-18T14:36:43.241Z</time></trkpt><trkpt lat="45.8028819" lon="8.8859168"><ele>383.0</ele><time>2026-04-18T14:36:44.243Z</time></trkpt><trkpt lat="45.8028566" lon="8.8857699"><ele>382.4</ele><time>2026-04-18T14:36:45.241Z</time></trkpt><trkpt lat="45.8028493" lon="8.8856169"><ele>381.79999999999995</ele><time>2026-04-18T14:36:46.242Z</time></trkpt><trkpt lat="45.80285" lon="8.8854616"><ele>381.2</ele><time>2026-04-18T14:36:47.241Z</time></trkpt><trkpt lat="45.8028489" lon="8.8853054"><ele>380.6</ele><time>2026-04-18T14:36:48.241Z</time></trkpt><trkpt lat="45.8028454" lon="8.8851437"><ele>380.0</ele><time>2026-04-18T14:36:49.242Z</time></trkpt><trkpt lat="45.8028405" lon="8.8849838"><ele>379.4</ele><time>2026-04-18T14:36:50.242Z</time></trkpt><trkpt lat="45.8028375" lon="8.8848263"><ele>378.8</ele><time>2026-04-18T14:36:51.241Z</time></trkpt><trkpt lat="45.8028256" lon="8.8846782"><ele>378.20000000000005</ele><time>2026-04-18T14:36:52.242Z</time></trkpt><trkpt lat="45.8028097" lon="8.8845399"><ele>377.6</ele><time>2026-04-18T14:36:53.241Z</time></trkpt><trkpt lat="45.802792" lon="8.8844074"><ele>377.0</ele><time>2026-04-18T14:36:54.243Z</time></trkpt><trkpt lat="45.8027586" lon="8.8842772"><ele>375.8</ele><time>2026-04-18T14:36:55.242Z</time></trkpt><trkpt lat="45.8026911" lon="8.8841816"><ele>374.6</ele><time>2026-04-18T14:36:56.241Z</time></trkpt><trkpt lat="45.8026059" lon="8.8841161"><ele>373.40000000000003</ele><time>2026-04-18T14:36:57.241Z</time></trkpt><trkpt lat="45.8025137" lon="8.8840669"><ele>372.20000000000005</ele><time>2026-04-18T14:36:58.241Z</time></trkpt><trkpt lat="45.8024231" lon="8.8840298"><ele>371.0</ele><time>2026-04-18T14:36:59.241Z</time></trkpt><trkpt lat="45.8023457" lon="8.8839962"><ele>370.8</ele><time>2026-04-18T14:37:00.242Z</time></trkpt><trkpt lat="45.8022728" lon="8.8839619"><ele>370.6</ele><time>2026-04-18T14:37:01.241Z</time></trkpt><trkpt lat="45.8022149" lon="8.883907"><ele>370.4</ele><time>2026-04-18T14:37:02.241Z</time></trkpt><trkpt lat="45.8021779" lon="8.8837667"><ele>370.2</ele><time>2026-04-18T14:37:04.242Z</time></trkpt><trkpt lat="45.8021551" lon="8.8836216"><ele>370.0</ele><time>2026-04-18T14:37:06.242Z</time></trkpt><trkpt lat="45.8020907" lon="8.8834875"><ele>370.0</ele><time>2026-04-18T14:37:08.242Z</time></trkpt><trkpt lat="45.8019798" lon="8.8834406"><ele>370.0</ele><time>2026-04-18T14:37:10.241Z</time></trkpt><trkpt lat="45.8019119" lon="8.8834413"><ele>370.0</ele><time>2026-04-18T14:37:11.241Z</time></trkpt><trkpt lat="45.8017926" lon="8.8834483"><ele>370.0</ele><time>2026-04-18T14:37:13.242Z</time></trkpt><trkpt lat="45.8017285" lon="8.8834569"><ele>370.0</ele><time>2026-04-18T14:37:14.241Z</time></trkpt><trkpt lat="45.8016516" lon="8.8834728"><ele>370.0</ele><time>2026-04-18T14:37:15.241Z</time></trkpt><trkpt lat="45.8015669" lon="8.883487"><ele>369.66666666666663</ele><time>2026-04-18T14:37:16.241Z</time></trkpt><trkpt lat="45.8014779" lon="8.8835044"><ele>369.3333333333333</ele><time>2026-04-18T14:37:17.241Z</time></trkpt><trkpt lat="45.801401" lon="8.8834995"><ele>369.0</ele><time>2026-04-18T14:37:18.242Z</time></trkpt><trkpt lat="45.8013291" lon="8.8835"><ele>368.6666666666667</ele><time>2026-04-18T14:37:19.241Z</time></trkpt><trkpt lat="45.8012404" lon="8.8835023"><ele>368.33333333333337</ele><time>2026-04-18T14:37:21.242Z</time></trkpt><trkpt lat="45.8011487" lon="8.8835398"><ele>368.0</ele><time>2026-04-18T14:37:26.242Z</time></trkpt><trkpt lat="45.8011158" lon="8.8836189"><ele>368.0</ele><time>2026-04-18T14:37:27.242Z</time></trkpt><trkpt lat="45.8010759" lon="8.8837125"><ele>368.0</ele><time>2026-04-18T14:37:28.241Z</time></trkpt><trkpt lat="45.801033" lon="8.8838231"><ele>368.0</ele><time>2026-04-18T14:37:29.241Z</time></trkpt><trkpt lat="45.8009828" lon="8.8839448"><ele>368.0</ele><time>2026-04-18T14:37:30.241Z</time></trkpt><trkpt lat="45.8009074" lon="8.8840483"><ele>368.0</ele><time>2026-04-18T14:37:31.241Z</time></trkpt><trkpt lat="45.8008332" lon="8.8841608"><ele>368.75</ele><time>2026-04-18T14:37:32.242Z</time></trkpt><trkpt lat="45.8007556" lon="8.8842765"><ele>369.5</ele><time>2026-04-18T14:37:33.241Z</time></trkpt><trkpt lat="45.8006662" lon="8.8843838"><ele>370.25</ele><time>2026-04-18T14:37:34.242Z</time></trkpt><trkpt lat="45.8005684" lon="8.8844742"><ele>371.0</ele><time>2026-04-18T14:37:35.241Z</time></trkpt><trkpt lat="45.8004707" lon="8.8845499"><ele>371.0</ele><time>2026-04-18T14:37:36.241Z</time></trkpt><trkpt lat="45.8003625" lon="8.8846172"><ele>371.0</ele><time>2026-04-18T14:37:37.241Z</time></trkpt><trkpt lat="45.8002572" lon="8.8847005"><ele>371.0</ele><time>2026-04-18T14:37:38.241Z</time></trkpt><trkpt lat="45.800167" lon="8.8847962"><ele>371.0</ele><time>2026-04-18T14:37:39.241Z</time></trkpt><trkpt lat="45.800095" lon="8.884913"><ele>371.4</ele><time>2026-04-18T14:37:40.241Z</time></trkpt><trkpt lat="45.8000363" lon="8.8850424"><ele>371.8</ele><time>2026-04-18T14:37:41.241Z</time></trkpt><trkpt lat="45.7999847" lon="8.8851715"><ele>372.2</ele><time>2026-04-18T14:37:42.241Z</time></trkpt><trkpt lat="45.799933" lon="8.8853013"><ele>372.59999999999997</ele><time>2026-04-18T14:37:43.241Z</time></trkpt><trkpt lat="45.7998836" lon="8.8854286"><ele>373.0</ele><time>2026-04-18T14:37:44.241Z</time></trkpt><trkpt lat="45.7998316" lon="8.8855535"><ele>373.0</ele><time>2026-04-18T14:37:45.241Z</time></trkpt><trkpt lat="45.7997847" lon="8.8856667"><ele>373.0</ele><time>2026-04-18T14:37:46.242Z</time></trkpt><trkpt lat="45.7997437" lon="8.8857756"><ele>373.0</ele><time>2026-04-18T14:37:47.241Z</time></trkpt><trkpt lat="45.7997045" lon="8.8858969"><ele>373.0</ele><time>2026-04-18T14:37:48.242Z</time></trkpt><trkpt lat="45.7996591" lon="8.8860155"><ele>373.0</ele><time>2026-04-18T14:37:49.241Z</time></trkpt><trkpt lat="45.7996121" lon="8.8861386"><ele>373.2</ele><time>2026-04-18T14:37:50.242Z</time></trkpt><trkpt lat="45.7995687" lon="8.8862543"><ele>373.4</ele><time>2026-04-18T14:37:51.242Z</time></trkpt><trkpt lat="45.7995273" lon="8.8863635"><ele>373.59999999999997</ele><time>2026-04-18T14:37:52.241Z</time></trkpt><trkpt lat="45.7994814" lon="8.8864753"><ele>373.79999999999995</ele><time>2026-04-18T14:37:53.241Z</time></trkpt><trkpt lat="45.7994374" lon="8.8865885"><ele>374.0</ele><time>2026-04-18T14:37:54.241Z</time></trkpt><trkpt lat="45.7993918" lon="8.886703"><ele>373.83333333333337</ele><time>2026-04-18T14:37:55.241Z</time></trkpt><trkpt lat="45.799342" lon="8.8868201"><ele>373.6666666666667</ele><time>2026-04-18T14:37:56.241Z</time></trkpt><trkpt lat="45.7992964" lon="8.8869315"><ele>373.5</ele><time>2026-04-18T14:37:57.242Z</time></trkpt><trkpt lat="45.7992572" lon="8.8870301"><ele>373.3333333333333</ele><time>2026-04-18T14:37:58.241Z</time></trkpt><trkpt lat="45.7992206" lon="8.8871195"><ele>373.16666666666663</ele><time>2026-04-18T14:37:59.241Z</time></trkpt><trkpt lat="45.7991621" lon="8.8872496"><ele>373.0</ele><time>2026-04-18T14:38:01.241Z</time></trkpt><trkpt lat="45.7991255" lon="8.8873393"><ele>373.0</ele><time>2026-04-18T14:38:04.242Z</time></trkpt><trkpt lat="45.7991012" lon="8.8874628"><ele>373.0</ele><time>2026-04-18T14:38:14.241Z</time></trkpt><trkpt lat="45.7990502" lon="8.8876064"><ele>373.0</ele><time>2026-04-18T14:38:16.241Z</time></trkpt><trkpt lat="45.7990207" lon="8.8876945"><ele>373.0</ele><time>2026-04-18T14:38:17.242Z</time></trkpt><trkpt lat="45.7989843" lon="8.8877965"><ele>373.0</ele><time>2026-04-18T14:38:18.241Z</time></trkpt><trkpt lat="45.7989465" lon="8.8879146"><ele>373.0</ele><time>2026-04-18T14:38:19.241Z</time></trkpt><trkpt lat="45.798899" lon="8.8880268"><ele>373.0</ele><time>2026-04-18T14:38:20.242Z</time></trkpt><trkpt lat="45.7988505" lon="8.8881462"><ele>373.0</ele><time>2026-04-18T14:38:21.242Z</time></trkpt><trkpt lat="45.798792" lon="8.888269"><ele>373.0</ele><time>2026-04-18T14:38:22.241Z</time></trkpt><trkpt lat="45.7987392" lon="8.8883876"><ele>373.0</ele><time>2026-04-18T14:38:23.241Z</time></trkpt><trkpt lat="45.7986926" lon="8.8885015"><ele>373.0</ele><time>2026-04-18T14:38:24.241Z</time></trkpt><trkpt lat="45.798656" lon="8.8886022"><ele>373.42857142857144</ele><time>2026-04-18T14:38:25.242Z</time></trkpt><trkpt lat="45.7986154" lon="8.8886831"><ele>373.8571428571429</ele><time>2026-04-18T14:38:26.241Z</time></trkpt><trkpt lat="45.7985683" lon="8.8887443"><ele>374.2857142857143</ele><time>2026-04-18T14:38:27.242Z</time></trkpt><trkpt lat="45.7985058" lon="8.88878"><ele>374.7142857142857</ele><time>2026-04-18T14:38:28.242Z</time></trkpt><trkpt lat="45.7984359" lon="8.8887996"><ele>375.1428571428571</ele><time>2026-04-18T14:38:29.241Z</time></trkpt><trkpt lat="45.7983585" lon="8.8888193"><ele>375.57142857142856</ele><time>2026-04-18T14:38:30.241Z</time></trkpt><trkpt lat="45.7982758" lon="8.8888372"><ele>376.0</ele><time>2026-04-18T14:38:31.243Z</time></trkpt><trkpt lat="45.7981952" lon="8.8888557"><ele>376.20000000000005</ele><time>2026-04-18T14:38:32.242Z</time></trkpt><trkpt lat="45.798119" lon="8.8888753"><ele>376.40000000000003</ele><time>2026-04-18T14:38:33.241Z</time></trkpt><trkpt lat="45.798045" lon="8.8888984"><ele>376.6</ele><time>2026-04-18T14:38:34.241Z</time></trkpt><trkpt lat="45.797964" lon="8.8889308"><ele>376.8</ele><time>2026-04-18T14:38:35.241Z</time></trkpt><trkpt lat="45.7978602" lon="8.8889574"><ele>377.0</ele><time>2026-04-18T14:38:36.242Z</time></trkpt><trkpt lat="45.7977357" lon="8.8889873"><ele>377.0</ele><time>2026-04-18T14:38:37.241Z</time></trkpt><trkpt lat="45.7975918" lon="8.8890171"><ele>377.0</ele><time>2026-04-18T14:38:38.241Z</time></trkpt><trkpt lat="45.7974347" lon="8.8890451"><ele>377.0</ele><time>2026-04-18T14:38:39.242Z</time></trkpt><trkpt lat="45.7972698" lon="8.889076"><ele>377.0</ele><time>2026-04-18T14:38:40.241Z</time></trkpt><trkpt lat="45.7971071" lon="8.8891078"><ele>377.0</ele><time>2026-04-18T14:38:41.242Z</time></trkpt><trkpt lat="45.796951" lon="8.8891387"><ele>377.0</ele><time>2026-04-18T14:38:42.241Z</time></trkpt><trkpt lat="45.7967927" lon="8.8891691"><ele>375.0</ele><time>2026-04-18T14:38:43.241Z</time></trkpt><trkpt lat="45.7966366" lon="8.8891939"><ele>373.0</ele><time>2026-04-18T14:38:44.241Z</time></trkpt><trkpt lat="45.796486" lon="8.8892242"><ele>371.0</ele><time>2026-04-18T14:38:45.241Z</time></trkpt><trkpt lat="45.796339" lon="8.8892587"><ele>371.5</ele><time>2026-04-18T14:38:46.241Z</time></trkpt><trkpt lat="45.7961968" lon="8.8893131"><ele>372.0</ele><time>2026-04-18T14:38:47.241Z</time></trkpt><trkpt lat="45.7960628" lon="8.8893845"><ele>372.5</ele><time>2026-04-18T14:38:48.241Z</time></trkpt><trkpt lat="45.795938" lon="8.8894743"><ele>373.0</ele><time>2026-04-18T14:38:49.242Z</time></trkpt><trkpt lat="45.795823" lon="8.8895728"><ele>373.0</ele><time>2026-04-18T14:38:50.242Z</time></trkpt><trkpt lat="45.7957188" lon="8.8896759"><ele>373.0</ele><time>2026-04-18T14:38:51.242Z</time></trkpt><trkpt lat="45.7956172" lon="8.8897919"><ele>373.0</ele><time>2026-04-18T14:38:52.242Z</time></trkpt><trkpt lat="45.7955218" lon="8.8899263"><ele>373.0</ele><time>2026-04-18T14:38:53.241Z</time></trkpt><trkpt lat="45.7954289" lon="8.8900631"><ele>373.5</ele><time>2026-04-18T14:38:54.241Z</time></trkpt><trkpt lat="45.7953332" lon="8.890176"><ele>374.0</ele><time>2026-04-18T14:38:55.242Z</time></trkpt><trkpt lat="45.7952331" lon="8.8902636"><ele>374.5</ele><time>2026-04-18T14:38:56.241Z</time></trkpt><trkpt lat="45.7951252" lon="8.8903299"><ele>375.0</ele><time>2026-04-18T14:38:57.241Z</time></trkpt><trkpt lat="45.7950141" lon="8.8903897"><ele>375.0</ele><time>2026-04-18T14:38:58.241Z</time></trkpt><trkpt lat="45.7949057" lon="8.890447"><ele>375.0</ele><time>2026-04-18T14:38:59.242Z</time></trkpt><trkpt lat="45.7948089" lon="8.8904992"><ele>375.0</ele><time>2026-04-18T14:39:00.241Z</time></trkpt><trkpt lat="45.7947317" lon="8.8905414"><ele>375.0</ele><time>2026-04-18T14:39:01.242Z</time></trkpt><trkpt lat="45.7946232" lon="8.8905376"><ele>375.0</ele><time>2026-04-18T14:39:03.241Z</time></trkpt><trkpt lat="45.7945638" lon="8.8903601"><ele>375.0</ele><time>2026-04-18T14:39:05.241Z</time></trkpt><trkpt lat="45.7945366" lon="8.890227"><ele>375.0</ele><time>2026-04-18T14:39:06.242Z</time></trkpt><trkpt lat="45.7945057" lon="8.8900816"><ele>375.0</ele><time>2026-04-18T14:39:07.241Z</time></trkpt><trkpt lat="45.7944722" lon="8.8899196"><ele>375.0</ele><time>2026-04-18T14:39:08.241Z</time></trkpt><trkpt lat="45.7944405" lon="8.8897522"><ele>375.0</ele><time>2026-04-18T14:39:09.242Z</time></trkpt><trkpt lat="45.7944061" lon="8.8895782"><ele>373.2</ele><time>2026-04-18T14:39:10.241Z</time></trkpt><trkpt lat="45.7943712" lon="8.889415"><ele>371.4</ele><time>2026-04-18T14:39:11.241Z</time></trkpt><trkpt lat="45.7943404" lon="8.8892566"><ele>369.6</ele><time>2026-04-18T14:39:12.241Z</time></trkpt><trkpt lat="45.7943057" lon="8.889106"><ele>367.8</ele><time>2026-04-18T14:39:13.242Z</time></trkpt><trkpt lat="45.7942729" lon="8.8889675"><ele>366.0</ele><time>2026-04-18T14:39:14.241Z</time></trkpt><trkpt lat="45.7942482" lon="8.888855"><ele>365.3333333333333</ele><time>2026-04-18T14:39:15.241Z</time></trkpt><trkpt lat="45.7942109" lon="8.8887683"><ele>364.6666666666667</ele><time>2026-04-18T14:39:16.241Z</time></trkpt><trkpt lat="45.7941416" lon="8.8887372"><ele>364.0</ele><time>2026-04-18T14:39:17.241Z</time></trkpt><trkpt lat="45.7940653" lon="8.8887504"><ele>363.33333333333337</ele><time>2026-04-18T14:39:18.241Z</time></trkpt><trkpt lat="45.7939788" lon="8.8887902"><ele>362.6666666666667</ele><time>2026-04-18T14:39:19.241Z</time></trkpt><trkpt lat="45.7938822" lon="8.8888388"><ele>362.0</ele><time>2026-04-18T14:39:20.243Z</time></trkpt><trkpt lat="45.7937779" lon="8.8888989"><ele>362.0</ele><time>2026-04-18T14:39:21.241Z</time></trkpt><trkpt lat="45.7936645" lon="8.8889684"><ele>362.0</ele><time>2026-04-18T14:39:22.24Z</time></trkpt><trkpt lat="45.7935447" lon="8.8890465"><ele>362.0</ele><time>2026-04-18T14:39:23.24Z</time></trkpt><trkpt lat="45.7934226" lon="8.8891292"><ele>362.0</ele><time>2026-04-18T14:39:24.241Z</time></trkpt><trkpt lat="45.7933072" lon="8.889213"><ele>361.8</ele><time>2026-04-18T14:39:25.24Z</time></trkpt><trkpt lat="45.7931979" lon="8.8892927"><ele>361.6</ele><time>2026-04-18T14:39:26.24Z</time></trkpt><trkpt lat="45.7930978" lon="8.8893688"><ele>361.40000000000003</ele><time>2026-04-18T14:39:27.24Z</time></trkpt><trkpt lat="45.793005" lon="8.8894392"><ele>361.20000000000005</ele><time>2026-04-18T14:39:28.24Z</time></trkpt><trkpt lat="45.7929267" lon="8.8894918"><ele>361.0</ele><time>2026-04-18T14:39:29.24Z</time></trkpt><trkpt lat="45.7928524" lon="8.8895389"><ele>361.0</ele><time>2026-04-18T14:39:30.24Z</time></trkpt><trkpt lat="45.7927728" lon="8.8895882"><ele>361.0</ele><time>2026-04-18T14:39:31.241Z</time></trkpt><trkpt lat="45.7926802" lon="8.8896395"><ele>361.0</ele><time>2026-04-18T14:39:32.24Z</time></trkpt><trkpt lat="45.7925785" lon="8.8896954"><ele>361.0</ele><time>2026-04-18T14:39:33.24Z</time></trkpt><trkpt lat="45.7924699" lon="8.8897542"><ele>361.0</ele><time>2026-04-18T14:39:34.241Z</time></trkpt><trkpt lat="45.7923584" lon="8.8898213"><ele>361.25</ele><time>2026-04-18T14:39:35.24Z</time></trkpt><trkpt lat="45.7922508" lon="8.8899049"><ele>361.5</ele><time>2026-04-18T14:39:36.24Z</time></trkpt><trkpt lat="45.7921488" lon="8.8900091"><ele>361.75</ele><time>2026-04-18T14:39:37.24Z</time></trkpt><trkpt lat="45.7920567" lon="8.8901177"><ele>362.0</ele><time>2026-04-18T14:39:38.24Z</time></trkpt><trkpt lat="45.7919803" lon="8.8902211"><ele>362.0</ele><time>2026-04-18T14:39:39.241Z</time></trkpt><trkpt lat="45.7919149" lon="8.8903093"><ele>362.0</ele><time>2026-04-18T14:39:40.24Z</time></trkpt><trkpt lat="45.7918579" lon="8.8903624"><ele>362.0</ele><time>2026-04-18T14:39:41.24Z</time></trkpt><trkpt lat="45.7917767" lon="8.8903781"><ele>362.0</ele><time>2026-04-18T14:39:43.241Z</time></trkpt><trkpt lat="45.791743" lon="8.8902878"><ele>362.0</ele><time>2026-04-18T14:39:45.24Z</time></trkpt><trkpt lat="45.7917595" lon="8.8901023"><ele>362.0</ele><time>2026-04-18T14:39:47.242Z</time></trkpt><trkpt lat="45.7917615" lon="8.8899826"><ele>361.33333333333337</ele><time>2026-04-18T14:39:48.24Z</time></trkpt><trkpt lat="45.7917588" lon="8.8898591"><ele>360.6666666666667</ele><time>2026-04-18T14:39:49.24Z</time></trkpt><trkpt lat="45.7917477" lon="8.8897302"><ele>360.0</ele><time>2026-04-18T14:39:50.24Z</time></trkpt><trkpt lat="45.7917355" lon="8.889621"><ele>359.3333333333333</ele><time>2026-04-18T14:39:51.241Z</time></trkpt><trkpt lat="45.7917074" lon="8.8894908"><ele>358.66666666666663</ele><time>2026-04-18T14:39:53.241Z</time></trkpt><trkpt lat="45.7916942" lon="8.8894025"><ele>358.0</ele><time>2026-04-18T14:39:57.24Z</time></trkpt><trkpt lat="45.7916848" lon="8.8893118"><ele>357.79999999999995</ele><time>2026-04-18T14:40:00.24Z</time></trkpt><trkpt lat="45.7916637" lon="8.889184"><ele>357.6</ele><time>2026-04-18T14:40:08.24Z</time></trkpt><trkpt lat="45.7916617" lon="8.8890284"><ele>357.4</ele><time>2026-04-18T14:40:10.24Z</time></trkpt><trkpt lat="45.7915822" lon="8.8889878"><ele>357.20000000000005</ele><time>2026-04-18T14:40:12.241Z</time></trkpt><trkpt lat="45.7915166" lon="8.889119"><ele>357.0</ele><time>2026-04-18T14:40:14.241Z</time></trkpt><trkpt lat="45.7914652" lon="8.8892151"><ele>357.25</ele><time>2026-04-18T14:40:15.241Z</time></trkpt><trkpt lat="45.7913911" lon="8.8893113"><ele>357.5</ele><time>2026-04-18T14:40:16.24Z</time></trkpt><trkpt lat="45.7913065" lon="8.88941"><ele>357.75</ele><time>2026-04-18T14:40:17.241Z</time></trkpt><trkpt lat="45.7912168" lon="8.8895252"><ele>358.0</ele><time>2026-04-18T14:40:18.24Z</time></trkpt><trkpt lat="45.7911198" lon="8.8896402"><ele>358.0</ele><time>2026-04-18T14:40:19.242Z</time></trkpt><trkpt lat="45.7910179" lon="8.8897624"><ele>358.0</ele><time>2026-04-18T14:40:20.241Z</time></trkpt><trkpt lat="45.7909114" lon="8.8898904"><ele>358.0</ele><time>2026-04-18T14:40:21.24Z</time></trkpt><trkpt lat="45.7907999" lon="8.8900109"><ele>358.0</ele><time>2026-04-18T14:40:22.241Z</time></trkpt><trkpt lat="45.7906861" lon="8.8901325"><ele>357.5</ele><time>2026-04-18T14:40:23.241Z</time></trkpt><trkpt lat="45.7905702" lon="8.8902438"><ele>357.0</ele><time>2026-04-18T14:40:24.24Z</time></trkpt><trkpt lat="45.7904666" lon="8.8903467"><ele>356.5</ele><time>2026-04-18T14:40:25.24Z</time></trkpt><trkpt lat="45.7903743" lon="8.8904416"><ele>356.0</ele><time>2026-04-18T14:40:26.24Z</time></trkpt><trkpt lat="45.7902965" lon="8.8905167"><ele>356.0</ele><time>2026-04-18T14:40:27.24Z</time></trkpt><trkpt lat="45.7902333" lon="8.8905683"><ele>356.0</ele><time>2026-04-18T14:40:28.241Z</time></trkpt><trkpt lat="45.7901465" lon="8.8905912"><ele>356.0</ele><time>2026-04-18T14:40:32.242Z</time></trkpt><trkpt lat="45.7900404" lon="8.8905697"><ele>356.0</ele><time>2026-04-18T14:40:34.241Z</time></trkpt><trkpt lat="45.7899732" lon="8.8905258"><ele>356.0</ele><time>2026-04-18T14:40:35.24Z</time></trkpt><trkpt lat="45.7899066" lon="8.8904668"><ele>356.0</ele><time>2026-04-18T14:40:36.24Z</time></trkpt><trkpt lat="45.7898493" lon="8.8903899"><ele>356.0</ele><time>2026-04-18T14:40:37.24Z</time></trkpt><trkpt lat="45.789798" lon="8.8903059"><ele>356.0</ele><time>2026-04-18T14:40:38.24Z</time></trkpt><trkpt lat="45.7897422" lon="8.890212"><ele>356.0</ele><time>2026-04-18T14:40:39.24Z</time></trkpt><trkpt lat="45.78969" lon="8.8901111"><ele>356.0</ele><time>2026-04-18T14:40:40.241Z</time></trkpt><trkpt lat="45.7896406" lon="8.8899975"><ele>356.0</ele><time>2026-04-18T14:40:41.24Z</time></trkpt><trkpt lat="45.7895952" lon="8.8898749"><ele>356.0</ele><time>2026-04-18T14:40:42.241Z</time></trkpt><trkpt lat="45.7895493" lon="8.8897464"><ele>355.75</ele><time>2026-04-18T14:40:43.24Z</time></trkpt><trkpt lat="45.7895014" lon="8.8896082"><ele>355.5</ele><time>2026-04-18T14:40:44.241Z</time></trkpt><trkpt lat="45.7894543" lon="8.8894679"><ele>355.25</ele><time>2026-04-18T14:40:45.241Z</time></trkpt><trkpt lat="45.7894043" lon="8.8893203"><ele>355.0</ele><time>2026-04-18T14:40:46.24Z</time></trkpt><trkpt lat="45.7893521" lon="8.8891669"><ele>354.75</ele><time>2026-04-18T14:40:47.241Z</time></trkpt><trkpt lat="45.789299" lon="8.8890111"><ele>354.5</ele><time>2026-04-18T14:40:48.242Z</time></trkpt><trkpt lat="45.7892452" lon="8.8888484"><ele>354.25</ele><time>2026-04-18T14:40:49.24Z</time></trkpt><trkpt lat="45.7891864" lon="8.8886747"><ele>354.0</ele><time>2026-04-18T14:40:50.24Z</time></trkpt><trkpt lat="45.7891305" lon="8.8884928"><ele>354.0</ele><time>2026-04-18T14:40:51.241Z</time></trkpt><trkpt lat="45.7890751" lon="8.8883072"><ele>354.0</ele><time>2026-04-18T14:40:52.241Z</time></trkpt><trkpt lat="45.7890224" lon="8.8881192"><ele>354.0</ele><time>2026-04-18T14:40:53.241Z</time></trkpt><trkpt lat="45.7889691" lon="8.8879256"><ele>354.0</ele><time>2026-04-18T14:40:54.24Z</time></trkpt><trkpt lat="45.7889201" lon="8.8877398"><ele>354.0</ele><time>2026-04-18T14:40:55.241Z</time></trkpt><trkpt lat="45.7888678" lon="8.8875543"><ele>354.0</ele><time>2026-04-18T14:40:56.24Z</time></trkpt><trkpt lat="45.7888216" lon="8.8873715"><ele>354.0</ele><time>2026-04-18T14:40:57.24Z</time></trkpt><trkpt lat="45.7887727" lon="8.8871908"><ele>354.0</ele><time>2026-04-18T14:40:58.24Z</time></trkpt><trkpt lat="45.7887276" lon="8.8870148"><ele>354.0</ele><time>2026-04-18T14:40:59.24Z</time></trkpt><trkpt lat="45.7886852" lon="8.8868405"><ele>354.0</ele><time>2026-04-18T14:41:00.24Z</time></trkpt><trkpt lat="45.7886458" lon="8.8866696"><ele>354.0</ele><time>2026-04-18T14:41:01.24Z</time></trkpt><trkpt lat="45.7886059" lon="8.8864957"><ele>354.0</ele><time>2026-04-18T14:41:02.24Z</time></trkpt><trkpt lat="45.7885659" lon="8.8863203"><ele>354.0</ele><time>2026-04-18T14:41:03.241Z</time></trkpt><trkpt lat="45.7885217" lon="8.8861447"><ele>354.0</ele><time>2026-04-18T14:41:04.241Z</time></trkpt><trkpt lat="45.7884799" lon="8.8859784"><ele>354.0</ele><time>2026-04-18T14:41:05.24Z</time></trkpt><trkpt lat="45.7884385" lon="8.885815"><ele>354.0</ele><time>2026-04-18T14:41:06.24Z</time></trkpt><trkpt lat="45.7884047" lon="8.885658"><ele>354.0</ele><time>2026-04-18T14:41:07.241Z</time></trkpt><trkpt lat="45.7883698" lon="8.8855003"><ele>354.0</ele><time>2026-04-18T14:41:08.24Z</time></trkpt><trkpt lat="45.7883326" lon="8.8853523"><ele>354.0</ele><time>2026-04-18T14:41:09.24Z</time></trkpt><trkpt lat="45.7883003" lon="8.8852083"><ele>354.0</ele><time>2026-04-18T14:41:10.241Z</time></trkpt><trkpt lat="45.7882697" lon="8.8850854"><ele>354.0</ele><time>2026-04-18T14:41:11.241Z</time></trkpt><trkpt lat="45.7882426" lon="8.8849703"><ele>354.0</ele><time>2026-04-18T14:41:12.24Z</time></trkpt><trkpt lat="45.7882155" lon="8.8848614"><ele>354.0</ele><time>2026-04-18T14:41:13.24Z</time></trkpt><trkpt lat="45.7881981" lon="8.8847534"><ele>354.0</ele><time>2026-04-18T14:41:14.24Z</time></trkpt><trkpt lat="45.7881907" lon="8.8846283"><ele>354.0</ele><time>2026-04-18T14:41:15.24Z</time></trkpt><trkpt lat="45.788192" lon="8.8844934"><ele>354.0</ele><time>2026-04-18T14:41:16.24Z</time></trkpt><trkpt lat="45.7881868" lon="8.8843585"><ele>354.0</ele><time>2026-04-18T14:41:17.24Z</time></trkpt><trkpt lat="45.788144" lon="8.8842382"><ele>354.0</ele><time>2026-04-18T14:41:18.241Z</time></trkpt><trkpt lat="45.7880819" lon="8.8841236"><ele>354.0</ele><time>2026-04-18T14:41:19.24Z</time></trkpt><trkpt lat="45.7880219" lon="8.8839872"><ele>354.0</ele><time>2026-04-18T14:41:20.24Z</time></trkpt><trkpt lat="45.7879723" lon="8.8838313"><ele>354.0</ele><time>2026-04-18T14:41:21.241Z</time></trkpt><trkpt lat="45.7879261" lon="8.8836678"><ele>354.0</ele><time>2026-04-18T14:41:22.241Z</time></trkpt><trkpt lat="45.7878834" lon="8.8834977"><ele>354.0</ele><time>2026-04-18T14:41:23.241Z</time></trkpt><trkpt lat="45.7878433" lon="8.8833463"><ele>354.0</ele><time>2026-04-18T14:41:24.24Z</time></trkpt><trkpt lat="45.7878104" lon="8.8832166"><ele>354.0</ele><time>2026-04-18T14:41:25.241Z</time></trkpt><trkpt lat="45.7877868" lon="8.8831073"><ele>354.0</ele><time>2026-04-18T14:41:26.24Z</time></trkpt><trkpt lat="45.7877471" lon="8.8829555"><ele>354.0</ele><time>2026-04-18T14:41:28.241Z</time></trkpt><trkpt lat="45.7877206" lon="8.8828448"><ele>354.0</ele><time>2026-04-18T14:41:30.24Z</time></trkpt><trkpt lat="45.787692" lon="8.8827041"><ele>354.0</ele><time>2026-04-18T14:41:32.241Z</time></trkpt><trkpt lat="45.7876632" lon="8.8826081"><ele>354.0</ele><time>2026-04-18T14:41:33.241Z</time></trkpt><trkpt lat="45.787633" lon="8.8824994"><ele>354.0</ele><time>2026-04-18T14:41:34.24Z</time></trkpt><trkpt lat="45.7876012" lon="8.8823739"><ele>354.0</ele><time>2026-04-18T14:41:35.24Z</time></trkpt><trkpt lat="45.7875704" lon="8.8822354"><ele>354.0</ele><time>2026-04-18T14:41:36.241Z</time></trkpt><trkpt lat="45.7875373" lon="8.882077"><ele>354.0</ele><time>2026-04-18T14:41:37.241Z</time></trkpt><trkpt lat="45.7874937" lon="8.8818994"><ele>354.0</ele><time>2026-04-18T14:41:38.241Z</time></trkpt><trkpt lat="45.7874328" lon="8.8817068"><ele>354.0</ele><time>2026-04-18T14:41:39.24Z</time></trkpt><trkpt lat="45.7873614" lon="8.8814976"><ele>354.0</ele><time>2026-04-18T14:41:40.24Z</time></trkpt><trkpt lat="45.7872949" lon="8.8812719"><ele>354.0</ele><time>2026-04-18T14:41:41.24Z</time></trkpt><trkpt lat="45.7872305" lon="8.8810363"><ele>354.0</ele><time>2026-04-18T14:41:42.24Z</time></trkpt><trkpt lat="45.7871703" lon="8.8807907"><ele>354.0</ele><time>2026-04-18T14:41:43.24Z</time></trkpt><trkpt lat="45.7871149" lon="8.8805401"><ele>354.0</ele><time>2026-04-18T14:41:44.241Z</time></trkpt><trkpt lat="45.7870679" lon="8.8802857"><ele>354.0</ele><time>2026-04-18T14:41:45.24Z</time></trkpt><trkpt lat="45.7870211" lon="8.8800419"><ele>354.75</ele><time>2026-04-18T14:41:46.24Z</time></trkpt><trkpt lat="45.7869812" lon="8.8798199"><ele>355.5</ele><time>2026-04-18T14:41:47.24Z</time></trkpt><trkpt lat="45.7869456" lon="8.8796174"><ele>356.25</ele><time>2026-04-18T14:41:48.24Z</time></trkpt><trkpt lat="45.7869139" lon="8.8794303"><ele>357.0</ele><time>2026-04-18T14:41:49.24Z</time></trkpt><trkpt lat="45.7868851" lon="8.8792729"><ele>357.0</ele><time>2026-04-18T14:41:50.24Z</time></trkpt><trkpt lat="45.7868728" lon="8.8791464"><ele>357.0</ele><time>2026-04-18T14:41:51.24Z</time></trkpt><trkpt lat="45.7868867" lon="8.8790349"><ele>357.0</ele><time>2026-04-18T14:41:52.24Z</time></trkpt><trkpt lat="45.7869279" lon="8.8789333"><ele>357.0</ele><time>2026-04-18T14:41:53.24Z</time></trkpt><trkpt lat="45.7869992" lon="8.8788658"><ele>357.0</ele><time>2026-04-18T14:41:54.24Z</time></trkpt><trkpt lat="45.7870885" lon="8.8788139"><ele>357.0</ele><time>2026-04-18T14:41:55.24Z</time></trkpt><trkpt lat="45.7871637" lon="8.8788226"><ele>357.0</ele><time>2026-04-18T14:41:56.241Z</time></trkpt><trkpt lat="45.7872449" lon="8.8787401"><ele>357.0</ele><time>2026-04-18T14:41:58.24Z</time></trkpt><trkpt lat="45.7872357" lon="8.8785451"><ele>357.0</ele><time>2026-04-18T14:42:00.241Z</time></trkpt><trkpt lat="45.7872234" lon="8.8784049"><ele>357.0</ele><time>2026-04-18T14:42:01.241Z</time></trkpt><trkpt lat="45.7872137" lon="8.8782246"><ele>356.25</ele><time>2026-04-18T14:42:02.24Z</time></trkpt><trkpt lat="45.7871972" lon="8.878049"><ele>355.5</ele><time>2026-04-18T14:42:03.24Z</time></trkpt><trkpt lat="45.7871834" lon="8.8778439"><ele>354.75</ele><time>2026-04-18T14:42:04.24Z</time></trkpt><trkpt lat="45.7871683" lon="8.8776447"><ele>354.0</ele><time>2026-04-18T14:42:05.241Z</time></trkpt><trkpt lat="45.7871399" lon="8.8774354"><ele>354.0</ele><time>2026-04-18T14:42:06.24Z</time></trkpt><trkpt lat="45.7871365" lon="8.877188"><ele>354.0</ele><time>2026-04-18T14:42:07.241Z</time></trkpt><trkpt lat="45.7871205" lon="8.8769587"><ele>354.0</ele><time>2026-04-18T14:42:08.24Z</time></trkpt><trkpt lat="45.7870993" lon="8.8767265"><ele>354.0</ele><time>2026-04-18T14:42:09.241Z</time></trkpt><trkpt lat="45.7870851" lon="8.8765081"><ele>354.0</ele><time>2026-04-18T14:42:10.24Z</time></trkpt><trkpt lat="45.7870683" lon="8.8762984"><ele>354.0</ele><time>2026-04-18T14:42:11.241Z</time></trkpt><trkpt lat="45.7870534" lon="8.8760935"><ele>354.0</ele><time>2026-04-18T14:42:12.241Z</time></trkpt><trkpt lat="45.7870359" lon="8.8758965"><ele>353.75</ele><time>2026-04-18T14:42:13.241Z</time></trkpt><trkpt lat="45.787011" lon="8.8757063"><ele>353.5</ele><time>2026-04-18T14:42:14.24Z</time></trkpt><trkpt lat="45.7869877" lon="8.8755289"><ele>353.25</ele><time>2026-04-18T14:42:15.24Z</time></trkpt><trkpt lat="45.7869638" lon="8.8753835"><ele>353.0</ele><time>2026-04-18T14:42:16.242Z</time></trkpt><trkpt lat="45.7869482" lon="8.8752627"><ele>353.0</ele><time>2026-04-18T14:42:17.24Z</time></trkpt><trkpt lat="45.7869481" lon="8.875165"><ele>353.0</ele><time>2026-04-18T14:42:18.239Z</time></trkpt><trkpt lat="45.7870149" lon="8.8750328"><ele>353.0</ele><time>2026-04-18T14:42:20.239Z</time></trkpt><trkpt lat="45.787079" lon="8.8750038"><ele>353.0</ele><time>2026-04-18T14:42:21.239Z</time></trkpt><trkpt lat="45.7871624" lon="8.8749873"><ele>353.0</ele><time>2026-04-18T14:42:22.239Z</time></trkpt><trkpt lat="45.7872528" lon="8.8749644"><ele>353.0</ele><time>2026-04-18T14:42:23.24Z</time></trkpt><trkpt lat="45.7873489" lon="8.8749309"><ele>352.79999999999995</ele><time>2026-04-18T14:42:24.239Z</time></trkpt><trkpt lat="45.7874495" lon="8.8749025"><ele>352.6</ele><time>2026-04-18T14:42:25.24Z</time></trkpt><trkpt lat="45.7875549" lon="8.8748734"><ele>352.4</ele><time>2026-04-18T14:42:26.239Z</time></trkpt><trkpt lat="45.787653" lon="8.8748433"><ele>352.20000000000005</ele><time>2026-04-18T14:42:27.239Z</time></trkpt><trkpt lat="45.7877449" lon="8.874824"><ele>352.0</ele><time>2026-04-18T14:42:28.239Z</time></trkpt><trkpt lat="45.7878295" lon="8.8748096"><ele>352.0</ele><time>2026-04-18T14:42:29.239Z</time></trkpt><trkpt lat="45.7879165" lon="8.8747902"><ele>352.0</ele><time>2026-04-18T14:42:30.239Z</time></trkpt><trkpt lat="45.7879994" lon="8.8747681"><ele>352.0</ele><time>2026-04-18T14:42:31.24Z</time></trkpt><trkpt lat="45.7880626" lon="8.8747484"><ele>352.0</ele><time>2026-04-18T14:42:32.239Z</time></trkpt><trkpt lat="45.7881413" lon="8.8747417"><ele>352.0</ele><time>2026-04-18T14:42:34.239Z</time></trkpt><trkpt lat="45.7881782" lon="8.8748268"><ele>352.0</ele><time>2026-04-18T14:42:36.239Z</time></trkpt><trkpt lat="45.7881737" lon="8.8749576"><ele>352.0</ele><time>2026-04-18T14:42:38.24Z</time></trkpt><trkpt lat="45.7882053" lon="8.8751258"><ele>356.0</ele><time>2026-04-18T14:42:40.239Z</time></trkpt><trkpt lat="45.7882114" lon="8.8752252"><ele>356.0</ele><time>2026-04-18T14:42:41.239Z</time></trkpt></trkseg></trk></gpx>